GFSGL_prec_precacc_027.txt.gz
Total_Precipitation_Accumulation
0.00 0.00 0.00 0.00 0.00 0.00 0.00 0.00 0.00 0.00 0.00 0.01 0.00 0.00 0.00 0.00 0.01 0.03 0.05 0.05 0.05 0.04 0.02 0.03 0.03 0.02 0.02 0.02 0.01 0.00 0.01 0.02 0.03 0.00 0.00 0.00 0.00 0.00 0.00 0.00 0.01 0.03 0.06
0.00 0.00 0.00 0.00 0.00 0.00 0.00 0.00 0.00 0.01 0.02 0.01 0.00 0.01 0.02 0.04 0.06 0.07 0.04 0.02 0.01 0.01 0.01 0.02 0.01 0.00 0.00 0.00 0.00 0.00 0.00 0.00 0.00 0.00 0.00 0.00 0.00 0.00 0.00 0.00 0.00 0.00 0.01
0.00 0.00 0.00 0.00 0.00 0.00 0.01 0.01 0.01 0.01 0.02 0.02 0.02 0.03 0.03 0.04 0.04 0.01 0.01 0.00 0.00 0.01 0.00 0.00 0.00 0.00 0.00 0.00 0.00 0.00 0.00 0.00 0.01 0.03 0.01 0.00 0.00 0.00 0.01 0.01 0.01 0.00 0.00
0.00 0.00 0.00 0.00 0.01 0.00 0.01 0.01 0.02 0.03 0.02 0.00 0.00 0.00 0.01 0.00 0.00 0.00 0.00 0.00 0.01 0.00 0.00 0.00 0.00 0.00 0.00 0.00 0.00 0.00 0.01 0.02 0.02 0.03 0.03 0.02 0.02 0.01 0.02 0.03 0.03 0.02 0.02
0.00 0.00 0.00 0.01 0.01 0.03 0.04 0.03 0.03 0.02 0.01 0.01 0.00 0.00 0.00 0.00 0.00 0.00 0.00 0.00 0.00 0.00 0.00 0.00 0.00 0.00 0.00 0.00 0.01 0.01 0.03 0.05 0.05 0.06 0.04 0.03 0.02 0.02 0.04 0.05 0.06 0.04 0.02
0.00 0.00 0.01 0.01 0.03 0.04 0.02 0.02 0.01 0.02 0.01 0.00 0.00 0.00 0.00 0.00 0.00 0.00 0.00 0.00 0.00 0.00 0.00 0.00 0.00 0.00 0.00 0.00 0.01 0.02 0.03 0.09 0.15 0.10 0.07 0.06 0.04 0.04 0.05 0.06 0.08 0.06 0.04
0.00 0.00 0.01 0.03 0.03 0.02 0.02 0.02 0.02 0.03 0.03 0.01 0.00 0.00 0.00 0.00 0.00 0.00 0.00 0.00 0.00 0.00 0.00 0.00 0.00 0.00 0.00 0.00 0.00 0.01 0.02 0.03 0.09 0.12 0.13 0.07 0.07 0.06 0.07 0.09 0.11 0.11 0.07
0.00 0.00 0.01 0.02 0.02 0.04 0.06 0.03 0.07 0.05 0.00 0.00 0.00 0.00 0.00 0.00 0.00 0.00 0.00 0.00 0.00 0.00 0.00 0.00 0.00 0.00 0.01 0.02 0.10 0.07 0.02 0.01 0.01 0.03 0.07 0.06 0.05 0.04 0.06 0.08 0.08 0.08 0.05
0.00 0.00 0.01 0.02 0.02 0.01 0.03 0.06 0.02 0.00 0.00 0.00 0.00 0.00 0.00 0.00 0.00 0.00 0.00 0.00 0.00 0.00 0.00 0.00 0.01 0.01 0.02 0.08 0.10 0.06 0.03 0.01 0.01 0.02 0.04 0.07 0.10 0.09 0.09 0.18 0.15 0.16 0.12
0.00 0.00 0.00 0.00 0.02 0.03 0.02 0.00 0.00 0.00 0.00 0.00 0.00 0.00 0.00 0.00 0.01 0.00 0.00 0.01 0.01 0.02 0.02 0.01 0.01 0.05 0.12 0.09 0.14 0.12 0.10 0.04 0.02 0.03 0.02 0.03 0.04 0.04 0.02 0.06 0.09 0.16 0.15
0.00 0.00 0.01 0.01 0.00 0.00 0.00 0.00 0.00 0.00 0.00 0.00 0.00 0.00 0.00 0.01 0.01 0.00 0.01 0.02 0.05 0.07 0.02 0.02 0.05 0.21 0.12 0.09 0.08 0.10 0.13 0.07 0.04 0.03 0.03 0.03 0.03 0.04 0.06 0.09 0.10 0.10 0.08
0.01 0.01 0.01 0.00 0.00 0.00 0.00 0.00 0.00 0.00 0.00 0.00 0.00 0.01 0.01 0.01 0.00 0.00 0.00 0.02 0.04 0.08 0.06 0.10 0.16 0.09 0.05 0.04 0.07 0.10 0.06 0.03 0.06 0.08 0.09 0.07 0.08 0.07 0.06 0.08 0.13 0.12 0.08
0.00 0.00 0.00 0.00 0.00 0.00 0.00 0.00 0.00 0.00 0.00 0.00 0.00 0.01 0.01 0.01 0.01 0.00 0.01 0.01 0.02 0.06 0.08 0.10 0.09 0.05 0.03 0.04 0.09 0.07 0.05 0.10 0.14 0.13 0.11 0.09 0.11 0.11 0.11 0.15 0.13 0.14 0.12
0.00 0.00 0.00 0.00 0.00 0.00 0.00 0.00 0.00 0.00 0.00 0.00 0.00 0.00 0.01 0.01 0.01 0.01 0.01 0.01 0.03 0.04 0.02 0.08 0.07 0.03 0.05 0.11 0.07 0.06 0.09 0.10 0.09 0.12 0.09 0.07 0.08 0.09 0.15 0.20 0.23 0.23 0.29
0.00 0.00 0.00 0.01 0.00 0.00 0.00 0.00 0.00 0.00 0.00 0.00 0.00 0.01 0.01 0.01 0.01 0.02 0.04 0.05 0.07 0.05 0.05 0.06 0.05 0.05 0.06 0.06 0.03 0.03 0.04 0.03 0.04 0.06 0.07 0.06 0.07 0.08 0.10 0.13 0.21 0.23 0.28
0.00 0.00 0.02 0.02 0.01 0.01 0.00 0.00 0.00 0.00 0.00 0.00 0.00 0.00 0.00 0.01 0.00 0.01 0.02 0.03 0.04 0.03 0.05 0.05 0.07 0.07 0.07 0.07 0.05 0.03 0.03 0.05 0.04 0.05 0.06 0.06 0.07 0.08 0.08 0.07 0.10 0.10 0.11
0.00 0.01 0.02 0.03 0.02 0.01 0.01 0.01 0.01 0.01 0.00 0.00 0.00 0.00 0.00 0.00 0.00 0.01 0.01 0.01 0.03 0.02 0.03 0.05 0.06 0.05 0.02 0.01 0.01 0.02 0.04 0.06 0.03 0.04 0.07 0.06 0.07 0.06 0.05 0.04 0.05 0.06 0.06
0.00 0.01 0.02 0.03 0.03 0.02 0.02 0.03 0.04 0.04 0.04 0.03 0.01 0.00 0.00 0.00 0.00 0.01 0.01 0.01 0.02 0.02 0.02 0.03 0.03 0.02 0.00 0.01 0.01 0.01 0.03 0.04 0.02 0.03 0.05 0.06 0.05 0.06 0.05 0.04 0.04 0.04 0.04
0.00 0.01 0.02 0.03 0.03 0.02 0.03 0.04 0.04 0.04 0.04 0.02 0.01 0.00 0.00 0.00 0.01 0.01 0.02 0.03 0.02 0.02 0.01 0.01 0.00 0.01 0.01 0.01 0.01 0.01 0.03 0.03 0.02 0.02 0.03 0.05 0.05 0.05 0.05 0.04 0.03 0.01 0.01
0.01 0.02 0.02 0.03 0.03 0.03 0.03 0.04 0.03 0.04 0.04 0.03 0.02 0.01 0.00 0.01 0.02 0.02 0.03 0.02 0.01 0.01 0.01 0.00 0.00 0.01 0.01 0.01 0.01 0.01 0.01 0.01 0.01 0.01 0.01 0.03 0.04 0.05 0.06 0.05 0.02 0.02 0.01
0.01 0.02 0.02 0.03 0.02 0.02 0.03 0.04 0.04 0.04 0.05 0.03 0.02 0.01 0.00 0.01 0.02 0.02 0.02 0.03 0.02 0.01 0.01 0.01 0.01 0.01 0.01 0.01 0.01 0.01 0.01 0.01 0.01 0.01 0.01 0.02 0.03 0.02 0.03 0.04 0.02 0.01 0.01
0.02 0.02 0.03 0.04 0.04 0.05 0.04 0.04 0.04 0.04 0.04 0.04 0.03 0.01 0.00 0.01 0.02 0.02 0.02 0.02 0.02 0.01 0.01 0.01 0.01 0.01 0.01 0.01 0.01 0.01 0.01 0.01 0.00 0.01 0.01 0.01 0.01 0.01 0.02 0.02 0.01 0.01 0.01
0.03 0.04 0.05 0.05 0.06 0.06 0.05 0.05 0.06 0.06 0.05 0.04 0.03 0.03 0.02 0.03 0.02 0.02 0.02 0.02 0.01 0.01 0.01 0.01 0.01 0.01 0.01 0.00 0.01 0.00 0.00 0.00 0.00 0.01 0.00 0.01 0.01 0.01 0.02 0.01 0.01 0.01 0.01
0.03 0.05 0.05 0.06 0.06 0.06 0.06 0.06 0.06 0.05 0.04 0.05 0.05 0.05 0.05 0.04 0.03 0.02 0.02 0.02 0.02 0.02 0.02 0.01 0.01 0.00 0.00 0.00 0.00 0.00 0.00 0.00 0.00 0.00 0.00 0.01 0.01 0.00 0.00 0.00 0.01 0.01 0.00
0.05 0.05 0.07 0.09 0.09 0.09 0.08 0.07 0.08 0.08 0.08 0.08 0.08 0.07 0.05 0.05 0.04 0.04 0.04 0.04 0.05 0.04 0.03 0.03 0.02 0.01 0.00 0.00 0.00 0.00 0.00 0.00 0.00 0.00 0.00 0.00 0.00 0.00 0.00 0.00 0.00 0.00 0.00
0.08 0.10 0.11 0.10 0.12 0.12 0.12 0.11 0.10 0.09 0.10 0.09 0.09 0.08 0.07 0.05 0.05 0.04 0.04 0.05 0.05 0.05 0.04 0.05 0.04 0.02 0.01 0.01 0.00 0.00 0.00 0.00 0.00 0.00 0.00 0.00 0.00 0.00 0.00 0.00 0.00 0.00 0.00

GFSGL_prec_precacc_033.txt.gz
Total_Precipitation_Accumulation
0.00 0.00 0.00 0.00 0.00 0.00 0.00 0.00 0.00 0.00 0.00 0.01 0.00 0.00 0.00 0.00 0.01 0.03 0.05 0.05 0.05 0.05 0.04 0.04 0.04 0.04 0.03 0.03 0.01 0.00 0.01 0.02 0.03 0.00 0.00 0.00 0.00 0.00 0.00 0.00 0.01 0.03 0.06
0.00 0.00 0.00 0.00 0.00 0.00 0.00 0.00 0.00 0.01 0.02 0.01 0.00 0.01 0.02 0.04 0.06 0.07 0.04 0.02 0.02 0.02 0.01 0.02 0.01 0.00 0.00 0.00 0.00 0.00 0.00 0.00 0.00 0.00 0.00 0.00 0.00 0.00 0.00 0.00 0.00 0.00 0.01
0.00 0.00 0.00 0.00 0.00 0.00 0.01 0.01 0.01 0.01 0.02 0.02 0.02 0.03 0.03 0.04 0.04 0.01 0.01 0.00 0.01 0.01 0.01 0.00 0.00 0.00 0.00 0.00 0.00 0.00 0.00 0.00 0.01 0.03 0.01 0.00 0.00 0.00 0.01 0.01 0.01 0.00 0.00
0.00 0.00 0.00 0.00 0.01 0.00 0.01 0.01 0.02 0.03 0.02 0.00 0.00 0.00 0.01 0.00 0.00 0.00 0.00 0.01 0.01 0.00 0.00 0.00 0.00 0.00 0.00 0.00 0.00 0.00 0.01 0.02 0.02 0.03 0.03 0.02 0.02 0.01 0.02 0.03 0.04 0.03 0.02
0.00 0.00 0.00 0.01 0.01 0.03 0.04 0.03 0.03 0.02 0.01 0.01 0.00 0.00 0.00 0.00 0.00 0.00 0.00 0.00 0.00 0.00 0.00 0.00 0.00 0.00 0.00 0.00 0.01 0.01 0.03 0.05 0.05 0.06 0.04 0.04 0.03 0.02 0.04 0.06 0.08 0.04 0.02
0.00 0.00 0.01 0.01 0.03 0.04 0.02 0.02 0.01 0.02 0.01 0.00 0.00 0.00 0.00 0.00 0.00 0.00 0.00 0.00 0.00 0.00 0.00 0.00 0.00 0.00 0.00 0.00 0.01 0.02 0.03 0.09 0.15 0.11 0.08 0.07 0.05 0.06 0.07 0.07 0.09 0.07 0.04
0.00 0.00 0.01 0.03 0.03 0.02 0.02 0.02 0.02 0.03 0.03 0.01 0.00 0.00 0.00 0.00 0.00 0.00 0.00 0.00 0.00 0.00 0.00 0.00 0.00 0.00 0.00 0.00 0.00 0.01 0.02 0.03 0.09 0.12 0.14 0.09 0.09 0.07 0.07 0.09 0.11 0.11 0.08
0.00 0.00 0.01 0.02 0.02 0.04 0.06 0.03 0.07 0.05 0.00 0.00 0.00 0.00 0.00 0.00 0.00 0.00 0.00 0.00 0.00 0.00 0.00 0.00 0.00 0.00 0.01 0.02 0.10 0.07 0.02 0.01 0.01 0.03 0.07 0.06 0.05 0.04 0.06 0.08 0.08 0.08 0.05
0.00 0.00 0.01 0.02 0.02 0.01 0.03 0.06 0.03 0.00 0.00 0.00 0.00 0.00 0.00 0.00 0.00 0.00 0.00 0.00 0.00 0.00 0.00 0.00 0.01 0.01 0.02 0.08 0.10 0.06 0.03 0.01 0.01 0.02 0.04 0.07 0.10 0.09 0.09 0.19 0.17 0.19 0.15
0.00 0.00 0.00 0.01 0.02 0.03 0.04 0.01 0.00 0.00 0.00 0.00 0.00 0.00 0.00 0.00 0.01 0.00 0.00 0.01 0.01 0.02 0.02 0.01 0.01 0.05 0.12 0.09 0.14 0.12 0.10 0.04 0.02 0.03 0.02 0.03 0.04 0.05 0.03 0.08 0.14 0.25 0.21
0.01 0.01 0.03 0.03 0.02 0.01 0.00 0.00 0.00 0.00 0.00 0.00 0.00 0.00 0.00 0.01 0.01 0.00 0.01 0.02 0.05 0.07 0.02 0.02 0.05 0.21 0.12 0.09 0.08 0.10 0.13 0.07 0.04 0.04 0.03 0.03 0.03 0.04 0.06 0.09 0.11 0.13 0.16
0.02 0.03 0.02 0.01 0.00 0.00 0.00 0.00 0.00 0.00 0.00 0.00 0.00 0.01 0.01 0.01 0.00 0.00 0.00 0.02 0.04 0.08 0.06 0.10 0.16 0.09 0.05 0.04 0.07 0.10 0.06 0.03 0.06 0.08 0.10 0.08 0.08 0.08 0.07 0.09 0.14 0.14 0.11
0.01 0.01 0.01 0.00 0.00 0.00 0.00 0.00 0.00 0.00 0.00 0.00 0.00 0.01 0.01 0.01 0.01 0.01 0.01 0.01 0.02 0.06 0.08 0.10 0.09 0.05 0.03 0.04 0.09 0.07 0.05 0.10 0.14 0.13 0.11 0.10 0.11 0.11 0.11 0.15 0.13 0.14 0.12
0.01 0.00 0.00 0.00 0.00 0.00 0.00 0.00 0.00 0.00 0.00 0.00 0.00 0.01 0.01 0.01 0.01 0.02 0.02 0.02 0.03 0.04 0.03 0.08 0.07 0.03 0.05 0.11 0.07 0.06 0.09 0.10 0.09 0.12 0.10 0.08 0.08 0.10 0.15 0.21 0.23 0.23 0.31
0.00 0.00 0.00 0.01 0.00 0.00 0.00 0.00 0.00 0.00 0.00 0.00 0.01 0.01 0.03 0.02 0.01 0.03 0.05 0.06 0.08 0.05 0.05 0.07 0.05 0.05 0.06 0.06 0.03 0.03 0.04 0.03 0.04 0.06 0.07 0.06 0.07 0.08 0.10 0.14 0.22 0.23 0.28
0.00 0.00 0.02 0.02 0.01 0.01 0.00 0.00 0.00 0.00 0.00 0.00 0.00 0.00 0.01 0.01 0.00 0.01 0.02 0.03 0.04 0.03 0.06 0.06 0.07 0.07 0.07 0.07 0.05 0.03 0.03 0.05 0.04 0.05 0.06 0.06 0.07 0.08 0.08 0.07 0.10 0.10 0.11
0.00 0.01 0.02 0.03 0.02 0.01 0.01 0.01 0.02 0.01 0.00 0.00 0.00 0.00 0.00 0.00 0.00 0.01 0.01 0.01 0.03 0.02 0.03 0.05 0.06 0.05 0.03 0.01 0.01 0.02 0.04 0.06 0.03 0.05 0.07 0.07 0.07 0.06 0.05 0.05 0.05 0.06 0.06
0.00 0.01 0.02 0.03 0.03 0.02 0.03 0.03 0.05 0.05 0.04 0.03 0.02 0.00 0.00 0.00 0.00 0.01 0.02 0.03 0.03 0.03 0.03 0.03 0.03 0.02 0.01 0.01 0.01 0.01 0.03 0.04 0.02 0.03 0.05 0.06 0.06 0.06 0.06 0.04 0.04 0.04 0.05
0.00 0.01 0.02 0.03 0.03 0.03 0.03 0.05 0.05 0.05 0.04 0.03 0.02 0.01 0.00 0.00 0.01 0.02 0.05 0.07 0.03 0.02 0.02 0.01 0.01 0.01 0.01 0.01 0.01 0.01 0.03 0.03 0.02 0.02 0.03 0.05 0.06 0.06 0.05 0.04 0.03 0.01 0.01
0.01 0.02 0.03 0.04 0.04 0.05 0.04 0.05 0.04 0.05 0.04 0.04 0.03 0.02 0.02 0.04 0.05 0.04 0.05 0.04 0.02 0.01 0.01 0.01 0.00 0.01 0.01 0.01 0.01 0.02 0.01 0.02 0.02 0.02 0.02 0.03 0.05 0.05 0.06 0.05 0.03 0.02 0.01
0.02 0.02 0.04 0.04 0.04 0.04 0.05 0.05 0.05 0.06 0.06 0.04 0.03 0.02 0.01 0.05 0.06 0.05 0.04 0.05 0.03 0.01 0.01 0.01 0.01 0.01 0.01 0.01 0.01 0.01 0.01 0.01 0.01 0.01 0.01 0.02 0.03 0.02 0.03 0.04 0.02 0.02 0.01
0.03 0.03 0.04 0.06 0.07 0.08 0.07 0.07 0.07 0.06 0.06 0.05 0.03 0.02 0.01 0.04 0.05 0.05 0.05 0.05 0.04 0.02 0.01 0.01 0.01 0.01 0.01 0.01 0.01 0.01 0.01 0.01 0.01 0.01 0.01 0.01 0.01 0.01 0.02 0.02 0.02 0.01 0.01
0.04 0.06 0.07 0.07 0.08 0.08 0.07 0.07 0.09 0.12 0.11 0.06 0.05 0.05 0.06 0.09 0.08 0.06 0.05 0.05 0.06 0.06 0.04 0.04 0.04 0.02 0.01 0.01 0.01 0.00 0.01 0.01 0.00 0.01 0.00 0.01 0.01 0.01 0.02 0.02 0.01 0.01 0.01
0.05 0.07 0.08 0.08 0.10 0.11 0.13 0.16 0.19 0.16 0.09 0.08 0.10 0.11 0.12 0.12 0.14 0.13 0.13 0.13 0.13 0.10 0.08 0.08 0.06 0.04 0.03 0.02 0.02 0.00 0.00 0.00 0.00 0.00 0.00 0.01 0.01 0.00 0.01 0.01 0.01 0.01 0.01
0.09 0.12 0.17 0.20 0.23 0.22 0.20 0.17 0.16 0.16 0.16 0.15 0.13 0.11 0.09 0.08 0.08 0.07 0.07 0.08 0.09 0.09 0.07 0.07 0.06 0.04 0.02 0.03 0.04 0.02 0.00 0.00 0.01 0.00 0.00 0.00 0.00 0.00 0.00 0.00 0.00 0.00 0.00
0.09 0.14 0.16 0.16 0.17 0.18 0.22 0.25 0.26 0.21 0.17 0.13 0.10 0.09 0.08 0.06 0.05 0.04 0.04 0.05 0.06 0.06 0.06 0.07 0.06 0.05 0.04 0.04 0.04 0.06 0.04 0.02 0.03 0.01 0.00 0.00 0.00 0.00 0.00 0.00 0.00 0.00 0.00

GFSGL_prec_precacc_036.txt.gz
Total_Precipitation_Accumulation
0.00 0.00 0.00 0.00 0.00 0.00 0.00 0.00 0.00 0.00 0.00 0.01 0.00 0.00 0.00 0.00 0.01 0.03 0.05 0.05 0.05 0.05 0.04 0.04 0.04 0.04 0.03 0.03 0.01 0.00 0.01 0.02 0.03 0.00 0.00 0.00 0.00 0.00 0.00 0.00 0.01 0.03 0.06
0.00 0.00 0.00 0.00 0.00 0.00 0.00 0.00 0.00 0.01 0.02 0.01 0.00 0.01 0.02 0.04 0.06 0.07 0.04 0.02 0.02 0.02 0.01 0.02 0.01 0.00 0.00 0.00 0.00 0.00 0.00 0.00 0.00 0.00 0.00 0.00 0.00 0.00 0.00 0.00 0.00 0.00 0.01
0.00 0.00 0.00 0.00 0.00 0.00 0.01 0.01 0.01 0.01 0.02 0.02 0.02 0.03 0.03 0.04 0.04 0.01 0.01 0.00 0.01 0.01 0.01 0.00 0.00 0.00 0.00 0.00 0.00 0.00 0.00 0.00 0.01 0.03 0.01 0.00 0.00 0.00 0.01 0.01 0.01 0.00 0.00
0.00 0.00 0.00 0.00 0.01 0.00 0.01 0.01 0.02 0.03 0.02 0.00 0.00 0.00 0.01 0.00 0.00 0.00 0.00 0.01 0.01 0.00 0.00 0.00 0.00 0.00 0.00 0.00 0.00 0.00 0.01 0.02 0.02 0.03 0.03 0.02 0.02 0.01 0.02 0.03 0.04 0.03 0.02
0.01 0.01 0.01 0.01 0.01 0.03 0.04 0.03 0.03 0.02 0.01 0.01 0.00 0.00 0.00 0.00 0.00 0.00 0.00 0.00 0.00 0.00 0.00 0.00 0.00 0.00 0.00 0.00 0.01 0.01 0.03 0.05 0.05 0.06 0.04 0.04 0.03 0.02 0.04 0.06 0.08 0.04 0.02
0.01 0.02 0.02 0.01 0.03 0.04 0.03 0.03 0.01 0.02 0.01 0.00 0.00 0.00 0.00 0.00 0.00 0.00 0.00 0.00 0.00 0.00 0.00 0.00 0.00 0.00 0.00 0.00 0.01 0.02 0.03 0.09 0.15 0.11 0.08 0.07 0.05 0.06 0.07 0.07 0.09 0.07 0.04
0.02 0.01 0.01 0.03 0.03 0.02 0.02 0.02 0.02 0.03 0.03 0.01 0.00 0.00 0.00 0.00 0.00 0.00 0.00 0.00 0.00 0.00 0.00 0.00 0.00 0.00 0.00 0.00 0.00 0.01 0.02 0.03 0.09 0.12 0.14 0.09 0.09 0.07 0.07 0.09 0.11 0.11 0.08
0.01 0.01 0.01 0.02 0.02 0.04 0.06 0.03 0.08 0.06 0.00 0.00 0.00 0.00 0.00 0.00 0.00 0.00 0.00 0.00 0.00 0.00 0.00 0.00 0.00 0.00 0.01 0.02 0.10 0.07 0.02 0.01 0.01 0.03 0.07 0.06 0.05 0.04 0.06 0.08 0.10 0.10 0.05
0.00 0.00 0.01 0.02 0.02 0.02 0.06 0.09 0.04 0.01 0.00 0.00 0.00 0.00 0.00 0.00 0.00 0.00 0.00 0.00 0.00 0.00 0.00 0.00 0.01 0.01 0.02 0.08 0.10 0.06 0.03 0.01 0.01 0.02 0.04 0.07 0.10 0.09 0.09 0.21 0.18 0.19 0.15
0.00 0.00 0.01 0.03 0.08 0.09 0.06 0.02 0.00 0.00 0.00 0.00 0.00 0.00 0.00 0.00 0.01 0.00 0.00 0.01 0.01 0.02 0.02 0.01 0.01 0.05 0.12 0.09 0.14 0.12 0.10 0.04 0.02 0.03 0.02 0.03 0.04 0.05 0.04 0.08 0.14 0.26 0.22
0.02 0.03 0.08 0.10 0.05 0.02 0.00 0.00 0.00 0.00 0.00 0.00 0.00 0.00 0.00 0.01 0.01 0.00 0.01 0.02 0.05 0.07 0.02 0.02 0.05 0.21 0.12 0.09 0.08 0.10 0.13 0.07 0.04 0.04 0.03 0.03 0.03 0.04 0.06 0.09 0.11 0.14 0.16
0.03 0.04 0.04 0.01 0.00 0.00 0.00 0.00 0.00 0.00 0.00 0.00 0.00 0.01 0.01 0.01 0.00 0.00 0.00 0.02 0.04 0.08 0.06 0.10 0.16 0.09 0.05 0.04 0.07 0.10 0.06 0.03 0.06 0.08 0.10 0.08 0.08 0.08 0.07 0.09 0.14 0.14 0.12
0.01 0.01 0.01 0.00 0.00 0.00 0.00 0.00 0.00 0.00 0.00 0.00 0.00 0.01 0.01 0.01 0.01 0.01 0.01 0.01 0.02 0.06 0.08 0.10 0.09 0.05 0.03 0.04 0.09 0.07 0.05 0.10 0.14 0.13 0.11 0.10 0.11 0.11 0.11 0.15 0.13 0.14 0.12
0.01 0.00 0.00 0.00 0.00 0.00 0.00 0.00 0.00 0.00 0.00 0.00 0.00 0.01 0.01 0.01 0.01 0.02 0.02 0.02 0.04 0.05 0.03 0.08 0.07 0.03 0.05 0.11 0.07 0.06 0.09 0.10 0.09 0.12 0.10 0.08 0.08 0.10 0.15 0.21 0.23 0.23 0.31
0.00 0.00 0.00 0.01 0.00 0.00 0.00 0.00 0.00 0.00 0.00 0.00 0.01 0.01 0.03 0.02 0.01 0.03 0.05 0.07 0.10 0.07 0.05 0.07 0.05 0.05 0.06 0.06 0.03 0.03 0.04 0.03 0.04 0.06 0.07 0.06 0.07 0.08 0.10 0.14 0.22 0.23 0.28
0.00 0.00 0.02 0.02 0.01 0.01 0.00 0.00 0.00 0.00 0.00 0.00 0.00 0.00 0.01 0.01 0.00 0.01 0.02 0.03 0.04 0.04 0.08 0.07 0.07 0.07 0.07 0.07 0.05 0.03 0.03 0.05 0.04 0.05 0.06 0.06 0.07 0.08 0.08 0.07 0.10 0.10 0.11
0.00 0.01 0.02 0.03 0.02 0.01 0.01 0.01 0.02 0.01 0.00 0.00 0.00 0.00 0.00 0.00 0.00 0.01 0.01 0.03 0.05 0.07 0.07 0.05 0.06 0.05 0.03 0.01 0.01 0.02 0.04 0.06 0.03 0.05 0.07 0.07 0.07 0.06 0.05 0.05 0.05 0.06 0.06
0.00 0.01 0.02 0.03 0.03 0.02 0.03 0.03 0.05 0.05 0.05 0.04 0.02 0.00 0.00 0.00 0.01 0.01 0.02 0.07 0.09 0.08 0.04 0.03 0.03 0.02 0.01 0.01 0.01 0.01 0.03 0.04 0.02 0.03 0.05 0.06 0.06 0.06 0.06 0.04 0.04 0.04 0.05
0.00 0.01 0.02 0.03 0.03 0.03 0.04 0.06 0.07 0.07 0.06 0.03 0.02 0.01 0.00 0.00 0.01 0.02 0.05 0.12 0.07 0.03 0.03 0.02 0.01 0.01 0.01 0.01 0.01 0.01 0.03 0.03 0.02 0.02 0.03 0.05 0.06 0.06 0.05 0.04 0.03 0.01 0.01
0.01 0.02 0.03 0.04 0.04 0.05 0.05 0.05 0.05 0.06 0.06 0.05 0.04 0.02 0.02 0.05 0.06 0.04 0.05 0.06 0.05 0.03 0.02 0.02 0.01 0.01 0.01 0.01 0.01 0.02 0.02 0.02 0.02 0.02 0.02 0.03 0.05 0.05 0.06 0.05 0.03 0.02 0.01
0.02 0.02 0.04 0.04 0.04 0.04 0.05 0.06 0.06 0.08 0.09 0.07 0.05 0.03 0.02 0.06 0.07 0.05 0.04 0.06 0.05 0.03 0.03 0.03 0.01 0.01 0.01 0.02 0.01 0.01 0.01 0.01 0.01 0.01 0.01 0.02 0.03 0.02 0.03 0.04 0.02 0.02 0.01
0.03 0.03 0.04 0.06 0.07 0.08 0.07 0.08 0.09 0.08 0.08 0.08 0.06 0.04 0.03 0.06 0.05 0.06 0.06 0.05 0.04 0.04 0.04 0.05 0.04 0.01 0.01 0.01 0.01 0.01 0.01 0.01 0.01 0.01 0.01 0.01 0.01 0.01 0.02 0.02 0.02 0.01 0.01
0.04 0.06 0.08 0.08 0.08 0.08 0.07 0.07 0.10 0.13 0.14 0.15 0.14 0.12 0.08 0.10 0.10 0.09 0.08 0.07 0.09 0.12 0.10 0.11 0.09 0.04 0.01 0.01 0.01 0.01 0.01 0.01 0.00 0.01 0.00 0.01 0.01 0.01 0.02 0.02 0.01 0.01 0.01
0.05 0.07 0.08 0.08 0.10 0.12 0.14 0.17 0.20 0.20 0.20 0.20 0.22 0.18 0.16 0.17 0.17 0.16 0.14 0.14 0.16 0.15 0.16 0.18 0.16 0.11 0.06 0.04 0.02 0.01 0.01 0.00 0.00 0.00 0.01 0.02 0.01 0.00 0.01 0.01 0.01 0.01 0.01
0.09 0.13 0.17 0.20 0.23 0.23 0.20 0.18 0.18 0.23 0.28 0.27 0.23 0.18 0.13 0.11 0.10 0.08 0.08 0.08 0.09 0.09 0.08 0.09 0.08 0.07 0.05 0.06 0.06 0.03 0.00 0.00 0.02 0.01 0.02 0.01 0.00 0.00 0.00 0.00 0.00 0.00 0.00
0.09 0.14 0.16 0.16 0.17 0.18 0.22 0.26 0.28 0.26 0.24 0.20 0.17 0.15 0.13 0.10 0.07 0.05 0.05 0.05 0.06 0.06 0.06 0.07 0.06 0.05 0.05 0.05 0.06 0.07 0.05 0.03 0.04 0.03 0.02 0.02 0.01 0.00 0.00 0.00 0.00 0.00 0.00

GFSGL_prec_precacc_039.txt.gz
Total_Precipitation_Accumulation
0.00 0.00 0.01 0.01 0.01 0.00 0.00 0.00 0.00 0.00 0.00 0.01 0.00 0.00 0.00 0.00 0.01 0.03 0.05 0.05 0.05 0.05 0.04 0.04 0.04 0.04 0.03 0.03 0.01 0.00 0.01 0.02 0.03 0.00 0.00 0.00 0.00 0.00 0.00 0.00 0.01 0.03 0.06
0.01 0.01 0.02 0.02 0.01 0.00 0.00 0.00 0.00 0.01 0.02 0.01 0.00 0.01 0.02 0.04 0.06 0.07 0.04 0.02 0.02 0.02 0.01 0.02 0.01 0.00 0.00 0.00 0.00 0.00 0.00 0.00 0.00 0.00 0.00 0.00 0.00 0.00 0.00 0.00 0.00 0.00 0.01
0.03 0.03 0.02 0.01 0.00 0.01 0.01 0.01 0.01 0.01 0.02 0.02 0.02 0.03 0.03 0.04 0.04 0.01 0.01 0.00 0.01 0.01 0.01 0.00 0.00 0.00 0.00 0.00 0.00 0.00 0.00 0.00 0.01 0.03 0.01 0.00 0.00 0.00 0.01 0.01 0.01 0.00 0.00
0.03 0.02 0.02 0.01 0.01 0.01 0.01 0.01 0.02 0.03 0.03 0.01 0.00 0.00 0.01 0.00 0.00 0.00 0.00 0.01 0.01 0.00 0.00 0.00 0.00 0.00 0.00 0.00 0.00 0.00 0.01 0.02 0.02 0.03 0.03 0.02 0.02 0.01 0.02 0.03 0.04 0.03 0.02
0.03 0.03 0.02 0.02 0.01 0.03 0.05 0.04 0.04 0.03 0.01 0.01 0.00 0.00 0.00 0.00 0.00 0.00 0.00 0.00 0.00 0.00 0.00 0.00 0.00 0.00 0.00 0.00 0.01 0.01 0.03 0.05 0.05 0.06 0.04 0.04 0.03 0.02 0.04 0.06 0.08 0.04 0.02
0.03 0.03 0.03 0.02 0.04 0.05 0.03 0.03 0.02 0.02 0.01 0.01 0.02 0.01 0.00 0.00 0.00 0.00 0.00 0.00 0.00 0.00 0.00 0.00 0.00 0.00 0.00 0.00 0.01 0.02 0.03 0.09 0.15 0.11 0.08 0.07 0.05 0.06 0.07 0.07 0.09 0.07 0.05
0.03 0.04 0.03 0.04 0.03 0.02 0.02 0.02 0.02 0.04 0.09 0.07 0.02 0.00 0.00 0.00 0.00 0.00 0.00 0.00 0.00 0.00 0.00 0.00 0.00 0.00 0.00 0.00 0.00 0.01 0.02 0.03 0.09 0.12 0.14 0.09 0.09 0.07 0.07 0.09 0.11 0.12 0.10
0.02 0.02 0.02 0.02 0.02 0.04 0.06 0.04 0.16 0.19 0.06 0.00 0.00 0.00 0.00 0.00 0.00 0.00 0.00 0.00 0.00 0.00 0.00 0.00 0.00 0.00 0.01 0.02 0.10 0.07 0.02 0.01 0.01 0.03 0.07 0.06 0.05 0.04 0.06 0.09 0.12 0.12 0.06
0.00 0.00 0.01 0.02 0.02 0.03 0.13 0.23 0.12 0.01 0.00 0.00 0.00 0.00 0.00 0.00 0.00 0.00 0.00 0.00 0.00 0.00 0.00 0.00 0.01 0.01 0.02 0.08 0.10 0.06 0.03 0.01 0.01 0.02 0.04 0.07 0.10 0.09 0.09 0.21 0.18 0.20 0.15
0.00 0.00 0.01 0.06 0.17 0.23 0.15 0.03 0.00 0.00 0.00 0.00 0.00 0.00 0.00 0.00 0.01 0.00 0.00 0.01 0.01 0.02 0.02 0.01 0.01 0.05 0.12 0.09 0.14 0.12 0.10 0.04 0.02 0.03 0.02 0.03 0.04 0.05 0.04 0.08 0.14 0.26 0.23
0.03 0.07 0.14 0.16 0.10 0.04 0.00 0.00 0.00 0.00 0.00 0.00 0.00 0.00 0.00 0.01 0.01 0.00 0.01 0.02 0.05 0.07 0.02 0.02 0.05 0.21 0.12 0.09 0.08 0.10 0.13 0.07 0.04 0.04 0.03 0.03 0.03 0.04 0.06 0.09 0.11 0.14 0.17
0.03 0.05 0.05 0.01 0.00 0.00 0.00 0.00 0.00 0.00 0.00 0.00 0.00 0.01 0.01 0.01 0.00 0.00 0.00 0.02 0.04 0.08 0.06 0.10 0.16 0.09 0.05 0.04 0.07 0.10 0.06 0.03 0.06 0.08 0.10 0.08 0.08 0.08 0.07 0.09 0.14 0.14 0.12
0.01 0.01 0.01 0.00 0.00 0.00 0.00 0.00 0.00 0.00 0.00 0.00 0.00 0.01 0.01 0.01 0.01 0.01 0.01 0.01 0.02 0.06 0.08 0.10 0.09 0.05 0.03 0.04 0.09 0.07 0.05 0.10 0.14 0.13 0.11 0.10 0.11 0.11 0.11 0.15 0.13 0.14 0.12
0.01 0.00 0.00 0.00 0.00 0.00 0.00 0.00 0.00 0.00 0.00 0.00 0.00 0.01 0.01 0.01 0.01 0.02 0.02 0.02 0.04 0.05 0.03 0.09 0.08 0.05 0.05 0.11 0.07 0.06 0.09 0.10 0.09 0.12 0.10 0.08 0.08 0.10 0.15 0.21 0.23 0.23 0.31
0.00 0.00 0.00 0.01 0.00 0.00 0.00 0.00 0.00 0.00 0.00 0.00 0.01 0.01 0.03 0.02 0.01 0.03 0.05 0.07 0.10 0.07 0.07 0.10 0.07 0.06 0.06 0.06 0.03 0.03 0.04 0.03 0.04 0.06 0.07 0.06 0.07 0.08 0.10 0.14 0.22 0.23 0.28
0.00 0.00 0.02 0.02 0.01 0.01 0.00 0.00 0.00 0.00 0.00 0.00 0.00 0.00 0.01 0.01 0.00 0.01 0.02 0.03 0.04 0.05 0.13 0.10 0.08 0.07 0.08 0.07 0.05 0.03 0.03 0.05 0.04 0.05 0.06 0.06 0.07 0.08 0.08 0.07 0.10 0.10 0.11
0.00 0.01 0.02 0.03 0.02 0.01 0.01 0.01 0.02 0.01 0.00 0.00 0.00 0.00 0.01 0.02 0.03 0.02 0.01 0.03 0.05 0.09 0.13 0.07 0.07 0.06 0.03 0.02 0.01 0.02 0.04 0.06 0.03 0.05 0.07 0.07 0.07 0.06 0.05 0.05 0.05 0.06 0.06
0.00 0.01 0.02 0.03 0.03 0.02 0.03 0.03 0.05 0.06 0.06 0.04 0.02 0.01 0.01 0.01 0.01 0.02 0.02 0.07 0.10 0.09 0.07 0.04 0.03 0.02 0.02 0.02 0.01 0.01 0.03 0.04 0.02 0.03 0.05 0.06 0.06 0.06 0.06 0.04 0.04 0.04 0.05
0.00 0.01 0.02 0.03 0.03 0.03 0.04 0.06 0.07 0.08 0.07 0.04 0.02 0.01 0.01 0.01 0.02 0.05 0.07 0.12 0.07 0.04 0.03 0.03 0.01 0.02 0.03 0.02 0.01 0.01 0.03 0.03 0.02 0.02 0.03 0.05 0.06 0.06 0.05 0.04 0.03 0.01 0.01
0.01 0.02 0.03 0.04 0.04 0.05 0.05 0.05 0.05 0.06 0.06 0.05 0.04 0.03 0.03 0.08 0.11 0.08 0.07 0.06 0.05 0.03 0.02 0.03 0.03 0.03 0.04 0.03 0.01 0.02 0.02 0.02 0.02 0.02 0.02 0.03 0.05 0.05 0.06 0.05 0.03 0.02 0.01
0.02 0.02 0.04 0.04 0.04 0.04 0.05 0.06 0.07 0.08 0.10 0.08 0.06 0.04 0.04 0.10 0.11 0.07 0.05 0.06 0.05 0.04 0.04 0.04 0.03 0.04 0.03 0.03 0.02 0.02 0.01 0.01 0.01 0.01 0.01 0.02 0.03 0.03 0.03 0.04 0.02 0.02 0.01
0.03 0.03 0.04 0.06 0.07 0.08 0.08 0.08 0.09 0.09 0.08 0.09 0.06 0.05 0.04 0.10 0.10 0.10 0.08 0.07 0.07 0.06 0.06 0.09 0.08 0.05 0.04 0.04 0.04 0.04 0.03 0.01 0.01 0.01 0.01 0.01 0.01 0.02 0.02 0.02 0.02 0.01 0.01
0.04 0.06 0.08 0.08 0.08 0.08 0.08 0.07 0.10 0.13 0.15 0.16 0.16 0.17 0.17 0.21 0.20 0.17 0.15 0.13 0.12 0.13 0.11 0.13 0.13 0.11 0.07 0.06 0.06 0.04 0.04 0.01 0.01 0.01 0.01 0.01 0.01 0.01 0.02 0.02 0.01 0.01 0.01
0.05 0.07 0.08 0.08 0.10 0.12 0.14 0.17 0.20 0.21 0.21 0.22 0.26 0.26 0.25 0.26 0.27 0.25 0.21 0.18 0.17 0.15 0.16 0.19 0.18 0.15 0.12 0.09 0.08 0.06 0.04 0.02 0.02 0.02 0.02 0.04 0.02 0.01 0.01 0.01 0.01 0.01 0.01
0.09 0.13 0.17 0.20 0.23 0.23 0.20 0.18 0.18 0.23 0.29 0.28 0.25 0.21 0.18 0.17 0.16 0.14 0.12 0.10 0.10 0.09 0.08 0.09 0.08 0.07 0.06 0.07 0.08 0.05 0.02 0.01 0.03 0.02 0.05 0.04 0.02 0.01 0.00 0.00 0.00 0.00 0.00
0.09 0.14 0.16 0.16 0.17 0.18 0.23 0.27 0.28 0.26 0.24 0.20 0.18 0.16 0.15 0.12 0.10 0.09 0.07 0.07 0.07 0.06 0.06 0.07 0.06 0.05 0.05 0.05 0.06 0.07 0.06 0.04 0.06 0.04 0.04 0.05 0.04 0.03 0.01 0.00 0.00 0.00 0.00

GFSGL_prec_precacc_042.txt.gz
Total_Precipitation_Accumulation
0.00 0.01 0.06 0.08 0.09 0.09 0.06 0.03 0.01 0.00 0.01 0.01 0.00 0.00 0.00 0.00 0.01 0.03 0.05 0.05 0.05 0.05 0.04 0.04 0.04 0.04 0.03 0.03 0.01 0.00 0.01 0.02 0.03 0.00 0.00 0.00 0.00 0.00 0.00 0.00 0.01 0.03 0.06
0.07 0.08 0.13 0.11 0.08 0.04 0.03 0.01 0.00 0.01 0.02 0.01 0.00 0.01 0.02 0.04 0.06 0.07 0.04 0.02 0.02 0.02 0.01 0.02 0.01 0.00 0.00 0.00 0.00 0.00 0.00 0.00 0.00 0.00 0.00 0.00 0.00 0.00 0.00 0.00 0.00 0.00 0.01
0.13 0.09 0.08 0.05 0.03 0.02 0.02 0.01 0.01 0.03 0.04 0.04 0.02 0.03 0.04 0.04 0.04 0.01 0.01 0.00 0.01 0.01 0.01 0.00 0.00 0.00 0.00 0.00 0.00 0.00 0.00 0.00 0.01 0.03 0.01 0.00 0.00 0.00 0.01 0.01 0.01 0.00 0.00
0.12 0.08 0.06 0.03 0.03 0.02 0.02 0.02 0.02 0.04 0.03 0.01 0.01 0.01 0.01 0.01 0.00 0.00 0.00 0.01 0.01 0.00 0.00 0.00 0.00 0.00 0.00 0.00 0.00 0.00 0.01 0.02 0.02 0.03 0.03 0.02 0.02 0.01 0.02 0.03 0.04 0.03 0.02
0.08 0.07 0.04 0.03 0.02 0.03 0.05 0.04 0.04 0.03 0.02 0.01 0.02 0.06 0.05 0.02 0.00 0.00 0.00 0.00 0.00 0.00 0.00 0.00 0.00 0.00 0.00 0.00 0.01 0.01 0.03 0.05 0.05 0.06 0.04 0.04 0.03 0.02 0.04 0.06 0.08 0.04 0.02
0.04 0.04 0.04 0.02 0.04 0.05 0.03 0.03 0.02 0.03 0.03 0.06 0.11 0.08 0.03 0.01 0.00 0.00 0.00 0.00 0.00 0.00 0.00 0.00 0.00 0.00 0.00 0.00 0.01 0.02 0.03 0.09 0.15 0.11 0.08 0.07 0.05 0.06 0.07 0.07 0.09 0.07 0.05
0.04 0.05 0.04 0.04 0.04 0.02 0.03 0.02 0.02 0.07 0.21 0.21 0.09 0.03 0.00 0.00 0.00 0.00 0.00 0.00 0.00 0.00 0.00 0.00 0.00 0.00 0.00 0.00 0.00 0.01 0.02 0.03 0.09 0.12 0.14 0.09 0.09 0.07 0.07 0.09 0.11 0.13 0.10
0.02 0.02 0.02 0.02 0.02 0.04 0.06 0.04 0.19 0.31 0.17 0.04 0.00 0.00 0.00 0.00 0.00 0.00 0.00 0.00 0.00 0.00 0.00 0.00 0.00 0.00 0.01 0.02 0.10 0.07 0.02 0.01 0.01 0.03 0.07 0.06 0.05 0.04 0.06 0.09 0.12 0.12 0.06
0.00 0.00 0.02 0.02 0.02 0.03 0.17 0.37 0.31 0.14 0.03 0.00 0.00 0.00 0.00 0.00 0.00 0.00 0.00 0.00 0.00 0.00 0.00 0.00 0.01 0.01 0.02 0.08 0.10 0.06 0.03 0.01 0.01 0.02 0.04 0.07 0.10 0.09 0.09 0.21 0.18 0.20 0.15
0.00 0.00 0.01 0.07 0.21 0.33 0.28 0.09 0.01 0.00 0.00 0.00 0.00 0.00 0.00 0.00 0.01 0.00 0.00 0.01 0.01 0.02 0.02 0.01 0.01 0.05 0.12 0.09 0.14 0.12 0.10 0.04 0.02 0.03 0.02 0.03 0.04 0.05 0.04 0.08 0.14 0.26 0.23
0.03 0.07 0.14 0.18 0.12 0.05 0.01 0.00 0.00 0.00 0.00 0.00 0.00 0.00 0.00 0.01 0.01 0.00 0.01 0.02 0.05 0.07 0.02 0.02 0.05 0.21 0.12 0.09 0.08 0.10 0.13 0.07 0.04 0.04 0.03 0.03 0.03 0.04 0.06 0.09 0.11 0.14 0.17
0.03 0.05 0.05 0.02 0.00 0.00 0.00 0.00 0.00 0.00 0.00 0.00 0.00 0.01 0.01 0.01 0.00 0.00 0.00 0.02 0.04 0.08 0.06 0.10 0.16 0.09 0.05 0.04 0.07 0.10 0.06 0.03 0.06 0.08 0.10 0.08 0.08 0.08 0.07 0.09 0.14 0.14 0.12
0.01 0.01 0.01 0.00 0.00 0.00 0.00 0.00 0.00 0.00 0.00 0.00 0.00 0.01 0.01 0.01 0.01 0.01 0.01 0.01 0.02 0.06 0.08 0.10 0.09 0.05 0.04 0.05 0.09 0.07 0.05 0.10 0.14 0.13 0.11 0.10 0.11 0.11 0.11 0.15 0.13 0.14 0.12
0.01 0.00 0.00 0.00 0.00 0.00 0.00 0.00 0.00 0.00 0.00 0.00 0.00 0.01 0.01 0.01 0.01 0.02 0.02 0.02 0.04 0.05 0.03 0.09 0.08 0.06 0.09 0.14 0.09 0.08 0.10 0.10 0.09 0.12 0.10 0.08 0.08 0.10 0.15 0.21 0.23 0.23 0.31
0.00 0.00 0.00 0.01 0.00 0.00 0.00 0.00 0.00 0.00 0.00 0.00 0.01 0.01 0.03 0.02 0.01 0.03 0.05 0.07 0.10 0.07 0.07 0.10 0.09 0.08 0.09 0.09 0.04 0.04 0.05 0.03 0.05 0.06 0.07 0.06 0.07 0.08 0.10 0.14 0.22 0.23 0.28
0.00 0.00 0.02 0.02 0.01 0.01 0.00 0.00 0.00 0.00 0.00 0.00 0.00 0.00 0.01 0.01 0.00 0.01 0.02 0.04 0.07 0.08 0.16 0.11 0.09 0.08 0.09 0.08 0.07 0.05 0.04 0.05 0.04 0.05 0.06 0.06 0.07 0.08 0.08 0.07 0.10 0.10 0.11
0.00 0.01 0.02 0.03 0.02 0.01 0.01 0.01 0.02 0.01 0.00 0.00 0.00 0.00 0.01 0.02 0.03 0.04 0.05 0.07 0.10 0.15 0.20 0.07 0.07 0.06 0.04 0.03 0.04 0.05 0.07 0.06 0.03 0.05 0.07 0.07 0.07 0.06 0.05 0.05 0.05 0.06 0.06
0.00 0.01 0.02 0.03 0.03 0.02 0.03 0.03 0.05 0.06 0.06 0.04 0.02 0.01 0.01 0.01 0.01 0.02 0.03 0.10 0.15 0.12 0.09 0.05 0.03 0.02 0.02 0.03 0.04 0.04 0.05 0.04 0.02 0.03 0.05 0.06 0.06 0.06 0.06 0.04 0.04 0.04 0.05
0.00 0.01 0.02 0.03 0.03 0.03 0.04 0.06 0.07 0.08 0.08 0.04 0.02 0.01 0.01 0.01 0.03 0.05 0.09 0.20 0.14 0.08 0.06 0.04 0.01 0.03 0.03 0.03 0.04 0.04 0.05 0.04 0.02 0.02 0.03 0.05 0.06 0.06 0.05 0.04 0.03 0.01 0.01
0.01 0.02 0.03 0.04 0.04 0.05 0.05 0.06 0.05 0.07 0.06 0.06 0.04 0.03 0.03 0.08 0.11 0.08 0.10 0.13 0.13 0.09 0.06 0.04 0.03 0.04 0.04 0.04 0.04 0.04 0.03 0.02 0.02 0.02 0.02 0.03 0.05 0.05 0.06 0.05 0.03 0.02 0.01
0.02 0.02 0.04 0.04 0.04 0.04 0.05 0.06 0.07 0.09 0.10 0.08 0.06 0.04 0.05 0.12 0.13 0.09 0.07 0.10 0.09 0.08 0.08 0.07 0.05 0.05 0.05 0.05 0.06 0.06 0.03 0.01 0.01 0.01 0.01 0.02 0.03 0.03 0.03 0.04 0.02 0.02 0.01
0.03 0.04 0.04 0.06 0.07 0.08 0.08 0.08 0.09 0.09 0.09 0.09 0.06 0.05 0.04 0.11 0.13 0.15 0.17 0.18 0.17 0.16 0.13 0.12 0.10 0.07 0.06 0.08 0.08 0.09 0.06 0.03 0.02 0.02 0.01 0.01 0.02 0.02 0.03 0.03 0.02 0.01 0.01
0.04 0.06 0.08 0.08 0.08 0.08 0.08 0.07 0.10 0.13 0.15 0.16 0.16 0.17 0.18 0.22 0.23 0.22 0.22 0.20 0.19 0.19 0.16 0.16 0.15 0.12 0.10 0.12 0.15 0.12 0.09 0.04 0.03 0.05 0.03 0.02 0.02 0.01 0.03 0.02 0.01 0.01 0.01
0.05 0.07 0.08 0.08 0.10 0.12 0.14 0.17 0.20 0.21 0.21 0.22 0.26 0.27 0.25 0.26 0.28 0.28 0.25 0.24 0.24 0.22 0.21 0.22 0.20 0.16 0.14 0.12 0.13 0.13 0.11 0.07 0.09 0.08 0.07 0.08 0.04 0.02 0.02 0.01 0.01 0.01 0.01
0.09 0.13 0.17 0.20 0.23 0.23 0.20 0.18 0.18 0.23 0.29 0.28 0.25 0.21 0.18 0.17 0.16 0.15 0.14 0.13 0.14 0.13 0.12 0.12 0.10 0.08 0.07 0.08 0.10 0.09 0.06 0.06 0.09 0.06 0.09 0.08 0.05 0.03 0.02 0.01 0.00 0.00 0.00
0.09 0.14 0.16 0.16 0.17 0.18 0.23 0.27 0.28 0.26 0.24 0.20 0.18 0.16 0.15 0.13 0.10 0.09 0.08 0.08 0.08 0.08 0.07 0.08 0.07 0.05 0.05 0.05 0.07 0.09 0.07 0.05 0.08 0.08 0.08 0.08 0.06 0.05 0.03 0.02 0.01 0.00 0.00

GFSGL_prec_precacc_045.txt.gz
Total_Precipitation_Accumulation
0.01 0.03 0.07 0.12 0.17 0.22 0.19 0.13 0.06 0.03 0.02 0.01 0.01 0.00 0.00 0.01 0.01 0.03 0.05 0.05 0.05 0.05 0.04 0.04 0.04 0.04 0.03 0.03 0.01 0.00 0.01 0.02 0.03 0.00 0.00 0.00 0.00 0.00 0.00 0.00 0.01 0.03 0.06
0.09 0.12 0.19 0.20 0.20 0.16 0.13 0.08 0.04 0.03 0.03 0.02 0.01 0.02 0.03 0.05 0.06 0.07 0.04 0.03 0.02 0.02 0.01 0.02 0.01 0.00 0.00 0.00 0.00 0.00 0.00 0.00 0.00 0.00 0.00 0.00 0.00 0.00 0.00 0.00 0.00 0.00 0.01
0.16 0.14 0.14 0.12 0.10 0.10 0.09 0.07 0.04 0.04 0.04 0.04 0.03 0.04 0.05 0.05 0.04 0.03 0.02 0.00 0.01 0.01 0.01 0.00 0.00 0.00 0.00 0.00 0.00 0.00 0.00 0.00 0.01 0.03 0.01 0.00 0.00 0.00 0.01 0.01 0.01 0.00 0.00
0.16 0.12 0.10 0.10 0.12 0.07 0.05 0.04 0.03 0.04 0.03 0.02 0.02 0.02 0.02 0.04 0.03 0.00 0.00 0.01 0.01 0.00 0.00 0.00 0.00 0.00 0.00 0.00 0.00 0.00 0.01 0.02 0.02 0.03 0.03 0.02 0.02 0.01 0.02 0.03 0.04 0.03 0.02
0.09 0.09 0.07 0.05 0.03 0.04 0.05 0.04 0.04 0.03 0.02 0.01 0.02 0.08 0.10 0.07 0.04 0.02 0.00 0.00 0.00 0.00 0.00 0.00 0.00 0.00 0.00 0.00 0.01 0.01 0.03 0.05 0.05 0.06 0.04 0.04 0.03 0.02 0.04 0.06 0.08 0.04 0.02
0.04 0.04 0.04 0.03 0.04 0.05 0.03 0.03 0.02 0.04 0.04 0.07 0.16 0.18 0.12 0.08 0.05 0.01 0.00 0.00 0.00 0.00 0.00 0.00 0.00 0.00 0.00 0.00 0.01 0.02 0.03 0.09 0.15 0.11 0.08 0.07 0.05 0.06 0.07 0.07 0.09 0.07 0.05
0.04 0.05 0.04 0.04 0.04 0.02 0.03 0.02 0.02 0.08 0.25 0.32 0.23 0.14 0.08 0.04 0.01 0.00 0.00 0.00 0.00 0.00 0.00 0.00 0.00 0.00 0.00 0.00 0.00 0.01 0.02 0.03 0.09 0.12 0.14 0.09 0.09 0.07 0.07 0.09 0.11 0.13 0.10
0.02 0.02 0.02 0.02 0.02 0.04 0.06 0.05 0.21 0.37 0.31 0.20 0.11 0.03 0.00 0.00 0.00 0.00 0.00 0.00 0.00 0.00 0.00 0.00 0.00 0.00 0.01 0.02 0.11 0.08 0.02 0.01 0.01 0.03 0.07 0.06 0.05 0.04 0.06 0.09 0.12 0.12 0.06
0.00 0.00 0.02 0.02 0.02 0.03 0.18 0.41 0.39 0.21 0.06 0.00 0.00 0.00 0.00 0.00 0.00 0.00 0.00 0.00 0.00 0.00 0.00 0.00 0.01 0.01 0.02 0.08 0.10 0.06 0.03 0.01 0.01 0.02 0.04 0.07 0.10 0.09 0.09 0.21 0.18 0.20 0.15
0.00 0.00 0.01 0.07 0.21 0.34 0.30 0.11 0.01 0.00 0.00 0.00 0.00 0.00 0.00 0.00 0.01 0.00 0.00 0.01 0.01 0.02 0.02 0.01 0.01 0.05 0.12 0.09 0.15 0.12 0.10 0.04 0.02 0.03 0.02 0.03 0.04 0.05 0.04 0.08 0.14 0.26 0.23
0.03 0.07 0.14 0.19 0.13 0.05 0.01 0.00 0.00 0.00 0.00 0.00 0.00 0.00 0.00 0.01 0.01 0.00 0.01 0.02 0.05 0.07 0.02 0.02 0.05 0.21 0.12 0.09 0.09 0.11 0.13 0.07 0.04 0.04 0.03 0.03 0.03 0.04 0.06 0.09 0.11 0.14 0.17
0.03 0.05 0.05 0.02 0.00 0.00 0.00 0.00 0.00 0.00 0.00 0.00 0.00 0.01 0.01 0.01 0.00 0.00 0.00 0.02 0.04 0.08 0.06 0.10 0.16 0.09 0.05 0.04 0.07 0.10 0.06 0.03 0.06 0.08 0.10 0.08 0.08 0.08 0.07 0.09 0.14 0.14 0.12
0.01 0.01 0.01 0.00 0.00 0.00 0.00 0.00 0.00 0.00 0.00 0.00 0.00 0.01 0.01 0.01 0.01 0.01 0.01 0.01 0.02 0.06 0.08 0.10 0.09 0.05 0.04 0.05 0.09 0.07 0.06 0.13 0.15 0.13 0.11 0.10 0.11 0.11 0.11 0.15 0.13 0.14 0.12
0.01 0.00 0.00 0.00 0.00 0.00 0.00 0.00 0.00 0.00 0.00 0.00 0.00 0.01 0.01 0.01 0.01 0.02 0.02 0.02 0.04 0.05 0.04 0.10 0.09 0.06 0.09 0.15 0.11 0.11 0.15 0.13 0.11 0.13 0.10 0.08 0.08 0.10 0.15 0.21 0.23 0.23 0.31
0.00 0.00 0.00 0.01 0.00 0.00 0.00 0.00 0.00 0.00 0.00 0.00 0.01 0.02 0.03 0.02 0.02 0.03 0.06 0.08 0.11 0.09 0.10 0.14 0.11 0.09 0.09 0.09 0.06 0.06 0.08 0.07 0.08 0.06 0.07 0.06 0.07 0.08 0.10 0.14 0.22 0.23 0.28
0.00 0.00 0.02 0.02 0.01 0.01 0.00 0.00 0.00 0.00 0.00 0.00 0.00 0.00 0.01 0.01 0.00 0.01 0.02 0.05 0.08 0.10 0.24 0.18 0.13 0.11 0.11 0.09 0.07 0.06 0.07 0.10 0.07 0.07 0.07 0.07 0.07 0.08 0.08 0.07 0.10 0.10 0.11
0.00 0.01 0.02 0.03 0.02 0.01 0.01 0.01 0.02 0.01 0.00 0.00 0.00 0.00 0.01 0.02 0.03 0.04 0.05 0.07 0.10 0.16 0.26 0.15 0.12 0.08 0.05 0.03 0.04 0.05 0.07 0.08 0.07 0.09 0.08 0.07 0.07 0.06 0.05 0.05 0.05 0.06 0.06
0.00 0.01 0.02 0.03 0.03 0.02 0.03 0.03 0.05 0.06 0.06 0.04 0.02 0.01 0.01 0.01 0.01 0.02 0.03 0.10 0.15 0.13 0.12 0.08 0.07 0.05 0.04 0.05 0.04 0.04 0.05 0.07 0.06 0.05 0.05 0.06 0.06 0.06 0.06 0.04 0.04 0.04 0.05
0.00 0.01 0.02 0.03 0.03 0.03 0.04 0.06 0.07 0.08 0.08 0.04 0.02 0.01 0.01 0.01 0.03 0.05 0.09 0.20 0.15 0.10 0.09 0.09 0.06 0.09 0.08 0.05 0.05 0.04 0.06 0.06 0.04 0.04 0.04 0.06 0.06 0.06 0.05 0.04 0.03 0.01 0.01
0.01 0.02 0.03 0.04 0.04 0.05 0.05 0.06 0.05 0.07 0.06 0.06 0.04 0.03 0.03 0.08 0.11 0.08 0.10 0.13 0.14 0.12 0.10 0.11 0.10 0.10 0.07 0.06 0.06 0.06 0.06 0.04 0.04 0.03 0.03 0.04 0.05 0.05 0.06 0.05 0.03 0.02 0.01
0.02 0.02 0.04 0.04 0.04 0.04 0.05 0.06 0.07 0.09 0.10 0.08 0.06 0.04 0.05 0.13 0.13 0.09 0.08 0.11 0.12 0.11 0.13 0.13 0.13 0.13 0.11 0.09 0.08 0.08 0.05 0.03 0.03 0.02 0.02 0.02 0.03 0.03 0.03 0.04 0.02 0.02 0.01
0.03 0.04 0.04 0.06 0.07 0.08 0.08 0.08 0.09 0.09 0.09 0.09 0.06 0.05 0.04 0.11 0.13 0.15 0.18 0.19 0.19 0.19 0.18 0.17 0.16 0.13 0.11 0.13 0.12 0.12 0.09 0.06 0.05 0.04 0.02 0.02 0.02 0.02 0.03 0.03 0.02 0.01 0.01
0.04 0.06 0.08 0.08 0.08 0.08 0.08 0.07 0.10 0.13 0.15 0.16 0.16 0.17 0.18 0.22 0.23 0.22 0.22 0.20 0.20 0.21 0.20 0.22 0.21 0.18 0.15 0.16 0.18 0.16 0.14 0.08 0.07 0.10 0.09 0.05 0.02 0.01 0.03 0.02 0.02 0.01 0.01
0.05 0.07 0.08 0.08 0.10 0.12 0.14 0.17 0.20 0.21 0.21 0.22 0.26 0.27 0.25 0.26 0.28 0.28 0.25 0.24 0.24 0.23 0.23 0.26 0.24 0.21 0.18 0.15 0.14 0.15 0.15 0.13 0.15 0.13 0.13 0.13 0.07 0.03 0.03 0.02 0.01 0.01 0.01
0.09 0.13 0.17 0.20 0.23 0.23 0.20 0.18 0.18 0.23 0.29 0.28 0.25 0.21 0.18 0.17 0.16 0.15 0.14 0.13 0.14 0.13 0.12 0.14 0.13 0.11 0.10 0.11 0.12 0.10 0.07 0.09 0.13 0.13 0.16 0.13 0.08 0.06 0.04 0.03 0.01 0.01 0.00
0.09 0.14 0.16 0.16 0.17 0.18 0.23 0.27 0.28 0.26 0.24 0.20 0.18 0.16 0.15 0.13 0.10 0.09 0.08 0.08 0.08 0.08 0.08 0.09 0.09 0.07 0.07 0.07 0.08 0.09 0.07 0.06 0.09 0.11 0.13 0.13 0.10 0.08 0.05 0.03 0.03 0.01 0.00

GFSGL_prec_precacc_048.txt.gz
Total_Precipitation_Accumulation
0.01 0.03 0.07 0.13 0.18 0.23 0.23 0.18 0.12 0.07 0.04 0.03 0.01 0.01 0.01 0.01 0.03 0.06 0.10 0.08 0.07 0.08 0.05 0.04 0.04 0.04 0.03 0.03 0.01 0.00 0.01 0.02 0.04 0.00 0.00 0.00 0.00 0.00 0.00 0.00 0.01 0.03 0.06
0.09 0.12 0.19 0.20 0.21 0.17 0.16 0.13 0.10 0.08 0.06 0.03 0.03 0.05 0.07 0.07 0.10 0.13 0.10 0.09 0.06 0.02 0.01 0.02 0.01 0.00 0.00 0.00 0.00 0.00 0.00 0.00 0.00 0.00 0.00 0.00 0.00 0.00 0.00 0.00 0.00 0.00 0.01
0.16 0.14 0.14 0.13 0.11 0.14 0.15 0.13 0.10 0.08 0.06 0.05 0.06 0.06 0.08 0.11 0.11 0.08 0.06 0.04 0.02 0.02 0.01 0.00 0.00 0.00 0.00 0.00 0.00 0.00 0.00 0.00 0.01 0.03 0.01 0.00 0.00 0.00 0.01 0.01 0.01 0.00 0.00
0.17 0.12 0.11 0.11 0.13 0.10 0.08 0.06 0.05 0.05 0.04 0.02 0.03 0.03 0.04 0.07 0.07 0.06 0.04 0.03 0.02 0.01 0.00 0.00 0.00 0.00 0.00 0.00 0.01 0.01 0.01 0.02 0.02 0.03 0.03 0.02 0.02 0.01 0.02 0.03 0.04 0.03 0.02
0.12 0.12 0.09 0.05 0.04 0.04 0.05 0.04 0.04 0.03 0.02 0.02 0.04 0.11 0.14 0.10 0.08 0.07 0.04 0.02 0.01 0.00 0.00 0.00 0.00 0.00 0.00 0.00 0.01 0.01 0.03 0.05 0.05 0.06 0.04 0.04 0.03 0.02 0.04 0.06 0.08 0.04 0.02
0.04 0.04 0.04 0.03 0.04 0.05 0.03 0.03 0.02 0.04 0.04 0.07 0.17 0.19 0.15 0.12 0.11 0.06 0.03 0.02 0.00 0.00 0.00 0.00 0.00 0.00 0.00 0.00 0.01 0.02 0.03 0.10 0.15 0.11 0.08 0.07 0.05 0.06 0.07 0.07 0.09 0.07 0.05
0.04 0.05 0.04 0.04 0.04 0.02 0.03 0.02 0.03 0.08 0.25 0.33 0.25 0.18 0.12 0.06 0.03 0.01 0.00 0.00 0.00 0.00 0.00 0.00 0.00 0.00 0.00 0.00 0.00 0.01 0.02 0.03 0.09 0.12 0.14 0.09 0.09 0.07 0.07 0.09 0.11 0.13 0.10
0.02 0.02 0.02 0.02 0.02 0.04 0.06 0.05 0.21 0.37 0.33 0.23 0.12 0.04 0.01 0.00 0.00 0.00 0.00 0.00 0.00 0.00 0.00 0.00 0.00 0.00 0.01 0.02 0.11 0.08 0.02 0.01 0.01 0.03 0.07 0.06 0.05 0.04 0.06 0.09 0.12 0.12 0.06
0.00 0.00 0.02 0.02 0.02 0.03 0.18 0.41 0.40 0.22 0.06 0.00 0.00 0.00 0.00 0.00 0.00 0.00 0.00 0.00 0.00 0.00 0.00 0.00 0.01 0.01 0.02 0.08 0.10 0.06 0.03 0.02 0.01 0.02 0.04 0.07 0.10 0.09 0.09 0.21 0.18 0.20 0.15
0.00 0.00 0.01 0.07 0.21 0.34 0.30 0.11 0.01 0.00 0.00 0.00 0.00 0.00 0.00 0.00 0.01 0.00 0.00 0.01 0.01 0.02 0.02 0.01 0.01 0.05 0.12 0.09 0.15 0.12 0.11 0.04 0.02 0.03 0.02 0.03 0.04 0.05 0.04 0.08 0.14 0.26 0.23
0.03 0.07 0.14 0.19 0.13 0.05 0.01 0.00 0.00 0.00 0.00 0.00 0.00 0.00 0.00 0.01 0.01 0.00 0.01 0.02 0.05 0.07 0.02 0.02 0.05 0.21 0.12 0.09 0.09 0.11 0.14 0.07 0.05 0.05 0.03 0.03 0.03 0.04 0.06 0.09 0.11 0.14 0.17
0.03 0.05 0.05 0.02 0.00 0.00 0.00 0.00 0.00 0.00 0.00 0.00 0.00 0.01 0.01 0.01 0.00 0.00 0.00 0.02 0.04 0.08 0.06 0.10 0.16 0.09 0.05 0.04 0.07 0.10 0.06 0.04 0.09 0.10 0.10 0.08 0.08 0.08 0.07 0.09 0.14 0.14 0.12
0.01 0.01 0.01 0.00 0.00 0.00 0.00 0.00 0.00 0.00 0.00 0.00 0.00 0.01 0.01 0.01 0.01 0.01 0.01 0.01 0.02 0.06 0.09 0.10 0.09 0.05 0.04 0.06 0.10 0.07 0.07 0.16 0.19 0.17 0.13 0.10 0.11 0.11 0.11 0.15 0.13 0.14 0.12
0.01 0.00 0.00 0.00 0.00 0.00 0.00 0.00 0.00 0.00 0.00 0.00 0.00 0.01 0.01 0.01 0.01 0.02 0.02 0.02 0.04 0.06 0.05 0.11 0.10 0.07 0.10 0.16 0.11 0.11 0.16 0.16 0.14 0.16 0.12 0.09 0.09 0.10 0.15 0.21 0.24 0.23 0.31
0.00 0.00 0.00 0.01 0.00 0.00 0.00 0.00 0.00 0.00 0.00 0.00 0.01 0.02 0.03 0.02 0.02 0.04 0.06 0.08 0.11 0.10 0.11 0.16 0.12 0.11 0.12 0.11 0.07 0.07 0.09 0.09 0.10 0.09 0.10 0.08 0.08 0.09 0.10 0.14 0.22 0.23 0.28
0.00 0.00 0.02 0.02 0.01 0.01 0.00 0.00 0.00 0.00 0.00 0.00 0.00 0.00 0.01 0.01 0.00 0.01 0.02 0.05 0.08 0.10 0.25 0.19 0.14 0.13 0.13 0.12 0.11 0.09 0.09 0.11 0.08 0.09 0.11 0.10 0.10 0.09 0.08 0.08 0.11 0.10 0.12
0.00 0.01 0.02 0.03 0.02 0.01 0.01 0.01 0.02 0.01 0.00 0.00 0.00 0.00 0.01 0.02 0.03 0.04 0.05 0.07 0.10 0.16 0.27 0.17 0.15 0.11 0.08 0.06 0.08 0.10 0.11 0.10 0.08 0.10 0.11 0.10 0.08 0.07 0.06 0.05 0.06 0.07 0.07
0.00 0.01 0.02 0.03 0.03 0.02 0.03 0.03 0.05 0.06 0.06 0.04 0.02 0.01 0.01 0.01 0.01 0.02 0.03 0.10 0.15 0.13 0.12 0.10 0.10 0.08 0.08 0.08 0.08 0.08 0.08 0.08 0.07 0.06 0.07 0.08 0.08 0.08 0.07 0.04 0.04 0.04 0.05
0.00 0.01 0.02 0.03 0.03 0.03 0.04 0.06 0.07 0.08 0.08 0.04 0.02 0.01 0.01 0.01 0.03 0.05 0.09 0.20 0.16 0.11 0.09 0.09 0.07 0.10 0.13 0.15 0.15 0.11 0.09 0.07 0.05 0.05 0.06 0.08 0.08 0.08 0.06 0.04 0.03 0.02 0.01
0.01 0.02 0.03 0.04 0.04 0.05 0.05 0.06 0.05 0.07 0.06 0.06 0.04 0.03 0.03 0.08 0.12 0.09 0.10 0.14 0.15 0.12 0.10 0.11 0.11 0.13 0.16 0.18 0.17 0.15 0.10 0.06 0.05 0.05 0.04 0.06 0.08 0.07 0.07 0.06 0.03 0.03 0.01
0.02 0.02 0.04 0.04 0.04 0.04 0.05 0.06 0.07 0.09 0.10 0.08 0.06 0.04 0.05 0.13 0.13 0.09 0.08 0.11 0.12 0.11 0.13 0.14 0.14 0.15 0.15 0.16 0.16 0.15 0.11 0.06 0.04 0.04 0.05 0.06 0.07 0.04 0.04 0.05 0.03 0.02 0.01
0.03 0.04 0.04 0.06 0.07 0.08 0.08 0.08 0.09 0.09 0.09 0.09 0.06 0.05 0.04 0.11 0.13 0.15 0.18 0.19 0.19 0.19 0.18 0.18 0.17 0.15 0.14 0.16 0.16 0.17 0.14 0.11 0.08 0.07 0.06 0.06 0.05 0.03 0.03 0.04 0.03 0.02 0.01
0.04 0.06 0.08 0.08 0.08 0.08 0.08 0.07 0.10 0.13 0.15 0.16 0.16 0.17 0.18 0.23 0.23 0.22 0.22 0.20 0.20 0.21 0.20 0.22 0.22 0.19 0.17 0.20 0.23 0.23 0.19 0.13 0.11 0.15 0.15 0.11 0.06 0.03 0.03 0.02 0.02 0.02 0.01
0.05 0.07 0.08 0.08 0.10 0.12 0.14 0.17 0.20 0.21 0.21 0.22 0.26 0.27 0.26 0.27 0.29 0.28 0.25 0.24 0.25 0.23 0.23 0.26 0.25 0.22 0.19 0.18 0.18 0.19 0.19 0.15 0.17 0.17 0.19 0.20 0.12 0.06 0.05 0.03 0.02 0.01 0.01
0.09 0.13 0.17 0.20 0.23 0.23 0.20 0.18 0.18 0.23 0.29 0.28 0.26 0.22 0.18 0.17 0.16 0.15 0.14 0.14 0.14 0.13 0.13 0.14 0.13 0.12 0.11 0.13 0.15 0.13 0.10 0.10 0.15 0.16 0.20 0.18 0.13 0.09 0.07 0.05 0.03 0.02 0.01
0.09 0.14 0.16 0.16 0.17 0.18 0.23 0.27 0.28 0.26 0.24 0.20 0.18 0.17 0.15 0.13 0.10 0.09 0.08 0.08 0.08 0.08 0.08 0.09 0.09 0.07 0.07 0.08 0.10 0.12 0.10 0.08 0.11 0.12 0.15 0.17 0.16 0.13 0.08 0.05 0.05 0.04 0.02

GFSGL_prec_precacc_054.txt.gz
Total_Precipitation_Accumulation
0.18 0.20 0.15 0.23 0.24 0.28 0.25 0.27 0.21 0.17 0.16 0.08 0.05 0.04 0.02 0.03 0.06 0.12 0.20 0.22 0.26 0.26 0.19 0.14 0.09 0.07 0.04 0.03 0.01 0.00 0.01 0.02 0.04 0.00 0.00 0.00 0.00 0.00 0.00 0.00 0.01 0.03 0.06
0.36 0.39 0.32 0.28 0.26 0.23 0.24 0.19 0.15 0.10 0.08 0.05 0.05 0.10 0.14 0.23 0.32 0.36 0.27 0.22 0.17 0.14 0.10 0.08 0.04 0.01 0.00 0.00 0.00 0.00 0.00 0.00 0.00 0.00 0.00 0.00 0.00 0.00 0.00 0.00 0.00 0.00 0.01
0.27 0.46 0.30 0.26 0.23 0.19 0.18 0.14 0.12 0.10 0.10 0.09 0.09 0.13 0.19 0.21 0.17 0.13 0.12 0.12 0.14 0.11 0.06 0.03 0.01 0.01 0.00 0.00 0.00 0.00 0.01 0.00 0.01 0.03 0.01 0.00 0.00 0.00 0.01 0.01 0.01 0.00 0.00
0.24 0.16 0.16 0.15 0.17 0.13 0.10 0.08 0.07 0.07 0.05 0.04 0.04 0.04 0.05 0.08 0.10 0.11 0.13 0.12 0.08 0.03 0.01 0.01 0.01 0.01 0.01 0.01 0.01 0.01 0.02 0.02 0.02 0.04 0.03 0.02 0.02 0.01 0.02 0.03 0.04 0.03 0.02
0.22 0.18 0.15 0.08 0.05 0.05 0.07 0.05 0.04 0.03 0.02 0.02 0.04 0.11 0.14 0.12 0.10 0.09 0.05 0.03 0.01 0.01 0.00 0.00 0.00 0.00 0.00 0.00 0.01 0.02 0.03 0.07 0.07 0.07 0.05 0.04 0.03 0.02 0.04 0.06 0.08 0.04 0.02
0.06 0.08 0.06 0.04 0.05 0.06 0.03 0.03 0.02 0.04 0.04 0.07 0.17 0.19 0.15 0.12 0.11 0.07 0.04 0.02 0.01 0.00 0.00 0.00 0.00 0.00 0.00 0.00 0.01 0.02 0.03 0.10 0.16 0.12 0.09 0.08 0.05 0.07 0.07 0.08 0.09 0.07 0.05
0.05 0.08 0.04 0.04 0.04 0.02 0.03 0.02 0.03 0.08 0.25 0.33 0.25 0.18 0.12 0.06 0.05 0.02 0.01 0.00 0.00 0.00 0.00 0.00 0.00 0.00 0.00 0.00 0.00 0.01 0.02 0.03 0.09 0.13 0.14 0.09 0.09 0.08 0.09 0.10 0.11 0.13 0.10
0.02 0.02 0.02 0.02 0.02 0.04 0.06 0.05 0.21 0.37 0.33 0.23 0.12 0.04 0.01 0.00 0.00 0.00 0.00 0.00 0.00 0.00 0.00 0.00 0.00 0.00 0.01 0.02 0.11 0.08 0.02 0.01 0.02 0.04 0.08 0.06 0.05 0.05 0.07 0.09 0.12 0.12 0.06
0.00 0.00 0.02 0.02 0.02 0.03 0.18 0.41 0.40 0.22 0.06 0.00 0.00 0.00 0.00 0.00 0.00 0.00 0.00 0.00 0.00 0.00 0.00 0.00 0.01 0.01 0.02 0.08 0.10 0.06 0.03 0.02 0.01 0.02 0.06 0.09 0.11 0.09 0.09 0.21 0.18 0.20 0.15
0.00 0.00 0.01 0.07 0.21 0.34 0.30 0.11 0.01 0.00 0.00 0.00 0.00 0.00 0.00 0.00 0.01 0.00 0.00 0.01 0.01 0.02 0.02 0.01 0.01 0.05 0.12 0.09 0.15 0.12 0.12 0.04 0.03 0.05 0.05 0.05 0.05 0.05 0.04 0.09 0.14 0.27 0.23
0.03 0.07 0.14 0.19 0.13 0.05 0.01 0.00 0.00 0.00 0.00 0.00 0.00 0.00 0.00 0.01 0.01 0.00 0.01 0.02 0.05 0.07 0.02 0.02 0.05 0.21 0.12 0.09 0.09 0.11 0.15 0.08 0.08 0.08 0.08 0.08 0.06 0.05 0.06 0.09 0.11 0.14 0.17
0.03 0.05 0.05 0.02 0.00 0.00 0.00 0.00 0.00 0.00 0.00 0.00 0.00 0.01 0.01 0.01 0.00 0.00 0.00 0.02 0.04 0.08 0.07 0.10 0.17 0.09 0.05 0.04 0.08 0.12 0.08 0.07 0.13 0.16 0.16 0.14 0.14 0.16 0.11 0.11 0.14 0.14 0.12
0.01 0.01 0.01 0.00 0.00 0.00 0.00 0.00 0.00 0.00 0.00 0.00 0.00 0.01 0.01 0.01 0.01 0.01 0.01 0.01 0.02 0.06 0.09 0.10 0.09 0.05 0.05 0.07 0.10 0.08 0.09 0.20 0.26 0.25 0.20 0.14 0.13 0.13 0.14 0.18 0.15 0.14 0.12
0.01 0.00 0.00 0.00 0.00 0.00 0.00 0.00 0.00 0.00 0.00 0.00 0.00 0.01 0.01 0.01 0.01 0.02 0.02 0.02 0.04 0.06 0.05 0.11 0.10 0.07 0.10 0.16 0.12 0.13 0.18 0.18 0.17 0.19 0.15 0.12 0.14 0.17 0.21 0.23 0.25 0.24 0.33
0.00 0.00 0.00 0.01 0.00 0.00 0.00 0.00 0.00 0.00 0.00 0.00 0.01 0.02 0.03 0.02 0.02 0.04 0.06 0.08 0.11 0.10 0.11 0.16 0.12 0.12 0.12 0.12 0.09 0.09 0.13 0.14 0.17 0.15 0.16 0.16 0.18 0.20 0.18 0.17 0.24 0.25 0.30
0.00 0.00 0.02 0.02 0.01 0.01 0.00 0.00 0.00 0.00 0.00 0.00 0.00 0.00 0.01 0.01 0.00 0.01 0.02 0.05 0.08 0.10 0.25 0.20 0.16 0.15 0.16 0.13 0.13 0.12 0.13 0.16 0.13 0.15 0.18 0.17 0.19 0.21 0.16 0.11 0.13 0.13 0.13
0.00 0.01 0.02 0.03 0.02 0.01 0.01 0.01 0.02 0.01 0.00 0.00 0.00 0.00 0.01 0.02 0.03 0.04 0.05 0.07 0.10 0.16 0.27 0.17 0.16 0.13 0.10 0.08 0.11 0.14 0.16 0.15 0.13 0.17 0.18 0.16 0.13 0.13 0.12 0.10 0.10 0.09 0.08
0.00 0.01 0.02 0.03 0.03 0.02 0.03 0.03 0.05 0.06 0.06 0.04 0.02 0.01 0.01 0.01 0.01 0.02 0.03 0.10 0.15 0.13 0.12 0.10 0.10 0.09 0.08 0.09 0.09 0.10 0.11 0.13 0.13 0.12 0.12 0.12 0.12 0.14 0.14 0.10 0.08 0.08 0.08
0.01 0.02 0.02 0.03 0.03 0.04 0.04 0.06 0.07 0.08 0.08 0.04 0.02 0.01 0.01 0.01 0.03 0.05 0.09 0.21 0.16 0.11 0.09 0.09 0.08 0.11 0.14 0.16 0.18 0.20 0.24 0.27 0.27 0.28 0.26 0.23 0.14 0.13 0.13 0.10 0.08 0.05 0.05
0.05 0.05 0.05 0.05 0.05 0.05 0.05 0.06 0.05 0.07 0.06 0.06 0.04 0.03 0.03 0.08 0.12 0.09 0.10 0.14 0.15 0.12 0.10 0.12 0.11 0.13 0.17 0.20 0.21 0.22 0.23 0.22 0.22 0.23 0.19 0.16 0.15 0.13 0.12 0.11 0.08 0.08 0.04
0.05 0.04 0.04 0.05 0.04 0.04 0.05 0.06 0.07 0.09 0.10 0.08 0.06 0.04 0.05 0.13 0.13 0.10 0.08 0.11 0.13 0.12 0.14 0.15 0.14 0.15 0.16 0.17 0.17 0.18 0.16 0.15 0.17 0.19 0.19 0.18 0.18 0.16 0.11 0.11 0.09 0.06 0.05
0.04 0.04 0.05 0.06 0.07 0.08 0.08 0.08 0.09 0.09 0.09 0.09 0.06 0.05 0.04 0.11 0.13 0.16 0.18 0.19 0.20 0.20 0.19 0.19 0.17 0.15 0.15 0.17 0.18 0.20 0.18 0.16 0.14 0.14 0.12 0.12 0.12 0.11 0.11 0.11 0.10 0.08 0.05
0.04 0.06 0.08 0.08 0.08 0.08 0.08 0.07 0.10 0.13 0.15 0.16 0.16 0.17 0.18 0.23 0.23 0.23 0.22 0.21 0.21 0.22 0.21 0.23 0.23 0.20 0.18 0.21 0.25 0.25 0.23 0.17 0.15 0.21 0.20 0.15 0.13 0.12 0.13 0.11 0.09 0.08 0.05
0.05 0.07 0.08 0.08 0.10 0.12 0.14 0.18 0.21 0.21 0.21 0.22 0.26 0.27 0.26 0.27 0.29 0.28 0.26 0.24 0.25 0.24 0.24 0.27 0.25 0.22 0.20 0.19 0.19 0.21 0.21 0.19 0.23 0.23 0.26 0.25 0.18 0.15 0.16 0.14 0.11 0.07 0.05
0.09 0.13 0.17 0.20 0.24 0.23 0.21 0.18 0.19 0.23 0.29 0.29 0.26 0.22 0.18 0.18 0.16 0.15 0.15 0.14 0.14 0.14 0.13 0.14 0.14 0.12 0.11 0.13 0.15 0.14 0.12 0.14 0.19 0.20 0.25 0.24 0.19 0.18 0.18 0.17 0.14 0.12 0.08
0.09 0.14 0.16 0.17 0.17 0.19 0.23 0.27 0.29 0.27 0.25 0.21 0.19 0.17 0.16 0.13 0.11 0.09 0.09 0.08 0.09 0.08 0.08 0.09 0.09 0.07 0.07 0.08 0.10 0.13 0.11 0.09 0.13 0.16 0.19 0.21 0.21 0.21 0.20 0.16 0.17 0.16 0.08

GFSGL_prec_precacc_057.txt.gz
Total_Precipitation_Accumulation
0.30 0.33 0.25 0.34 0.34 0.42 0.31 0.37 0.28 0.24 0.35 0.38 0.17 0.06 0.03 0.04 0.07 0.13 0.21 0.25 0.27 0.30 0.26 0.18 0.11 0.08 0.05 0.03 0.02 0.00 0.01 0.02 0.04 0.00 0.00 0.00 0.00 0.00 0.00 0.00 0.01 0.03 0.06
0.67 0.85 0.57 0.67 0.55 0.44 0.33 0.24 0.25 0.18 0.14 0.09 0.07 0.10 0.14 0.23 0.32 0.36 0.28 0.23 0.21 0.18 0.13 0.09 0.05 0.03 0.01 0.00 0.00 0.00 0.00 0.00 0.00 0.00 0.00 0.00 0.00 0.00 0.00 0.00 0.00 0.00 0.01
0.67 0.69 0.46 0.50 0.55 0.46 0.38 0.21 0.13 0.13 0.12 0.10 0.10 0.13 0.19 0.21 0.18 0.14 0.14 0.15 0.15 0.12 0.06 0.03 0.01 0.01 0.00 0.00 0.00 0.00 0.01 0.00 0.01 0.03 0.01 0.00 0.00 0.00 0.01 0.01 0.01 0.00 0.00
0.32 0.26 0.17 0.19 0.38 0.18 0.16 0.14 0.10 0.09 0.07 0.06 0.05 0.05 0.06 0.10 0.12 0.13 0.14 0.13 0.08 0.03 0.01 0.01 0.01 0.01 0.01 0.01 0.01 0.01 0.02 0.03 0.03 0.04 0.03 0.03 0.02 0.01 0.02 0.04 0.04 0.03 0.02
0.31 0.28 0.22 0.10 0.10 0.09 0.10 0.09 0.07 0.08 0.04 0.03 0.05 0.11 0.14 0.12 0.11 0.09 0.05 0.03 0.01 0.01 0.00 0.00 0.00 0.00 0.00 0.00 0.01 0.02 0.04 0.07 0.07 0.07 0.05 0.04 0.03 0.02 0.05 0.07 0.09 0.05 0.02
0.07 0.10 0.07 0.04 0.08 0.09 0.08 0.05 0.04 0.05 0.05 0.08 0.17 0.19 0.15 0.12 0.11 0.07 0.04 0.02 0.01 0.00 0.00 0.00 0.00 0.00 0.00 0.00 0.01 0.02 0.04 0.10 0.16 0.12 0.09 0.08 0.05 0.07 0.08 0.09 0.10 0.08 0.06
0.07 0.10 0.05 0.05 0.06 0.04 0.03 0.02 0.03 0.08 0.25 0.33 0.25 0.18 0.12 0.06 0.05 0.02 0.01 0.00 0.00 0.00 0.00 0.00 0.00 0.00 0.00 0.00 0.00 0.01 0.02 0.03 0.09 0.13 0.14 0.09 0.10 0.08 0.10 0.12 0.14 0.15 0.11
0.03 0.03 0.04 0.03 0.03 0.04 0.06 0.05 0.21 0.37 0.33 0.23 0.12 0.04 0.01 0.00 0.00 0.00 0.00 0.00 0.00 0.00 0.00 0.00 0.00 0.00 0.01 0.02 0.11 0.08 0.02 0.01 0.02 0.04 0.08 0.06 0.06 0.06 0.09 0.12 0.14 0.13 0.06
0.00 0.01 0.02 0.02 0.02 0.03 0.18 0.41 0.40 0.22 0.06 0.00 0.00 0.00 0.00 0.00 0.00 0.00 0.00 0.00 0.00 0.00 0.00 0.00 0.01 0.01 0.02 0.08 0.10 0.06 0.03 0.02 0.01 0.02 0.06 0.10 0.12 0.10 0.11 0.23 0.18 0.21 0.15
0.00 0.00 0.01 0.07 0.21 0.34 0.30 0.11 0.01 0.00 0.00 0.00 0.00 0.00 0.00 0.00 0.01 0.00 0.00 0.01 0.01 0.02 0.02 0.01 0.01 0.05 0.12 0.09 0.15 0.12 0.12 0.04 0.03 0.05 0.05 0.06 0.05 0.05 0.05 0.09 0.15 0.28 0.24
0.03 0.07 0.14 0.19 0.13 0.05 0.01 0.00 0.00 0.00 0.00 0.00 0.00 0.00 0.00 0.01 0.01 0.00 0.01 0.02 0.05 0.07 0.02 0.02 0.05 0.21 0.12 0.09 0.09 0.11 0.15 0.08 0.08 0.08 0.08 0.08 0.08 0.10 0.12 0.14 0.16 0.21 0.22
0.03 0.05 0.05 0.02 0.00 0.00 0.00 0.00 0.00 0.00 0.00 0.00 0.00 0.01 0.01 0.01 0.00 0.00 0.00 0.02 0.04 0.08 0.07 0.10 0.17 0.09 0.05 0.04 0.08 0.12 0.08 0.07 0.13 0.16 0.16 0.14 0.14 0.17 0.16 0.16 0.18 0.17 0.13
0.01 0.01 0.01 0.00 0.00 0.00 0.00 0.00 0.00 0.00 0.00 0.00 0.00 0.01 0.01 0.01 0.01 0.01 0.01 0.01 0.02 0.06 0.09 0.10 0.09 0.05 0.05 0.07 0.10 0.08 0.09 0.21 0.27 0.27 0.21 0.15 0.13 0.13 0.15 0.19 0.17 0.16 0.13
0.01 0.00 0.00 0.00 0.00 0.00 0.00 0.00 0.00 0.00 0.00 0.00 0.00 0.01 0.01 0.01 0.01 0.02 0.02 0.02 0.04 0.06 0.05 0.11 0.10 0.07 0.10 0.16 0.12 0.13 0.18 0.18 0.17 0.21 0.17 0.13 0.14 0.17 0.22 0.26 0.29 0.27 0.36
0.00 0.00 0.00 0.01 0.00 0.00 0.00 0.00 0.00 0.00 0.00 0.00 0.01 0.02 0.03 0.02 0.02 0.04 0.06 0.08 0.11 0.10 0.11 0.16 0.12 0.12 0.12 0.12 0.09 0.09 0.13 0.14 0.17 0.15 0.17 0.17 0.19 0.21 0.21 0.22 0.33 0.32 0.35
0.00 0.00 0.02 0.02 0.01 0.01 0.00 0.00 0.00 0.00 0.00 0.00 0.00 0.00 0.01 0.01 0.00 0.01 0.02 0.05 0.08 0.10 0.25 0.20 0.16 0.15 0.16 0.13 0.13 0.12 0.13 0.16 0.13 0.15 0.18 0.18 0.20 0.24 0.25 0.25 0.29 0.23 0.16
0.00 0.01 0.02 0.03 0.02 0.01 0.01 0.01 0.02 0.01 0.00 0.00 0.00 0.00 0.01 0.02 0.03 0.04 0.05 0.07 0.10 0.16 0.27 0.17 0.16 0.13 0.10 0.08 0.11 0.14 0.16 0.15 0.13 0.17 0.18 0.16 0.15 0.15 0.15 0.16 0.13 0.10 0.09
0.00 0.01 0.02 0.03 0.03 0.03 0.03 0.04 0.06 0.06 0.06 0.04 0.02 0.01 0.01 0.01 0.01 0.02 0.03 0.10 0.15 0.13 0.12 0.10 0.10 0.09 0.08 0.09 0.09 0.10 0.11 0.13 0.13 0.12 0.13 0.14 0.16 0.18 0.19 0.14 0.11 0.08 0.08
0.01 0.02 0.03 0.04 0.05 0.06 0.06 0.07 0.08 0.08 0.08 0.04 0.02 0.01 0.01 0.01 0.03 0.05 0.09 0.21 0.16 0.11 0.09 0.09 0.08 0.11 0.14 0.16 0.18 0.20 0.24 0.27 0.27 0.28 0.28 0.30 0.31 0.32 0.29 0.22 0.13 0.06 0.05
0.07 0.10 0.12 0.12 0.10 0.08 0.06 0.06 0.05 0.07 0.06 0.06 0.04 0.03 0.03 0.08 0.12 0.09 0.10 0.14 0.15 0.12 0.10 0.12 0.11 0.13 0.17 0.20 0.21 0.22 0.23 0.22 0.22 0.23 0.21 0.19 0.18 0.18 0.17 0.16 0.13 0.10 0.05
0.22 0.17 0.13 0.10 0.07 0.06 0.06 0.06 0.07 0.09 0.10 0.08 0.06 0.04 0.05 0.13 0.13 0.10 0.08 0.11 0.13 0.12 0.14 0.15 0.14 0.15 0.16 0.17 0.18 0.18 0.16 0.15 0.17 0.20 0.20 0.21 0.23 0.20 0.17 0.17 0.13 0.09 0.06
0.14 0.10 0.08 0.08 0.08 0.09 0.08 0.08 0.09 0.09 0.09 0.09 0.06 0.05 0.04 0.11 0.13 0.16 0.18 0.19 0.20 0.20 0.19 0.19 0.17 0.15 0.15 0.18 0.18 0.20 0.18 0.16 0.15 0.14 0.13 0.13 0.14 0.15 0.15 0.14 0.13 0.11 0.08
0.07 0.08 0.09 0.08 0.08 0.08 0.08 0.07 0.10 0.13 0.15 0.16 0.16 0.17 0.18 0.23 0.23 0.23 0.22 0.21 0.21 0.22 0.21 0.23 0.23 0.20 0.18 0.21 0.25 0.26 0.24 0.17 0.15 0.21 0.21 0.16 0.13 0.12 0.14 0.13 0.12 0.13 0.11
0.06 0.08 0.08 0.08 0.10 0.12 0.14 0.18 0.21 0.21 0.21 0.22 0.26 0.27 0.26 0.27 0.29 0.28 0.26 0.24 0.25 0.24 0.24 0.27 0.25 0.22 0.20 0.19 0.20 0.21 0.21 0.19 0.23 0.24 0.27 0.25 0.19 0.16 0.17 0.15 0.13 0.12 0.11
0.09 0.13 0.17 0.20 0.24 0.23 0.21 0.18 0.19 0.23 0.29 0.29 0.26 0.22 0.18 0.18 0.16 0.15 0.15 0.14 0.14 0.14 0.13 0.14 0.14 0.12 0.11 0.13 0.15 0.14 0.12 0.15 0.20 0.20 0.25 0.24 0.20 0.19 0.20 0.19 0.16 0.16 0.13
0.09 0.14 0.16 0.17 0.17 0.19 0.23 0.27 0.29 0.27 0.25 0.21 0.19 0.17 0.16 0.13 0.11 0.09 0.09 0.08 0.09 0.08 0.08 0.09 0.09 0.07 0.07 0.08 0.10 0.13 0.11 0.10 0.14 0.16 0.20 0.22 0.22 0.23 0.22 0.19 0.19 0.21 0.14

GFSGL_prec_precacc_060.txt.gz
Total_Precipitation_Accumulation
0.34 0.39 0.26 0.37 0.35 0.58 0.57 0.72 0.57 0.46 0.44 0.50 0.35 0.19 0.08 0.11 0.12 0.14 0.22 0.26 0.28 0.31 0.29 0.22 0.15 0.11 0.08 0.05 0.03 0.01 0.01 0.02 0.04 0.00 0.00 0.00 0.00 0.00 0.00 0.00 0.01 0.03 0.06
0.93 1.08 0.71 0.85 0.70 0.66 0.75 0.72 0.72 0.51 0.21 0.15 0.17 0.14 0.16 0.23 0.32 0.37 0.28 0.24 0.22 0.19 0.16 0.11 0.05 0.03 0.01 0.00 0.00 0.00 0.00 0.00 0.00 0.00 0.00 0.00 0.00 0.00 0.00 0.00 0.00 0.00 0.01
0.98 0.95 0.72 0.74 0.67 0.49 0.54 0.43 0.24 0.20 0.17 0.14 0.14 0.16 0.19 0.21 0.18 0.14 0.14 0.17 0.18 0.14 0.08 0.04 0.02 0.01 0.01 0.00 0.00 0.00 0.01 0.00 0.01 0.03 0.01 0.00 0.00 0.00 0.01 0.01 0.01 0.01 0.00
0.48 0.49 0.37 0.34 0.52 0.26 0.31 0.21 0.14 0.12 0.11 0.09 0.07 0.07 0.06 0.10 0.12 0.13 0.15 0.13 0.08 0.03 0.01 0.01 0.01 0.01 0.01 0.01 0.01 0.01 0.02 0.03 0.03 0.04 0.04 0.03 0.02 0.01 0.03 0.04 0.04 0.03 0.03
0.39 0.39 0.29 0.17 0.20 0.15 0.21 0.18 0.11 0.09 0.05 0.05 0.07 0.12 0.15 0.13 0.12 0.10 0.06 0.03 0.02 0.01 0.00 0.00 0.00 0.00 0.00 0.00 0.01 0.02 0.04 0.07 0.07 0.07 0.05 0.04 0.03 0.02 0.05 0.07 0.09 0.05 0.03
0.13 0.16 0.12 0.09 0.14 0.15 0.13 0.10 0.07 0.08 0.07 0.09 0.19 0.21 0.16 0.13 0.13 0.08 0.04 0.02 0.01 0.00 0.00 0.00 0.00 0.00 0.00 0.00 0.01 0.02 0.04 0.11 0.16 0.12 0.09 0.08 0.05 0.07 0.08 0.09 0.11 0.09 0.07
0.11 0.13 0.07 0.07 0.09 0.08 0.08 0.06 0.05 0.09 0.27 0.34 0.26 0.19 0.12 0.06 0.05 0.02 0.01 0.00 0.00 0.00 0.00 0.00 0.00 0.00 0.00 0.00 0.00 0.01 0.02 0.03 0.09 0.13 0.14 0.09 0.10 0.08 0.10 0.12 0.15 0.16 0.12
0.04 0.04 0.06 0.04 0.05 0.08 0.10 0.07 0.23 0.38 0.33 0.23 0.12 0.04 0.01 0.00 0.00 0.00 0.00 0.00 0.00 0.00 0.00 0.00 0.00 0.00 0.01 0.02 0.11 0.08 0.02 0.01 0.02 0.04 0.08 0.06 0.06 0.06 0.09 0.12 0.16 0.15 0.07
0.01 0.01 0.03 0.03 0.05 0.06 0.19 0.42 0.40 0.22 0.06 0.00 0.00 0.00 0.00 0.00 0.00 0.00 0.00 0.00 0.00 0.00 0.00 0.00 0.01 0.01 0.02 0.08 0.10 0.06 0.03 0.02 0.01 0.02 0.06 0.10 0.12 0.10 0.11 0.24 0.20 0.23 0.17
0.01 0.01 0.02 0.08 0.22 0.34 0.31 0.11 0.01 0.00 0.00 0.00 0.00 0.00 0.00 0.00 0.01 0.00 0.00 0.01 0.01 0.02 0.02 0.01 0.01 0.05 0.12 0.09 0.15 0.12 0.12 0.04 0.03 0.05 0.05 0.06 0.05 0.05 0.05 0.09 0.15 0.31 0.27
0.04 0.08 0.14 0.19 0.13 0.05 0.01 0.00 0.00 0.00 0.00 0.00 0.00 0.00 0.00 0.01 0.01 0.00 0.01 0.02 0.05 0.07 0.02 0.02 0.05 0.21 0.12 0.09 0.09 0.11 0.15 0.08 0.08 0.08 0.08 0.08 0.08 0.10 0.12 0.14 0.17 0.24 0.33
0.04 0.05 0.05 0.02 0.00 0.00 0.00 0.00 0.00 0.00 0.00 0.00 0.00 0.01 0.01 0.01 0.00 0.00 0.00 0.02 0.04 0.08 0.07 0.10 0.17 0.09 0.05 0.04 0.08 0.12 0.08 0.07 0.13 0.16 0.16 0.14 0.14 0.17 0.16 0.16 0.18 0.18 0.17
0.01 0.01 0.01 0.00 0.00 0.00 0.00 0.00 0.00 0.00 0.00 0.00 0.00 0.01 0.01 0.01 0.01 0.01 0.01 0.01 0.02 0.06 0.09 0.10 0.09 0.05 0.05 0.07 0.10 0.08 0.09 0.21 0.27 0.27 0.21 0.15 0.13 0.13 0.15 0.19 0.17 0.16 0.14
0.01 0.00 0.00 0.00 0.00 0.00 0.00 0.00 0.00 0.00 0.00 0.00 0.00 0.01 0.01 0.01 0.01 0.02 0.02 0.02 0.04 0.06 0.05 0.11 0.10 0.07 0.10 0.16 0.12 0.13 0.18 0.18 0.17 0.21 0.17 0.13 0.14 0.17 0.23 0.26 0.30 0.28 0.39
0.00 0.00 0.00 0.01 0.00 0.00 0.00 0.00 0.00 0.00 0.00 0.00 0.01 0.02 0.03 0.02 0.02 0.04 0.06 0.08 0.11 0.10 0.11 0.16 0.12 0.12 0.12 0.12 0.09 0.09 0.13 0.14 0.17 0.15 0.17 0.17 0.19 0.21 0.21 0.23 0.33 0.34 0.40
0.00 0.00 0.02 0.02 0.01 0.01 0.00 0.00 0.00 0.00 0.00 0.00 0.00 0.00 0.01 0.01 0.00 0.01 0.02 0.05 0.08 0.10 0.25 0.20 0.16 0.15 0.16 0.13 0.13 0.12 0.13 0.16 0.13 0.15 0.18 0.18 0.21 0.24 0.25 0.25 0.33 0.33 0.29
0.00 0.01 0.02 0.03 0.02 0.01 0.01 0.01 0.02 0.02 0.01 0.00 0.00 0.00 0.01 0.03 0.03 0.04 0.05 0.07 0.10 0.16 0.27 0.17 0.16 0.13 0.10 0.08 0.11 0.14 0.16 0.15 0.14 0.17 0.18 0.16 0.16 0.16 0.16 0.17 0.15 0.14 0.12
0.00 0.01 0.02 0.03 0.03 0.03 0.03 0.05 0.07 0.08 0.10 0.07 0.03 0.01 0.01 0.01 0.02 0.02 0.03 0.10 0.15 0.13 0.12 0.10 0.10 0.09 0.08 0.09 0.09 0.10 0.11 0.13 0.13 0.12 0.13 0.14 0.16 0.19 0.20 0.16 0.15 0.15 0.14
0.02 0.03 0.04 0.06 0.07 0.08 0.11 0.14 0.15 0.14 0.11 0.06 0.03 0.02 0.01 0.01 0.03 0.05 0.09 0.21 0.16 0.11 0.09 0.09 0.08 0.11 0.14 0.16 0.18 0.20 0.25 0.27 0.27 0.28 0.28 0.30 0.31 0.35 0.32 0.30 0.27 0.20 0.16
0.13 0.17 0.19 0.22 0.22 0.21 0.18 0.15 0.10 0.10 0.08 0.06 0.04 0.03 0.03 0.08 0.12 0.09 0.10 0.14 0.15 0.12 0.10 0.12 0.11 0.13 0.17 0.20 0.21 0.22 0.23 0.22 0.23 0.23 0.21 0.19 0.19 0.20 0.20 0.19 0.17 0.16 0.10
0.31 0.28 0.24 0.21 0.18 0.16 0.13 0.11 0.09 0.10 0.11 0.08 0.06 0.04 0.05 0.13 0.13 0.10 0.08 0.11 0.13 0.12 0.14 0.15 0.14 0.15 0.16 0.17 0.18 0.18 0.16 0.15 0.17 0.20 0.20 0.21 0.23 0.21 0.19 0.19 0.16 0.11 0.09
0.21 0.17 0.15 0.15 0.14 0.14 0.11 0.10 0.11 0.10 0.09 0.09 0.06 0.05 0.04 0.11 0.13 0.16 0.18 0.19 0.20 0.20 0.19 0.19 0.17 0.15 0.15 0.18 0.18 0.20 0.18 0.16 0.15 0.14 0.13 0.13 0.15 0.15 0.16 0.16 0.16 0.13 0.09
0.11 0.12 0.13 0.12 0.12 0.10 0.09 0.08 0.11 0.14 0.16 0.17 0.17 0.18 0.19 0.24 0.24 0.23 0.23 0.21 0.21 0.22 0.21 0.23 0.23 0.20 0.18 0.21 0.25 0.26 0.24 0.17 0.16 0.21 0.22 0.16 0.13 0.13 0.15 0.14 0.15 0.15 0.13
0.10 0.10 0.10 0.10 0.11 0.13 0.15 0.19 0.21 0.21 0.22 0.23 0.27 0.28 0.26 0.27 0.29 0.29 0.26 0.24 0.25 0.24 0.24 0.27 0.25 0.22 0.20 0.19 0.20 0.21 0.21 0.19 0.24 0.25 0.28 0.26 0.19 0.16 0.17 0.16 0.14 0.14 0.13
0.11 0.14 0.18 0.21 0.24 0.24 0.21 0.19 0.19 0.24 0.29 0.29 0.26 0.22 0.18 0.18 0.16 0.15 0.15 0.14 0.14 0.14 0.13 0.14 0.14 0.12 0.11 0.13 0.15 0.14 0.12 0.15 0.20 0.21 0.27 0.26 0.21 0.20 0.21 0.20 0.17 0.17 0.14
0.10 0.14 0.16 0.17 0.17 0.19 0.23 0.27 0.29 0.27 0.25 0.21 0.19 0.17 0.16 0.13 0.11 0.09 0.09 0.08 0.09 0.08 0.08 0.09 0.09 0.07 0.07 0.08 0.10 0.13 0.11 0.10 0.14 0.16 0.22 0.24 0.23 0.23 0.23 0.20 0.21 0.24 0.16

GFSGL_prec_precacc_063.txt.gz
Total_Precipitation_Accumulation
0.46 0.42 0.27 0.37 0.35 0.58 0.60 0.75 0.59 0.55 0.63 0.65 0.41 0.27 0.20 0.31 0.28 0.21 0.27 0.27 0.28 0.31 0.29 0.23 0.16 0.12 0.08 0.05 0.03 0.01 0.01 0.02 0.04 0.00 0.00 0.00 0.00 0.00 0.00 0.00 0.01 0.03 0.06
1.16 1.24 0.78 0.89 0.78 0.73 0.80 0.77 0.81 0.80 0.74 0.53 0.30 0.21 0.22 0.28 0.37 0.41 0.30 0.25 0.22 0.20 0.16 0.12 0.07 0.04 0.02 0.01 0.01 0.01 0.00 0.00 0.00 0.00 0.00 0.00 0.00 0.00 0.00 0.00 0.00 0.00 0.01
1.16 1.06 0.83 0.99 1.09 0.72 0.63 0.48 0.32 0.34 0.36 0.25 0.24 0.23 0.29 0.26 0.22 0.15 0.15 0.17 0.18 0.15 0.09 0.05 0.03 0.02 0.02 0.01 0.00 0.00 0.01 0.00 0.01 0.03 0.01 0.00 0.00 0.00 0.01 0.01 0.01 0.01 0.00
0.56 0.58 0.45 0.43 0.59 0.28 0.32 0.27 0.21 0.16 0.15 0.13 0.09 0.09 0.11 0.14 0.14 0.13 0.15 0.13 0.08 0.03 0.01 0.01 0.01 0.01 0.01 0.01 0.01 0.01 0.02 0.03 0.03 0.04 0.04 0.03 0.02 0.01 0.03 0.04 0.04 0.03 0.03
0.41 0.42 0.30 0.20 0.22 0.15 0.21 0.21 0.15 0.13 0.11 0.11 0.10 0.15 0.18 0.16 0.13 0.11 0.06 0.04 0.02 0.01 0.00 0.01 0.00 0.01 0.01 0.00 0.01 0.02 0.04 0.07 0.07 0.07 0.05 0.04 0.03 0.02 0.05 0.07 0.09 0.05 0.03
0.13 0.16 0.13 0.11 0.16 0.16 0.14 0.11 0.09 0.11 0.13 0.13 0.23 0.25 0.20 0.16 0.16 0.10 0.05 0.02 0.01 0.00 0.00 0.00 0.00 0.00 0.00 0.00 0.01 0.02 0.04 0.11 0.16 0.12 0.09 0.08 0.05 0.07 0.08 0.09 0.11 0.09 0.07
0.11 0.13 0.08 0.08 0.12 0.11 0.10 0.09 0.08 0.13 0.32 0.38 0.29 0.22 0.16 0.09 0.08 0.03 0.02 0.00 0.00 0.00 0.00 0.00 0.00 0.00 0.00 0.00 0.00 0.01 0.02 0.03 0.09 0.13 0.14 0.09 0.10 0.08 0.10 0.12 0.15 0.17 0.13
0.05 0.06 0.08 0.07 0.09 0.12 0.13 0.09 0.27 0.42 0.36 0.25 0.15 0.06 0.02 0.01 0.01 0.00 0.00 0.00 0.00 0.00 0.00 0.00 0.00 0.00 0.01 0.02 0.11 0.08 0.02 0.01 0.02 0.04 0.08 0.06 0.06 0.06 0.09 0.12 0.16 0.15 0.08
0.02 0.03 0.05 0.05 0.08 0.09 0.22 0.45 0.44 0.24 0.08 0.02 0.02 0.01 0.00 0.01 0.00 0.00 0.00 0.00 0.00 0.00 0.00 0.00 0.01 0.01 0.02 0.08 0.10 0.06 0.03 0.02 0.01 0.02 0.06 0.10 0.12 0.10 0.11 0.24 0.20 0.24 0.18
0.03 0.03 0.03 0.09 0.25 0.36 0.33 0.15 0.03 0.01 0.01 0.01 0.00 0.00 0.00 0.00 0.01 0.00 0.00 0.01 0.01 0.02 0.02 0.01 0.01 0.05 0.12 0.09 0.15 0.12 0.12 0.04 0.03 0.05 0.05 0.06 0.05 0.05 0.05 0.09 0.16 0.32 0.28
0.05 0.09 0.16 0.20 0.14 0.06 0.02 0.01 0.01 0.00 0.00 0.00 0.00 0.00 0.00 0.01 0.01 0.00 0.01 0.02 0.05 0.07 0.02 0.02 0.05 0.21 0.12 0.09 0.09 0.11 0.15 0.08 0.08 0.08 0.08 0.08 0.08 0.10 0.12 0.14 0.17 0.26 0.36
0.05 0.06 0.06 0.02 0.00 0.01 0.00 0.00 0.00 0.00 0.00 0.00 0.00 0.01 0.01 0.01 0.00 0.00 0.00 0.02 0.04 0.08 0.07 0.10 0.17 0.09 0.05 0.04 0.08 0.12 0.08 0.07 0.13 0.16 0.16 0.14 0.14 0.17 0.16 0.16 0.18 0.18 0.17
0.01 0.01 0.01 0.00 0.00 0.00 0.00 0.00 0.00 0.00 0.00 0.00 0.00 0.01 0.01 0.01 0.01 0.01 0.01 0.01 0.02 0.06 0.09 0.10 0.09 0.05 0.05 0.07 0.10 0.08 0.09 0.21 0.27 0.27 0.21 0.15 0.13 0.13 0.15 0.19 0.17 0.16 0.14
0.01 0.00 0.00 0.00 0.00 0.00 0.00 0.00 0.00 0.00 0.00 0.00 0.00 0.01 0.01 0.01 0.01 0.02 0.02 0.02 0.04 0.06 0.05 0.11 0.10 0.07 0.10 0.16 0.12 0.13 0.18 0.18 0.17 0.21 0.17 0.13 0.14 0.17 0.23 0.26 0.30 0.28 0.40
0.00 0.00 0.00 0.01 0.00 0.00 0.00 0.00 0.00 0.00 0.00 0.00 0.01 0.02 0.03 0.02 0.02 0.04 0.06 0.08 0.12 0.10 0.11 0.16 0.12 0.12 0.12 0.12 0.09 0.09 0.13 0.14 0.17 0.15 0.17 0.17 0.19 0.21 0.21 0.23 0.33 0.35 0.41
0.00 0.00 0.02 0.02 0.01 0.01 0.00 0.00 0.00 0.00 0.00 0.00 0.00 0.00 0.01 0.01 0.01 0.02 0.03 0.05 0.08 0.10 0.25 0.20 0.16 0.15 0.16 0.13 0.13 0.12 0.13 0.16 0.13 0.15 0.18 0.18 0.21 0.24 0.25 0.25 0.33 0.33 0.31
0.00 0.01 0.02 0.03 0.02 0.01 0.01 0.01 0.02 0.02 0.01 0.00 0.00 0.01 0.02 0.04 0.04 0.04 0.05 0.07 0.10 0.16 0.27 0.17 0.16 0.13 0.10 0.08 0.11 0.14 0.16 0.15 0.14 0.17 0.18 0.16 0.16 0.16 0.16 0.17 0.15 0.14 0.13
0.02 0.02 0.03 0.03 0.04 0.04 0.04 0.06 0.08 0.10 0.12 0.11 0.08 0.05 0.04 0.04 0.03 0.02 0.03 0.10 0.15 0.13 0.12 0.10 0.10 0.09 0.08 0.09 0.09 0.10 0.11 0.13 0.13 0.12 0.13 0.14 0.16 0.19 0.20 0.16 0.15 0.15 0.16
0.07 0.11 0.13 0.13 0.13 0.14 0.16 0.18 0.20 0.20 0.18 0.14 0.11 0.08 0.05 0.05 0.05 0.06 0.10 0.21 0.16 0.11 0.09 0.09 0.08 0.11 0.14 0.16 0.18 0.20 0.25 0.27 0.27 0.28 0.28 0.30 0.31 0.35 0.33 0.30 0.28 0.22 0.21
0.26 0.27 0.26 0.27 0.27 0.25 0.23 0.19 0.15 0.15 0.12 0.10 0.08 0.06 0.06 0.10 0.12 0.09 0.11 0.14 0.15 0.12 0.10 0.12 0.11 0.13 0.17 0.20 0.21 0.22 0.23 0.22 0.23 0.23 0.21 0.19 0.19 0.20 0.20 0.19 0.18 0.18 0.14
0.38 0.34 0.29 0.26 0.22 0.19 0.16 0.14 0.13 0.13 0.14 0.11 0.09 0.06 0.06 0.13 0.13 0.10 0.08 0.12 0.13 0.12 0.14 0.15 0.14 0.15 0.16 0.17 0.18 0.18 0.16 0.15 0.17 0.20 0.20 0.21 0.23 0.21 0.19 0.20 0.16 0.13 0.12
0.25 0.21 0.18 0.17 0.16 0.16 0.14 0.13 0.14 0.13 0.11 0.11 0.08 0.06 0.05 0.12 0.15 0.17 0.20 0.20 0.21 0.20 0.19 0.19 0.17 0.15 0.15 0.18 0.18 0.21 0.18 0.16 0.15 0.14 0.13 0.13 0.15 0.16 0.16 0.16 0.16 0.14 0.12
0.14 0.15 0.16 0.15 0.14 0.13 0.11 0.10 0.13 0.16 0.18 0.19 0.19 0.20 0.21 0.26 0.25 0.24 0.23 0.22 0.21 0.22 0.21 0.23 0.23 0.20 0.18 0.21 0.25 0.26 0.24 0.17 0.16 0.22 0.22 0.16 0.13 0.13 0.15 0.15 0.15 0.16 0.15
0.11 0.12 0.12 0.12 0.13 0.15 0.17 0.21 0.23 0.23 0.24 0.25 0.28 0.29 0.27 0.28 0.30 0.29 0.26 0.24 0.25 0.24 0.24 0.27 0.25 0.22 0.20 0.19 0.20 0.21 0.21 0.20 0.24 0.25 0.28 0.27 0.20 0.16 0.17 0.16 0.14 0.15 0.14
0.12 0.15 0.19 0.22 0.25 0.25 0.22 0.20 0.20 0.24 0.30 0.29 0.26 0.22 0.18 0.18 0.16 0.15 0.15 0.14 0.14 0.14 0.13 0.14 0.14 0.12 0.11 0.13 0.15 0.14 0.12 0.15 0.20 0.21 0.28 0.26 0.21 0.20 0.21 0.20 0.17 0.18 0.15
0.10 0.15 0.17 0.17 0.17 0.19 0.23 0.27 0.29 0.27 0.25 0.21 0.19 0.17 0.16 0.13 0.11 0.09 0.09 0.08 0.09 0.08 0.08 0.09 0.09 0.07 0.07 0.08 0.10 0.13 0.11 0.10 0.14 0.17 0.23 0.25 0.24 0.23 0.23 0.21 0.21 0.24 0.16

GFSGL_prec_precacc_066.txt.gz
Total_Precipitation_Accumulation
0.55 0.45 0.27 0.37 0.35 0.58 0.60 0.75 0.59 0.55 0.64 0.68 0.48 0.36 0.29 0.42 0.42 0.31 0.33 0.34 0.34 0.36 0.31 0.25 0.18 0.13 0.09 0.06 0.03 0.02 0.01 0.02 0.04 0.00 0.00 0.00 0.00 0.00 0.00 0.00 0.01 0.03 0.06
1.26 1.31 0.80 0.90 0.78 0.75 0.81 0.77 0.81 0.80 0.75 0.58 0.39 0.30 0.30 0.35 0.50 0.57 0.40 0.31 0.26 0.23 0.19 0.14 0.08 0.05 0.03 0.02 0.02 0.02 0.01 0.00 0.01 0.00 0.00 0.00 0.00 0.00 0.00 0.00 0.00 0.00 0.01
1.19 1.13 0.88 1.01 1.13 0.93 0.79 0.55 0.34 0.34 0.39 0.34 0.35 0.31 0.33 0.30 0.23 0.20 0.19 0.21 0.20 0.16 0.10 0.06 0.04 0.03 0.02 0.01 0.01 0.01 0.01 0.00 0.01 0.03 0.01 0.00 0.00 0.00 0.01 0.01 0.01 0.01 0.00
0.57 0.58 0.49 0.47 0.63 0.31 0.32 0.27 0.22 0.16 0.17 0.19 0.15 0.14 0.14 0.16 0.16 0.16 0.18 0.15 0.09 0.04 0.01 0.01 0.02 0.02 0.01 0.01 0.01 0.01 0.02 0.03 0.03 0.04 0.04 0.03 0.02 0.01 0.03 0.04 0.04 0.03 0.03
0.41 0.42 0.31 0.24 0.27 0.19 0.24 0.22 0.16 0.13 0.13 0.16 0.15 0.18 0.20 0.18 0.18 0.16 0.10 0.05 0.03 0.02 0.01 0.01 0.01 0.02 0.01 0.01 0.01 0.02 0.04 0.07 0.07 0.07 0.05 0.04 0.03 0.02 0.05 0.07 0.09 0.05 0.03
0.13 0.16 0.13 0.12 0.19 0.19 0.18 0.17 0.15 0.17 0.23 0.26 0.36 0.35 0.25 0.22 0.27 0.17 0.09 0.04 0.02 0.02 0.01 0.00 0.01 0.01 0.01 0.01 0.02 0.02 0.04 0.11 0.16 0.12 0.09 0.08 0.05 0.07 0.08 0.09 0.11 0.09 0.07
0.11 0.13 0.08 0.09 0.15 0.14 0.14 0.16 0.16 0.22 0.43 0.49 0.41 0.32 0.21 0.14 0.17 0.09 0.06 0.02 0.02 0.02 0.01 0.00 0.00 0.00 0.01 0.00 0.01 0.01 0.02 0.03 0.09 0.13 0.14 0.09 0.10 0.08 0.10 0.12 0.15 0.17 0.13
0.05 0.06 0.08 0.07 0.12 0.16 0.19 0.15 0.34 0.50 0.46 0.35 0.23 0.12 0.09 0.08 0.10 0.06 0.04 0.01 0.02 0.01 0.01 0.01 0.00 0.00 0.01 0.02 0.11 0.08 0.02 0.01 0.02 0.04 0.08 0.06 0.06 0.06 0.09 0.12 0.16 0.15 0.08
0.02 0.03 0.06 0.06 0.09 0.10 0.25 0.49 0.48 0.31 0.13 0.05 0.05 0.05 0.05 0.05 0.05 0.03 0.01 0.00 0.00 0.01 0.00 0.00 0.01 0.01 0.02 0.08 0.10 0.06 0.03 0.02 0.01 0.02 0.06 0.10 0.12 0.10 0.11 0.24 0.20 0.24 0.18
0.03 0.04 0.04 0.10 0.26 0.38 0.34 0.17 0.05 0.03 0.03 0.03 0.03 0.02 0.04 0.03 0.04 0.01 0.01 0.01 0.01 0.02 0.02 0.01 0.01 0.05 0.12 0.09 0.15 0.12 0.12 0.04 0.03 0.05 0.05 0.06 0.05 0.05 0.05 0.09 0.16 0.32 0.29
0.05 0.10 0.17 0.21 0.15 0.06 0.03 0.03 0.02 0.02 0.03 0.03 0.03 0.02 0.02 0.02 0.02 0.01 0.01 0.02 0.05 0.07 0.02 0.02 0.05 0.21 0.12 0.09 0.09 0.11 0.15 0.08 0.08 0.08 0.08 0.08 0.08 0.10 0.12 0.14 0.17 0.26 0.36
0.07 0.07 0.07 0.02 0.01 0.01 0.01 0.01 0.02 0.02 0.02 0.03 0.03 0.02 0.02 0.01 0.00 0.00 0.00 0.02 0.04 0.08 0.07 0.10 0.17 0.09 0.05 0.04 0.08 0.12 0.08 0.07 0.13 0.16 0.16 0.14 0.14 0.17 0.16 0.16 0.18 0.18 0.17
0.04 0.02 0.02 0.01 0.02 0.03 0.04 0.05 0.04 0.04 0.03 0.03 0.02 0.01 0.01 0.01 0.01 0.01 0.01 0.01 0.02 0.06 0.09 0.10 0.09 0.05 0.05 0.07 0.10 0.08 0.09 0.21 0.27 0.27 0.21 0.15 0.13 0.13 0.15 0.19 0.17 0.16 0.14
0.02 0.01 0.00 0.01 0.02 0.02 0.02 0.02 0.02 0.02 0.02 0.01 0.00 0.01 0.01 0.01 0.01 0.02 0.02 0.02 0.04 0.06 0.05 0.11 0.10 0.07 0.10 0.16 0.12 0.13 0.18 0.18 0.17 0.21 0.17 0.13 0.14 0.17 0.23 0.26 0.30 0.28 0.40
0.00 0.00 0.00 0.01 0.01 0.00 0.00 0.01 0.00 0.00 0.00 0.00 0.01 0.02 0.03 0.02 0.02 0.04 0.06 0.09 0.12 0.10 0.12 0.16 0.12 0.12 0.12 0.12 0.09 0.09 0.13 0.14 0.17 0.15 0.17 0.17 0.19 0.21 0.21 0.23 0.33 0.35 0.41
0.00 0.00 0.02 0.02 0.01 0.01 0.00 0.00 0.00 0.00 0.00 0.00 0.00 0.01 0.01 0.02 0.01 0.02 0.04 0.05 0.08 0.10 0.25 0.20 0.16 0.15 0.16 0.13 0.13 0.12 0.13 0.16 0.13 0.15 0.18 0.18 0.21 0.24 0.25 0.25 0.33 0.33 0.31
0.00 0.01 0.02 0.04 0.03 0.02 0.01 0.02 0.03 0.06 0.07 0.08 0.08 0.07 0.06 0.06 0.05 0.05 0.05 0.07 0.10 0.16 0.27 0.17 0.16 0.13 0.10 0.08 0.11 0.14 0.16 0.15 0.14 0.17 0.18 0.16 0.16 0.16 0.16 0.17 0.15 0.14 0.13
0.05 0.09 0.11 0.13 0.13 0.13 0.14 0.16 0.19 0.20 0.21 0.18 0.13 0.07 0.06 0.06 0.05 0.04 0.04 0.12 0.16 0.13 0.12 0.10 0.10 0.09 0.08 0.09 0.09 0.10 0.11 0.13 0.13 0.12 0.13 0.14 0.16 0.19 0.21 0.16 0.15 0.16 0.16
0.11 0.18 0.22 0.26 0.28 0.28 0.28 0.29 0.29 0.27 0.25 0.21 0.18 0.15 0.12 0.10 0.09 0.10 0.13 0.25 0.19 0.13 0.10 0.11 0.09 0.12 0.16 0.17 0.19 0.20 0.25 0.27 0.27 0.28 0.28 0.31 0.31 0.35 0.33 0.30 0.28 0.22 0.21
0.40 0.41 0.39 0.38 0.36 0.33 0.29 0.25 0.21 0.21 0.18 0.15 0.13 0.11 0.10 0.14 0.16 0.13 0.14 0.17 0.17 0.15 0.13 0.14 0.14 0.16 0.19 0.20 0.21 0.22 0.23 0.22 0.23 0.23 0.21 0.20 0.19 0.20 0.21 0.19 0.18 0.19 0.14
0.47 0.43 0.36 0.31 0.27 0.24 0.21 0.18 0.17 0.17 0.18 0.16 0.13 0.11 0.09 0.15 0.16 0.12 0.10 0.14 0.15 0.14 0.16 0.17 0.16 0.16 0.16 0.17 0.18 0.18 0.16 0.15 0.17 0.20 0.20 0.22 0.24 0.21 0.19 0.20 0.16 0.13 0.12
0.29 0.25 0.22 0.21 0.20 0.19 0.16 0.15 0.16 0.15 0.13 0.13 0.10 0.08 0.07 0.14 0.16 0.19 0.22 0.22 0.22 0.21 0.20 0.19 0.18 0.15 0.15 0.18 0.18 0.21 0.19 0.17 0.15 0.14 0.13 0.13 0.15 0.16 0.16 0.16 0.16 0.14 0.12
0.16 0.17 0.18 0.16 0.16 0.14 0.12 0.11 0.14 0.16 0.19 0.20 0.20 0.22 0.22 0.27 0.26 0.25 0.24 0.22 0.21 0.22 0.21 0.23 0.23 0.20 0.18 0.21 0.25 0.26 0.24 0.17 0.16 0.22 0.23 0.17 0.14 0.13 0.15 0.15 0.16 0.16 0.15
0.13 0.13 0.13 0.13 0.14 0.16 0.18 0.22 0.24 0.24 0.24 0.26 0.29 0.29 0.27 0.28 0.30 0.29 0.26 0.24 0.25 0.24 0.24 0.27 0.25 0.22 0.20 0.19 0.20 0.21 0.21 0.20 0.25 0.26 0.29 0.28 0.20 0.16 0.18 0.16 0.15 0.15 0.15
0.13 0.16 0.20 0.23 0.26 0.25 0.23 0.20 0.20 0.24 0.30 0.29 0.27 0.22 0.19 0.18 0.16 0.15 0.15 0.14 0.14 0.14 0.13 0.14 0.14 0.12 0.11 0.13 0.15 0.14 0.12 0.15 0.21 0.22 0.28 0.27 0.21 0.20 0.21 0.21 0.18 0.19 0.16
0.10 0.15 0.17 0.17 0.17 0.19 0.23 0.27 0.29 0.27 0.25 0.21 0.19 0.17 0.16 0.14 0.11 0.09 0.09 0.08 0.09 0.08 0.08 0.09 0.09 0.07 0.07 0.08 0.10 0.13 0.11 0.10 0.14 0.17 0.24 0.25 0.24 0.24 0.24 0.21 0.21 0.25 0.17

GFSGL_prec_precacc_069.txt.gz
Total_Precipitation_Accumulation
0.59 0.48 0.27 0.37 0.35 0.58 0.60 0.75 0.59 0.55 0.64 0.68 0.48 0.36 0.29 0.43 0.47 0.36 0.36 0.36 0.37 0.39 0.35 0.28 0.21 0.16 0.10 0.07 0.04 0.02 0.02 0.02 0.04 0.00 0.00 0.00 0.00 0.00 0.00 0.00 0.01 0.03 0.06
1.29 1.38 0.85 0.90 0.78 0.75 0.81 0.77 0.81 0.80 0.75 0.58 0.39 0.31 0.33 0.39 0.57 0.72 0.62 0.53 0.48 0.43 0.34 0.21 0.12 0.08 0.05 0.03 0.02 0.03 0.02 0.01 0.01 0.01 0.00 0.00 0.00 0.00 0.00 0.00 0.00 0.00 0.01
1.19 1.15 0.92 1.03 1.14 0.94 0.79 0.55 0.34 0.34 0.39 0.34 0.35 0.31 0.34 0.34 0.34 0.33 0.33 0.34 0.33 0.29 0.19 0.11 0.07 0.05 0.04 0.03 0.03 0.03 0.02 0.01 0.01 0.03 0.01 0.00 0.00 0.00 0.01 0.01 0.01 0.01 0.00
0.57 0.58 0.49 0.47 0.65 0.32 0.33 0.27 0.22 0.16 0.17 0.19 0.15 0.15 0.15 0.18 0.21 0.22 0.26 0.25 0.17 0.09 0.05 0.04 0.04 0.04 0.04 0.03 0.02 0.02 0.02 0.03 0.03 0.04 0.04 0.03 0.02 0.01 0.03 0.04 0.04 0.03 0.03
0.41 0.42 0.31 0.24 0.27 0.19 0.24 0.23 0.16 0.13 0.13 0.16 0.15 0.18 0.21 0.19 0.20 0.20 0.15 0.08 0.05 0.06 0.04 0.03 0.02 0.05 0.04 0.02 0.02 0.02 0.04 0.08 0.08 0.07 0.05 0.04 0.03 0.02 0.05 0.07 0.09 0.05 0.03
0.13 0.16 0.13 0.12 0.19 0.19 0.18 0.18 0.15 0.18 0.23 0.26 0.36 0.36 0.27 0.25 0.35 0.24 0.13 0.06 0.03 0.03 0.03 0.01 0.03 0.04 0.02 0.03 0.02 0.03 0.04 0.11 0.16 0.12 0.09 0.08 0.05 0.07 0.08 0.09 0.11 0.09 0.07
0.11 0.13 0.08 0.09 0.15 0.14 0.14 0.16 0.16 0.23 0.45 0.54 0.44 0.37 0.26 0.18 0.25 0.20 0.14 0.04 0.03 0.03 0.02 0.02 0.02 0.03 0.04 0.00 0.01 0.02 0.02 0.04 0.09 0.13 0.14 0.09 0.10 0.08 0.10 0.12 0.15 0.17 0.13
0.05 0.06 0.08 0.07 0.12 0.16 0.19 0.15 0.34 0.50 0.47 0.37 0.26 0.16 0.13 0.14 0.17 0.10 0.09 0.02 0.03 0.03 0.03 0.02 0.02 0.02 0.01 0.02 0.11 0.08 0.02 0.01 0.02 0.04 0.08 0.06 0.06 0.06 0.09 0.12 0.16 0.15 0.08
0.02 0.03 0.06 0.06 0.09 0.10 0.25 0.49 0.48 0.31 0.15 0.07 0.07 0.07 0.07 0.08 0.10 0.05 0.03 0.01 0.02 0.04 0.03 0.03 0.03 0.02 0.02 0.09 0.10 0.06 0.03 0.02 0.01 0.02 0.06 0.10 0.12 0.10 0.11 0.24 0.20 0.24 0.18
0.03 0.04 0.04 0.10 0.26 0.38 0.34 0.17 0.06 0.05 0.06 0.05 0.05 0.05 0.08 0.05 0.09 0.04 0.03 0.02 0.04 0.06 0.06 0.04 0.02 0.05 0.12 0.10 0.15 0.12 0.12 0.04 0.03 0.05 0.05 0.06 0.05 0.05 0.05 0.09 0.16 0.32 0.29
0.05 0.10 0.17 0.22 0.16 0.08 0.04 0.05 0.04 0.04 0.05 0.04 0.05 0.04 0.05 0.06 0.06 0.05 0.03 0.03 0.06 0.09 0.03 0.02 0.05 0.21 0.12 0.09 0.09 0.11 0.15 0.08 0.08 0.08 0.08 0.08 0.08 0.10 0.12 0.14 0.17 0.26 0.36
0.07 0.10 0.13 0.09 0.07 0.06 0.03 0.03 0.02 0.02 0.04 0.05 0.05 0.06 0.05 0.06 0.09 0.07 0.05 0.07 0.08 0.09 0.07 0.10 0.17 0.09 0.05 0.04 0.08 0.12 0.08 0.07 0.13 0.16 0.16 0.14 0.14 0.17 0.16 0.16 0.18 0.18 0.17
0.07 0.07 0.07 0.05 0.06 0.07 0.08 0.07 0.05 0.07 0.07 0.08 0.07 0.07 0.06 0.05 0.07 0.07 0.05 0.03 0.02 0.06 0.09 0.10 0.09 0.05 0.05 0.07 0.10 0.08 0.09 0.21 0.27 0.27 0.21 0.15 0.13 0.13 0.15 0.19 0.17 0.16 0.14
0.06 0.04 0.03 0.03 0.03 0.02 0.03 0.04 0.04 0.04 0.06 0.08 0.09 0.09 0.10 0.10 0.08 0.04 0.03 0.02 0.04 0.06 0.05 0.11 0.10 0.07 0.10 0.16 0.12 0.13 0.18 0.18 0.17 0.21 0.17 0.13 0.14 0.17 0.23 0.26 0.30 0.28 0.40
0.01 0.00 0.00 0.01 0.01 0.00 0.00 0.02 0.02 0.04 0.07 0.06 0.06 0.08 0.09 0.06 0.02 0.04 0.06 0.09 0.12 0.11 0.12 0.16 0.13 0.12 0.12 0.12 0.09 0.09 0.13 0.14 0.17 0.15 0.17 0.17 0.19 0.21 0.21 0.23 0.33 0.35 0.41
0.00 0.00 0.02 0.02 0.01 0.01 0.00 0.02 0.02 0.01 0.02 0.01 0.02 0.03 0.04 0.05 0.06 0.07 0.07 0.07 0.09 0.11 0.26 0.21 0.16 0.15 0.16 0.13 0.13 0.12 0.13 0.16 0.13 0.15 0.18 0.18 0.21 0.24 0.25 0.25 0.33 0.33 0.31
0.02 0.01 0.02 0.04 0.03 0.03 0.02 0.03 0.06 0.13 0.16 0.18 0.19 0.17 0.13 0.13 0.10 0.08 0.07 0.08 0.11 0.16 0.27 0.18 0.16 0.13 0.10 0.08 0.11 0.14 0.16 0.15 0.14 0.17 0.18 0.16 0.16 0.16 0.16 0.17 0.15 0.14 0.13
0.09 0.13 0.16 0.16 0.16 0.17 0.19 0.22 0.25 0.28 0.31 0.30 0.22 0.14 0.10 0.09 0.07 0.06 0.06 0.13 0.17 0.14 0.13 0.10 0.10 0.09 0.09 0.10 0.10 0.10 0.11 0.13 0.13 0.12 0.13 0.14 0.16 0.19 0.21 0.16 0.15 0.16 0.16
0.19 0.25 0.31 0.36 0.39 0.38 0.37 0.38 0.35 0.33 0.30 0.27 0.25 0.21 0.18 0.15 0.13 0.13 0.15 0.26 0.20 0.14 0.12 0.12 0.10 0.13 0.16 0.17 0.19 0.21 0.25 0.27 0.27 0.28 0.28 0.31 0.31 0.35 0.33 0.30 0.28 0.22 0.21
0.57 0.60 0.53 0.50 0.47 0.41 0.35 0.29 0.24 0.24 0.21 0.18 0.16 0.14 0.12 0.15 0.17 0.14 0.15 0.18 0.19 0.17 0.14 0.16 0.15 0.17 0.20 0.21 0.22 0.23 0.23 0.22 0.23 0.23 0.21 0.20 0.19 0.20 0.21 0.19 0.18 0.19 0.14
0.63 0.59 0.49 0.40 0.33 0.29 0.25 0.22 0.20 0.20 0.20 0.17 0.15 0.12 0.10 0.16 0.16 0.13 0.11 0.15 0.16 0.15 0.17 0.18 0.17 0.17 0.17 0.17 0.18 0.18 0.16 0.15 0.17 0.20 0.20 0.22 0.24 0.22 0.19 0.20 0.16 0.14 0.13
0.38 0.33 0.28 0.25 0.23 0.22 0.19 0.17 0.17 0.16 0.14 0.14 0.12 0.10 0.08 0.15 0.17 0.20 0.22 0.22 0.22 0.21 0.20 0.19 0.18 0.15 0.15 0.18 0.18 0.21 0.19 0.17 0.15 0.14 0.13 0.14 0.15 0.16 0.16 0.17 0.16 0.15 0.12
0.18 0.19 0.20 0.18 0.17 0.15 0.13 0.12 0.15 0.17 0.20 0.21 0.22 0.23 0.23 0.27 0.27 0.25 0.24 0.22 0.21 0.22 0.21 0.23 0.23 0.20 0.18 0.21 0.25 0.26 0.24 0.17 0.16 0.22 0.23 0.17 0.14 0.13 0.16 0.16 0.16 0.17 0.16
0.14 0.15 0.14 0.14 0.15 0.16 0.19 0.22 0.25 0.25 0.25 0.26 0.29 0.29 0.27 0.28 0.30 0.29 0.26 0.24 0.25 0.24 0.24 0.27 0.25 0.22 0.20 0.19 0.20 0.21 0.21 0.20 0.25 0.26 0.29 0.28 0.20 0.16 0.18 0.17 0.15 0.16 0.15
0.13 0.16 0.20 0.23 0.26 0.25 0.23 0.20 0.20 0.24 0.30 0.29 0.27 0.23 0.19 0.18 0.16 0.15 0.15 0.14 0.14 0.14 0.13 0.14 0.14 0.12 0.11 0.13 0.15 0.14 0.12 0.16 0.21 0.22 0.29 0.27 0.22 0.20 0.22 0.22 0.18 0.19 0.16
0.10 0.15 0.17 0.17 0.17 0.19 0.23 0.27 0.29 0.27 0.25 0.21 0.19 0.17 0.16 0.14 0.11 0.09 0.09 0.08 0.09 0.08 0.08 0.09 0.09 0.07 0.07 0.08 0.10 0.13 0.11 0.10 0.14 0.17 0.25 0.26 0.24 0.24 0.24 0.22 0.22 0.26 0.17

GFSGL_prec_precacc_072.txt.gz
Total_Precipitation_Accumulation
0.59 0.48 0.27 0.37 0.35 0.58 0.60 0.75 0.59 0.55 0.64 0.68 0.48 0.36 0.29 0.43 0.47 0.36 0.36 0.36 0.37 0.39 0.36 0.29 0.23 0.19 0.15 0.11 0.08 0.06 0.05 0.05 0.06 0.00 0.00 0.00 0.00 0.00 0.00 0.00 0.01 0.03 0.06
1.29 1.38 0.85 0.90 0.78 0.75 0.81 0.77 0.81 0.80 0.75 0.58 0.39 0.31 0.33 0.39 0.57 0.72 0.62 0.54 0.50 0.46 0.42 0.35 0.27 0.25 0.26 0.26 0.19 0.10 0.06 0.04 0.02 0.01 0.01 0.00 0.00 0.00 0.00 0.00 0.00 0.00 0.01
1.19 1.15 0.92 1.03 1.14 0.94 0.79 0.55 0.34 0.34 0.39 0.34 0.35 0.31 0.34 0.34 0.34 0.33 0.34 0.38 0.42 0.43 0.44 0.41 0.33 0.25 0.18 0.14 0.12 0.10 0.07 0.04 0.02 0.03 0.02 0.00 0.00 0.00 0.01 0.01 0.01 0.01 0.00
0.57 0.58 0.49 0.47 0.65 0.32 0.33 0.27 0.22 0.16 0.17 0.19 0.15 0.15 0.15 0.18 0.21 0.22 0.27 0.29 0.26 0.23 0.22 0.26 0.34 0.37 0.30 0.16 0.08 0.05 0.04 0.04 0.03 0.05 0.04 0.03 0.02 0.01 0.03 0.04 0.04 0.03 0.03
0.41 0.42 0.31 0.24 0.27 0.19 0.24 0.23 0.16 0.13 0.13 0.16 0.15 0.18 0.21 0.19 0.20 0.20 0.17 0.15 0.15 0.17 0.16 0.16 0.12 0.10 0.09 0.05 0.03 0.02 0.04 0.08 0.08 0.07 0.05 0.04 0.03 0.02 0.05 0.07 0.09 0.05 0.03
0.13 0.16 0.13 0.12 0.19 0.19 0.18 0.18 0.15 0.18 0.23 0.26 0.36 0.36 0.27 0.25 0.35 0.25 0.14 0.07 0.05 0.05 0.05 0.03 0.04 0.08 0.04 0.05 0.05 0.05 0.05 0.11 0.16 0.12 0.09 0.08 0.05 0.07 0.08 0.09 0.11 0.09 0.07
0.11 0.13 0.08 0.09 0.15 0.14 0.14 0.16 0.16 0.23 0.45 0.54 0.44 0.37 0.26 0.18 0.25 0.20 0.15 0.04 0.04 0.04 0.03 0.03 0.03 0.06 0.07 0.01 0.04 0.04 0.04 0.04 0.09 0.13 0.14 0.09 0.10 0.08 0.10 0.12 0.15 0.17 0.13
0.05 0.06 0.08 0.07 0.12 0.16 0.19 0.15 0.34 0.50 0.47 0.37 0.27 0.16 0.13 0.14 0.17 0.11 0.12 0.04 0.05 0.06 0.06 0.04 0.04 0.05 0.07 0.06 0.12 0.09 0.02 0.01 0.02 0.04 0.08 0.06 0.06 0.06 0.09 0.12 0.16 0.15 0.08
0.02 0.03 0.06 0.06 0.09 0.10 0.25 0.49 0.48 0.31 0.15 0.08 0.08 0.08 0.09 0.10 0.14 0.09 0.06 0.02 0.04 0.07 0.07 0.08 0.10 0.10 0.18 0.20 0.17 0.12 0.05 0.02 0.01 0.02 0.06 0.10 0.12 0.10 0.11 0.24 0.20 0.24 0.18
0.03 0.04 0.04 0.10 0.26 0.38 0.34 0.17 0.06 0.05 0.07 0.06 0.06 0.06 0.11 0.07 0.12 0.06 0.04 0.02 0.05 0.08 0.10 0.11 0.15 0.13 0.21 0.13 0.16 0.13 0.12 0.04 0.03 0.05 0.05 0.06 0.05 0.05 0.05 0.09 0.16 0.32 0.29
0.05 0.10 0.17 0.22 0.16 0.09 0.05 0.06 0.05 0.05 0.06 0.06 0.07 0.05 0.05 0.08 0.08 0.08 0.06 0.03 0.07 0.13 0.10 0.10 0.14 0.30 0.18 0.13 0.10 0.11 0.15 0.08 0.08 0.08 0.08 0.08 0.08 0.10 0.12 0.14 0.17 0.26 0.36
0.07 0.10 0.13 0.09 0.08 0.06 0.05 0.07 0.06 0.04 0.05 0.05 0.06 0.06 0.05 0.07 0.14 0.12 0.10 0.13 0.17 0.17 0.16 0.19 0.26 0.18 0.10 0.06 0.09 0.12 0.08 0.07 0.13 0.16 0.16 0.14 0.14 0.17 0.16 0.16 0.18 0.18 0.17
0.07 0.07 0.08 0.07 0.08 0.10 0.11 0.09 0.07 0.08 0.08 0.08 0.08 0.08 0.07 0.07 0.12 0.14 0.13 0.15 0.16 0.18 0.21 0.21 0.17 0.09 0.05 0.07 0.10 0.08 0.09 0.21 0.27 0.27 0.21 0.15 0.13 0.13 0.15 0.19 0.17 0.16 0.14
0.06 0.05 0.05 0.05 0.06 0.04 0.04 0.04 0.04 0.04 0.06 0.08 0.10 0.11 0.13 0.16 0.17 0.18 0.17 0.16 0.16 0.17 0.13 0.15 0.11 0.08 0.10 0.17 0.13 0.13 0.18 0.18 0.17 0.21 0.17 0.13 0.14 0.17 0.23 0.26 0.30 0.28 0.40
0.01 0.00 0.01 0.02 0.02 0.00 0.01 0.03 0.03 0.05 0.09 0.07 0.08 0.11 0.14 0.15 0.14 0.16 0.16 0.18 0.18 0.14 0.13 0.16 0.13 0.13 0.13 0.12 0.09 0.09 0.13 0.14 0.17 0.15 0.17 0.17 0.19 0.21 0.21 0.23 0.33 0.35 0.41
0.00 0.00 0.03 0.02 0.01 0.01 0.00 0.03 0.05 0.04 0.05 0.04 0.07 0.10 0.16 0.16 0.17 0.16 0.13 0.10 0.11 0.12 0.27 0.22 0.17 0.16 0.16 0.14 0.14 0.12 0.13 0.16 0.13 0.15 0.18 0.18 0.21 0.24 0.25 0.25 0.33 0.33 0.31
0.04 0.03 0.04 0.06 0.05 0.04 0.04 0.05 0.09 0.20 0.24 0.27 0.28 0.25 0.19 0.21 0.17 0.14 0.12 0.12 0.14 0.18 0.30 0.20 0.18 0.15 0.11 0.09 0.11 0.14 0.16 0.16 0.14 0.17 0.19 0.16 0.16 0.16 0.16 0.17 0.15 0.14 0.13
0.26 0.29 0.30 0.34 0.37 0.37 0.35 0.36 0.36 0.37 0.40 0.40 0.32 0.20 0.16 0.14 0.12 0.11 0.11 0.16 0.20 0.16 0.14 0.12 0.11 0.10 0.09 0.10 0.10 0.11 0.12 0.13 0.14 0.12 0.13 0.14 0.16 0.19 0.21 0.16 0.15 0.16 0.16
0.46 0.52 0.53 0.55 0.59 0.57 0.52 0.50 0.47 0.43 0.39 0.35 0.31 0.27 0.23 0.19 0.16 0.15 0.16 0.27 0.21 0.15 0.12 0.12 0.10 0.13 0.16 0.18 0.20 0.21 0.26 0.27 0.28 0.29 0.28 0.31 0.32 0.35 0.33 0.31 0.28 0.22 0.22
0.80 0.88 0.80 0.73 0.68 0.62 0.54 0.44 0.35 0.32 0.27 0.23 0.20 0.18 0.16 0.17 0.19 0.16 0.16 0.18 0.19 0.17 0.15 0.16 0.15 0.17 0.20 0.22 0.23 0.23 0.24 0.23 0.23 0.24 0.21 0.20 0.19 0.21 0.21 0.20 0.18 0.19 0.15
0.72 0.71 0.64 0.56 0.49 0.44 0.37 0.31 0.27 0.24 0.24 0.20 0.18 0.15 0.12 0.17 0.17 0.14 0.12 0.15 0.16 0.16 0.17 0.18 0.17 0.17 0.17 0.18 0.18 0.18 0.16 0.16 0.18 0.20 0.21 0.22 0.24 0.22 0.19 0.20 0.17 0.14 0.13
0.41 0.36 0.32 0.30 0.29 0.27 0.23 0.21 0.21 0.19 0.17 0.16 0.14 0.11 0.08 0.15 0.17 0.20 0.23 0.23 0.23 0.22 0.20 0.20 0.18 0.16 0.15 0.18 0.18 0.21 0.19 0.17 0.15 0.15 0.13 0.14 0.16 0.16 0.17 0.17 0.17 0.15 0.13
0.20 0.21 0.21 0.20 0.19 0.17 0.15 0.15 0.16 0.19 0.22 0.23 0.22 0.23 0.23 0.28 0.27 0.25 0.24 0.22 0.21 0.22 0.21 0.23 0.23 0.20 0.18 0.21 0.25 0.26 0.25 0.18 0.16 0.23 0.24 0.18 0.14 0.14 0.16 0.16 0.16 0.17 0.16
0.15 0.15 0.15 0.15 0.16 0.17 0.20 0.23 0.26 0.25 0.25 0.27 0.29 0.30 0.28 0.28 0.30 0.29 0.26 0.25 0.25 0.24 0.24 0.27 0.25 0.22 0.20 0.19 0.20 0.21 0.22 0.20 0.25 0.27 0.30 0.29 0.21 0.17 0.19 0.17 0.16 0.16 0.16
0.13 0.16 0.20 0.23 0.26 0.25 0.23 0.20 0.20 0.24 0.30 0.30 0.27 0.23 0.19 0.18 0.17 0.15 0.15 0.14 0.14 0.14 0.13 0.14 0.14 0.12 0.11 0.13 0.15 0.14 0.12 0.16 0.21 0.22 0.29 0.28 0.22 0.21 0.22 0.22 0.19 0.20 0.16
0.10 0.15 0.17 0.17 0.17 0.19 0.23 0.27 0.29 0.27 0.25 0.22 0.19 0.17 0.16 0.14 0.11 0.09 0.09 0.08 0.09 0.08 0.08 0.09 0.09 0.07 0.07 0.08 0.10 0.13 0.11 0.10 0.15 0.18 0.26 0.26 0.25 0.24 0.25 0.23 0.22 0.27 0.18

GFSGL_prec_precacc_075.txt.gz
Total_Precipitation_Accumulation
0.59 0.48 0.27 0.37 0.35 0.58 0.60 0.75 0.59 0.55 0.64 0.68 0.48 0.36 0.29 0.43 0.48 0.37 0.37 0.37 0.38 0.42 0.39 0.31 0.25 0.21 0.18 0.15 0.11 0.08 0.07 0.08 0.13 0.06 0.04 0.03 0.00 0.00 0.00 0.00 0.01 0.03 0.06
1.29 1.38 0.85 0.90 0.78 0.75 0.81 0.77 0.81 0.80 0.75 0.58 0.39 0.31 0.33 0.39 0.57 0.72 0.62 0.54 0.50 0.47 0.43 0.37 0.29 0.28 0.30 0.30 0.31 0.30 0.26 0.22 0.26 0.21 0.12 0.08 0.01 0.00 0.00 0.00 0.00 0.00 0.01
1.19 1.15 0.92 1.03 1.14 0.94 0.79 0.55 0.34 0.34 0.39 0.34 0.35 0.31 0.34 0.34 0.34 0.33 0.34 0.38 0.42 0.43 0.45 0.42 0.35 0.27 0.22 0.20 0.21 0.22 0.20 0.20 0.21 0.19 0.11 0.06 0.03 0.01 0.01 0.01 0.01 0.01 0.00
0.57 0.58 0.49 0.47 0.65 0.32 0.33 0.27 0.22 0.16 0.17 0.19 0.15 0.15 0.15 0.18 0.21 0.22 0.27 0.29 0.27 0.23 0.23 0.27 0.36 0.42 0.41 0.34 0.27 0.20 0.16 0.13 0.12 0.14 0.12 0.05 0.03 0.01 0.03 0.04 0.04 0.03 0.03
0.41 0.42 0.31 0.24 0.27 0.19 0.24 0.23 0.16 0.13 0.13 0.16 0.15 0.18 0.21 0.19 0.20 0.20 0.17 0.15 0.15 0.17 0.17 0.19 0.20 0.23 0.21 0.19 0.18 0.14 0.11 0.13 0.13 0.13 0.12 0.06 0.05 0.03 0.05 0.07 0.09 0.05 0.03
0.13 0.16 0.13 0.12 0.19 0.19 0.18 0.18 0.15 0.18 0.23 0.26 0.36 0.36 0.27 0.25 0.35 0.25 0.14 0.07 0.05 0.05 0.05 0.05 0.08 0.12 0.09 0.12 0.13 0.14 0.13 0.19 0.24 0.16 0.11 0.10 0.06 0.07 0.08 0.09 0.11 0.09 0.07
0.11 0.13 0.08 0.09 0.15 0.14 0.14 0.16 0.16 0.23 0.45 0.54 0.44 0.37 0.26 0.18 0.25 0.20 0.15 0.04 0.04 0.04 0.03 0.04 0.06 0.10 0.14 0.05 0.11 0.10 0.10 0.13 0.16 0.16 0.18 0.13 0.12 0.09 0.10 0.12 0.15 0.17 0.13
0.05 0.06 0.08 0.07 0.12 0.16 0.19 0.15 0.34 0.50 0.47 0.37 0.27 0.17 0.14 0.15 0.18 0.12 0.13 0.04 0.05 0.06 0.07 0.07 0.08 0.10 0.17 0.16 0.19 0.16 0.11 0.14 0.15 0.11 0.15 0.16 0.13 0.08 0.09 0.12 0.16 0.15 0.08
0.02 0.03 0.06 0.06 0.09 0.10 0.25 0.49 0.48 0.31 0.15 0.08 0.08 0.08 0.09 0.12 0.17 0.13 0.11 0.03 0.05 0.09 0.09 0.12 0.16 0.15 0.33 0.34 0.26 0.25 0.23 0.22 0.22 0.17 0.16 0.15 0.14 0.11 0.11 0.24 0.20 0.24 0.18
0.03 0.04 0.04 0.10 0.26 0.38 0.34 0.17 0.06 0.05 0.07 0.06 0.07 0.07 0.13 0.10 0.18 0.13 0.11 0.05 0.10 0.13 0.14 0.16 0.25 0.20 0.35 0.22 0.21 0.18 0.20 0.14 0.14 0.17 0.13 0.09 0.06 0.05 0.05 0.09 0.16 0.32 0.29
0.05 0.10 0.17 0.22 0.16 0.09 0.05 0.06 0.05 0.05 0.07 0.09 0.11 0.08 0.08 0.11 0.12 0.12 0.09 0.04 0.08 0.14 0.13 0.13 0.20 0.39 0.25 0.20 0.19 0.21 0.27 0.19 0.17 0.15 0.11 0.09 0.08 0.10 0.12 0.14 0.17 0.26 0.36
0.07 0.10 0.13 0.09 0.08 0.06 0.05 0.07 0.06 0.06 0.07 0.08 0.08 0.07 0.06 0.08 0.16 0.14 0.12 0.15 0.20 0.19 0.20 0.25 0.38 0.33 0.23 0.19 0.22 0.23 0.19 0.15 0.18 0.19 0.18 0.14 0.14 0.17 0.16 0.16 0.18 0.18 0.17
0.07 0.07 0.08 0.07 0.08 0.10 0.11 0.11 0.10 0.13 0.13 0.13 0.11 0.12 0.11 0.09 0.13 0.16 0.14 0.16 0.18 0.20 0.25 0.31 0.33 0.27 0.22 0.22 0.24 0.18 0.15 0.24 0.28 0.28 0.21 0.15 0.13 0.13 0.15 0.19 0.17 0.16 0.14
0.07 0.05 0.05 0.06 0.08 0.06 0.08 0.09 0.09 0.09 0.10 0.12 0.12 0.12 0.14 0.16 0.18 0.19 0.20 0.18 0.21 0.23 0.23 0.29 0.24 0.19 0.19 0.24 0.18 0.16 0.19 0.19 0.18 0.21 0.17 0.13 0.14 0.17 0.23 0.26 0.30 0.28 0.40
0.07 0.06 0.05 0.05 0.05 0.04 0.04 0.09 0.09 0.11 0.17 0.16 0.18 0.17 0.17 0.20 0.20 0.21 0.20 0.22 0.25 0.22 0.21 0.24 0.21 0.18 0.16 0.14 0.10 0.10 0.13 0.14 0.17 0.15 0.17 0.17 0.19 0.21 0.21 0.23 0.33 0.35 0.41
0.09 0.09 0.11 0.09 0.07 0.06 0.05 0.08 0.11 0.13 0.13 0.12 0.15 0.15 0.22 0.23 0.27 0.26 0.22 0.18 0.17 0.18 0.32 0.26 0.21 0.19 0.18 0.16 0.15 0.13 0.13 0.16 0.13 0.15 0.18 0.18 0.21 0.24 0.25 0.25 0.33 0.33 0.31
0.12 0.11 0.12 0.11 0.09 0.07 0.06 0.06 0.12 0.25 0.30 0.37 0.39 0.36 0.28 0.31 0.27 0.24 0.21 0.19 0.19 0.22 0.31 0.22 0.21 0.18 0.13 0.10 0.12 0.14 0.16 0.16 0.14 0.18 0.19 0.17 0.16 0.16 0.16 0.17 0.16 0.14 0.13
0.49 0.51 0.45 0.45 0.46 0.46 0.47 0.52 0.58 0.62 0.67 0.72 0.63 0.45 0.36 0.30 0.24 0.20 0.16 0.19 0.22 0.17 0.16 0.13 0.13 0.11 0.10 0.10 0.10 0.11 0.12 0.14 0.14 0.13 0.13 0.15 0.17 0.20 0.21 0.16 0.15 0.16 0.16
0.66 0.80 0.86 0.89 0.92 0.87 0.81 0.78 0.73 0.68 0.62 0.56 0.49 0.43 0.36 0.28 0.23 0.20 0.20 0.30 0.23 0.16 0.12 0.12 0.10 0.14 0.17 0.18 0.20 0.22 0.26 0.28 0.28 0.29 0.29 0.31 0.32 0.36 0.33 0.31 0.29 0.22 0.22
0.87 1.01 0.99 0.97 0.92 0.83 0.73 0.61 0.52 0.47 0.41 0.35 0.32 0.29 0.25 0.24 0.24 0.20 0.19 0.21 0.21 0.18 0.15 0.16 0.16 0.17 0.20 0.22 0.23 0.24 0.24 0.23 0.23 0.24 0.22 0.20 0.19 0.21 0.22 0.20 0.19 0.20 0.15
0.76 0.76 0.70 0.63 0.58 0.55 0.50 0.44 0.39 0.35 0.34 0.29 0.26 0.22 0.17 0.20 0.20 0.16 0.13 0.16 0.17 0.16 0.18 0.18 0.17 0.17 0.17 0.18 0.18 0.18 0.16 0.16 0.18 0.21 0.21 0.22 0.24 0.23 0.20 0.21 0.17 0.15 0.13
0.43 0.38 0.34 0.32 0.31 0.30 0.27 0.24 0.24 0.22 0.20 0.19 0.17 0.14 0.10 0.16 0.19 0.21 0.23 0.24 0.23 0.22 0.20 0.20 0.18 0.16 0.15 0.18 0.18 0.21 0.19 0.17 0.15 0.15 0.14 0.14 0.16 0.16 0.17 0.18 0.17 0.16 0.13
0.21 0.22 0.22 0.22 0.21 0.19 0.17 0.17 0.19 0.22 0.24 0.25 0.24 0.25 0.24 0.28 0.27 0.26 0.25 0.23 0.22 0.22 0.21 0.23 0.23 0.20 0.18 0.21 0.25 0.26 0.25 0.18 0.16 0.23 0.24 0.18 0.15 0.15 0.17 0.17 0.17 0.18 0.17
0.15 0.15 0.15 0.15 0.16 0.17 0.20 0.24 0.26 0.26 0.26 0.27 0.29 0.30 0.28 0.28 0.30 0.29 0.26 0.25 0.26 0.24 0.24 0.27 0.25 0.22 0.20 0.19 0.20 0.21 0.22 0.20 0.25 0.27 0.30 0.29 0.21 0.17 0.19 0.18 0.16 0.17 0.16
0.13 0.16 0.20 0.23 0.26 0.25 0.23 0.20 0.20 0.25 0.30 0.30 0.27 0.23 0.19 0.19 0.17 0.16 0.15 0.15 0.14 0.14 0.13 0.14 0.14 0.12 0.11 0.13 0.15 0.14 0.12 0.16 0.21 0.22 0.30 0.28 0.23 0.21 0.23 0.23 0.19 0.20 0.17
0.10 0.15 0.17 0.17 0.17 0.19 0.23 0.28 0.29 0.27 0.26 0.22 0.20 0.18 0.16 0.14 0.11 0.10 0.09 0.08 0.09 0.08 0.08 0.09 0.09 0.07 0.07 0.08 0.10 0.13 0.11 0.10 0.15 0.18 0.26 0.27 0.25 0.25 0.25 0.23 0.23 0.27 0.18

GFSGL_prec_precacc_078.txt.gz
Total_Precipitation_Accumulation
0.59 0.48 0.27 0.37 0.35 0.58 0.60 0.75 0.59 0.55 0.64 0.68 0.48 0.36 0.29 0.43 0.48 0.37 0.37 0.37 0.38 0.42 0.39 0.32 0.26 0.23 0.21 0.19 0.17 0.15 0.12 0.11 0.14 0.07 0.04 0.04 0.03 0.03 0.01 0.00 0.01 0.03 0.06
1.29 1.38 0.85 0.90 0.78 0.75 0.81 0.77 0.81 0.80 0.75 0.58 0.39 0.31 0.33 0.39 0.57 0.72 0.62 0.54 0.50 0.47 0.43 0.37 0.30 0.29 0.32 0.34 0.35 0.32 0.28 0.23 0.27 0.22 0.14 0.10 0.07 0.04 0.02 0.01 0.01 0.00 0.01
1.19 1.15 0.92 1.03 1.14 0.94 0.79 0.55 0.34 0.34 0.39 0.34 0.36 0.31 0.34 0.34 0.34 0.33 0.34 0.38 0.42 0.43 0.45 0.43 0.35 0.29 0.24 0.21 0.23 0.24 0.22 0.22 0.25 0.25 0.16 0.09 0.06 0.05 0.06 0.05 0.03 0.02 0.00
0.57 0.58 0.49 0.47 0.65 0.32 0.33 0.27 0.22 0.16 0.17 0.19 0.15 0.15 0.15 0.18 0.21 0.22 0.27 0.29 0.27 0.23 0.23 0.27 0.37 0.44 0.43 0.37 0.32 0.25 0.21 0.21 0.19 0.20 0.17 0.11 0.10 0.07 0.07 0.07 0.06 0.05 0.04
0.41 0.42 0.31 0.24 0.27 0.19 0.24 0.23 0.16 0.13 0.13 0.16 0.15 0.18 0.21 0.19 0.20 0.20 0.17 0.15 0.15 0.17 0.17 0.19 0.21 0.24 0.24 0.24 0.23 0.17 0.16 0.19 0.21 0.18 0.15 0.10 0.08 0.08 0.09 0.10 0.12 0.08 0.06
0.13 0.16 0.13 0.12 0.19 0.19 0.18 0.18 0.15 0.18 0.23 0.26 0.36 0.36 0.27 0.25 0.35 0.25 0.14 0.07 0.05 0.05 0.05 0.05 0.08 0.12 0.10 0.15 0.17 0.17 0.16 0.24 0.31 0.28 0.25 0.20 0.13 0.14 0.14 0.17 0.20 0.20 0.14
0.11 0.13 0.08 0.09 0.15 0.14 0.14 0.16 0.16 0.23 0.45 0.54 0.44 0.37 0.26 0.18 0.25 0.20 0.15 0.04 0.04 0.04 0.03 0.04 0.06 0.10 0.15 0.09 0.18 0.23 0.30 0.43 0.50 0.44 0.38 0.29 0.24 0.21 0.24 0.26 0.26 0.27 0.21
0.05 0.06 0.08 0.07 0.12 0.16 0.19 0.15 0.34 0.50 0.47 0.37 0.27 0.17 0.14 0.15 0.18 0.13 0.14 0.05 0.05 0.07 0.07 0.07 0.08 0.10 0.19 0.24 0.33 0.45 0.50 0.55 0.51 0.45 0.48 0.48 0.41 0.34 0.35 0.36 0.36 0.28 0.13
0.02 0.03 0.06 0.06 0.09 0.10 0.25 0.49 0.48 0.31 0.15 0.08 0.08 0.08 0.09 0.12 0.17 0.13 0.12 0.04 0.05 0.09 0.09 0.13 0.18 0.16 0.42 0.40 0.30 0.33 0.37 0.38 0.40 0.37 0.37 0.38 0.39 0.32 0.27 0.34 0.27 0.28 0.21
0.03 0.04 0.04 0.10 0.26 0.38 0.34 0.17 0.06 0.05 0.07 0.06 0.07 0.07 0.13 0.10 0.19 0.13 0.12 0.06 0.12 0.15 0.17 0.22 0.38 0.26 0.46 0.29 0.26 0.20 0.23 0.17 0.18 0.23 0.23 0.23 0.20 0.18 0.15 0.16 0.20 0.34 0.30
0.05 0.10 0.17 0.22 0.16 0.09 0.05 0.06 0.05 0.05 0.07 0.09 0.11 0.08 0.08 0.12 0.13 0.14 0.11 0.05 0.11 0.19 0.19 0.20 0.27 0.47 0.28 0.25 0.23 0.22 0.30 0.25 0.26 0.23 0.20 0.19 0.17 0.17 0.18 0.19 0.20 0.29 0.38
0.07 0.10 0.13 0.09 0.08 0.06 0.06 0.08 0.07 0.06 0.07 0.08 0.09 0.08 0.07 0.09 0.19 0.17 0.16 0.20 0.27 0.22 0.24 0.30 0.46 0.42 0.28 0.24 0.26 0.29 0.26 0.22 0.26 0.28 0.28 0.24 0.21 0.21 0.18 0.17 0.20 0.18 0.17
0.07 0.07 0.08 0.07 0.09 0.14 0.15 0.13 0.11 0.13 0.14 0.15 0.13 0.14 0.14 0.12 0.18 0.23 0.22 0.25 0.27 0.28 0.31 0.38 0.43 0.34 0.26 0.26 0.28 0.23 0.21 0.31 0.35 0.33 0.25 0.17 0.15 0.14 0.15 0.20 0.17 0.16 0.14
0.08 0.07 0.06 0.06 0.10 0.09 0.11 0.12 0.11 0.11 0.14 0.18 0.19 0.19 0.22 0.26 0.27 0.30 0.32 0.32 0.35 0.34 0.33 0.38 0.31 0.24 0.23 0.29 0.23 0.19 0.22 0.21 0.20 0.25 0.20 0.16 0.15 0.17 0.23 0.26 0.30 0.28 0.40
0.10 0.09 0.10 0.10 0.09 0.06 0.07 0.13 0.15 0.20 0.31 0.32 0.36 0.41 0.45 0.49 0.50 0.49 0.42 0.39 0.37 0.32 0.30 0.33 0.30 0.27 0.25 0.23 0.17 0.16 0.19 0.19 0.20 0.17 0.18 0.17 0.19 0.21 0.21 0.23 0.33 0.35 0.41
0.14 0.15 0.20 0.18 0.17 0.15 0.14 0.18 0.24 0.30 0.36 0.41 0.46 0.48 0.54 0.58 0.62 0.55 0.47 0.41 0.36 0.33 0.44 0.37 0.32 0.29 0.29 0.25 0.23 0.19 0.16 0.17 0.14 0.16 0.18 0.18 0.21 0.24 0.25 0.25 0.33 0.34 0.31
0.31 0.29 0.29 0.31 0.30 0.26 0.25 0.24 0.29 0.44 0.49 0.56 0.60 0.59 0.51 0.59 0.53 0.46 0.40 0.38 0.38 0.38 0.47 0.38 0.34 0.29 0.22 0.16 0.16 0.17 0.18 0.16 0.14 0.18 0.19 0.17 0.16 0.16 0.16 0.17 0.16 0.14 0.14
0.69 0.75 0.69 0.68 0.68 0.69 0.73 0.79 0.78 0.76 0.84 0.97 0.90 0.67 0.57 0.52 0.47 0.42 0.37 0.36 0.37 0.28 0.25 0.21 0.19 0.16 0.13 0.13 0.11 0.12 0.12 0.14 0.15 0.13 0.13 0.15 0.17 0.20 0.21 0.16 0.15 0.16 0.16
0.76 0.95 1.05 1.08 1.12 1.13 1.09 1.06 0.99 0.91 0.84 0.80 0.73 0.65 0.57 0.47 0.39 0.36 0.33 0.41 0.33 0.25 0.19 0.18 0.15 0.16 0.18 0.18 0.20 0.22 0.27 0.28 0.28 0.30 0.29 0.31 0.32 0.36 0.33 0.31 0.29 0.22 0.22
0.90 1.05 1.06 1.07 1.05 0.97 0.87 0.74 0.65 0.61 0.54 0.48 0.45 0.41 0.36 0.32 0.32 0.28 0.27 0.27 0.26 0.23 0.18 0.18 0.17 0.18 0.21 0.22 0.23 0.24 0.24 0.23 0.23 0.24 0.22 0.20 0.20 0.21 0.22 0.20 0.19 0.20 0.16
0.79 0.78 0.73 0.66 0.62 0.60 0.56 0.52 0.49 0.45 0.44 0.39 0.37 0.32 0.25 0.26 0.26 0.21 0.18 0.20 0.20 0.18 0.19 0.19 0.17 0.17 0.17 0.18 0.18 0.18 0.16 0.16 0.18 0.21 0.21 0.23 0.25 0.23 0.20 0.21 0.18 0.15 0.14
0.44 0.40 0.36 0.35 0.34 0.33 0.30 0.28 0.28 0.26 0.24 0.23 0.21 0.17 0.13 0.18 0.21 0.23 0.25 0.25 0.24 0.22 0.20 0.20 0.18 0.16 0.15 0.18 0.18 0.21 0.19 0.17 0.15 0.15 0.14 0.14 0.16 0.17 0.17 0.18 0.17 0.16 0.14
0.21 0.22 0.23 0.22 0.22 0.20 0.19 0.18 0.21 0.24 0.26 0.27 0.26 0.26 0.25 0.29 0.28 0.26 0.25 0.23 0.22 0.23 0.21 0.23 0.23 0.20 0.18 0.21 0.25 0.26 0.25 0.18 0.17 0.23 0.24 0.18 0.15 0.15 0.17 0.17 0.17 0.18 0.17
0.15 0.15 0.15 0.15 0.16 0.18 0.21 0.24 0.26 0.26 0.26 0.27 0.30 0.30 0.28 0.28 0.30 0.29 0.27 0.25 0.26 0.25 0.24 0.27 0.25 0.22 0.20 0.19 0.20 0.21 0.22 0.20 0.25 0.27 0.30 0.30 0.22 0.17 0.19 0.18 0.16 0.17 0.17
0.13 0.16 0.20 0.23 0.26 0.26 0.23 0.20 0.21 0.25 0.30 0.30 0.27 0.23 0.20 0.19 0.17 0.16 0.15 0.15 0.14 0.14 0.13 0.15 0.14 0.12 0.11 0.13 0.15 0.14 0.12 0.16 0.21 0.22 0.30 0.28 0.23 0.22 0.23 0.23 0.20 0.21 0.18
0.10 0.15 0.17 0.17 0.18 0.19 0.24 0.28 0.29 0.27 0.26 0.22 0.20 0.18 0.16 0.14 0.11 0.10 0.09 0.08 0.09 0.08 0.08 0.09 0.09 0.07 0.07 0.08 0.10 0.13 0.11 0.10 0.15 0.18 0.26 0.27 0.26 0.25 0.26 0.24 0.23 0.27 0.19

GFSGL_prec_precacc_081.txt.gz
Total_Precipitation_Accumulation
0.59 0.48 0.27 0.37 0.35 0.58 0.60 0.75 0.59 0.55 0.64 0.68 0.48 0.36 0.29 0.43 0.48 0.37 0.37 0.37 0.38 0.42 0.39 0.32 0.26 0.23 0.21 0.19 0.17 0.16 0.13 0.14 0.15 0.07 0.04 0.04 0.03 0.03 0.01 0.00 0.01 0.03 0.06
1.29 1.38 0.85 0.90 0.78 0.75 0.81 0.77 0.81 0.80 0.75 0.58 0.39 0.31 0.33 0.39 0.57 0.72 0.62 0.54 0.50 0.47 0.43 0.37 0.30 0.29 0.32 0.34 0.36 0.33 0.29 0.25 0.30 0.26 0.15 0.10 0.07 0.05 0.04 0.02 0.02 0.01 0.01
1.19 1.15 0.92 1.03 1.14 0.94 0.79 0.55 0.34 0.34 0.39 0.34 0.36 0.31 0.34 0.34 0.34 0.33 0.34 0.38 0.42 0.43 0.45 0.43 0.35 0.29 0.24 0.21 0.23 0.25 0.23 0.24 0.26 0.27 0.17 0.10 0.08 0.06 0.07 0.07 0.06 0.04 0.02
0.57 0.58 0.49 0.47 0.65 0.32 0.33 0.27 0.22 0.16 0.17 0.19 0.15 0.15 0.15 0.18 0.21 0.22 0.27 0.29 0.27 0.23 0.23 0.27 0.37 0.44 0.43 0.38 0.33 0.28 0.25 0.25 0.24 0.23 0.19 0.14 0.12 0.08 0.10 0.11 0.09 0.07 0.05
0.41 0.42 0.31 0.24 0.27 0.19 0.24 0.23 0.16 0.13 0.13 0.16 0.15 0.18 0.21 0.19 0.20 0.20 0.17 0.15 0.15 0.17 0.17 0.19 0.21 0.24 0.24 0.24 0.25 0.21 0.22 0.26 0.27 0.27 0.22 0.15 0.13 0.11 0.12 0.12 0.15 0.11 0.11
0.13 0.16 0.13 0.12 0.19 0.19 0.18 0.18 0.15 0.18 0.23 0.26 0.36 0.36 0.27 0.25 0.35 0.25 0.14 0.07 0.05 0.05 0.05 0.05 0.08 0.12 0.10 0.15 0.20 0.23 0.22 0.28 0.34 0.32 0.31 0.30 0.22 0.24 0.25 0.31 0.34 0.35 0.30
0.13 0.15 0.08 0.09 0.16 0.14 0.14 0.16 0.16 0.23 0.45 0.54 0.44 0.37 0.26 0.18 0.25 0.20 0.15 0.04 0.04 0.04 0.03 0.04 0.06 0.10 0.15 0.09 0.19 0.25 0.32 0.46 0.55 0.54 0.58 0.51 0.45 0.41 0.39 0.43 0.46 0.47 0.40
0.06 0.08 0.11 0.10 0.13 0.17 0.19 0.15 0.34 0.50 0.47 0.37 0.27 0.17 0.14 0.15 0.18 0.13 0.14 0.05 0.05 0.07 0.07 0.07 0.08 0.10 0.19 0.24 0.33 0.45 0.51 0.60 0.64 0.64 0.69 0.72 0.65 0.53 0.49 0.49 0.47 0.41 0.28
0.02 0.03 0.06 0.09 0.12 0.13 0.26 0.49 0.48 0.31 0.15 0.08 0.08 0.08 0.09 0.12 0.17 0.13 0.12 0.04 0.06 0.09 0.09 0.13 0.18 0.16 0.43 0.41 0.31 0.34 0.40 0.45 0.53 0.51 0.50 0.54 0.54 0.45 0.37 0.44 0.38 0.38 0.31
0.03 0.04 0.04 0.11 0.29 0.43 0.38 0.19 0.07 0.05 0.07 0.06 0.07 0.07 0.13 0.10 0.19 0.13 0.12 0.06 0.14 0.17 0.18 0.23 0.40 0.28 0.50 0.31 0.27 0.21 0.27 0.25 0.25 0.31 0.32 0.31 0.27 0.24 0.20 0.21 0.25 0.41 0.37
0.05 0.10 0.17 0.22 0.17 0.14 0.11 0.11 0.08 0.06 0.08 0.09 0.11 0.09 0.08 0.12 0.14 0.16 0.13 0.06 0.12 0.20 0.21 0.22 0.30 0.55 0.34 0.32 0.29 0.24 0.36 0.33 0.36 0.29 0.26 0.25 0.21 0.21 0.22 0.24 0.26 0.34 0.42
0.07 0.10 0.13 0.09 0.08 0.07 0.11 0.14 0.13 0.09 0.08 0.08 0.09 0.08 0.07 0.10 0.20 0.20 0.18 0.23 0.31 0.24 0.28 0.35 0.54 0.54 0.37 0.34 0.34 0.38 0.36 0.28 0.29 0.31 0.33 0.29 0.26 0.26 0.22 0.20 0.21 0.19 0.18
0.07 0.07 0.08 0.07 0.09 0.16 0.20 0.19 0.20 0.21 0.20 0.17 0.14 0.15 0.15 0.14 0.19 0.28 0.27 0.32 0.38 0.37 0.48 0.62 0.66 0.52 0.42 0.42 0.44 0.38 0.34 0.41 0.45 0.42 0.33 0.24 0.19 0.17 0.16 0.20 0.17 0.16 0.14
0.08 0.07 0.06 0.06 0.10 0.10 0.13 0.15 0.16 0.17 0.20 0.25 0.26 0.25 0.28 0.30 0.33 0.36 0.39 0.44 0.53 0.58 0.66 0.72 0.65 0.58 0.54 0.56 0.47 0.40 0.38 0.33 0.30 0.32 0.27 0.22 0.18 0.18 0.23 0.26 0.30 0.28 0.40
0.10 0.09 0.10 0.10 0.10 0.08 0.09 0.18 0.19 0.29 0.41 0.42 0.47 0.55 0.60 0.65 0.72 0.74 0.70 0.72 0.78 0.79 0.78 0.82 0.72 0.62 0.57 0.50 0.39 0.34 0.35 0.33 0.31 0.26 0.24 0.22 0.22 0.23 0.22 0.23 0.33 0.35 0.41
0.14 0.15 0.21 0.18 0.18 0.18 0.18 0.24 0.33 0.41 0.47 0.54 0.63 0.68 0.84 0.90 1.03 0.99 0.97 0.94 0.89 0.83 0.88 0.80 0.72 0.62 0.57 0.51 0.45 0.37 0.31 0.29 0.23 0.21 0.22 0.21 0.22 0.25 0.25 0.25 0.33 0.34 0.31
0.31 0.30 0.31 0.35 0.34 0.32 0.33 0.36 0.45 0.63 0.67 0.76 0.83 0.85 0.81 0.95 0.92 0.88 0.81 0.74 0.70 0.65 0.73 0.66 0.59 0.49 0.38 0.30 0.28 0.26 0.25 0.21 0.16 0.19 0.20 0.17 0.16 0.16 0.16 0.17 0.16 0.14 0.14
0.70 0.75 0.71 0.73 0.78 0.84 0.89 0.99 1.09 1.19 1.28 1.43 1.39 1.16 1.02 0.90 0.78 0.69 0.60 0.54 0.54 0.42 0.37 0.32 0.29 0.24 0.19 0.18 0.16 0.15 0.14 0.14 0.15 0.13 0.13 0.15 0.17 0.20 0.21 0.16 0.15 0.16 0.16
0.77 0.96 1.06 1.11 1.18 1.21 1.19 1.20 1.17 1.11 1.03 0.99 0.92 0.83 0.75 0.62 0.51 0.47 0.42 0.48 0.40 0.31 0.25 0.24 0.20 0.21 0.22 0.21 0.22 0.22 0.27 0.28 0.28 0.30 0.29 0.31 0.32 0.36 0.33 0.31 0.29 0.22 0.22
0.91 1.07 1.07 1.09 1.09 1.03 0.95 0.82 0.74 0.70 0.63 0.58 0.54 0.51 0.46 0.38 0.38 0.34 0.32 0.32 0.31 0.27 0.22 0.21 0.19 0.20 0.21 0.22 0.23 0.24 0.24 0.23 0.23 0.24 0.22 0.20 0.20 0.21 0.22 0.20 0.19 0.20 0.16
0.80 0.79 0.74 0.67 0.64 0.62 0.60 0.56 0.53 0.50 0.50 0.45 0.45 0.41 0.31 0.31 0.32 0.26 0.23 0.24 0.23 0.21 0.21 0.20 0.18 0.17 0.17 0.18 0.18 0.18 0.16 0.16 0.18 0.21 0.21 0.23 0.25 0.23 0.20 0.21 0.18 0.15 0.14
0.45 0.40 0.36 0.36 0.35 0.34 0.31 0.29 0.29 0.27 0.25 0.25 0.24 0.19 0.15 0.20 0.23 0.25 0.26 0.25 0.24 0.22 0.20 0.20 0.18 0.16 0.15 0.18 0.18 0.21 0.19 0.17 0.15 0.15 0.14 0.14 0.16 0.17 0.17 0.18 0.17 0.16 0.14
0.21 0.22 0.23 0.23 0.22 0.21 0.19 0.19 0.21 0.24 0.26 0.27 0.26 0.26 0.25 0.29 0.28 0.26 0.25 0.23 0.22 0.23 0.21 0.23 0.23 0.20 0.18 0.21 0.25 0.26 0.25 0.18 0.17 0.23 0.24 0.18 0.15 0.15 0.17 0.17 0.17 0.18 0.17
0.15 0.15 0.15 0.15 0.16 0.18 0.21 0.24 0.27 0.26 0.26 0.27 0.30 0.30 0.28 0.29 0.30 0.29 0.27 0.25 0.26 0.25 0.24 0.27 0.25 0.22 0.20 0.19 0.20 0.21 0.22 0.20 0.25 0.27 0.30 0.30 0.22 0.17 0.19 0.18 0.16 0.17 0.17
0.13 0.16 0.20 0.23 0.26 0.26 0.23 0.20 0.21 0.25 0.30 0.30 0.27 0.24 0.20 0.19 0.17 0.16 0.15 0.15 0.14 0.14 0.13 0.15 0.14 0.12 0.11 0.13 0.15 0.14 0.12 0.16 0.21 0.22 0.30 0.28 0.23 0.22 0.23 0.23 0.20 0.21 0.18
0.10 0.15 0.17 0.17 0.18 0.19 0.24 0.28 0.29 0.27 0.26 0.22 0.20 0.18 0.16 0.14 0.11 0.10 0.09 0.08 0.09 0.08 0.08 0.09 0.09 0.07 0.07 0.08 0.10 0.13 0.11 0.10 0.15 0.18 0.26 0.27 0.26 0.25 0.26 0.24 0.23 0.27 0.19

GFSGL_prec_precacc_084.txt.gz
Total_Precipitation_Accumulation
0.59 0.48 0.27 0.37 0.36 0.58 0.60 0.75 0.59 0.55 0.64 0.68 0.48 0.36 0.29 0.43 0.48 0.37 0.37 0.37 0.38 0.42 0.39 0.33 0.26 0.23 0.21 0.19 0.17 0.16 0.13 0.14 0.16 0.07 0.04 0.04 0.03 0.03 0.01 0.00 0.01 0.03 0.07
1.29 1.38 0.85 0.90 0.78 0.75 0.81 0.77 0.81 0.80 0.75 0.58 0.39 0.31 0.33 0.39 0.57 0.72 0.62 0.54 0.50 0.47 0.43 0.37 0.30 0.29 0.32 0.34 0.36 0.33 0.29 0.25 0.30 0.26 0.16 0.12 0.09 0.07 0.05 0.03 0.03 0.02 0.03
1.19 1.15 0.92 1.03 1.14 0.94 0.79 0.55 0.34 0.34 0.39 0.34 0.36 0.31 0.34 0.34 0.34 0.33 0.34 0.38 0.42 0.43 0.45 0.43 0.35 0.29 0.24 0.21 0.23 0.25 0.23 0.24 0.26 0.27 0.18 0.10 0.08 0.06 0.08 0.08 0.07 0.05 0.03
0.57 0.58 0.49 0.47 0.65 0.32 0.33 0.27 0.22 0.16 0.17 0.19 0.15 0.15 0.15 0.18 0.21 0.22 0.27 0.29 0.27 0.23 0.23 0.27 0.37 0.44 0.43 0.38 0.33 0.28 0.25 0.25 0.24 0.24 0.21 0.15 0.14 0.09 0.10 0.13 0.12 0.10 0.09
0.45 0.44 0.33 0.24 0.29 0.21 0.25 0.23 0.16 0.13 0.13 0.16 0.15 0.18 0.21 0.19 0.20 0.20 0.17 0.15 0.15 0.17 0.17 0.19 0.21 0.24 0.24 0.24 0.25 0.21 0.22 0.26 0.28 0.28 0.25 0.18 0.16 0.12 0.13 0.14 0.19 0.15 0.18
0.18 0.26 0.18 0.15 0.20 0.19 0.19 0.19 0.16 0.18 0.23 0.26 0.36 0.36 0.27 0.25 0.35 0.25 0.14 0.07 0.05 0.05 0.05 0.05 0.08 0.12 0.10 0.15 0.20 0.23 0.22 0.28 0.34 0.32 0.32 0.31 0.22 0.24 0.26 0.32 0.38 0.42 0.41
0.13 0.24 0.17 0.13 0.18 0.18 0.21 0.19 0.18 0.24 0.48 0.55 0.45 0.37 0.26 0.18 0.25 0.20 0.15 0.04 0.04 0.04 0.03 0.04 0.06 0.10 0.15 0.09 0.19 0.25 0.32 0.47 0.56 0.55 0.59 0.52 0.46 0.42 0.41 0.46 0.50 0.53 0.49
0.06 0.09 0.13 0.14 0.18 0.24 0.24 0.19 0.37 0.54 0.50 0.40 0.28 0.18 0.14 0.15 0.18 0.13 0.14 0.05 0.05 0.07 0.07 0.07 0.08 0.10 0.19 0.24 0.33 0.45 0.51 0.61 0.64 0.65 0.71 0.75 0.72 0.65 0.62 0.59 0.56 0.49 0.37
0.02 0.03 0.06 0.09 0.14 0.15 0.29 0.54 0.56 0.40 0.19 0.10 0.11 0.10 0.10 0.12 0.17 0.13 0.12 0.04 0.06 0.09 0.09 0.13 0.18 0.16 0.43 0.42 0.31 0.34 0.41 0.46 0.56 0.55 0.54 0.62 0.68 0.58 0.47 0.52 0.46 0.46 0.38
0.03 0.04 0.04 0.11 0.29 0.43 0.38 0.20 0.13 0.13 0.09 0.10 0.11 0.13 0.17 0.12 0.21 0.15 0.13 0.07 0.15 0.18 0.19 0.24 0.42 0.30 0.52 0.34 0.28 0.21 0.29 0.29 0.30 0.38 0.38 0.38 0.34 0.31 0.30 0.29 0.33 0.50 0.47
0.05 0.10 0.17 0.22 0.17 0.14 0.11 0.12 0.09 0.09 0.14 0.17 0.17 0.14 0.14 0.16 0.16 0.19 0.15 0.07 0.13 0.20 0.22 0.25 0.33 0.65 0.44 0.43 0.40 0.31 0.50 0.52 0.54 0.40 0.33 0.32 0.27 0.25 0.26 0.28 0.29 0.36 0.45
0.07 0.10 0.13 0.09 0.08 0.07 0.11 0.14 0.14 0.12 0.12 0.16 0.18 0.16 0.12 0.12 0.23 0.22 0.21 0.25 0.33 0.24 0.29 0.40 0.62 0.66 0.44 0.41 0.42 0.52 0.56 0.42 0.37 0.42 0.46 0.44 0.43 0.43 0.37 0.30 0.25 0.20 0.19
0.07 0.07 0.08 0.07 0.09 0.16 0.20 0.19 0.20 0.24 0.23 0.20 0.19 0.21 0.21 0.20 0.24 0.34 0.32 0.39 0.46 0.43 0.56 0.75 0.80 0.63 0.50 0.53 0.60 0.58 0.56 0.66 0.76 0.81 0.77 0.67 0.57 0.45 0.34 0.31 0.23 0.19 0.16
0.08 0.07 0.06 0.06 0.10 0.10 0.13 0.15 0.16 0.17 0.21 0.29 0.35 0.37 0.40 0.42 0.43 0.42 0.46 0.52 0.63 0.72 0.82 0.88 0.81 0.73 0.71 0.80 0.82 0.78 0.76 0.75 0.73 0.74 0.65 0.55 0.43 0.37 0.38 0.38 0.38 0.33 0.43
0.10 0.09 0.10 0.10 0.10 0.08 0.10 0.18 0.20 0.31 0.44 0.46 0.55 0.66 0.75 0.84 0.95 0.97 0.89 0.93 1.02 1.10 1.11 1.20 1.18 1.10 1.04 0.99 0.91 0.86 0.82 0.73 0.66 0.56 0.48 0.42 0.37 0.33 0.30 0.27 0.36 0.36 0.42
0.14 0.15 0.21 0.18 0.18 0.18 0.18 0.24 0.35 0.44 0.51 0.58 0.71 0.77 1.00 1.12 1.29 1.24 1.23 1.23 1.24 1.24 1.29 1.23 1.15 1.08 1.03 0.95 0.84 0.72 0.61 0.54 0.43 0.37 0.34 0.29 0.28 0.28 0.26 0.25 0.33 0.34 0.31
0.31 0.30 0.31 0.35 0.34 0.32 0.34 0.37 0.46 0.65 0.71 0.84 0.95 1.01 0.99 1.19 1.17 1.10 1.01 0.96 0.95 0.90 0.98 0.92 0.86 0.77 0.66 0.55 0.48 0.43 0.40 0.34 0.26 0.26 0.24 0.19 0.17 0.16 0.16 0.17 0.16 0.14 0.14
0.70 0.76 0.71 0.73 0.78 0.84 0.90 1.00 1.11 1.21 1.33 1.53 1.52 1.34 1.25 1.16 1.10 1.02 0.91 0.78 0.77 0.63 0.56 0.50 0.45 0.38 0.31 0.27 0.23 0.21 0.19 0.18 0.16 0.14 0.14 0.15 0.17 0.20 0.21 0.16 0.15 0.16 0.16
0.77 0.96 1.06 1.11 1.18 1.22 1.20 1.21 1.18 1.13 1.07 1.05 0.98 0.89 0.86 0.75 0.64 0.59 0.52 0.57 0.49 0.41 0.34 0.31 0.26 0.25 0.26 0.23 0.23 0.23 0.27 0.28 0.28 0.30 0.29 0.31 0.32 0.36 0.33 0.31 0.29 0.22 0.22
0.91 1.07 1.07 1.09 1.09 1.03 0.95 0.83 0.75 0.71 0.65 0.61 0.57 0.57 0.52 0.43 0.44 0.41 0.38 0.38 0.36 0.33 0.27 0.25 0.22 0.22 0.23 0.23 0.23 0.24 0.24 0.23 0.23 0.24 0.22 0.20 0.20 0.21 0.22 0.20 0.19 0.20 0.16
0.80 0.79 0.74 0.67 0.64 0.63 0.60 0.56 0.54 0.50 0.50 0.46 0.46 0.43 0.34 0.33 0.35 0.29 0.26 0.27 0.26 0.23 0.23 0.21 0.18 0.18 0.17 0.18 0.18 0.18 0.16 0.16 0.18 0.21 0.21 0.23 0.25 0.23 0.20 0.21 0.18 0.15 0.14
0.45 0.40 0.36 0.36 0.35 0.34 0.31 0.29 0.29 0.27 0.26 0.25 0.24 0.20 0.15 0.20 0.23 0.25 0.26 0.25 0.24 0.22 0.21 0.20 0.18 0.16 0.15 0.18 0.18 0.21 0.19 0.17 0.15 0.15 0.14 0.14 0.16 0.17 0.17 0.18 0.17 0.16 0.14
0.21 0.22 0.23 0.23 0.22 0.21 0.19 0.19 0.21 0.24 0.27 0.27 0.26 0.27 0.25 0.30 0.28 0.26 0.26 0.24 0.22 0.23 0.21 0.23 0.23 0.20 0.18 0.21 0.25 0.26 0.25 0.18 0.17 0.23 0.24 0.18 0.15 0.15 0.17 0.17 0.17 0.18 0.17
0.15 0.15 0.15 0.15 0.16 0.18 0.21 0.25 0.27 0.26 0.26 0.28 0.30 0.30 0.28 0.29 0.30 0.29 0.27 0.25 0.26 0.25 0.24 0.27 0.25 0.22 0.20 0.19 0.20 0.21 0.22 0.20 0.25 0.27 0.30 0.30 0.22 0.17 0.19 0.18 0.16 0.17 0.17
0.13 0.16 0.20 0.23 0.26 0.26 0.23 0.20 0.21 0.25 0.30 0.30 0.28 0.24 0.20 0.19 0.17 0.16 0.15 0.15 0.14 0.14 0.14 0.15 0.14 0.12 0.11 0.13 0.15 0.14 0.12 0.16 0.21 0.22 0.30 0.28 0.23 0.22 0.23 0.23 0.20 0.21 0.18
0.10 0.15 0.17 0.17 0.18 0.19 0.24 0.28 0.29 0.27 0.26 0.22 0.20 0.18 0.16 0.14 0.11 0.10 0.09 0.08 0.09 0.08 0.08 0.09 0.09 0.07 0.07 0.08 0.10 0.13 0.11 0.10 0.15 0.18 0.26 0.27 0.26 0.25 0.26 0.24 0.23 0.27 0.19

GFSGL_prec_precacc_087.txt.gz
Total_Precipitation_Accumulation
0.59 0.48 0.27 0.37 0.36 0.58 0.60 0.75 0.59 0.55 0.64 0.68 0.48 0.36 0.29 0.43 0.48 0.37 0.37 0.37 0.38 0.42 0.39 0.33 0.26 0.24 0.22 0.20 0.19 0.17 0.14 0.15 0.17 0.08 0.04 0.04 0.03 0.03 0.01 0.00 0.01 0.03 0.07
1.29 1.38 0.85 0.90 0.78 0.75 0.81 0.77 0.81 0.80 0.75 0.58 0.39 0.31 0.33 0.39 0.57 0.72 0.62 0.54 0.50 0.47 0.43 0.37 0.30 0.29 0.32 0.34 0.36 0.33 0.29 0.25 0.30 0.27 0.16 0.12 0.09 0.07 0.05 0.03 0.03 0.02 0.03
1.21 1.16 0.93 1.04 1.14 0.94 0.79 0.55 0.34 0.34 0.39 0.34 0.36 0.31 0.34 0.34 0.34 0.33 0.34 0.38 0.42 0.43 0.45 0.43 0.35 0.29 0.24 0.21 0.23 0.25 0.23 0.24 0.26 0.27 0.18 0.10 0.08 0.06 0.08 0.08 0.07 0.05 0.03
0.60 0.61 0.52 0.51 0.68 0.34 0.33 0.27 0.22 0.16 0.17 0.19 0.15 0.15 0.15 0.18 0.21 0.22 0.27 0.29 0.27 0.23 0.23 0.27 0.37 0.44 0.43 0.38 0.33 0.28 0.25 0.25 0.24 0.24 0.21 0.15 0.14 0.09 0.10 0.13 0.12 0.10 0.09
0.52 0.53 0.43 0.30 0.34 0.24 0.27 0.24 0.16 0.13 0.13 0.16 0.15 0.18 0.21 0.19 0.20 0.20 0.17 0.15 0.15 0.17 0.17 0.19 0.21 0.24 0.24 0.24 0.25 0.21 0.22 0.26 0.28 0.28 0.25 0.18 0.16 0.12 0.13 0.14 0.19 0.15 0.18
0.20 0.29 0.20 0.18 0.24 0.23 0.24 0.28 0.19 0.19 0.24 0.27 0.37 0.36 0.28 0.25 0.35 0.25 0.14 0.07 0.05 0.05 0.05 0.05 0.08 0.12 0.10 0.15 0.20 0.23 0.22 0.28 0.34 0.32 0.32 0.31 0.22 0.24 0.26 0.32 0.39 0.44 0.44
0.13 0.24 0.17 0.13 0.19 0.19 0.25 0.24 0.21 0.29 0.53 0.57 0.47 0.39 0.28 0.21 0.28 0.22 0.16 0.04 0.04 0.04 0.03 0.04 0.06 0.10 0.15 0.09 0.19 0.25 0.32 0.47 0.56 0.55 0.59 0.52 0.46 0.42 0.41 0.46 0.51 0.55 0.52
0.06 0.09 0.13 0.14 0.18 0.24 0.24 0.20 0.40 0.59 0.54 0.43 0.30 0.21 0.17 0.16 0.22 0.23 0.25 0.08 0.05 0.07 0.07 0.07 0.08 0.10 0.19 0.24 0.33 0.45 0.51 0.61 0.64 0.65 0.71 0.75 0.72 0.66 0.65 0.64 0.63 0.58 0.48
0.02 0.03 0.06 0.09 0.14 0.15 0.29 0.54 0.57 0.41 0.19 0.10 0.12 0.16 0.13 0.14 0.24 0.21 0.24 0.08 0.08 0.12 0.12 0.13 0.18 0.16 0.43 0.42 0.31 0.34 0.41 0.46 0.56 0.56 0.55 0.63 0.70 0.61 0.52 0.57 0.55 0.57 0.53
0.03 0.04 0.04 0.11 0.29 0.43 0.38 0.20 0.13 0.13 0.09 0.10 0.12 0.15 0.24 0.16 0.28 0.22 0.18 0.10 0.18 0.21 0.22 0.25 0.44 0.31 0.52 0.34 0.29 0.21 0.29 0.29 0.30 0.40 0.42 0.43 0.41 0.40 0.43 0.41 0.47 0.69 0.65
0.05 0.10 0.17 0.22 0.17 0.14 0.11 0.12 0.09 0.09 0.14 0.17 0.18 0.16 0.18 0.21 0.22 0.25 0.19 0.12 0.18 0.24 0.26 0.29 0.37 0.73 0.50 0.48 0.45 0.34 0.59 0.62 0.64 0.50 0.42 0.43 0.39 0.39 0.39 0.39 0.43 0.52 0.62
0.07 0.10 0.13 0.09 0.08 0.07 0.11 0.14 0.14 0.12 0.12 0.16 0.19 0.19 0.16 0.17 0.31 0.27 0.25 0.31 0.45 0.37 0.43 0.52 0.78 0.84 0.55 0.50 0.52 0.67 0.74 0.53 0.42 0.47 0.52 0.53 0.54 0.58 0.57 0.53 0.51 0.47 0.43
0.07 0.07 0.08 0.07 0.09 0.16 0.20 0.19 0.20 0.24 0.23 0.20 0.19 0.23 0.24 0.23 0.29 0.41 0.37 0.45 0.57 0.57 0.73 0.95 0.97 0.75 0.61 0.67 0.79 0.77 0.71 0.78 0.93 1.03 1.01 0.94 0.84 0.74 0.65 0.62 0.54 0.47 0.40
0.08 0.07 0.06 0.06 0.10 0.10 0.13 0.15 0.16 0.17 0.21 0.29 0.36 0.38 0.41 0.44 0.46 0.47 0.52 0.59 0.73 0.87 1.12 1.26 1.22 1.09 1.04 1.11 1.13 1.07 1.03 1.04 1.05 1.09 1.01 0.89 0.76 0.68 0.66 0.64 0.62 0.56 0.62
0.10 0.09 0.10 0.10 0.10 0.08 0.10 0.19 0.21 0.32 0.44 0.46 0.56 0.67 0.76 0.87 1.01 1.05 0.99 1.06 1.19 1.30 1.36 1.51 1.52 1.44 1.37 1.35 1.28 1.27 1.27 1.24 1.19 1.07 0.95 0.83 0.76 0.67 0.57 0.49 0.53 0.49 0.52
0.14 0.15 0.21 0.18 0.18 0.18 0.18 0.24 0.35 0.44 0.51 0.59 0.71 0.79 1.04 1.19 1.35 1.31 1.32 1.34 1.36 1.35 1.41 1.39 1.37 1.31 1.26 1.17 1.07 0.96 0.85 0.77 0.66 0.57 0.52 0.45 0.41 0.39 0.35 0.31 0.36 0.36 0.33
0.31 0.30 0.31 0.35 0.34 0.32 0.34 0.37 0.47 0.65 0.71 0.84 0.96 1.02 1.02 1.23 1.21 1.16 1.09 1.04 1.05 0.98 1.07 1.03 0.99 0.91 0.79 0.68 0.61 0.55 0.52 0.44 0.35 0.33 0.31 0.25 0.21 0.18 0.17 0.18 0.16 0.15 0.14
0.70 0.76 0.71 0.74 0.79 0.84 0.90 1.01 1.11 1.21 1.33 1.53 1.53 1.35 1.27 1.17 1.11 1.04 0.94 0.81 0.81 0.67 0.61 0.55 0.51 0.45 0.38 0.34 0.30 0.28 0.25 0.23 0.20 0.16 0.14 0.15 0.17 0.20 0.21 0.16 0.15 0.16 0.16
0.77 0.96 1.06 1.11 1.18 1.22 1.20 1.21 1.18 1.13 1.07 1.06 0.99 0.90 0.88 0.76 0.65 0.60 0.53 0.59 0.52 0.45 0.38 0.36 0.31 0.32 0.32 0.30 0.29 0.26 0.29 0.29 0.29 0.30 0.29 0.31 0.32 0.36 0.33 0.31 0.29 0.22 0.22
0.91 1.07 1.07 1.09 1.09 1.03 0.95 0.83 0.75 0.71 0.65 0.61 0.58 0.58 0.52 0.44 0.44 0.42 0.40 0.40 0.39 0.36 0.30 0.29 0.26 0.25 0.25 0.25 0.24 0.25 0.25 0.24 0.24 0.24 0.22 0.20 0.20 0.21 0.22 0.20 0.19 0.20 0.16
0.80 0.79 0.74 0.67 0.64 0.63 0.60 0.56 0.54 0.50 0.50 0.46 0.47 0.43 0.34 0.33 0.35 0.30 0.26 0.28 0.27 0.24 0.23 0.21 0.18 0.18 0.17 0.18 0.18 0.18 0.16 0.16 0.18 0.21 0.21 0.23 0.25 0.23 0.20 0.21 0.18 0.15 0.14
0.45 0.40 0.36 0.36 0.35 0.34 0.31 0.29 0.29 0.27 0.26 0.25 0.24 0.20 0.15 0.20 0.23 0.25 0.26 0.25 0.24 0.22 0.21 0.20 0.18 0.16 0.15 0.18 0.18 0.21 0.19 0.17 0.15 0.15 0.14 0.14 0.16 0.17 0.17 0.18 0.17 0.16 0.14
0.21 0.22 0.23 0.23 0.22 0.21 0.19 0.19 0.21 0.24 0.27 0.27 0.26 0.27 0.25 0.30 0.28 0.26 0.26 0.24 0.22 0.23 0.21 0.23 0.23 0.20 0.18 0.21 0.25 0.26 0.25 0.18 0.17 0.23 0.24 0.18 0.15 0.15 0.17 0.17 0.17 0.18 0.17
0.15 0.15 0.15 0.15 0.16 0.18 0.21 0.25 0.27 0.26 0.26 0.28 0.30 0.30 0.28 0.29 0.30 0.29 0.27 0.25 0.26 0.25 0.24 0.27 0.25 0.22 0.20 0.19 0.20 0.21 0.22 0.20 0.25 0.27 0.30 0.30 0.22 0.17 0.19 0.18 0.16 0.17 0.17
0.13 0.16 0.20 0.23 0.26 0.26 0.23 0.20 0.21 0.25 0.30 0.30 0.28 0.24 0.20 0.19 0.17 0.16 0.15 0.15 0.14 0.14 0.14 0.15 0.14 0.12 0.11 0.13 0.15 0.14 0.12 0.16 0.21 0.22 0.30 0.28 0.23 0.22 0.23 0.23 0.20 0.21 0.18
0.10 0.15 0.17 0.17 0.18 0.19 0.24 0.28 0.29 0.27 0.26 0.22 0.20 0.18 0.16 0.14 0.11 0.10 0.09 0.08 0.09 0.08 0.08 0.09 0.09 0.07 0.07 0.08 0.10 0.13 0.11 0.10 0.15 0.18 0.26 0.27 0.26 0.25 0.26 0.24 0.23 0.27 0.19

GFSGL_prec_precacc_090.txt.gz
Total_Precipitation_Accumulation
0.59 0.48 0.27 0.37 0.36 0.58 0.60 0.75 0.59 0.55 0.64 0.68 0.48 0.36 0.29 0.43 0.48 0.37 0.37 0.37 0.38 0.42 0.39 0.33 0.27 0.24 0.23 0.21 0.19 0.18 0.15 0.16 0.19 0.08 0.04 0.04 0.03 0.03 0.01 0.00 0.01 0.03 0.07
1.29 1.38 0.86 0.90 0.78 0.75 0.81 0.77 0.81 0.80 0.75 0.58 0.39 0.31 0.33 0.39 0.57 0.72 0.62 0.54 0.50 0.47 0.43 0.37 0.30 0.29 0.33 0.34 0.36 0.33 0.29 0.25 0.32 0.29 0.16 0.12 0.09 0.07 0.05 0.03 0.03 0.02 0.03
1.21 1.16 0.93 1.04 1.14 0.94 0.79 0.55 0.34 0.34 0.39 0.34 0.36 0.31 0.34 0.34 0.34 0.33 0.34 0.38 0.42 0.43 0.45 0.43 0.35 0.29 0.24 0.22 0.24 0.25 0.23 0.24 0.26 0.28 0.18 0.10 0.08 0.06 0.08 0.08 0.07 0.05 0.03
0.69 0.68 0.58 0.54 0.70 0.35 0.33 0.27 0.22 0.16 0.17 0.19 0.15 0.15 0.15 0.18 0.21 0.22 0.27 0.29 0.27 0.23 0.23 0.27 0.37 0.44 0.43 0.38 0.33 0.28 0.25 0.25 0.24 0.24 0.21 0.15 0.14 0.09 0.10 0.13 0.12 0.10 0.09
0.59 0.59 0.46 0.31 0.36 0.25 0.29 0.25 0.16 0.14 0.13 0.16 0.15 0.18 0.21 0.19 0.20 0.20 0.17 0.15 0.15 0.17 0.17 0.19 0.21 0.24 0.24 0.24 0.25 0.21 0.22 0.26 0.28 0.28 0.25 0.18 0.16 0.12 0.13 0.14 0.19 0.15 0.18
0.23 0.32 0.22 0.18 0.24 0.23 0.26 0.30 0.21 0.22 0.25 0.27 0.37 0.37 0.28 0.25 0.36 0.25 0.14 0.07 0.05 0.05 0.05 0.05 0.08 0.12 0.10 0.15 0.20 0.23 0.22 0.28 0.34 0.32 0.32 0.31 0.22 0.24 0.26 0.32 0.39 0.44 0.44
0.13 0.25 0.18 0.14 0.20 0.20 0.26 0.25 0.23 0.31 0.53 0.58 0.48 0.40 0.28 0.21 0.33 0.28 0.21 0.06 0.04 0.04 0.03 0.04 0.06 0.10 0.15 0.09 0.19 0.25 0.32 0.47 0.56 0.55 0.59 0.52 0.46 0.42 0.41 0.46 0.51 0.55 0.52
0.06 0.09 0.13 0.14 0.18 0.24 0.25 0.21 0.41 0.60 0.55 0.46 0.32 0.23 0.19 0.18 0.30 0.32 0.33 0.13 0.07 0.08 0.08 0.07 0.08 0.10 0.19 0.24 0.33 0.45 0.51 0.61 0.64 0.65 0.71 0.75 0.73 0.67 0.66 0.65 0.63 0.59 0.49
0.02 0.03 0.06 0.09 0.14 0.15 0.29 0.54 0.57 0.41 0.19 0.11 0.14 0.18 0.15 0.17 0.34 0.25 0.27 0.10 0.11 0.14 0.14 0.16 0.20 0.17 0.44 0.42 0.31 0.34 0.41 0.46 0.56 0.56 0.56 0.64 0.71 0.63 0.54 0.59 0.57 0.65 0.63
0.03 0.04 0.04 0.11 0.29 0.43 0.38 0.20 0.13 0.13 0.09 0.10 0.12 0.16 0.26 0.17 0.37 0.25 0.20 0.13 0.24 0.24 0.24 0.28 0.52 0.39 0.56 0.36 0.31 0.23 0.32 0.32 0.32 0.42 0.45 0.46 0.43 0.44 0.49 0.44 0.48 0.75 0.87
0.05 0.10 0.17 0.22 0.17 0.14 0.11 0.12 0.09 0.09 0.14 0.17 0.18 0.16 0.18 0.22 0.25 0.28 0.21 0.14 0.20 0.33 0.39 0.39 0.47 0.87 0.55 0.55 0.55 0.48 0.85 0.89 0.89 0.66 0.54 0.53 0.47 0.46 0.47 0.49 0.53 0.67 0.85
0.07 0.10 0.13 0.09 0.08 0.07 0.11 0.14 0.14 0.12 0.12 0.16 0.19 0.19 0.16 0.17 0.32 0.28 0.26 0.32 0.48 0.41 0.54 0.66 0.92 0.98 0.65 0.63 0.74 1.04 1.19 0.90 0.74 0.78 0.82 0.79 0.74 0.72 0.68 0.63 0.62 0.59 0.58
0.07 0.07 0.08 0.07 0.09 0.16 0.20 0.19 0.20 0.24 0.23 0.20 0.19 0.23 0.24 0.23 0.29 0.42 0.37 0.46 0.59 0.59 0.78 1.08 1.11 0.85 0.70 0.78 1.02 1.09 1.10 1.22 1.46 1.60 1.60 1.51 1.37 1.19 1.01 0.91 0.77 0.66 0.58
0.08 0.07 0.06 0.06 0.10 0.10 0.13 0.15 0.16 0.18 0.21 0.29 0.36 0.38 0.41 0.45 0.46 0.47 0.52 0.59 0.74 0.88 1.14 1.31 1.30 1.23 1.21 1.32 1.37 1.34 1.34 1.40 1.46 1.53 1.45 1.32 1.15 1.02 0.97 0.93 0.88 0.80 0.83
0.10 0.09 0.10 0.10 0.10 0.08 0.11 0.20 0.22 0.34 0.45 0.47 0.57 0.68 0.77 0.88 1.03 1.05 1.00 1.06 1.20 1.33 1.39 1.55 1.56 1.51 1.47 1.45 1.38 1.36 1.37 1.34 1.30 1.23 1.15 1.08 0.99 0.90 0.78 0.68 0.69 0.61 0.61
0.14 0.15 0.21 0.19 0.18 0.18 0.18 0.25 0.36 0.45 0.52 0.59 0.72 0.80 1.05 1.20 1.36 1.31 1.32 1.34 1.37 1.36 1.42 1.40 1.39 1.34 1.28 1.21 1.11 1.01 0.90 0.83 0.73 0.65 0.60 0.53 0.49 0.46 0.40 0.35 0.39 0.38 0.34
0.31 0.30 0.31 0.35 0.35 0.33 0.34 0.37 0.47 0.65 0.71 0.85 0.96 1.03 1.02 1.23 1.21 1.16 1.09 1.04 1.05 0.99 1.07 1.04 1.00 0.92 0.81 0.69 0.63 0.58 0.56 0.49 0.40 0.38 0.35 0.29 0.24 0.20 0.18 0.18 0.17 0.15 0.14
0.71 0.76 0.71 0.74 0.79 0.84 0.90 1.01 1.11 1.22 1.33 1.54 1.54 1.36 1.28 1.18 1.11 1.04 0.94 0.81 0.81 0.68 0.61 0.55 0.52 0.45 0.39 0.35 0.31 0.29 0.27 0.24 0.20 0.16 0.15 0.15 0.17 0.20 0.22 0.17 0.15 0.16 0.16
0.78 0.96 1.06 1.11 1.18 1.22 1.20 1.21 1.18 1.13 1.07 1.06 0.99 0.90 0.88 0.77 0.65 0.60 0.54 0.59 0.52 0.45 0.39 0.37 0.33 0.33 0.33 0.31 0.29 0.27 0.29 0.29 0.29 0.30 0.29 0.32 0.32 0.36 0.33 0.31 0.29 0.22 0.22
0.91 1.07 1.07 1.09 1.09 1.03 0.95 0.83 0.75 0.71 0.65 0.61 0.58 0.58 0.53 0.44 0.44 0.42 0.40 0.40 0.39 0.36 0.31 0.29 0.27 0.26 0.26 0.25 0.24 0.25 0.25 0.24 0.24 0.24 0.22 0.20 0.20 0.21 0.22 0.20 0.19 0.20 0.16
0.80 0.79 0.74 0.67 0.64 0.63 0.60 0.56 0.54 0.50 0.50 0.46 0.47 0.44 0.34 0.33 0.35 0.30 0.26 0.28 0.27 0.24 0.23 0.21 0.18 0.18 0.17 0.18 0.18 0.18 0.16 0.16 0.18 0.21 0.21 0.23 0.25 0.23 0.20 0.21 0.18 0.15 0.14
0.45 0.41 0.36 0.36 0.35 0.34 0.31 0.29 0.29 0.27 0.26 0.25 0.24 0.20 0.15 0.20 0.23 0.25 0.26 0.25 0.24 0.22 0.21 0.20 0.18 0.16 0.15 0.18 0.18 0.21 0.19 0.17 0.15 0.15 0.14 0.14 0.16 0.17 0.17 0.18 0.17 0.16 0.14
0.21 0.22 0.23 0.23 0.22 0.21 0.19 0.19 0.21 0.24 0.27 0.27 0.26 0.27 0.25 0.30 0.28 0.26 0.26 0.24 0.22 0.23 0.21 0.23 0.23 0.20 0.18 0.21 0.25 0.26 0.25 0.18 0.17 0.23 0.24 0.18 0.15 0.15 0.17 0.17 0.17 0.18 0.17
0.15 0.15 0.15 0.15 0.16 0.18 0.21 0.25 0.27 0.26 0.26 0.28 0.30 0.30 0.28 0.29 0.30 0.30 0.27 0.25 0.26 0.25 0.24 0.27 0.25 0.22 0.20 0.19 0.20 0.21 0.22 0.20 0.25 0.27 0.30 0.30 0.22 0.17 0.19 0.18 0.16 0.17 0.17
0.13 0.16 0.20 0.23 0.26 0.26 0.23 0.20 0.21 0.25 0.30 0.30 0.28 0.24 0.20 0.19 0.17 0.16 0.16 0.15 0.14 0.14 0.14 0.15 0.14 0.12 0.11 0.13 0.15 0.14 0.12 0.16 0.21 0.22 0.30 0.28 0.23 0.22 0.23 0.23 0.20 0.21 0.18
0.10 0.15 0.17 0.17 0.18 0.19 0.24 0.28 0.29 0.27 0.26 0.22 0.20 0.18 0.16 0.14 0.11 0.10 0.09 0.08 0.09 0.09 0.08 0.10 0.09 0.07 0.07 0.08 0.10 0.13 0.11 0.10 0.15 0.18 0.26 0.27 0.26 0.25 0.26 0.24 0.23 0.27 0.19

GFSGL_prec_precacc_093.txt.gz
Total_Precipitation_Accumulation
0.59 0.48 0.27 0.37 0.36 0.58 0.60 0.75 0.59 0.55 0.64 0.68 0.48 0.36 0.29 0.43 0.48 0.37 0.37 0.37 0.38 0.42 0.39 0.34 0.27 0.24 0.23 0.22 0.21 0.20 0.16 0.16 0.20 0.09 0.04 0.04 0.03 0.03 0.01 0.00 0.01 0.03 0.07
1.30 1.38 0.86 0.90 0.78 0.75 0.81 0.77 0.81 0.80 0.75 0.58 0.39 0.31 0.33 0.39 0.57 0.72 0.62 0.54 0.50 0.47 0.43 0.37 0.30 0.30 0.33 0.35 0.37 0.34 0.30 0.25 0.32 0.30 0.16 0.12 0.09 0.07 0.05 0.03 0.03 0.02 0.03
1.22 1.16 0.93 1.04 1.14 0.94 0.79 0.55 0.34 0.34 0.39 0.34 0.36 0.31 0.34 0.34 0.34 0.33 0.34 0.38 0.42 0.43 0.45 0.43 0.35 0.29 0.25 0.22 0.24 0.26 0.23 0.25 0.27 0.29 0.18 0.11 0.08 0.06 0.08 0.08 0.07 0.05 0.03
0.78 0.78 0.62 0.56 0.70 0.35 0.33 0.27 0.22 0.16 0.17 0.19 0.15 0.15 0.15 0.18 0.21 0.22 0.27 0.29 0.27 0.23 0.23 0.27 0.37 0.44 0.43 0.38 0.33 0.28 0.25 0.26 0.25 0.25 0.21 0.15 0.14 0.09 0.10 0.13 0.12 0.10 0.09
0.68 0.69 0.53 0.33 0.36 0.26 0.29 0.25 0.16 0.14 0.13 0.16 0.15 0.18 0.21 0.19 0.20 0.20 0.17 0.15 0.15 0.17 0.17 0.19 0.21 0.24 0.24 0.24 0.25 0.21 0.22 0.26 0.28 0.29 0.25 0.18 0.16 0.12 0.13 0.14 0.19 0.15 0.18
0.28 0.38 0.28 0.22 0.26 0.24 0.26 0.30 0.21 0.22 0.26 0.27 0.37 0.37 0.28 0.25 0.36 0.25 0.14 0.07 0.05 0.05 0.05 0.05 0.08 0.12 0.10 0.15 0.20 0.23 0.23 0.28 0.35 0.32 0.32 0.31 0.23 0.24 0.26 0.32 0.39 0.44 0.44
0.27 0.31 0.22 0.17 0.23 0.21 0.27 0.26 0.25 0.33 0.57 0.62 0.51 0.43 0.31 0.25 0.38 0.31 0.24 0.07 0.05 0.05 0.04 0.04 0.06 0.11 0.16 0.09 0.19 0.25 0.32 0.47 0.56 0.55 0.60 0.53 0.47 0.42 0.42 0.47 0.51 0.55 0.52
0.19 0.13 0.17 0.19 0.20 0.25 0.25 0.21 0.42 0.61 0.57 0.48 0.35 0.26 0.23 0.27 0.36 0.34 0.34 0.13 0.07 0.09 0.08 0.07 0.08 0.11 0.21 0.25 0.34 0.45 0.51 0.61 0.65 0.67 0.74 0.79 0.76 0.69 0.68 0.67 0.65 0.60 0.50
0.05 0.04 0.06 0.09 0.14 0.15 0.29 0.54 0.57 0.41 0.19 0.11 0.15 0.19 0.16 0.20 0.39 0.26 0.27 0.10 0.13 0.15 0.15 0.21 0.29 0.22 0.47 0.46 0.33 0.36 0.42 0.46 0.59 0.62 0.71 0.78 0.81 0.70 0.60 0.63 0.62 0.71 0.69
0.04 0.04 0.04 0.11 0.29 0.43 0.38 0.20 0.13 0.13 0.09 0.10 0.12 0.16 0.27 0.18 0.39 0.25 0.20 0.13 0.24 0.26 0.28 0.34 0.67 0.44 0.59 0.38 0.32 0.28 0.39 0.38 0.41 0.50 0.58 0.62 0.60 0.61 0.68 0.59 0.62 0.98 1.21
0.05 0.10 0.17 0.22 0.17 0.14 0.11 0.12 0.09 0.09 0.14 0.17 0.18 0.16 0.18 0.23 0.26 0.28 0.21 0.14 0.20 0.33 0.41 0.42 0.52 0.96 0.58 0.58 0.60 0.55 1.01 1.09 1.10 0.88 0.82 0.84 0.75 0.68 0.67 0.70 0.71 0.88 1.16
0.07 0.10 0.13 0.09 0.08 0.07 0.11 0.14 0.14 0.12 0.12 0.16 0.19 0.19 0.16 0.17 0.33 0.29 0.26 0.32 0.48 0.41 0.55 0.67 0.94 1.03 0.67 0.66 0.78 1.12 1.34 1.13 0.99 1.04 1.08 1.08 1.06 1.06 1.02 0.94 0.91 0.88 0.90
0.07 0.07 0.08 0.07 0.09 0.16 0.20 0.19 0.20 0.24 0.23 0.20 0.19 0.23 0.24 0.23 0.29 0.42 0.37 0.46 0.59 0.59 0.78 1.08 1.11 0.86 0.70 0.79 1.04 1.12 1.16 1.29 1.56 1.72 1.74 1.67 1.53 1.38 1.21 1.10 0.94 0.83 0.73
0.08 0.07 0.06 0.06 0.10 0.10 0.13 0.15 0.16 0.18 0.21 0.30 0.36 0.39 0.42 0.45 0.46 0.47 0.52 0.59 0.74 0.88 1.14 1.31 1.30 1.23 1.21 1.33 1.39 1.36 1.37 1.44 1.51 1.60 1.54 1.43 1.26 1.12 1.06 1.01 0.95 0.87 0.89
0.10 0.09 0.10 0.10 0.10 0.08 0.11 0.20 0.23 0.35 0.45 0.47 0.57 0.68 0.77 0.89 1.04 1.05 1.00 1.06 1.20 1.33 1.39 1.55 1.56 1.51 1.47 1.46 1.39 1.37 1.38 1.35 1.31 1.25 1.17 1.09 1.01 0.91 0.80 0.70 0.70 0.63 0.62
0.14 0.15 0.21 0.19 0.18 0.18 0.18 0.25 0.37 0.46 0.52 0.60 0.73 0.81 1.07 1.21 1.36 1.31 1.32 1.34 1.37 1.36 1.42 1.40 1.39 1.34 1.28 1.21 1.11 1.01 0.90 0.83 0.74 0.66 0.61 0.54 0.50 0.47 0.42 0.36 0.40 0.39 0.35
0.31 0.30 0.31 0.35 0.35 0.33 0.34 0.37 0.47 0.66 0.72 0.85 0.97 1.04 1.03 1.24 1.21 1.16 1.09 1.04 1.05 0.99 1.07 1.04 1.00 0.92 0.81 0.69 0.63 0.58 0.56 0.50 0.40 0.38 0.35 0.29 0.24 0.20 0.18 0.19 0.17 0.15 0.14
0.71 0.76 0.71 0.74 0.79 0.84 0.90 1.01 1.11 1.22 1.33 1.54 1.54 1.37 1.28 1.18 1.12 1.04 0.94 0.81 0.81 0.68 0.61 0.55 0.52 0.46 0.39 0.35 0.31 0.29 0.27 0.24 0.20 0.16 0.15 0.15 0.17 0.20 0.22 0.17 0.15 0.16 0.16
0.78 0.96 1.06 1.11 1.18 1.22 1.20 1.21 1.18 1.13 1.07 1.06 0.99 0.90 0.88 0.77 0.65 0.60 0.54 0.59 0.52 0.45 0.39 0.37 0.33 0.33 0.33 0.31 0.29 0.27 0.29 0.29 0.29 0.30 0.29 0.32 0.32 0.36 0.33 0.31 0.29 0.22 0.22
0.91 1.07 1.07 1.09 1.09 1.03 0.95 0.83 0.75 0.71 0.65 0.61 0.58 0.58 0.53 0.44 0.44 0.42 0.40 0.40 0.39 0.36 0.31 0.29 0.27 0.26 0.26 0.25 0.24 0.25 0.25 0.24 0.24 0.24 0.22 0.20 0.20 0.21 0.22 0.20 0.19 0.20 0.16
0.80 0.79 0.74 0.67 0.64 0.63 0.60 0.56 0.54 0.50 0.50 0.46 0.47 0.44 0.34 0.33 0.35 0.30 0.26 0.28 0.27 0.24 0.23 0.21 0.18 0.18 0.17 0.18 0.18 0.18 0.16 0.16 0.18 0.21 0.21 0.23 0.25 0.23 0.20 0.21 0.18 0.15 0.14
0.45 0.41 0.36 0.36 0.35 0.34 0.31 0.29 0.29 0.27 0.26 0.25 0.24 0.20 0.15 0.20 0.23 0.25 0.26 0.25 0.24 0.22 0.21 0.20 0.18 0.16 0.15 0.18 0.18 0.21 0.19 0.17 0.15 0.15 0.14 0.14 0.16 0.17 0.17 0.18 0.17 0.16 0.14
0.21 0.22 0.23 0.23 0.22 0.21 0.19 0.19 0.21 0.24 0.27 0.27 0.26 0.27 0.25 0.30 0.28 0.26 0.26 0.24 0.22 0.23 0.21 0.23 0.23 0.20 0.18 0.21 0.25 0.26 0.25 0.18 0.17 0.23 0.24 0.18 0.15 0.15 0.17 0.17 0.17 0.18 0.17
0.15 0.15 0.15 0.15 0.16 0.18 0.21 0.25 0.27 0.26 0.26 0.28 0.30 0.30 0.28 0.29 0.30 0.30 0.27 0.25 0.26 0.25 0.24 0.27 0.25 0.22 0.20 0.19 0.20 0.21 0.22 0.20 0.25 0.27 0.30 0.30 0.22 0.17 0.19 0.18 0.16 0.17 0.17
0.13 0.16 0.20 0.23 0.26 0.26 0.23 0.20 0.21 0.25 0.30 0.30 0.28 0.24 0.20 0.19 0.17 0.16 0.16 0.15 0.14 0.14 0.14 0.15 0.14 0.12 0.11 0.13 0.15 0.14 0.12 0.16 0.21 0.22 0.30 0.28 0.23 0.22 0.23 0.23 0.20 0.21 0.18
0.10 0.15 0.17 0.17 0.18 0.19 0.24 0.28 0.29 0.27 0.26 0.22 0.20 0.18 0.16 0.14 0.11 0.10 0.09 0.08 0.09 0.09 0.08 0.10 0.09 0.07 0.07 0.08 0.10 0.13 0.11 0.10 0.15 0.18 0.26 0.27 0.26 0.25 0.26 0.24 0.23 0.27 0.19

GFSGL_prec_precacc_096.txt.gz
Total_Precipitation_Accumulation
0.59 0.48 0.27 0.37 0.36 0.58 0.60 0.75 0.59 0.55 0.64 0.68 0.48 0.38 0.33 0.44 0.50 0.38 0.38 0.38 0.38 0.42 0.39 0.34 0.27 0.24 0.23 0.22 0.21 0.21 0.18 0.18 0.23 0.10 0.04 0.04 0.03 0.03 0.01 0.00 0.01 0.03 0.07
1.30 1.39 0.86 0.90 0.78 0.75 0.81 0.78 0.81 0.80 0.75 0.58 0.39 0.32 0.33 0.39 0.57 0.72 0.62 0.54 0.50 0.47 0.43 0.37 0.30 0.30 0.33 0.35 0.37 0.35 0.31 0.27 0.37 0.33 0.17 0.12 0.09 0.07 0.05 0.03 0.03 0.02 0.03
1.25 1.20 0.93 1.04 1.15 0.94 0.80 0.56 0.34 0.35 0.40 0.35 0.36 0.32 0.34 0.34 0.34 0.34 0.34 0.38 0.42 0.43 0.45 0.43 0.35 0.30 0.25 0.22 0.24 0.26 0.24 0.25 0.28 0.29 0.18 0.11 0.09 0.07 0.09 0.08 0.07 0.05 0.03
0.82 0.84 0.65 0.56 0.70 0.35 0.34 0.28 0.22 0.17 0.17 0.19 0.15 0.15 0.15 0.19 0.21 0.23 0.27 0.29 0.27 0.23 0.23 0.27 0.37 0.44 0.43 0.39 0.36 0.30 0.28 0.30 0.28 0.28 0.21 0.15 0.15 0.09 0.13 0.14 0.13 0.10 0.09
0.77 0.80 0.60 0.35 0.36 0.26 0.30 0.26 0.16 0.14 0.14 0.17 0.15 0.18 0.21 0.20 0.21 0.21 0.17 0.15 0.15 0.17 0.17 0.19 0.21 0.24 0.24 0.24 0.26 0.23 0.25 0.31 0.32 0.33 0.26 0.19 0.17 0.13 0.14 0.14 0.20 0.16 0.18
0.36 0.47 0.37 0.26 0.27 0.24 0.27 0.30 0.22 0.23 0.26 0.28 0.38 0.38 0.29 0.26 0.37 0.25 0.14 0.07 0.05 0.05 0.06 0.05 0.08 0.12 0.10 0.15 0.20 0.23 0.23 0.30 0.36 0.33 0.33 0.32 0.23 0.24 0.26 0.33 0.39 0.45 0.44
0.35 0.39 0.29 0.24 0.32 0.28 0.30 0.27 0.26 0.34 0.58 0.64 0.53 0.46 0.35 0.31 0.44 0.31 0.25 0.07 0.05 0.05 0.04 0.04 0.06 0.11 0.16 0.09 0.20 0.26 0.33 0.47 0.57 0.57 0.61 0.55 0.50 0.48 0.46 0.48 0.52 0.55 0.53
0.32 0.37 0.37 0.31 0.30 0.34 0.30 0.24 0.43 0.63 0.58 0.49 0.36 0.28 0.26 0.31 0.40 0.35 0.35 0.14 0.08 0.11 0.13 0.12 0.11 0.13 0.24 0.29 0.35 0.46 0.52 0.64 0.74 0.85 1.00 1.09 1.06 0.88 0.80 0.79 0.78 0.73 0.60
0.11 0.13 0.23 0.30 0.36 0.31 0.37 0.57 0.58 0.42 0.20 0.12 0.15 0.20 0.17 0.22 0.42 0.26 0.27 0.10 0.14 0.17 0.19 0.27 0.33 0.23 0.52 0.48 0.33 0.37 0.42 0.48 0.70 0.73 0.84 0.87 0.88 0.76 0.67 0.77 0.88 1.05 1.03
0.05 0.07 0.07 0.15 0.33 0.47 0.44 0.24 0.14 0.13 0.09 0.10 0.12 0.16 0.27 0.18 0.39 0.26 0.20 0.13 0.24 0.26 0.29 0.37 0.74 0.46 0.61 0.39 0.33 0.28 0.40 0.44 0.50 0.59 0.68 0.70 0.65 0.66 0.76 0.66 0.73 1.17 1.49
0.07 0.11 0.19 0.24 0.18 0.15 0.11 0.12 0.09 0.09 0.14 0.17 0.18 0.16 0.18 0.23 0.26 0.28 0.21 0.14 0.20 0.33 0.41 0.42 0.52 0.98 0.59 0.59 0.61 0.55 1.02 1.12 1.19 0.95 0.86 0.91 0.82 0.74 0.72 0.74 0.77 0.96 1.27
0.09 0.11 0.14 0.10 0.09 0.07 0.11 0.14 0.14 0.12 0.12 0.16 0.19 0.19 0.16 0.18 0.33 0.29 0.26 0.32 0.48 0.41 0.55 0.67 0.95 1.03 0.67 0.66 0.78 1.12 1.35 1.14 0.99 1.05 1.10 1.10 1.09 1.09 1.06 0.97 0.93 0.89 0.92
0.07 0.07 0.08 0.07 0.09 0.16 0.21 0.19 0.20 0.24 0.24 0.21 0.20 0.23 0.25 0.23 0.30 0.42 0.38 0.46 0.59 0.59 0.78 1.08 1.12 0.86 0.70 0.79 1.04 1.12 1.16 1.30 1.56 1.72 1.75 1.68 1.55 1.41 1.23 1.11 0.95 0.83 0.73
0.08 0.07 0.06 0.06 0.10 0.10 0.13 0.15 0.16 0.18 0.21 0.30 0.36 0.39 0.42 0.45 0.46 0.47 0.52 0.60 0.74 0.89 1.15 1.31 1.30 1.23 1.21 1.33 1.39 1.36 1.37 1.44 1.51 1.60 1.55 1.44 1.26 1.12 1.06 1.02 0.96 0.87 0.89
0.10 0.09 0.10 0.10 0.10 0.08 0.12 0.21 0.23 0.36 0.46 0.48 0.58 0.69 0.78 0.90 1.04 1.05 1.00 1.07 1.20 1.33 1.39 1.55 1.56 1.52 1.48 1.46 1.39 1.37 1.38 1.35 1.31 1.25 1.17 1.09 1.01 0.91 0.80 0.70 0.70 0.63 0.62
0.14 0.15 0.21 0.19 0.18 0.18 0.18 0.26 0.37 0.46 0.53 0.60 0.73 0.81 1.07 1.22 1.36 1.31 1.32 1.34 1.37 1.36 1.42 1.41 1.39 1.34 1.28 1.21 1.12 1.02 0.91 0.83 0.74 0.66 0.61 0.54 0.50 0.47 0.42 0.36 0.40 0.39 0.35
0.32 0.31 0.31 0.35 0.35 0.33 0.34 0.37 0.47 0.66 0.72 0.86 0.97 1.04 1.03 1.24 1.21 1.16 1.09 1.04 1.05 0.99 1.07 1.04 1.00 0.92 0.81 0.70 0.64 0.58 0.56 0.50 0.40 0.38 0.35 0.29 0.24 0.20 0.18 0.19 0.17 0.15 0.14
0.71 0.76 0.72 0.74 0.79 0.84 0.90 1.01 1.11 1.22 1.34 1.55 1.54 1.37 1.29 1.18 1.12 1.04 0.94 0.81 0.81 0.68 0.62 0.56 0.52 0.46 0.39 0.35 0.31 0.29 0.27 0.24 0.20 0.16 0.15 0.15 0.17 0.20 0.22 0.17 0.15 0.16 0.16
0.78 0.97 1.07 1.11 1.19 1.22 1.20 1.21 1.19 1.13 1.07 1.07 0.99 0.90 0.88 0.77 0.65 0.60 0.54 0.59 0.52 0.45 0.39 0.37 0.33 0.33 0.33 0.31 0.29 0.27 0.29 0.29 0.29 0.30 0.29 0.32 0.32 0.36 0.33 0.31 0.29 0.22 0.22
0.91 1.07 1.07 1.09 1.10 1.04 0.95 0.83 0.75 0.71 0.65 0.61 0.58 0.58 0.53 0.44 0.44 0.42 0.40 0.40 0.39 0.36 0.31 0.29 0.27 0.26 0.26 0.25 0.24 0.25 0.25 0.24 0.24 0.24 0.22 0.20 0.20 0.21 0.22 0.20 0.19 0.20 0.16
0.80 0.79 0.74 0.67 0.64 0.63 0.60 0.56 0.54 0.50 0.50 0.46 0.47 0.44 0.34 0.33 0.35 0.30 0.26 0.28 0.27 0.24 0.24 0.21 0.18 0.18 0.17 0.18 0.18 0.18 0.16 0.16 0.18 0.21 0.21 0.23 0.25 0.23 0.20 0.21 0.18 0.15 0.14
0.45 0.41 0.36 0.36 0.35 0.34 0.31 0.29 0.29 0.27 0.26 0.25 0.24 0.20 0.15 0.20 0.23 0.25 0.26 0.25 0.24 0.22 0.21 0.20 0.18 0.16 0.15 0.18 0.18 0.21 0.19 0.17 0.15 0.15 0.14 0.14 0.16 0.17 0.17 0.18 0.17 0.16 0.14
0.21 0.22 0.23 0.23 0.22 0.21 0.19 0.19 0.21 0.24 0.27 0.27 0.26 0.27 0.25 0.30 0.28 0.26 0.26 0.24 0.22 0.23 0.21 0.23 0.23 0.20 0.18 0.21 0.25 0.26 0.25 0.18 0.17 0.23 0.24 0.18 0.15 0.15 0.17 0.17 0.17 0.18 0.17
0.15 0.15 0.15 0.15 0.16 0.18 0.21 0.25 0.27 0.26 0.26 0.28 0.30 0.30 0.29 0.29 0.31 0.30 0.27 0.26 0.26 0.25 0.24 0.27 0.25 0.22 0.20 0.19 0.20 0.21 0.22 0.20 0.25 0.27 0.30 0.30 0.22 0.17 0.20 0.18 0.16 0.17 0.17
0.13 0.16 0.20 0.23 0.26 0.26 0.23 0.20 0.21 0.25 0.31 0.31 0.28 0.24 0.20 0.19 0.18 0.16 0.16 0.15 0.15 0.15 0.14 0.15 0.14 0.13 0.11 0.13 0.15 0.14 0.12 0.16 0.21 0.22 0.30 0.28 0.23 0.22 0.23 0.23 0.20 0.22 0.18
0.10 0.15 0.17 0.17 0.18 0.19 0.24 0.28 0.29 0.27 0.26 0.22 0.20 0.18 0.17 0.14 0.11 0.10 0.09 0.08 0.09 0.09 0.08 0.10 0.09 0.07 0.08 0.09 0.11 0.13 0.11 0.10 0.15 0.18 0.26 0.27 0.26 0.26 0.26 0.24 0.24 0.28 0.19

GFSGL_prec_precacc_099.txt.gz
Total_Precipitation_Accumulation
0.59 0.49 0.27 0.37 0.36 0.58 0.60 0.76 0.60 0.55 0.64 0.69 0.48 0.38 0.34 0.45 0.53 0.48 0.43 0.39 0.39 0.42 0.39 0.34 0.27 0.24 0.24 0.23 0.22 0.21 0.18 0.19 0.23 0.10 0.04 0.04 0.04 0.03 0.01 0.00 0.01 0.03 0.07
1.31 1.39 0.86 0.90 0.78 0.75 0.81 0.78 0.81 0.80 0.75 0.58 0.40 0.32 0.33 0.39 0.58 0.74 0.66 0.55 0.50 0.48 0.43 0.37 0.30 0.30 0.33 0.35 0.38 0.35 0.31 0.27 0.37 0.33 0.17 0.12 0.09 0.07 0.05 0.04 0.03 0.02 0.03
1.26 1.20 0.94 1.05 1.15 0.94 0.80 0.57 0.35 0.35 0.40 0.35 0.38 0.32 0.34 0.34 0.34 0.34 0.34 0.39 0.42 0.43 0.45 0.43 0.35 0.30 0.25 0.22 0.24 0.26 0.24 0.25 0.28 0.29 0.18 0.12 0.10 0.08 0.10 0.09 0.07 0.05 0.03
0.87 0.87 0.68 0.58 0.71 0.36 0.34 0.29 0.23 0.18 0.18 0.20 0.17 0.17 0.16 0.19 0.21 0.23 0.28 0.30 0.27 0.23 0.23 0.27 0.37 0.44 0.43 0.39 0.36 0.31 0.30 0.31 0.31 0.31 0.22 0.16 0.16 0.10 0.15 0.15 0.14 0.11 0.10
0.86 0.87 0.65 0.38 0.37 0.27 0.31 0.27 0.17 0.14 0.14 0.18 0.16 0.20 0.24 0.22 0.22 0.21 0.17 0.15 0.15 0.17 0.17 0.19 0.21 0.24 0.24 0.25 0.27 0.26 0.32 0.38 0.39 0.40 0.31 0.21 0.19 0.15 0.16 0.17 0.23 0.17 0.21
0.46 0.54 0.46 0.34 0.30 0.25 0.27 0.31 0.22 0.23 0.27 0.29 0.39 0.38 0.30 0.27 0.38 0.26 0.15 0.08 0.06 0.05 0.06 0.05 0.08 0.13 0.10 0.15 0.20 0.23 0.24 0.32 0.38 0.37 0.36 0.34 0.23 0.25 0.28 0.36 0.43 0.48 0.46
0.45 0.50 0.40 0.32 0.36 0.30 0.31 0.29 0.28 0.35 0.58 0.64 0.54 0.47 0.37 0.32 0.46 0.32 0.25 0.07 0.06 0.07 0.06 0.07 0.08 0.13 0.19 0.10 0.21 0.27 0.33 0.49 0.62 0.63 0.64 0.59 0.61 0.65 0.62 0.61 0.63 0.68 0.64
0.50 0.59 0.57 0.47 0.39 0.40 0.39 0.31 0.49 0.66 0.62 0.52 0.39 0.31 0.28 0.34 0.44 0.37 0.37 0.15 0.11 0.16 0.17 0.14 0.14 0.15 0.29 0.33 0.36 0.48 0.56 0.73 0.87 1.02 1.26 1.35 1.35 1.08 0.96 0.93 0.90 0.87 0.75
0.37 0.35 0.43 0.53 0.61 0.55 0.58 0.77 0.75 0.58 0.32 0.19 0.19 0.22 0.20 0.23 0.44 0.28 0.29 0.11 0.17 0.23 0.24 0.31 0.36 0.24 0.57 0.51 0.35 0.38 0.46 0.56 0.80 0.80 0.88 0.91 0.91 0.78 0.69 0.78 0.93 1.13 1.15
0.19 0.24 0.26 0.31 0.48 0.71 0.70 0.51 0.37 0.35 0.25 0.23 0.23 0.22 0.32 0.19 0.41 0.26 0.21 0.13 0.25 0.27 0.29 0.38 0.76 0.46 0.62 0.39 0.33 0.28 0.41 0.46 0.52 0.62 0.71 0.74 0.69 0.69 0.81 0.69 0.75 1.21 1.55
0.16 0.16 0.29 0.38 0.24 0.18 0.15 0.20 0.20 0.19 0.22 0.22 0.24 0.22 0.21 0.24 0.26 0.28 0.21 0.14 0.20 0.33 0.41 0.42 0.52 0.98 0.59 0.59 0.61 0.55 1.02 1.12 1.20 0.96 0.87 0.91 0.82 0.75 0.73 0.75 0.77 0.96 1.28
0.19 0.18 0.16 0.12 0.12 0.10 0.14 0.16 0.16 0.14 0.13 0.16 0.20 0.20 0.16 0.18 0.33 0.29 0.26 0.32 0.48 0.41 0.55 0.67 0.95 1.03 0.67 0.66 0.78 1.12 1.35 1.14 0.99 1.05 1.10 1.10 1.09 1.10 1.06 0.97 0.93 0.90 0.92
0.08 0.10 0.12 0.09 0.10 0.16 0.22 0.21 0.21 0.25 0.24 0.21 0.20 0.23 0.25 0.23 0.30 0.42 0.38 0.46 0.59 0.60 0.79 1.09 1.12 0.86 0.70 0.79 1.04 1.12 1.16 1.30 1.56 1.73 1.75 1.69 1.56 1.41 1.24 1.11 0.95 0.83 0.73
0.09 0.07 0.07 0.07 0.11 0.10 0.13 0.16 0.17 0.19 0.22 0.30 0.37 0.39 0.42 0.45 0.47 0.47 0.52 0.60 0.75 0.89 1.15 1.31 1.30 1.23 1.21 1.33 1.39 1.37 1.37 1.45 1.52 1.61 1.55 1.44 1.27 1.13 1.06 1.02 0.96 0.87 0.89
0.10 0.09 0.10 0.10 0.10 0.08 0.12 0.21 0.24 0.37 0.46 0.48 0.59 0.69 0.78 0.90 1.05 1.05 1.00 1.07 1.20 1.33 1.39 1.55 1.56 1.52 1.48 1.46 1.39 1.38 1.39 1.35 1.31 1.25 1.17 1.09 1.01 0.91 0.80 0.70 0.70 0.63 0.62
0.14 0.15 0.21 0.19 0.18 0.18 0.18 0.26 0.37 0.47 0.53 0.61 0.73 0.82 1.08 1.22 1.36 1.31 1.32 1.34 1.37 1.36 1.42 1.41 1.39 1.34 1.29 1.21 1.12 1.02 0.91 0.83 0.74 0.66 0.61 0.54 0.50 0.47 0.42 0.36 0.40 0.39 0.35
0.32 0.31 0.31 0.35 0.35 0.33 0.34 0.37 0.47 0.67 0.72 0.86 0.97 1.04 1.04 1.25 1.21 1.16 1.09 1.04 1.05 0.99 1.07 1.04 1.00 0.93 0.81 0.70 0.64 0.58 0.56 0.50 0.40 0.38 0.35 0.29 0.24 0.20 0.18 0.19 0.17 0.15 0.14
0.71 0.76 0.72 0.74 0.79 0.85 0.91 1.01 1.12 1.22 1.34 1.55 1.55 1.37 1.29 1.18 1.12 1.04 0.94 0.81 0.81 0.68 0.62 0.56 0.52 0.46 0.39 0.35 0.31 0.29 0.27 0.24 0.20 0.16 0.15 0.15 0.17 0.20 0.22 0.17 0.15 0.16 0.16
0.78 0.97 1.07 1.11 1.19 1.22 1.21 1.21 1.19 1.13 1.08 1.07 1.00 0.90 0.88 0.77 0.65 0.60 0.54 0.59 0.52 0.45 0.39 0.37 0.33 0.33 0.33 0.31 0.30 0.27 0.29 0.29 0.29 0.30 0.29 0.32 0.32 0.36 0.33 0.31 0.29 0.22 0.22
0.92 1.07 1.08 1.10 1.10 1.04 0.95 0.83 0.75 0.72 0.66 0.61 0.58 0.58 0.53 0.44 0.44 0.42 0.40 0.40 0.39 0.36 0.31 0.29 0.27 0.26 0.26 0.25 0.24 0.25 0.25 0.24 0.24 0.24 0.22 0.20 0.20 0.21 0.22 0.20 0.19 0.20 0.16
0.80 0.79 0.74 0.67 0.65 0.63 0.60 0.57 0.54 0.50 0.50 0.46 0.47 0.44 0.34 0.33 0.35 0.30 0.26 0.28 0.27 0.24 0.24 0.21 0.18 0.18 0.17 0.18 0.18 0.18 0.16 0.16 0.18 0.21 0.21 0.23 0.25 0.23 0.20 0.21 0.18 0.15 0.14
0.45 0.41 0.37 0.36 0.36 0.35 0.31 0.29 0.29 0.27 0.26 0.25 0.24 0.20 0.15 0.20 0.23 0.25 0.26 0.26 0.24 0.22 0.21 0.20 0.18 0.16 0.15 0.18 0.18 0.21 0.19 0.17 0.15 0.15 0.14 0.14 0.16 0.17 0.17 0.18 0.17 0.16 0.14
0.21 0.22 0.23 0.23 0.22 0.21 0.19 0.19 0.21 0.24 0.27 0.27 0.26 0.27 0.25 0.30 0.28 0.27 0.26 0.24 0.22 0.23 0.21 0.23 0.23 0.20 0.18 0.21 0.26 0.26 0.25 0.18 0.17 0.23 0.24 0.18 0.15 0.15 0.17 0.17 0.17 0.18 0.17
0.15 0.16 0.15 0.15 0.16 0.18 0.21 0.25 0.27 0.26 0.26 0.28 0.30 0.31 0.29 0.29 0.31 0.30 0.27 0.26 0.26 0.25 0.24 0.28 0.25 0.22 0.20 0.19 0.20 0.21 0.22 0.20 0.25 0.27 0.30 0.30 0.22 0.17 0.20 0.18 0.16 0.17 0.17
0.13 0.17 0.21 0.24 0.26 0.26 0.23 0.21 0.21 0.25 0.31 0.31 0.28 0.24 0.21 0.20 0.18 0.16 0.16 0.15 0.15 0.15 0.14 0.15 0.14 0.13 0.11 0.13 0.15 0.14 0.12 0.16 0.21 0.22 0.30 0.29 0.23 0.22 0.23 0.23 0.20 0.22 0.18
0.10 0.15 0.17 0.18 0.18 0.19 0.24 0.28 0.30 0.27 0.26 0.23 0.21 0.19 0.17 0.14 0.12 0.10 0.09 0.08 0.09 0.09 0.08 0.10 0.09 0.07 0.08 0.09 0.11 0.13 0.11 0.10 0.15 0.18 0.26 0.28 0.26 0.26 0.27 0.25 0.24 0.28 0.19

GFSGL_prec_precacc_102.txt.gz
Total_Precipitation_Accumulation
0.60 0.49 0.28 0.38 0.36 0.58 0.60 0.76 0.60 0.56 0.65 0.69 0.48 0.38 0.34 0.45 0.55 0.49 0.46 0.43 0.40 0.44 0.41 0.34 0.27 0.24 0.24 0.23 0.22 0.22 0.19 0.20 0.24 0.10 0.04 0.04 0.04 0.04 0.01 0.01 0.01 0.03 0.07
1.32 1.41 0.87 0.91 0.78 0.75 0.81 0.78 0.81 0.81 0.75 0.59 0.40 0.32 0.33 0.40 0.58 0.75 0.68 0.60 0.57 0.51 0.45 0.38 0.30 0.30 0.33 0.36 0.38 0.36 0.31 0.27 0.37 0.33 0.17 0.12 0.09 0.07 0.05 0.04 0.03 0.02 0.03
1.27 1.22 0.96 1.06 1.15 0.94 0.80 0.57 0.35 0.35 0.40 0.36 0.38 0.33 0.34 0.34 0.35 0.36 0.35 0.41 0.44 0.45 0.47 0.45 0.36 0.30 0.25 0.22 0.24 0.26 0.24 0.25 0.28 0.29 0.18 0.12 0.10 0.08 0.10 0.09 0.07 0.05 0.03
0.90 0.90 0.72 0.61 0.72 0.37 0.35 0.30 0.23 0.18 0.19 0.21 0.18 0.17 0.16 0.19 0.22 0.25 0.29 0.31 0.27 0.23 0.23 0.27 0.37 0.44 0.44 0.39 0.36 0.31 0.30 0.31 0.31 0.31 0.22 0.16 0.16 0.10 0.16 0.15 0.14 0.11 0.10
0.95 0.96 0.73 0.44 0.41 0.29 0.32 0.29 0.18 0.15 0.16 0.19 0.18 0.23 0.25 0.23 0.22 0.22 0.17 0.15 0.15 0.17 0.18 0.20 0.21 0.24 0.24 0.25 0.27 0.26 0.32 0.38 0.39 0.40 0.32 0.22 0.20 0.17 0.19 0.21 0.29 0.20 0.25
0.57 0.63 0.55 0.43 0.37 0.29 0.29 0.32 0.24 0.24 0.27 0.29 0.39 0.39 0.30 0.27 0.40 0.27 0.15 0.08 0.06 0.06 0.07 0.07 0.09 0.13 0.10 0.15 0.20 0.23 0.24 0.32 0.39 0.38 0.39 0.38 0.26 0.29 0.31 0.40 0.47 0.52 0.51
0.57 0.63 0.50 0.40 0.42 0.33 0.33 0.31 0.29 0.36 0.59 0.66 0.56 0.47 0.37 0.33 0.48 0.33 0.26 0.08 0.09 0.12 0.08 0.09 0.11 0.15 0.21 0.10 0.21 0.28 0.34 0.52 0.66 0.66 0.65 0.59 0.63 0.71 0.72 0.72 0.75 0.82 0.78
0.65 0.75 0.73 0.58 0.47 0.45 0.44 0.35 0.51 0.67 0.62 0.53 0.41 0.32 0.29 0.36 0.45 0.38 0.38 0.15 0.11 0.17 0.18 0.15 0.14 0.16 0.31 0.35 0.37 0.51 0.62 0.80 0.94 1.09 1.35 1.51 1.50 1.21 1.06 1.01 0.97 0.91 0.79
0.49 0.52 0.65 0.74 0.78 0.68 0.71 0.89 0.86 0.66 0.36 0.21 0.21 0.24 0.21 0.25 0.47 0.30 0.30 0.12 0.19 0.26 0.29 0.38 0.42 0.29 0.68 0.59 0.40 0.45 0.55 0.67 0.94 0.89 0.92 0.94 0.94 0.80 0.70 0.79 0.94 1.14 1.16
0.31 0.46 0.46 0.55 0.84 1.05 1.14 0.92 0.68 0.62 0.54 0.45 0.40 0.38 0.44 0.26 0.51 0.36 0.31 0.25 0.40 0.43 0.44 0.51 0.92 0.64 0.82 0.57 0.48 0.43 0.50 0.54 0.58 0.65 0.73 0.76 0.70 0.71 0.82 0.69 0.75 1.21 1.55
0.33 0.33 0.53 0.70 0.60 0.57 0.56 0.64 0.70 0.64 0.58 0.54 0.52 0.47 0.45 0.43 0.40 0.42 0.39 0.31 0.37 0.46 0.51 0.47 0.53 0.98 0.59 0.59 0.61 0.55 1.02 1.12 1.21 0.96 0.87 0.91 0.82 0.75 0.73 0.75 0.77 0.96 1.28
0.30 0.32 0.31 0.27 0.37 0.37 0.37 0.36 0.33 0.37 0.38 0.35 0.34 0.31 0.26 0.25 0.40 0.33 0.29 0.35 0.50 0.42 0.56 0.68 0.95 1.03 0.67 0.66 0.78 1.12 1.35 1.14 0.99 1.05 1.10 1.11 1.09 1.10 1.06 0.97 0.93 0.90 0.92
0.11 0.15 0.19 0.18 0.20 0.28 0.35 0.32 0.28 0.30 0.30 0.27 0.23 0.25 0.26 0.24 0.31 0.42 0.38 0.46 0.59 0.60 0.79 1.09 1.12 0.86 0.70 0.79 1.04 1.12 1.16 1.30 1.56 1.73 1.76 1.69 1.56 1.41 1.24 1.11 0.95 0.83 0.73
0.09 0.08 0.08 0.09 0.14 0.13 0.16 0.20 0.22 0.24 0.25 0.32 0.39 0.41 0.43 0.46 0.47 0.48 0.53 0.60 0.75 0.89 1.15 1.31 1.30 1.23 1.21 1.33 1.39 1.37 1.37 1.45 1.52 1.61 1.56 1.45 1.27 1.13 1.06 1.02 0.96 0.87 0.89
0.10 0.09 0.10 0.10 0.11 0.09 0.14 0.23 0.25 0.39 0.47 0.50 0.61 0.72 0.81 0.93 1.08 1.07 1.01 1.07 1.21 1.33 1.39 1.55 1.56 1.52 1.48 1.46 1.39 1.38 1.39 1.35 1.31 1.25 1.17 1.10 1.01 0.91 0.80 0.70 0.70 0.63 0.62
0.14 0.15 0.22 0.19 0.18 0.18 0.18 0.26 0.38 0.47 0.53 0.61 0.74 0.82 1.08 1.22 1.37 1.31 1.32 1.34 1.37 1.36 1.42 1.41 1.39 1.35 1.29 1.21 1.12 1.02 0.91 0.83 0.74 0.66 0.61 0.54 0.50 0.47 0.42 0.36 0.40 0.39 0.35
0.32 0.31 0.31 0.35 0.35 0.33 0.35 0.38 0.48 0.67 0.72 0.86 0.98 1.05 1.04 1.25 1.22 1.16 1.09 1.04 1.05 0.99 1.07 1.04 1.01 0.93 0.81 0.70 0.64 0.58 0.56 0.50 0.40 0.38 0.35 0.29 0.24 0.20 0.18 0.19 0.17 0.15 0.14
0.71 0.77 0.72 0.75 0.80 0.85 0.91 1.02 1.12 1.23 1.35 1.56 1.55 1.37 1.29 1.18 1.12 1.04 0.94 0.81 0.81 0.68 0.62 0.56 0.52 0.46 0.39 0.35 0.31 0.29 0.27 0.24 0.20 0.16 0.15 0.15 0.17 0.20 0.22 0.17 0.15 0.16 0.16
0.78 0.98 1.08 1.12 1.19 1.23 1.21 1.22 1.19 1.14 1.08 1.08 1.00 0.90 0.88 0.77 0.65 0.60 0.54 0.59 0.52 0.45 0.39 0.37 0.33 0.33 0.33 0.31 0.30 0.27 0.29 0.29 0.29 0.30 0.29 0.32 0.33 0.36 0.33 0.31 0.29 0.22 0.22
0.92 1.07 1.08 1.11 1.11 1.04 0.96 0.84 0.75 0.72 0.66 0.61 0.58 0.58 0.53 0.44 0.44 0.42 0.40 0.40 0.39 0.36 0.31 0.29 0.27 0.26 0.26 0.25 0.24 0.25 0.25 0.24 0.24 0.24 0.22 0.21 0.20 0.21 0.22 0.20 0.19 0.20 0.16
0.81 0.80 0.74 0.67 0.65 0.63 0.60 0.57 0.54 0.50 0.51 0.46 0.47 0.44 0.34 0.33 0.35 0.30 0.26 0.28 0.27 0.24 0.24 0.21 0.18 0.18 0.17 0.18 0.18 0.18 0.16 0.16 0.18 0.21 0.21 0.23 0.25 0.23 0.20 0.21 0.18 0.15 0.14
0.45 0.41 0.37 0.36 0.36 0.35 0.32 0.29 0.30 0.27 0.26 0.25 0.24 0.20 0.15 0.21 0.23 0.25 0.26 0.26 0.24 0.23 0.21 0.20 0.18 0.16 0.15 0.18 0.19 0.21 0.19 0.17 0.16 0.15 0.14 0.14 0.16 0.17 0.18 0.18 0.18 0.16 0.14
0.21 0.22 0.23 0.23 0.22 0.21 0.19 0.19 0.21 0.24 0.27 0.28 0.26 0.27 0.25 0.30 0.28 0.27 0.26 0.24 0.22 0.23 0.21 0.23 0.23 0.20 0.18 0.22 0.26 0.27 0.25 0.19 0.17 0.23 0.24 0.18 0.15 0.15 0.17 0.17 0.17 0.19 0.17
0.15 0.16 0.15 0.16 0.16 0.18 0.22 0.25 0.27 0.26 0.26 0.28 0.30 0.31 0.29 0.29 0.31 0.30 0.27 0.26 0.27 0.25 0.24 0.28 0.26 0.22 0.20 0.19 0.20 0.21 0.22 0.20 0.25 0.27 0.30 0.30 0.22 0.17 0.20 0.18 0.16 0.17 0.17
0.14 0.17 0.21 0.24 0.26 0.26 0.24 0.21 0.22 0.26 0.31 0.31 0.28 0.24 0.21 0.20 0.18 0.17 0.16 0.15 0.15 0.15 0.14 0.15 0.15 0.13 0.11 0.14 0.15 0.14 0.12 0.16 0.21 0.22 0.30 0.29 0.23 0.22 0.23 0.24 0.20 0.22 0.18
0.11 0.15 0.17 0.18 0.18 0.20 0.24 0.28 0.30 0.28 0.27 0.23 0.21 0.19 0.17 0.14 0.12 0.10 0.09 0.08 0.09 0.09 0.08 0.10 0.10 0.07 0.08 0.09 0.11 0.13 0.11 0.10 0.15 0.18 0.26 0.28 0.27 0.26 0.27 0.25 0.24 0.28 0.19

GFSGL_prec_precacc_105.txt.gz
Total_Precipitation_Accumulation
0.62 0.53 0.32 0.43 0.42 0.61 0.60 0.76 0.60 0.56 0.65 0.69 0.48 0.38 0.34 0.45 0.55 0.50 0.49 0.50 0.50 0.54 0.48 0.42 0.33 0.28 0.26 0.23 0.22 0.22 0.19 0.21 0.24 0.10 0.04 0.04 0.05 0.04 0.02 0.01 0.01 0.03 0.07
1.35 1.43 0.89 0.95 0.82 0.76 0.81 0.78 0.82 0.81 0.75 0.59 0.40 0.32 0.33 0.40 0.58 0.75 0.69 0.61 0.59 0.54 0.48 0.43 0.32 0.31 0.33 0.36 0.38 0.36 0.31 0.27 0.37 0.33 0.17 0.12 0.09 0.07 0.06 0.04 0.03 0.02 0.03
1.31 1.23 0.96 1.10 1.20 0.97 0.81 0.57 0.36 0.36 0.40 0.36 0.39 0.33 0.35 0.35 0.37 0.36 0.37 0.42 0.46 0.50 0.52 0.50 0.41 0.33 0.27 0.23 0.25 0.26 0.24 0.25 0.28 0.29 0.18 0.12 0.10 0.08 0.10 0.09 0.07 0.05 0.03
1.00 0.93 0.74 0.69 0.82 0.41 0.36 0.30 0.24 0.19 0.19 0.21 0.18 0.17 0.16 0.20 0.23 0.27 0.31 0.33 0.28 0.25 0.25 0.29 0.44 0.53 0.48 0.41 0.38 0.31 0.30 0.31 0.31 0.31 0.22 0.16 0.16 0.10 0.16 0.15 0.14 0.11 0.10
1.06 1.03 0.78 0.49 0.60 0.39 0.37 0.30 0.20 0.17 0.17 0.20 0.19 0.23 0.25 0.23 0.24 0.24 0.21 0.20 0.19 0.20 0.22 0.25 0.25 0.26 0.28 0.25 0.28 0.26 0.32 0.38 0.39 0.40 0.32 0.22 0.20 0.17 0.19 0.21 0.30 0.23 0.31
0.66 0.73 0.63 0.47 0.43 0.38 0.38 0.37 0.28 0.26 0.28 0.31 0.42 0.40 0.31 0.28 0.42 0.28 0.16 0.09 0.08 0.11 0.11 0.10 0.13 0.17 0.11 0.15 0.20 0.23 0.24 0.32 0.39 0.38 0.39 0.38 0.26 0.31 0.32 0.42 0.49 0.54 0.52
0.64 0.75 0.62 0.48 0.50 0.41 0.42 0.36 0.37 0.40 0.63 0.70 0.60 0.52 0.40 0.34 0.50 0.34 0.27 0.09 0.11 0.14 0.11 0.13 0.17 0.18 0.22 0.11 0.22 0.28 0.35 0.53 0.67 0.66 0.65 0.59 0.63 0.72 0.73 0.76 0.82 0.92 0.85
0.82 0.86 0.89 0.72 0.60 0.54 0.55 0.44 0.58 0.75 0.66 0.60 0.49 0.38 0.34 0.41 0.50 0.42 0.44 0.18 0.16 0.21 0.22 0.19 0.17 0.18 0.34 0.38 0.39 0.53 0.63 0.81 0.96 1.11 1.38 1.55 1.56 1.29 1.16 1.12 1.05 0.96 0.86
0.75 0.79 0.82 0.92 0.96 0.85 0.81 0.96 0.93 0.74 0.41 0.23 0.26 0.31 0.25 0.28 0.51 0.35 0.35 0.16 0.23 0.29 0.31 0.40 0.46 0.31 0.71 0.61 0.41 0.47 0.59 0.74 1.06 1.03 1.07 1.09 1.09 0.94 0.82 0.89 0.99 1.16 1.18
0.56 0.74 0.73 0.77 1.03 1.25 1.28 1.03 0.78 0.73 0.68 0.58 0.47 0.43 0.51 0.29 0.55 0.40 0.36 0.27 0.43 0.47 0.48 0.57 1.00 0.71 0.94 0.72 0.66 0.64 0.77 0.81 0.83 0.88 0.92 0.89 0.78 0.73 0.83 0.69 0.75 1.21 1.55
0.54 0.57 0.75 0.87 0.77 0.79 0.80 0.82 0.86 0.81 0.76 0.78 0.79 0.72 0.66 0.61 0.54 0.50 0.47 0.38 0.47 0.60 0.68 0.67 0.77 1.23 0.80 0.77 0.79 0.72 1.17 1.23 1.27 0.99 0.88 0.92 0.82 0.75 0.73 0.75 0.77 0.96 1.28
0.36 0.41 0.41 0.41 0.54 0.56 0.61 0.61 0.57 0.59 0.63 0.63 0.63 0.61 0.53 0.54 0.69 0.57 0.42 0.45 0.62 0.54 0.69 0.81 1.03 1.10 0.76 0.74 0.81 1.13 1.36 1.14 0.99 1.05 1.10 1.11 1.09 1.10 1.06 0.97 0.93 0.90 0.92
0.11 0.16 0.22 0.22 0.24 0.35 0.48 0.50 0.48 0.52 0.52 0.49 0.47 0.49 0.49 0.43 0.45 0.57 0.51 0.54 0.62 0.62 0.82 1.12 1.14 0.87 0.71 0.80 1.04 1.12 1.16 1.30 1.56 1.73 1.76 1.69 1.56 1.41 1.24 1.11 0.95 0.83 0.73
0.09 0.08 0.08 0.10 0.15 0.15 0.18 0.25 0.31 0.37 0.42 0.52 0.59 0.60 0.59 0.57 0.54 0.53 0.56 0.62 0.77 0.90 1.15 1.31 1.30 1.23 1.21 1.33 1.39 1.37 1.37 1.45 1.52 1.61 1.56 1.45 1.27 1.13 1.06 1.02 0.96 0.87 0.89
0.10 0.10 0.10 0.10 0.11 0.09 0.14 0.24 0.27 0.42 0.51 0.56 0.69 0.82 0.92 1.05 1.21 1.16 1.07 1.12 1.25 1.36 1.41 1.57 1.57 1.53 1.49 1.46 1.39 1.38 1.39 1.35 1.31 1.25 1.17 1.10 1.01 0.91 0.80 0.70 0.70 0.63 0.62
0.15 0.15 0.22 0.20 0.18 0.18 0.18 0.26 0.38 0.48 0.53 0.61 0.74 0.83 1.10 1.24 1.38 1.33 1.33 1.35 1.38 1.37 1.42 1.41 1.40 1.35 1.29 1.21 1.12 1.02 0.91 0.83 0.74 0.66 0.61 0.54 0.50 0.47 0.42 0.36 0.40 0.39 0.35
0.32 0.31 0.32 0.35 0.35 0.34 0.36 0.38 0.48 0.68 0.72 0.86 0.98 1.05 1.04 1.25 1.22 1.16 1.09 1.04 1.05 0.99 1.07 1.04 1.01 0.93 0.81 0.70 0.64 0.58 0.56 0.50 0.40 0.38 0.35 0.29 0.24 0.20 0.18 0.19 0.17 0.15 0.14
0.72 0.77 0.72 0.75 0.80 0.85 0.91 1.03 1.13 1.23 1.35 1.56 1.55 1.37 1.29 1.18 1.12 1.04 0.94 0.81 0.81 0.68 0.62 0.56 0.52 0.46 0.39 0.35 0.31 0.29 0.27 0.24 0.20 0.16 0.15 0.15 0.17 0.20 0.22 0.17 0.15 0.16 0.16
0.78 0.99 1.08 1.12 1.20 1.23 1.21 1.22 1.20 1.14 1.09 1.09 1.01 0.91 0.89 0.77 0.65 0.60 0.54 0.59 0.52 0.45 0.39 0.37 0.33 0.33 0.33 0.31 0.30 0.27 0.29 0.29 0.29 0.30 0.29 0.32 0.33 0.36 0.33 0.31 0.29 0.22 0.22
0.92 1.07 1.08 1.11 1.11 1.04 0.96 0.84 0.76 0.72 0.66 0.61 0.58 0.58 0.53 0.44 0.44 0.42 0.40 0.40 0.39 0.36 0.31 0.29 0.27 0.26 0.26 0.25 0.24 0.25 0.25 0.24 0.24 0.24 0.22 0.21 0.20 0.21 0.22 0.20 0.19 0.20 0.16
0.81 0.80 0.74 0.67 0.65 0.63 0.60 0.57 0.54 0.50 0.51 0.46 0.47 0.44 0.34 0.33 0.35 0.30 0.26 0.28 0.27 0.25 0.24 0.21 0.18 0.18 0.17 0.18 0.18 0.18 0.16 0.16 0.18 0.21 0.21 0.23 0.25 0.23 0.20 0.21 0.18 0.15 0.14
0.45 0.41 0.37 0.36 0.36 0.35 0.32 0.29 0.30 0.27 0.26 0.25 0.24 0.20 0.15 0.21 0.23 0.25 0.26 0.26 0.24 0.23 0.21 0.20 0.18 0.16 0.15 0.19 0.19 0.21 0.19 0.17 0.16 0.15 0.14 0.14 0.16 0.17 0.18 0.18 0.18 0.16 0.14
0.21 0.22 0.23 0.23 0.22 0.21 0.19 0.19 0.21 0.24 0.27 0.28 0.26 0.27 0.25 0.30 0.28 0.27 0.27 0.25 0.22 0.23 0.21 0.23 0.23 0.20 0.18 0.22 0.26 0.27 0.25 0.19 0.17 0.23 0.24 0.18 0.15 0.15 0.17 0.17 0.17 0.19 0.17
0.15 0.16 0.15 0.16 0.16 0.18 0.22 0.26 0.27 0.26 0.26 0.28 0.30 0.31 0.29 0.29 0.31 0.30 0.27 0.26 0.27 0.25 0.24 0.28 0.26 0.22 0.20 0.19 0.20 0.21 0.22 0.20 0.25 0.27 0.30 0.30 0.22 0.17 0.20 0.18 0.16 0.17 0.17
0.14 0.17 0.21 0.24 0.26 0.27 0.24 0.21 0.22 0.26 0.31 0.31 0.28 0.24 0.21 0.20 0.18 0.17 0.16 0.15 0.15 0.15 0.14 0.15 0.15 0.13 0.11 0.14 0.15 0.14 0.12 0.16 0.21 0.22 0.30 0.29 0.23 0.22 0.24 0.24 0.20 0.22 0.18
0.11 0.15 0.17 0.18 0.18 0.20 0.24 0.29 0.30 0.28 0.27 0.23 0.21 0.19 0.17 0.15 0.12 0.10 0.09 0.08 0.09 0.09 0.09 0.10 0.10 0.07 0.08 0.09 0.11 0.13 0.11 0.10 0.15 0.18 0.26 0.28 0.27 0.26 0.27 0.25 0.24 0.28 0.19

GFSGL_prec_precacc_108.txt.gz
Total_Precipitation_Accumulation
0.63 0.56 0.37 0.50 0.48 0.68 0.66 0.76 0.61 0.56 0.65 0.69 0.48 0.38 0.34 0.46 0.55 0.50 0.49 0.51 0.57 0.79 0.73 0.62 0.54 0.45 0.41 0.30 0.26 0.25 0.21 0.21 0.24 0.10 0.04 0.04 0.06 0.04 0.03 0.03 0.03 0.05 0.07
1.35 1.44 0.94 1.06 0.91 0.84 0.88 0.81 0.83 0.81 0.76 0.59 0.40 0.32 0.34 0.40 0.59 0.76 0.70 0.63 0.63 0.61 0.68 0.63 0.55 0.55 0.51 0.47 0.45 0.39 0.33 0.28 0.37 0.33 0.17 0.12 0.09 0.07 0.06 0.05 0.03 0.02 0.03
1.32 1.25 0.98 1.14 1.26 1.04 0.87 0.62 0.39 0.37 0.40 0.36 0.39 0.33 0.35 0.35 0.37 0.37 0.37 0.42 0.47 0.55 0.58 0.57 0.50 0.46 0.37 0.31 0.28 0.29 0.24 0.26 0.28 0.29 0.18 0.12 0.10 0.08 0.10 0.09 0.07 0.05 0.03
1.06 0.99 0.76 0.72 0.88 0.50 0.41 0.34 0.26 0.20 0.19 0.21 0.19 0.18 0.17 0.20 0.23 0.27 0.32 0.33 0.29 0.25 0.26 0.31 0.47 0.59 0.55 0.47 0.41 0.33 0.31 0.32 0.31 0.31 0.22 0.16 0.17 0.10 0.16 0.15 0.14 0.11 0.10
1.08 1.09 0.82 0.54 0.68 0.55 0.58 0.45 0.25 0.20 0.19 0.20 0.19 0.23 0.26 0.23 0.25 0.26 0.22 0.20 0.20 0.21 0.22 0.27 0.29 0.33 0.40 0.40 0.38 0.32 0.38 0.43 0.41 0.41 0.32 0.22 0.20 0.17 0.19 0.21 0.30 0.23 0.32
0.70 0.86 0.76 0.56 0.54 0.60 0.61 0.55 0.35 0.29 0.31 0.33 0.43 0.40 0.31 0.29 0.47 0.31 0.18 0.10 0.10 0.14 0.17 0.14 0.19 0.32 0.26 0.28 0.27 0.27 0.28 0.37 0.43 0.39 0.40 0.38 0.26 0.31 0.32 0.42 0.49 0.55 0.53
0.66 0.76 0.72 0.61 0.65 0.58 0.71 0.62 0.53 0.46 0.65 0.72 0.62 0.54 0.41 0.35 0.52 0.38 0.32 0.11 0.13 0.16 0.15 0.20 0.23 0.24 0.29 0.14 0.23 0.29 0.35 0.53 0.67 0.66 0.65 0.59 0.63 0.72 0.74 0.77 0.83 0.93 0.87
0.86 0.89 0.93 0.83 0.74 0.70 0.76 0.68 0.75 0.84 0.69 0.61 0.50 0.39 0.36 0.44 0.53 0.45 0.48 0.21 0.20 0.23 0.23 0.20 0.19 0.21 0.39 0.42 0.40 0.54 0.64 0.82 0.98 1.12 1.38 1.55 1.56 1.29 1.17 1.13 1.08 1.01 0.92
0.83 0.93 0.94 1.04 1.14 1.06 1.03 1.17 1.14 0.99 0.55 0.29 0.27 0.32 0.27 0.30 0.57 0.41 0.39 0.17 0.27 0.32 0.33 0.42 0.48 0.33 0.77 0.66 0.45 0.53 0.66 0.80 1.13 1.08 1.10 1.12 1.12 0.97 0.85 0.93 1.06 1.26 1.27
0.61 0.82 0.96 1.04 1.29 1.49 1.54 1.33 1.06 0.99 0.98 0.80 0.59 0.49 0.57 0.33 0.62 0.46 0.43 0.33 0.49 0.51 0.51 0.60 1.07 0.77 1.04 0.79 0.70 0.68 0.81 0.84 0.85 0.91 0.95 0.93 0.85 0.81 0.90 0.75 0.80 1.27 1.61
0.55 0.61 0.84 1.10 1.10 1.17 1.17 1.25 1.26 1.15 1.03 1.03 0.95 0.83 0.76 0.68 0.65 0.67 0.62 0.49 0.61 0.75 0.79 0.74 0.83 1.32 0.86 0.83 0.85 0.79 1.30 1.37 1.43 1.13 1.02 1.04 0.93 0.83 0.79 0.78 0.79 0.98 1.28
0.36 0.42 0.44 0.47 0.64 0.72 0.78 0.87 0.89 0.92 0.93 0.86 0.80 0.72 0.64 0.67 0.85 0.78 0.63 0.65 0.80 0.68 0.85 0.94 1.16 1.19 0.82 0.81 0.93 1.28 1.52 1.29 1.10 1.12 1.15 1.15 1.12 1.11 1.07 0.97 0.93 0.90 0.92
0.11 0.16 0.22 0.22 0.25 0.39 0.53 0.58 0.62 0.67 0.69 0.67 0.64 0.64 0.63 0.55 0.61 0.75 0.72 0.75 0.83 0.80 0.99 1.29 1.31 1.01 0.81 0.87 1.09 1.17 1.20 1.33 1.58 1.74 1.76 1.69 1.56 1.41 1.24 1.11 0.95 0.83 0.73
0.09 0.08 0.08 0.10 0.15 0.15 0.19 0.26 0.32 0.41 0.49 0.62 0.71 0.72 0.72 0.72 0.70 0.69 0.72 0.76 0.88 0.99 1.22 1.36 1.33 1.26 1.24 1.36 1.41 1.38 1.38 1.45 1.52 1.61 1.56 1.45 1.27 1.13 1.06 1.02 0.96 0.87 0.89
0.10 0.10 0.10 0.10 0.11 0.09 0.15 0.24 0.27 0.43 0.52 0.57 0.72 0.87 0.98 1.15 1.33 1.29 1.20 1.27 1.41 1.51 1.53 1.67 1.65 1.57 1.51 1.47 1.40 1.38 1.39 1.35 1.31 1.25 1.17 1.10 1.01 0.91 0.80 0.70 0.70 0.63 0.62
0.15 0.16 0.23 0.20 0.19 0.18 0.19 0.27 0.38 0.48 0.53 0.61 0.74 0.83 1.11 1.25 1.40 1.35 1.36 1.38 1.41 1.41 1.47 1.47 1.46 1.41 1.33 1.25 1.14 1.03 0.91 0.83 0.74 0.66 0.61 0.54 0.50 0.47 0.42 0.36 0.40 0.39 0.35
0.33 0.31 0.32 0.36 0.36 0.34 0.36 0.38 0.49 0.68 0.73 0.86 0.98 1.05 1.04 1.25 1.22 1.16 1.09 1.04 1.05 0.99 1.07 1.04 1.01 0.93 0.81 0.70 0.64 0.58 0.56 0.50 0.40 0.38 0.35 0.29 0.24 0.20 0.18 0.19 0.17 0.15 0.14
0.72 0.77 0.72 0.75 0.80 0.85 0.92 1.03 1.13 1.24 1.35 1.56 1.55 1.37 1.29 1.18 1.12 1.04 0.94 0.81 0.81 0.68 0.62 0.56 0.52 0.46 0.39 0.35 0.31 0.29 0.27 0.24 0.20 0.16 0.15 0.15 0.17 0.20 0.22 0.17 0.15 0.16 0.16
0.78 0.99 1.08 1.12 1.20 1.23 1.21 1.22 1.20 1.14 1.09 1.09 1.01 0.91 0.89 0.77 0.65 0.60 0.54 0.59 0.52 0.45 0.39 0.37 0.33 0.33 0.33 0.31 0.30 0.27 0.29 0.29 0.29 0.30 0.29 0.32 0.33 0.36 0.33 0.31 0.29 0.22 0.22
0.92 1.07 1.08 1.11 1.11 1.05 0.96 0.84 0.76 0.72 0.66 0.61 0.58 0.58 0.53 0.44 0.44 0.42 0.40 0.40 0.39 0.36 0.31 0.29 0.27 0.26 0.26 0.25 0.24 0.25 0.25 0.24 0.24 0.24 0.22 0.21 0.20 0.21 0.22 0.20 0.19 0.20 0.16
0.81 0.80 0.74 0.67 0.65 0.63 0.60 0.57 0.54 0.50 0.51 0.46 0.47 0.44 0.34 0.33 0.35 0.30 0.26 0.28 0.27 0.25 0.24 0.21 0.18 0.18 0.17 0.18 0.18 0.18 0.16 0.16 0.18 0.21 0.21 0.23 0.25 0.23 0.20 0.21 0.18 0.15 0.14
0.45 0.41 0.37 0.36 0.36 0.35 0.32 0.29 0.30 0.27 0.26 0.25 0.24 0.20 0.15 0.21 0.23 0.25 0.26 0.26 0.24 0.23 0.21 0.20 0.18 0.16 0.16 0.19 0.19 0.21 0.19 0.17 0.16 0.15 0.14 0.14 0.16 0.17 0.18 0.18 0.18 0.16 0.14
0.21 0.22 0.23 0.23 0.22 0.21 0.19 0.19 0.21 0.24 0.27 0.28 0.26 0.27 0.25 0.30 0.28 0.27 0.27 0.25 0.22 0.23 0.21 0.23 0.23 0.20 0.18 0.22 0.26 0.27 0.25 0.19 0.17 0.23 0.24 0.18 0.15 0.15 0.17 0.17 0.17 0.19 0.17
0.15 0.16 0.15 0.16 0.16 0.18 0.22 0.26 0.27 0.26 0.27 0.28 0.30 0.31 0.29 0.29 0.31 0.30 0.27 0.26 0.27 0.25 0.24 0.28 0.26 0.22 0.20 0.19 0.20 0.21 0.22 0.20 0.25 0.27 0.30 0.30 0.22 0.18 0.20 0.18 0.16 0.17 0.17
0.14 0.17 0.21 0.24 0.27 0.27 0.25 0.21 0.22 0.26 0.31 0.31 0.29 0.25 0.21 0.20 0.18 0.17 0.16 0.15 0.15 0.15 0.14 0.15 0.15 0.13 0.11 0.14 0.15 0.14 0.12 0.16 0.21 0.22 0.30 0.29 0.24 0.22 0.24 0.24 0.20 0.22 0.18
0.11 0.15 0.17 0.18 0.18 0.20 0.25 0.29 0.31 0.28 0.27 0.23 0.21 0.19 0.17 0.15 0.12 0.10 0.09 0.08 0.09 0.09 0.09 0.10 0.10 0.07 0.08 0.09 0.11 0.13 0.11 0.10 0.15 0.18 0.26 0.28 0.27 0.26 0.27 0.25 0.24 0.28 0.19

GFSGL_prec_precacc_111.txt.gz
Total_Precipitation_Accumulation
0.63 0.57 0.37 0.50 0.50 0.72 0.70 0.81 0.65 0.62 0.69 0.71 0.48 0.38 0.34 0.46 0.55 0.50 0.50 0.53 0.58 0.81 0.79 0.85 0.74 0.55 0.49 0.43 0.39 0.33 0.27 0.25 0.26 0.11 0.04 0.05 0.06 0.05 0.04 0.03 0.04 0.05 0.08
1.37 1.48 0.97 1.09 0.94 0.88 0.93 0.85 0.88 0.88 0.82 0.63 0.41 0.32 0.34 0.41 0.59 0.77 0.71 0.64 0.64 0.63 0.70 0.75 0.81 0.81 0.71 0.64 0.63 0.52 0.43 0.36 0.43 0.36 0.18 0.13 0.09 0.08 0.07 0.06 0.04 0.03 0.04
1.34 1.28 1.05 1.17 1.29 1.07 0.92 0.69 0.46 0.43 0.46 0.41 0.41 0.34 0.36 0.35 0.38 0.37 0.38 0.43 0.47 0.56 0.62 0.65 0.68 0.73 0.76 0.61 0.50 0.46 0.37 0.36 0.35 0.33 0.20 0.13 0.10 0.08 0.10 0.09 0.07 0.05 0.03
1.07 1.00 0.78 0.76 0.90 0.51 0.43 0.38 0.31 0.25 0.23 0.24 0.21 0.20 0.19 0.20 0.24 0.27 0.32 0.34 0.29 0.25 0.30 0.44 0.55 0.70 0.78 0.77 0.68 0.48 0.43 0.41 0.36 0.36 0.27 0.20 0.18 0.10 0.17 0.16 0.14 0.11 0.11
1.09 1.09 0.82 0.56 0.71 0.57 0.62 0.52 0.31 0.26 0.22 0.24 0.23 0.24 0.26 0.24 0.26 0.27 0.22 0.21 0.21 0.21 0.23 0.29 0.33 0.39 0.47 0.52 0.59 0.50 0.48 0.50 0.48 0.46 0.35 0.24 0.21 0.17 0.20 0.22 0.31 0.24 0.33
0.72 0.87 0.77 0.60 0.58 0.61 0.63 0.66 0.53 0.46 0.51 0.44 0.45 0.42 0.32 0.30 0.50 0.33 0.19 0.11 0.12 0.17 0.19 0.15 0.21 0.37 0.30 0.37 0.45 0.48 0.48 0.55 0.58 0.50 0.47 0.43 0.28 0.32 0.33 0.42 0.50 0.55 0.54
0.66 0.77 0.72 0.63 0.71 0.66 0.81 0.86 0.85 0.79 0.96 0.94 0.71 0.58 0.43 0.36 0.54 0.39 0.34 0.12 0.16 0.19 0.19 0.26 0.30 0.27 0.35 0.21 0.38 0.45 0.50 0.65 0.74 0.73 0.71 0.62 0.65 0.73 0.75 0.77 0.83 0.93 0.88
0.86 0.89 0.94 0.83 0.74 0.74 0.82 0.82 1.19 1.56 1.27 0.89 0.61 0.43 0.38 0.45 0.54 0.46 0.50 0.22 0.23 0.26 0.26 0.25 0.25 0.25 0.45 0.47 0.43 0.61 0.73 0.90 1.02 1.14 1.39 1.56 1.57 1.30 1.18 1.15 1.09 1.02 0.94
0.83 0.93 0.95 1.05 1.15 1.10 1.08 1.26 1.28 1.19 0.96 0.68 0.49 0.42 0.30 0.31 0.61 0.43 0.40 0.17 0.28 0.35 0.37 0.47 0.54 0.39 0.83 0.71 0.48 0.57 0.70 0.84 1.17 1.11 1.13 1.16 1.14 0.98 0.86 0.94 1.07 1.28 1.31
0.62 0.83 0.97 1.05 1.32 1.53 1.65 1.48 1.21 1.14 1.18 1.06 0.89 0.77 0.76 0.41 0.70 0.56 0.49 0.34 0.50 0.52 0.53 0.63 1.15 0.82 1.11 0.84 0.73 0.69 0.86 0.92 0.91 0.95 1.00 0.98 0.88 0.84 0.94 0.77 0.81 1.29 1.66
0.55 0.61 0.84 1.10 1.12 1.22 1.26 1.31 1.36 1.32 1.22 1.23 1.29 1.19 1.08 0.93 0.81 0.78 0.75 0.61 0.70 0.81 0.83 0.77 0.89 1.41 0.94 0.92 0.93 0.84 1.37 1.44 1.51 1.21 1.09 1.10 0.97 0.86 0.82 0.83 0.84 1.04 1.35
0.36 0.42 0.44 0.47 0.64 0.74 0.84 0.97 0.98 1.02 1.08 1.06 1.02 1.05 0.99 1.09 1.29 1.08 0.78 0.78 0.94 0.79 0.97 1.12 1.40 1.41 0.93 0.89 0.99 1.39 1.64 1.36 1.15 1.17 1.20 1.20 1.16 1.15 1.09 1.00 0.95 0.91 0.94
0.11 0.16 0.22 0.22 0.25 0.39 0.54 0.61 0.66 0.74 0.77 0.76 0.79 0.85 0.87 0.82 0.88 1.02 0.97 0.98 1.01 0.94 1.16 1.44 1.47 1.23 1.08 1.10 1.27 1.30 1.29 1.39 1.63 1.79 1.81 1.73 1.58 1.42 1.24 1.11 0.95 0.83 0.73
0.09 0.08 0.08 0.10 0.15 0.15 0.19 0.26 0.33 0.41 0.50 0.64 0.74 0.77 0.79 0.81 0.83 0.83 0.85 0.88 0.99 1.09 1.32 1.46 1.44 1.37 1.36 1.50 1.56 1.51 1.47 1.49 1.54 1.62 1.56 1.45 1.27 1.13 1.06 1.02 0.96 0.87 0.89
0.10 0.10 0.10 0.10 0.11 0.09 0.15 0.25 0.27 0.45 0.53 0.58 0.73 0.88 1.00 1.17 1.37 1.32 1.24 1.31 1.45 1.56 1.58 1.72 1.71 1.63 1.57 1.53 1.44 1.42 1.42 1.37 1.32 1.25 1.18 1.10 1.01 0.91 0.80 0.70 0.71 0.63 0.63
0.15 0.16 0.23 0.20 0.19 0.18 0.19 0.27 0.39 0.49 0.54 0.62 0.75 0.84 1.12 1.26 1.41 1.36 1.37 1.39 1.41 1.41 1.48 1.49 1.49 1.45 1.39 1.31 1.20 1.09 0.95 0.86 0.76 0.68 0.62 0.54 0.50 0.47 0.42 0.36 0.41 0.40 0.36
0.33 0.31 0.32 0.36 0.36 0.34 0.36 0.38 0.49 0.68 0.73 0.87 0.98 1.05 1.05 1.25 1.22 1.16 1.09 1.04 1.05 0.99 1.07 1.04 1.01 0.93 0.82 0.70 0.64 0.59 0.56 0.50 0.40 0.38 0.35 0.29 0.24 0.20 0.18 0.19 0.17 0.15 0.14
0.72 0.77 0.72 0.75 0.80 0.86 0.92 1.03 1.13 1.24 1.35 1.56 1.55 1.38 1.29 1.18 1.12 1.04 0.94 0.81 0.81 0.68 0.62 0.56 0.52 0.46 0.39 0.35 0.31 0.29 0.27 0.24 0.20 0.16 0.15 0.15 0.17 0.20 0.22 0.17 0.15 0.16 0.16
0.78 0.99 1.08 1.12 1.20 1.24 1.21 1.22 1.20 1.14 1.09 1.09 1.01 0.91 0.89 0.77 0.65 0.60 0.54 0.59 0.52 0.45 0.39 0.37 0.33 0.33 0.33 0.31 0.30 0.27 0.29 0.29 0.29 0.30 0.29 0.32 0.33 0.36 0.33 0.31 0.29 0.22 0.22
0.92 1.07 1.08 1.11 1.11 1.05 0.96 0.84 0.76 0.72 0.66 0.61 0.58 0.58 0.53 0.44 0.44 0.42 0.40 0.40 0.39 0.36 0.31 0.29 0.27 0.26 0.26 0.25 0.24 0.25 0.25 0.24 0.24 0.24 0.22 0.21 0.20 0.21 0.22 0.20 0.19 0.20 0.16
0.81 0.80 0.74 0.67 0.65 0.63 0.60 0.57 0.54 0.50 0.51 0.46 0.47 0.44 0.34 0.33 0.35 0.30 0.26 0.28 0.27 0.25 0.24 0.21 0.18 0.18 0.17 0.18 0.18 0.18 0.16 0.16 0.18 0.21 0.21 0.23 0.25 0.23 0.20 0.21 0.18 0.15 0.14
0.45 0.41 0.37 0.36 0.36 0.35 0.32 0.29 0.30 0.27 0.26 0.25 0.24 0.20 0.15 0.21 0.23 0.25 0.26 0.26 0.24 0.23 0.21 0.20 0.18 0.16 0.16 0.19 0.19 0.21 0.19 0.17 0.16 0.15 0.14 0.14 0.16 0.17 0.18 0.18 0.18 0.16 0.14
0.21 0.22 0.23 0.23 0.22 0.21 0.19 0.19 0.22 0.24 0.27 0.28 0.26 0.27 0.25 0.30 0.28 0.27 0.27 0.25 0.22 0.23 0.21 0.23 0.23 0.20 0.18 0.22 0.26 0.27 0.25 0.19 0.17 0.23 0.24 0.18 0.15 0.15 0.17 0.17 0.17 0.19 0.17
0.15 0.16 0.15 0.16 0.16 0.18 0.22 0.26 0.28 0.27 0.27 0.28 0.30 0.31 0.29 0.29 0.31 0.30 0.27 0.26 0.27 0.25 0.24 0.28 0.26 0.22 0.20 0.19 0.20 0.21 0.22 0.20 0.25 0.27 0.30 0.30 0.22 0.18 0.20 0.18 0.16 0.17 0.17
0.14 0.17 0.21 0.24 0.27 0.27 0.25 0.22 0.22 0.26 0.31 0.31 0.29 0.25 0.21 0.20 0.18 0.17 0.16 0.15 0.15 0.15 0.14 0.15 0.15 0.13 0.11 0.14 0.15 0.14 0.12 0.16 0.21 0.22 0.30 0.29 0.24 0.22 0.24 0.24 0.20 0.22 0.18
0.11 0.15 0.17 0.18 0.18 0.20 0.25 0.30 0.31 0.28 0.27 0.23 0.22 0.20 0.18 0.15 0.12 0.10 0.09 0.08 0.09 0.09 0.09 0.10 0.10 0.07 0.08 0.09 0.11 0.13 0.11 0.10 0.15 0.18 0.26 0.28 0.27 0.26 0.27 0.25 0.24 0.28 0.19

GFSGL_prec_precacc_114.txt.gz
Total_Precipitation_Accumulation
0.63 0.57 0.37 0.50 0.50 0.72 0.70 0.81 0.65 0.62 0.70 0.73 0.52 0.40 0.35 0.46 0.55 0.51 0.50 0.54 0.58 0.81 0.80 0.87 0.80 0.59 0.56 0.49 0.46 0.41 0.31 0.29 0.30 0.14 0.07 0.06 0.07 0.05 0.04 0.03 0.04 0.05 0.08
1.37 1.48 0.97 1.09 0.94 0.89 0.94 0.86 0.89 0.89 0.85 0.69 0.47 0.35 0.36 0.44 0.62 0.77 0.71 0.64 0.64 0.63 0.71 0.77 0.92 0.94 0.84 0.75 0.71 0.60 0.48 0.42 0.52 0.45 0.24 0.15 0.10 0.08 0.07 0.06 0.04 0.03 0.04
1.34 1.28 1.05 1.19 1.30 1.08 0.94 0.71 0.48 0.47 0.49 0.45 0.47 0.38 0.39 0.39 0.42 0.39 0.38 0.43 0.47 0.56 0.62 0.66 0.71 0.79 0.89 0.76 0.63 0.57 0.48 0.48 0.49 0.48 0.31 0.18 0.12 0.08 0.10 0.09 0.08 0.07 0.06
1.07 1.01 0.79 0.77 0.93 0.55 0.47 0.40 0.35 0.29 0.28 0.28 0.26 0.26 0.24 0.23 0.25 0.28 0.32 0.34 0.29 0.26 0.31 0.47 0.61 0.74 0.83 0.83 0.80 0.65 0.62 0.60 0.52 0.48 0.38 0.27 0.21 0.13 0.19 0.17 0.16 0.14 0.14
1.09 1.09 0.83 0.56 0.71 0.59 0.64 0.54 0.32 0.28 0.26 0.28 0.28 0.31 0.34 0.32 0.33 0.29 0.22 0.21 0.21 0.21 0.23 0.30 0.40 0.47 0.55 0.59 0.71 0.67 0.67 0.68 0.64 0.59 0.46 0.32 0.26 0.20 0.22 0.23 0.33 0.29 0.40
0.72 0.87 0.77 0.60 0.58 0.62 0.64 0.66 0.54 0.47 0.52 0.52 0.56 0.55 0.46 0.41 0.64 0.45 0.21 0.11 0.12 0.17 0.20 0.16 0.21 0.45 0.48 0.54 0.57 0.60 0.66 0.75 0.73 0.61 0.56 0.52 0.35 0.39 0.39 0.48 0.53 0.59 0.58
0.66 0.77 0.72 0.63 0.71 0.66 0.81 0.87 0.87 0.84 1.07 1.12 1.04 0.91 0.66 0.50 0.69 0.56 0.42 0.13 0.17 0.20 0.20 0.27 0.31 0.31 0.40 0.29 0.57 0.62 0.64 0.87 1.00 0.91 0.89 0.76 0.76 0.83 0.86 0.88 0.92 0.97 0.89
0.86 0.89 0.94 0.83 0.74 0.74 0.82 0.83 1.21 1.60 1.35 1.09 0.95 0.83 0.80 0.78 0.72 0.61 0.57 0.23 0.24 0.28 0.28 0.28 0.28 0.29 0.50 0.53 0.52 0.72 0.89 1.06 1.22 1.33 1.51 1.63 1.62 1.36 1.25 1.21 1.13 1.08 1.00
0.83 0.93 0.95 1.05 1.15 1.10 1.09 1.27 1.30 1.22 1.05 0.96 0.84 0.79 0.67 0.58 0.80 0.57 0.46 0.19 0.30 0.37 0.38 0.48 0.58 0.41 0.89 0.79 0.53 0.65 0.84 0.97 1.34 1.32 1.34 1.33 1.26 1.07 0.92 0.96 1.09 1.29 1.33
0.62 0.83 0.97 1.05 1.32 1.53 1.66 1.50 1.23 1.15 1.21 1.16 1.10 1.04 1.07 0.68 0.95 0.78 0.68 0.47 0.56 0.55 0.54 0.65 1.21 0.87 1.19 0.89 0.76 0.72 0.90 0.96 0.97 1.02 1.08 1.05 0.94 0.88 0.99 0.81 0.85 1.33 1.71
0.55 0.61 0.84 1.10 1.12 1.23 1.26 1.32 1.36 1.33 1.23 1.25 1.32 1.29 1.28 1.19 1.09 1.05 0.96 0.76 0.87 0.98 0.98 0.87 0.96 1.49 0.99 0.98 0.98 0.88 1.42 1.49 1.57 1.25 1.14 1.17 1.05 0.94 0.91 0.92 0.92 1.12 1.45
0.36 0.42 0.44 0.47 0.64 0.74 0.84 0.97 0.98 1.02 1.08 1.06 1.03 1.07 1.04 1.19 1.48 1.38 1.18 1.16 1.28 1.02 1.20 1.37 1.67 1.61 1.04 0.97 1.06 1.48 1.74 1.43 1.18 1.20 1.23 1.23 1.20 1.20 1.15 1.07 1.03 0.99 1.02
0.11 0.16 0.22 0.22 0.25 0.39 0.54 0.61 0.66 0.74 0.77 0.77 0.80 0.86 0.89 0.86 0.95 1.16 1.20 1.28 1.36 1.26 1.45 1.71 1.73 1.46 1.25 1.24 1.42 1.44 1.41 1.50 1.75 1.91 1.95 1.86 1.67 1.46 1.26 1.13 0.96 0.84 0.75
0.09 0.08 0.08 0.10 0.15 0.15 0.19 0.26 0.33 0.42 0.50 0.64 0.74 0.78 0.80 0.82 0.84 0.87 0.92 0.98 1.16 1.31 1.57 1.70 1.64 1.54 1.52 1.67 1.71 1.65 1.63 1.66 1.69 1.74 1.65 1.52 1.32 1.17 1.09 1.04 0.97 0.88 0.90
0.10 0.10 0.10 0.10 0.11 0.09 0.15 0.25 0.28 0.47 0.54 0.59 0.74 0.89 1.01 1.19 1.39 1.33 1.25 1.33 1.48 1.61 1.64 1.79 1.79 1.72 1.64 1.59 1.51 1.50 1.51 1.48 1.44 1.37 1.27 1.17 1.06 0.94 0.83 0.72 0.72 0.64 0.64
0.15 0.16 0.23 0.20 0.19 0.18 0.19 0.27 0.39 0.49 0.54 0.62 0.76 0.84 1.12 1.27 1.41 1.36 1.37 1.39 1.42 1.42 1.48 1.50 1.51 1.47 1.41 1.34 1.24 1.12 0.99 0.91 0.82 0.73 0.67 0.59 0.54 0.51 0.44 0.38 0.42 0.41 0.37
0.33 0.31 0.32 0.36 0.36 0.34 0.36 0.38 0.49 0.68 0.73 0.87 0.98 1.05 1.05 1.25 1.22 1.16 1.09 1.04 1.05 0.99 1.07 1.05 1.01 0.93 0.82 0.71 0.64 0.59 0.57 0.50 0.41 0.39 0.36 0.30 0.24 0.20 0.18 0.19 0.17 0.16 0.14
0.72 0.77 0.73 0.76 0.81 0.86 0.92 1.03 1.13 1.24 1.35 1.56 1.55 1.38 1.29 1.19 1.12 1.04 0.94 0.81 0.81 0.68 0.62 0.56 0.52 0.46 0.39 0.35 0.31 0.29 0.27 0.24 0.20 0.16 0.15 0.15 0.17 0.20 0.22 0.17 0.15 0.16 0.16
0.78 0.99 1.08 1.12 1.20 1.24 1.21 1.22 1.20 1.14 1.09 1.09 1.01 0.91 0.89 0.77 0.65 0.60 0.54 0.59 0.53 0.45 0.39 0.37 0.33 0.33 0.33 0.31 0.30 0.27 0.29 0.29 0.29 0.30 0.29 0.32 0.33 0.36 0.33 0.31 0.29 0.22 0.22
0.92 1.07 1.08 1.11 1.11 1.05 0.96 0.84 0.76 0.72 0.66 0.61 0.58 0.58 0.53 0.44 0.44 0.42 0.40 0.40 0.39 0.36 0.31 0.29 0.27 0.26 0.26 0.25 0.24 0.25 0.25 0.24 0.24 0.24 0.22 0.21 0.20 0.21 0.22 0.20 0.19 0.20 0.16
0.81 0.80 0.74 0.67 0.65 0.63 0.60 0.57 0.54 0.50 0.51 0.46 0.47 0.44 0.34 0.33 0.35 0.30 0.26 0.28 0.27 0.25 0.24 0.21 0.19 0.18 0.17 0.18 0.18 0.18 0.16 0.16 0.18 0.21 0.21 0.23 0.25 0.23 0.20 0.21 0.18 0.15 0.14
0.45 0.41 0.37 0.36 0.36 0.35 0.32 0.29 0.30 0.27 0.26 0.25 0.24 0.20 0.15 0.21 0.23 0.25 0.26 0.26 0.24 0.23 0.21 0.20 0.18 0.16 0.16 0.19 0.19 0.21 0.19 0.17 0.16 0.15 0.14 0.14 0.16 0.17 0.18 0.18 0.18 0.16 0.14
0.21 0.22 0.23 0.23 0.22 0.21 0.19 0.19 0.22 0.25 0.27 0.28 0.26 0.27 0.25 0.30 0.28 0.27 0.27 0.25 0.22 0.23 0.21 0.23 0.23 0.20 0.18 0.22 0.26 0.27 0.25 0.19 0.17 0.23 0.24 0.18 0.15 0.15 0.17 0.17 0.17 0.19 0.17
0.15 0.16 0.15 0.16 0.16 0.18 0.22 0.26 0.28 0.27 0.27 0.29 0.30 0.31 0.29 0.29 0.31 0.30 0.27 0.26 0.27 0.25 0.24 0.28 0.26 0.22 0.20 0.19 0.20 0.21 0.22 0.20 0.25 0.27 0.30 0.30 0.22 0.18 0.20 0.18 0.16 0.17 0.17
0.14 0.17 0.21 0.24 0.27 0.27 0.25 0.22 0.23 0.27 0.32 0.32 0.29 0.25 0.21 0.20 0.18 0.17 0.16 0.15 0.15 0.15 0.14 0.15 0.15 0.13 0.11 0.14 0.15 0.14 0.12 0.16 0.21 0.22 0.30 0.29 0.24 0.22 0.24 0.24 0.20 0.22 0.18
0.11 0.15 0.17 0.18 0.18 0.20 0.25 0.30 0.31 0.29 0.28 0.24 0.22 0.20 0.18 0.15 0.12 0.10 0.09 0.08 0.10 0.09 0.09 0.10 0.10 0.07 0.08 0.09 0.11 0.13 0.11 0.10 0.15 0.18 0.26 0.28 0.27 0.26 0.27 0.25 0.24 0.28 0.19

GFSGL_prec_precacc_117.txt.gz
Total_Precipitation_Accumulation
0.63 0.57 0.37 0.50 0.50 0.72 0.71 0.84 0.71 0.70 0.81 0.82 0.65 0.51 0.43 0.52 0.58 0.53 0.51 0.54 0.59 0.82 0.80 0.87 0.80 0.60 0.57 0.49 0.47 0.44 0.37 0.39 0.42 0.20 0.10 0.10 0.10 0.07 0.05 0.04 0.04 0.06 0.08
1.37 1.48 0.97 1.09 0.94 0.89 0.94 0.86 0.90 0.90 0.88 0.75 0.55 0.45 0.44 0.49 0.66 0.81 0.73 0.65 0.65 0.63 0.71 0.77 0.92 0.94 0.85 0.75 0.72 0.62 0.51 0.46 0.57 0.50 0.31 0.23 0.15 0.10 0.09 0.06 0.05 0.04 0.05
1.34 1.29 1.06 1.19 1.30 1.08 0.94 0.71 0.48 0.48 0.51 0.47 0.49 0.40 0.41 0.43 0.47 0.42 0.40 0.44 0.47 0.56 0.62 0.66 0.71 0.80 0.89 0.78 0.66 0.61 0.51 0.49 0.52 0.54 0.38 0.26 0.20 0.13 0.13 0.10 0.08 0.08 0.06
1.07 1.01 0.79 0.77 0.93 0.55 0.47 0.40 0.35 0.31 0.31 0.32 0.30 0.29 0.27 0.27 0.30 0.33 0.36 0.37 0.31 0.27 0.31 0.47 0.62 0.75 0.83 0.84 0.82 0.70 0.67 0.64 0.57 0.58 0.49 0.36 0.28 0.17 0.23 0.19 0.17 0.15 0.14
1.09 1.09 0.83 0.56 0.72 0.59 0.64 0.55 0.32 0.29 0.29 0.32 0.31 0.35 0.38 0.40 0.43 0.41 0.33 0.31 0.25 0.22 0.23 0.31 0.40 0.48 0.56 0.60 0.72 0.70 0.71 0.72 0.70 0.68 0.60 0.47 0.33 0.24 0.25 0.26 0.41 0.33 0.43
0.72 0.87 0.77 0.60 0.58 0.62 0.64 0.66 0.54 0.47 0.52 0.53 0.57 0.56 0.48 0.44 0.77 0.59 0.41 0.31 0.27 0.25 0.21 0.16 0.21 0.45 0.49 0.57 0.60 0.64 0.70 0.80 0.80 0.68 0.65 0.63 0.44 0.45 0.44 0.56 0.64 0.69 0.62
0.66 0.77 0.72 0.63 0.71 0.66 0.81 0.87 0.87 0.84 1.07 1.12 1.05 0.94 0.67 0.53 0.83 0.69 0.62 0.32 0.35 0.34 0.24 0.29 0.32 0.32 0.41 0.30 0.62 0.72 0.73 0.94 1.08 1.01 0.98 0.83 0.84 0.91 0.96 1.01 1.04 1.06 0.94
0.86 0.89 0.94 0.83 0.74 0.74 0.82 0.83 1.22 1.60 1.35 1.09 0.97 0.88 0.88 0.92 0.96 0.87 0.97 0.64 0.58 0.49 0.36 0.30 0.30 0.30 0.53 0.57 0.53 0.74 0.92 1.14 1.31 1.42 1.64 1.75 1.70 1.45 1.39 1.33 1.25 1.25 1.16
0.83 0.93 0.95 1.05 1.15 1.10 1.09 1.27 1.30 1.22 1.06 0.96 0.86 0.83 0.73 0.69 0.94 0.79 0.78 0.50 0.59 0.62 0.52 0.56 0.62 0.43 0.94 0.84 0.55 0.67 0.87 1.03 1.47 1.50 1.50 1.52 1.47 1.27 1.14 1.21 1.37 1.54 1.50
0.62 0.83 0.97 1.06 1.32 1.53 1.66 1.50 1.23 1.15 1.21 1.17 1.10 1.05 1.10 0.74 1.03 0.93 0.90 0.70 0.81 0.79 0.74 0.75 1.27 0.91 1.27 0.94 0.78 0.75 0.95 1.05 1.04 1.09 1.17 1.17 1.10 1.08 1.20 0.99 1.05 1.57 1.93
0.55 0.61 0.84 1.10 1.12 1.23 1.26 1.32 1.36 1.33 1.23 1.25 1.32 1.29 1.30 1.24 1.18 1.18 1.17 1.02 1.11 1.20 1.20 1.09 1.13 1.58 1.05 1.05 1.05 0.92 1.51 1.56 1.63 1.29 1.19 1.21 1.09 1.00 1.00 1.03 1.04 1.27 1.60
0.36 0.42 0.44 0.47 0.64 0.74 0.84 0.97 0.98 1.02 1.08 1.06 1.03 1.07 1.04 1.19 1.48 1.39 1.21 1.25 1.48 1.25 1.40 1.54 1.86 1.78 1.20 1.13 1.20 1.63 1.88 1.53 1.23 1.25 1.28 1.27 1.22 1.23 1.20 1.14 1.14 1.13 1.17
0.11 0.16 0.22 0.22 0.25 0.39 0.54 0.61 0.66 0.74 0.77 0.77 0.80 0.86 0.90 0.86 0.95 1.16 1.21 1.29 1.40 1.35 1.59 1.90 1.93 1.65 1.43 1.44 1.65 1.70 1.65 1.70 1.91 2.05 2.07 1.94 1.72 1.50 1.31 1.18 1.03 0.94 0.88
0.09 0.08 0.08 0.10 0.15 0.15 0.19 0.26 0.33 0.42 0.51 0.64 0.75 0.78 0.80 0.82 0.84 0.87 0.92 0.98 1.16 1.33 1.60 1.76 1.75 1.69 1.67 1.82 1.88 1.83 1.83 1.88 1.90 1.95 1.84 1.70 1.45 1.26 1.18 1.12 1.05 0.95 0.96
0.10 0.10 0.10 0.10 0.11 0.09 0.15 0.26 0.28 0.48 0.56 0.60 0.75 0.89 1.02 1.20 1.40 1.34 1.25 1.34 1.48 1.61 1.65 1.81 1.82 1.77 1.72 1.71 1.64 1.64 1.65 1.62 1.57 1.50 1.40 1.29 1.16 1.02 0.89 0.77 0.77 0.70 0.70
0.15 0.16 0.23 0.20 0.19 0.18 0.19 0.27 0.39 0.50 0.54 0.63 0.76 0.84 1.13 1.28 1.41 1.36 1.37 1.39 1.42 1.42 1.48 1.50 1.51 1.48 1.43 1.39 1.30 1.20 1.08 0.99 0.89 0.79 0.73 0.64 0.59 0.55 0.47 0.40 0.43 0.42 0.38
0.33 0.31 0.32 0.36 0.36 0.34 0.36 0.38 0.49 0.68 0.73 0.87 0.98 1.06 1.05 1.25 1.22 1.16 1.09 1.04 1.05 0.99 1.07 1.05 1.01 0.93 0.82 0.71 0.65 0.60 0.59 0.53 0.44 0.42 0.38 0.31 0.25 0.20 0.18 0.19 0.17 0.16 0.14
0.72 0.77 0.73 0.76 0.81 0.86 0.92 1.03 1.13 1.24 1.35 1.56 1.55 1.38 1.29 1.19 1.12 1.04 0.94 0.81 0.81 0.68 0.62 0.56 0.52 0.46 0.39 0.35 0.31 0.29 0.27 0.24 0.20 0.16 0.15 0.16 0.17 0.20 0.22 0.17 0.15 0.16 0.16
0.78 0.99 1.08 1.12 1.20 1.24 1.21 1.22 1.20 1.14 1.09 1.09 1.01 0.91 0.89 0.77 0.65 0.60 0.54 0.59 0.53 0.45 0.39 0.37 0.33 0.33 0.33 0.31 0.30 0.27 0.29 0.29 0.29 0.30 0.29 0.32 0.33 0.36 0.33 0.31 0.29 0.22 0.22
0.92 1.07 1.08 1.11 1.11 1.05 0.96 0.84 0.76 0.72 0.66 0.61 0.58 0.58 0.53 0.44 0.44 0.42 0.40 0.40 0.39 0.36 0.31 0.29 0.27 0.26 0.26 0.25 0.24 0.25 0.25 0.24 0.24 0.24 0.22 0.21 0.20 0.21 0.22 0.20 0.19 0.20 0.16
0.81 0.80 0.74 0.67 0.65 0.63 0.60 0.57 0.54 0.50 0.51 0.46 0.47 0.44 0.34 0.33 0.35 0.30 0.26 0.28 0.27 0.25 0.24 0.21 0.19 0.18 0.17 0.18 0.18 0.18 0.16 0.16 0.18 0.21 0.21 0.23 0.25 0.23 0.20 0.21 0.18 0.15 0.14
0.45 0.41 0.37 0.36 0.36 0.35 0.32 0.30 0.30 0.27 0.26 0.25 0.24 0.20 0.15 0.21 0.23 0.25 0.26 0.26 0.24 0.23 0.21 0.20 0.18 0.16 0.16 0.19 0.19 0.21 0.19 0.17 0.16 0.15 0.14 0.14 0.16 0.17 0.18 0.18 0.18 0.16 0.14
0.21 0.22 0.23 0.23 0.22 0.21 0.19 0.19 0.22 0.25 0.27 0.28 0.26 0.27 0.25 0.30 0.28 0.27 0.27 0.25 0.22 0.23 0.21 0.23 0.23 0.20 0.18 0.22 0.26 0.27 0.25 0.19 0.17 0.23 0.24 0.18 0.15 0.15 0.17 0.17 0.17 0.19 0.17
0.15 0.16 0.15 0.16 0.16 0.18 0.22 0.26 0.28 0.28 0.28 0.29 0.31 0.31 0.29 0.29 0.31 0.30 0.27 0.26 0.27 0.25 0.24 0.28 0.26 0.22 0.20 0.19 0.20 0.21 0.22 0.20 0.25 0.27 0.30 0.30 0.22 0.18 0.20 0.18 0.16 0.17 0.17
0.14 0.17 0.21 0.24 0.27 0.28 0.25 0.22 0.23 0.27 0.32 0.32 0.29 0.25 0.22 0.20 0.18 0.17 0.16 0.16 0.15 0.15 0.14 0.15 0.15 0.13 0.11 0.14 0.15 0.14 0.12 0.16 0.21 0.22 0.30 0.29 0.24 0.22 0.24 0.24 0.20 0.22 0.18
0.11 0.15 0.17 0.18 0.18 0.20 0.25 0.30 0.32 0.29 0.28 0.24 0.22 0.20 0.18 0.15 0.12 0.11 0.09 0.08 0.10 0.10 0.09 0.10 0.10 0.07 0.08 0.09 0.11 0.13 0.11 0.10 0.15 0.18 0.26 0.28 0.27 0.26 0.27 0.25 0.24 0.28 0.19

GFSGL_prec_precacc_120.txt.gz
Total_Precipitation_Accumulation
0.64 0.57 0.37 0.51 0.51 0.74 0.73 0.87 0.77 0.76 0.88 0.92 0.76 0.62 0.47 0.59 0.78 0.70 0.60 0.57 0.61 0.83 0.80 0.88 0.81 0.60 0.57 0.50 0.48 0.45 0.40 0.42 0.47 0.23 0.11 0.13 0.18 0.16 0.11 0.07 0.05 0.06 0.08
1.37 1.48 0.97 1.09 0.94 0.89 0.94 0.87 0.91 0.93 0.97 0.84 0.59 0.49 0.48 0.52 0.70 0.87 0.78 0.68 0.67 0.65 0.73 0.78 0.92 0.94 0.85 0.75 0.73 0.62 0.52 0.47 0.59 0.55 0.32 0.26 0.21 0.17 0.16 0.13 0.08 0.05 0.07
1.35 1.29 1.06 1.19 1.30 1.08 0.94 0.71 0.48 0.48 0.52 0.51 0.54 0.45 0.46 0.47 0.52 0.48 0.45 0.47 0.49 0.57 0.64 0.67 0.71 0.80 0.90 0.78 0.67 0.62 0.52 0.49 0.53 0.57 0.41 0.28 0.23 0.19 0.23 0.19 0.20 0.14 0.09
1.07 1.01 0.79 0.78 0.93 0.55 0.47 0.41 0.35 0.31 0.31 0.32 0.31 0.30 0.30 0.30 0.32 0.36 0.39 0.39 0.32 0.28 0.32 0.48 0.62 0.76 0.84 0.84 0.83 0.71 0.67 0.64 0.58 0.59 0.50 0.39 0.32 0.24 0.31 0.29 0.33 0.24 0.16
1.09 1.09 0.83 0.56 0.72 0.59 0.64 0.55 0.32 0.29 0.29 0.32 0.33 0.38 0.41 0.42 0.47 0.43 0.35 0.32 0.28 0.29 0.30 0.38 0.48 0.58 0.60 0.61 0.73 0.71 0.71 0.72 0.70 0.70 0.63 0.50 0.39 0.29 0.32 0.33 0.49 0.39 0.46
0.72 0.87 0.77 0.60 0.58 0.62 0.64 0.66 0.54 0.47 0.53 0.53 0.58 0.58 0.51 0.47 0.84 0.62 0.43 0.32 0.35 0.49 0.56 0.51 0.57 0.78 0.70 0.60 0.60 0.65 0.71 0.81 0.80 0.68 0.66 0.65 0.45 0.47 0.50 0.68 0.77 0.80 0.67
0.66 0.77 0.72 0.63 0.71 0.66 0.81 0.87 0.87 0.84 1.07 1.12 1.05 0.94 0.67 0.54 0.86 0.69 0.62 0.33 0.37 0.46 0.48 0.50 0.49 0.46 0.50 0.33 0.63 0.74 0.76 0.98 1.11 1.02 0.99 0.84 0.86 0.93 1.02 1.10 1.15 1.13 0.98
0.86 0.89 0.94 0.83 0.74 0.74 0.82 0.83 1.22 1.61 1.36 1.09 0.97 0.88 0.88 0.93 0.97 0.88 0.97 0.65 0.62 0.58 0.49 0.40 0.37 0.36 0.58 0.60 0.55 0.74 0.93 1.15 1.34 1.46 1.65 1.77 1.73 1.48 1.44 1.38 1.33 1.37 1.27
0.83 0.93 0.95 1.05 1.15 1.10 1.09 1.27 1.30 1.22 1.06 0.96 0.86 0.83 0.74 0.70 0.97 0.81 0.80 0.54 0.65 0.69 0.64 0.69 0.74 0.52 1.05 0.91 0.58 0.70 0.90 1.05 1.53 1.58 1.60 1.61 1.55 1.33 1.19 1.27 1.52 1.75 1.68
0.62 0.83 0.97 1.06 1.32 1.54 1.66 1.50 1.23 1.16 1.22 1.17 1.11 1.05 1.11 0.74 1.05 0.94 0.92 0.74 0.88 0.90 0.86 0.92 1.49 1.11 1.45 1.08 0.90 0.80 1.01 1.12 1.09 1.14 1.22 1.23 1.17 1.16 1.32 1.09 1.19 1.78 2.16
0.55 0.61 0.84 1.10 1.12 1.23 1.27 1.32 1.36 1.33 1.23 1.25 1.32 1.30 1.30 1.24 1.18 1.19 1.18 1.03 1.15 1.25 1.27 1.22 1.34 1.82 1.25 1.21 1.21 1.04 1.60 1.62 1.71 1.34 1.22 1.26 1.16 1.07 1.08 1.12 1.13 1.39 1.74
0.36 0.42 0.44 0.47 0.65 0.74 0.85 0.97 0.98 1.02 1.08 1.07 1.04 1.07 1.04 1.19 1.48 1.39 1.21 1.25 1.49 1.29 1.50 1.69 2.05 2.01 1.46 1.39 1.44 1.89 2.07 1.62 1.28 1.29 1.31 1.31 1.29 1.29 1.27 1.23 1.23 1.21 1.24
0.11 0.16 0.22 0.22 0.25 0.39 0.54 0.61 0.67 0.74 0.78 0.77 0.80 0.86 0.90 0.86 0.95 1.16 1.21 1.30 1.40 1.35 1.60 1.92 1.97 1.71 1.52 1.57 1.84 1.91 1.88 1.92 2.13 2.24 2.22 2.09 1.85 1.61 1.41 1.29 1.14 1.05 0.98
0.09 0.08 0.08 0.10 0.15 0.15 0.19 0.26 0.33 0.42 0.51 0.65 0.75 0.78 0.81 0.83 0.85 0.87 0.92 0.99 1.16 1.33 1.60 1.76 1.76 1.69 1.69 1.86 1.93 1.91 1.94 2.03 2.08 2.15 2.06 1.92 1.69 1.50 1.40 1.34 1.26 1.19 1.17
0.10 0.10 0.10 0.10 0.11 0.09 0.15 0.26 0.29 0.49 0.56 0.60 0.76 0.90 1.02 1.21 1.41 1.34 1.25 1.34 1.48 1.62 1.65 1.81 1.82 1.77 1.72 1.71 1.65 1.66 1.69 1.67 1.64 1.59 1.50 1.41 1.30 1.17 1.05 0.94 0.95 0.88 0.87
0.15 0.16 0.23 0.20 0.19 0.18 0.19 0.27 0.39 0.50 0.54 0.63 0.76 0.85 1.13 1.28 1.41 1.36 1.37 1.39 1.42 1.42 1.48 1.50 1.52 1.48 1.44 1.39 1.30 1.21 1.09 1.01 0.93 0.84 0.78 0.70 0.65 0.62 0.55 0.47 0.51 0.51 0.47
0.33 0.31 0.32 0.36 0.36 0.34 0.36 0.38 0.49 0.68 0.73 0.87 0.98 1.06 1.05 1.26 1.22 1.16 1.09 1.04 1.05 0.99 1.07 1.05 1.01 0.94 0.83 0.71 0.65 0.60 0.59 0.54 0.45 0.43 0.40 0.34 0.28 0.23 0.20 0.20 0.18 0.17 0.16
0.72 0.77 0.73 0.76 0.81 0.86 0.92 1.03 1.13 1.24 1.35 1.56 1.55 1.38 1.29 1.19 1.12 1.04 0.94 0.81 0.81 0.68 0.62 0.56 0.52 0.46 0.39 0.35 0.31 0.29 0.27 0.24 0.20 0.16 0.15 0.16 0.18 0.21 0.22 0.17 0.16 0.16 0.16
0.78 0.99 1.09 1.12 1.21 1.24 1.22 1.22 1.20 1.14 1.09 1.09 1.01 0.91 0.89 0.77 0.65 0.60 0.54 0.59 0.53 0.45 0.39 0.37 0.33 0.33 0.33 0.31 0.30 0.27 0.30 0.29 0.29 0.30 0.29 0.32 0.33 0.36 0.33 0.31 0.29 0.22 0.22
0.92 1.07 1.08 1.11 1.11 1.05 0.96 0.84 0.76 0.72 0.66 0.61 0.58 0.58 0.53 0.44 0.44 0.42 0.40 0.41 0.39 0.37 0.31 0.30 0.28 0.26 0.26 0.25 0.25 0.25 0.25 0.24 0.24 0.24 0.22 0.21 0.20 0.21 0.22 0.20 0.19 0.20 0.16
0.81 0.80 0.75 0.68 0.65 0.64 0.61 0.57 0.55 0.51 0.51 0.47 0.47 0.44 0.34 0.33 0.35 0.30 0.27 0.29 0.27 0.25 0.25 0.21 0.19 0.18 0.17 0.18 0.18 0.19 0.17 0.16 0.18 0.21 0.21 0.23 0.25 0.23 0.20 0.21 0.18 0.15 0.14
0.45 0.41 0.37 0.36 0.36 0.35 0.32 0.30 0.30 0.28 0.26 0.26 0.25 0.20 0.15 0.21 0.23 0.25 0.27 0.26 0.25 0.23 0.21 0.21 0.18 0.16 0.16 0.19 0.19 0.21 0.19 0.17 0.16 0.15 0.14 0.14 0.16 0.17 0.18 0.18 0.18 0.16 0.14
0.21 0.23 0.23 0.23 0.23 0.21 0.20 0.20 0.23 0.26 0.28 0.28 0.27 0.27 0.26 0.30 0.29 0.27 0.27 0.25 0.23 0.23 0.21 0.23 0.24 0.20 0.18 0.22 0.26 0.27 0.25 0.19 0.18 0.23 0.24 0.19 0.15 0.15 0.17 0.17 0.17 0.19 0.17
0.15 0.16 0.16 0.16 0.17 0.19 0.23 0.27 0.29 0.28 0.28 0.30 0.31 0.31 0.30 0.30 0.32 0.31 0.28 0.27 0.27 0.26 0.25 0.28 0.26 0.22 0.20 0.19 0.20 0.21 0.22 0.20 0.25 0.27 0.30 0.30 0.22 0.18 0.20 0.18 0.16 0.17 0.17
0.14 0.17 0.21 0.25 0.27 0.28 0.26 0.23 0.24 0.28 0.33 0.33 0.31 0.26 0.22 0.21 0.19 0.17 0.17 0.16 0.15 0.15 0.15 0.15 0.15 0.13 0.11 0.14 0.15 0.14 0.12 0.16 0.21 0.22 0.30 0.29 0.24 0.22 0.24 0.24 0.20 0.22 0.18
0.11 0.15 0.17 0.18 0.19 0.20 0.26 0.31 0.32 0.30 0.29 0.25 0.23 0.21 0.19 0.16 0.13 0.11 0.10 0.09 0.10 0.10 0.09 0.11 0.10 0.07 0.08 0.09 0.11 0.13 0.11 0.10 0.15 0.18 0.26 0.28 0.27 0.26 0.27 0.25 0.24 0.28 0.19

GFSGL_prec_precacc_123.txt.gz
Total_Precipitation_Accumulation
0.69 0.63 0.46 0.66 0.71 1.10 1.08 1.01 0.82 0.80 0.92 0.96 0.81 0.67 0.50 0.63 0.87 0.81 0.73 0.70 0.72 0.96 0.92 0.94 0.85 0.62 0.59 0.51 0.49 0.47 0.42 0.45 0.49 0.23 0.11 0.13 0.19 0.17 0.14 0.12 0.09 0.09 0.10
1.40 1.48 0.98 1.11 1.10 1.00 1.05 0.92 0.94 0.97 1.00 0.87 0.63 0.51 0.50 0.54 0.75 0.92 0.86 0.77 0.71 0.67 0.77 0.86 0.99 0.99 0.89 0.76 0.74 0.63 0.53 0.48 0.60 0.55 0.33 0.26 0.21 0.18 0.20 0.19 0.17 0.16 0.14
1.47 1.30 1.06 1.19 1.32 1.09 0.94 0.71 0.48 0.48 0.52 0.52 0.58 0.48 0.49 0.49 0.54 0.50 0.47 0.51 0.54 0.61 0.66 0.68 0.74 0.85 0.94 0.80 0.69 0.62 0.52 0.50 0.54 0.58 0.41 0.29 0.24 0.19 0.25 0.24 0.26 0.26 0.22
1.12 1.03 0.80 0.78 0.93 0.55 0.47 0.41 0.35 0.31 0.31 0.32 0.31 0.31 0.31 0.31 0.33 0.37 0.40 0.42 0.37 0.33 0.36 0.51 0.65 0.80 0.89 0.88 0.87 0.73 0.69 0.66 0.59 0.59 0.51 0.39 0.32 0.24 0.33 0.33 0.40 0.39 0.30
1.09 1.09 0.83 0.56 0.72 0.59 0.64 0.55 0.32 0.29 0.29 0.32 0.33 0.38 0.41 0.42 0.47 0.43 0.35 0.34 0.31 0.32 0.34 0.42 0.53 0.69 0.78 0.80 0.91 0.88 0.88 0.84 0.74 0.70 0.63 0.50 0.39 0.29 0.33 0.35 0.53 0.46 0.56
0.72 0.87 0.77 0.60 0.58 0.62 0.64 0.66 0.54 0.47 0.53 0.53 0.58 0.58 0.51 0.47 0.86 0.63 0.45 0.35 0.39 0.53 0.61 0.58 0.66 0.92 0.88 0.90 0.87 0.86 0.88 0.95 0.86 0.69 0.66 0.65 0.45 0.47 0.50 0.70 0.84 0.89 0.75
0.66 0.77 0.72 0.63 0.71 0.66 0.81 0.87 0.87 0.84 1.07 1.12 1.05 0.94 0.67 0.54 0.87 0.70 0.63 0.34 0.39 0.50 0.54 0.55 0.53 0.51 0.57 0.39 0.69 0.78 0.79 1.01 1.14 1.03 1.00 0.85 0.86 0.93 1.02 1.11 1.17 1.16 1.00
0.86 0.89 0.94 0.83 0.74 0.74 0.82 0.83 1.22 1.61 1.36 1.10 0.97 0.88 0.88 0.93 0.97 0.88 0.98 0.65 0.62 0.59 0.51 0.43 0.39 0.39 0.62 0.63 0.57 0.78 0.95 1.17 1.37 1.49 1.68 1.80 1.75 1.49 1.44 1.40 1.35 1.41 1.32
0.84 0.94 0.96 1.05 1.15 1.10 1.09 1.27 1.30 1.23 1.06 0.97 0.86 0.84 0.75 0.70 0.98 0.81 0.80 0.54 0.65 0.69 0.65 0.70 0.78 0.57 1.18 1.00 0.62 0.76 0.99 1.14 1.59 1.62 1.65 1.71 1.64 1.40 1.24 1.30 1.57 1.81 1.73
0.62 0.84 0.97 1.06 1.32 1.54 1.66 1.50 1.24 1.16 1.22 1.17 1.11 1.06 1.11 0.75 1.05 0.94 0.92 0.75 0.90 0.92 0.88 0.95 1.57 1.19 1.57 1.23 1.04 1.02 1.21 1.28 1.23 1.26 1.29 1.27 1.20 1.21 1.41 1.16 1.24 1.86 2.21
0.55 0.61 0.84 1.10 1.13 1.23 1.27 1.32 1.36 1.34 1.23 1.25 1.32 1.30 1.30 1.25 1.18 1.19 1.18 1.03 1.15 1.25 1.28 1.23 1.37 1.88 1.31 1.31 1.36 1.28 1.88 1.84 1.88 1.47 1.38 1.40 1.25 1.13 1.12 1.18 1.21 1.51 1.88
0.36 0.42 0.44 0.47 0.65 0.74 0.85 0.98 0.99 1.02 1.09 1.07 1.04 1.08 1.04 1.20 1.49 1.39 1.21 1.25 1.49 1.30 1.50 1.70 2.07 2.04 1.50 1.45 1.55 2.07 2.33 1.88 1.48 1.44 1.42 1.42 1.42 1.43 1.40 1.35 1.34 1.35 1.39
0.11 0.16 0.22 0.22 0.25 0.39 0.54 0.61 0.67 0.75 0.78 0.78 0.80 0.87 0.90 0.87 0.95 1.16 1.21 1.30 1.40 1.35 1.60 1.93 1.98 1.72 1.54 1.61 1.91 2.04 2.07 2.15 2.38 2.49 2.47 2.32 2.05 1.77 1.53 1.42 1.26 1.17 1.11
0.09 0.08 0.08 0.10 0.15 0.15 0.19 0.26 0.33 0.42 0.51 0.65 0.75 0.79 0.81 0.83 0.85 0.87 0.92 0.99 1.16 1.33 1.60 1.76 1.76 1.70 1.69 1.86 1.93 1.93 1.99 2.12 2.20 2.29 2.22 2.11 1.88 1.69 1.58 1.52 1.46 1.40 1.38
0.10 0.10 0.10 0.10 0.11 0.09 0.15 0.26 0.29 0.49 0.56 0.60 0.76 0.91 1.03 1.21 1.41 1.34 1.25 1.34 1.48 1.62 1.66 1.82 1.83 1.77 1.73 1.72 1.65 1.66 1.70 1.68 1.66 1.63 1.55 1.47 1.37 1.25 1.15 1.05 1.07 1.00 1.01
0.15 0.16 0.23 0.20 0.19 0.18 0.19 0.27 0.39 0.50 0.54 0.63 0.76 0.85 1.14 1.29 1.41 1.36 1.37 1.39 1.42 1.42 1.48 1.50 1.52 1.48 1.44 1.39 1.31 1.21 1.09 1.01 0.93 0.85 0.79 0.72 0.68 0.65 0.59 0.52 0.57 0.58 0.55
0.33 0.31 0.32 0.36 0.36 0.34 0.36 0.38 0.49 0.68 0.73 0.87 0.98 1.06 1.05 1.26 1.22 1.16 1.09 1.04 1.05 0.99 1.07 1.05 1.02 0.94 0.83 0.71 0.65 0.60 0.59 0.54 0.45 0.44 0.41 0.34 0.28 0.23 0.21 0.22 0.21 0.20 0.19
0.72 0.77 0.73 0.76 0.81 0.86 0.92 1.03 1.14 1.24 1.36 1.56 1.55 1.38 1.29 1.19 1.12 1.04 0.94 0.81 0.81 0.68 0.62 0.56 0.53 0.46 0.39 0.35 0.31 0.29 0.27 0.24 0.20 0.16 0.15 0.16 0.18 0.21 0.22 0.17 0.16 0.16 0.17
0.78 0.99 1.09 1.13 1.21 1.24 1.22 1.22 1.20 1.14 1.09 1.09 1.01 0.91 0.89 0.77 0.65 0.60 0.54 0.60 0.53 0.46 0.39 0.37 0.34 0.33 0.34 0.31 0.30 0.28 0.30 0.30 0.29 0.30 0.30 0.32 0.33 0.36 0.33 0.31 0.29 0.22 0.22
0.92 1.07 1.08 1.11 1.12 1.05 0.96 0.84 0.76 0.73 0.66 0.62 0.59 0.59 0.53 0.44 0.45 0.42 0.41 0.41 0.40 0.37 0.32 0.30 0.28 0.26 0.26 0.26 0.25 0.26 0.26 0.24 0.24 0.24 0.23 0.21 0.20 0.22 0.22 0.20 0.19 0.20 0.16
0.81 0.80 0.75 0.68 0.65 0.64 0.61 0.58 0.55 0.51 0.51 0.47 0.48 0.44 0.34 0.33 0.35 0.30 0.27 0.29 0.28 0.25 0.25 0.21 0.19 0.18 0.18 0.18 0.18 0.19 0.17 0.17 0.18 0.22 0.22 0.23 0.26 0.23 0.20 0.21 0.18 0.15 0.14
0.45 0.41 0.37 0.36 0.36 0.35 0.32 0.30 0.31 0.28 0.27 0.26 0.25 0.21 0.15 0.21 0.24 0.25 0.27 0.27 0.25 0.23 0.22 0.21 0.19 0.16 0.16 0.19 0.19 0.22 0.20 0.18 0.16 0.16 0.15 0.15 0.16 0.17 0.18 0.19 0.18 0.16 0.14
0.21 0.23 0.23 0.23 0.23 0.21 0.20 0.20 0.23 0.26 0.29 0.29 0.28 0.28 0.27 0.31 0.30 0.28 0.28 0.26 0.23 0.24 0.22 0.24 0.24 0.21 0.19 0.22 0.26 0.27 0.25 0.19 0.18 0.24 0.25 0.19 0.15 0.15 0.18 0.17 0.17 0.19 0.17
0.15 0.16 0.16 0.16 0.17 0.19 0.23 0.27 0.30 0.29 0.29 0.31 0.32 0.32 0.31 0.31 0.33 0.32 0.29 0.27 0.28 0.27 0.25 0.28 0.26 0.22 0.20 0.19 0.21 0.21 0.22 0.20 0.25 0.27 0.31 0.30 0.22 0.18 0.20 0.19 0.16 0.17 0.17
0.14 0.17 0.21 0.25 0.28 0.28 0.26 0.23 0.24 0.28 0.34 0.34 0.31 0.27 0.23 0.22 0.20 0.18 0.18 0.16 0.16 0.16 0.15 0.16 0.15 0.13 0.11 0.14 0.15 0.14 0.12 0.16 0.21 0.22 0.30 0.29 0.24 0.22 0.24 0.24 0.20 0.22 0.18
0.11 0.16 0.18 0.19 0.19 0.21 0.26 0.31 0.33 0.30 0.29 0.26 0.24 0.22 0.20 0.17 0.14 0.12 0.11 0.09 0.11 0.10 0.10 0.11 0.10 0.08 0.08 0.09 0.11 0.13 0.11 0.10 0.15 0.18 0.26 0.28 0.27 0.26 0.27 0.25 0.24 0.28 0.19

GFSGL_prec_precacc_126.txt.gz
Total_Precipitation_Accumulation
0.84 0.83 0.60 0.78 0.89 1.25 1.24 1.57 1.91 1.20 1.04 1.08 0.92 0.82 0.63 0.70 0.94 0.89 0.80 0.76 0.80 1.01 1.00 1.06 1.07 0.98 1.09 0.81 0.63 0.56 0.47 0.49 0.55 0.24 0.14 0.14 0.19 0.18 0.15 0.12 0.09 0.09 0.10
1.52 1.71 1.22 1.32 1.31 1.26 1.29 1.20 1.21 1.30 1.28 1.00 0.72 0.60 0.57 0.57 0.79 0.97 0.93 0.84 0.81 0.76 0.82 0.93 1.09 1.07 0.92 0.79 0.77 0.67 0.56 0.50 0.66 0.58 0.34 0.27 0.21 0.18 0.20 0.20 0.17 0.16 0.15
1.56 1.52 1.31 1.52 1.44 1.35 1.24 0.92 0.62 0.64 0.69 0.63 0.68 0.56 0.54 0.54 0.59 0.56 0.51 0.55 0.60 0.68 0.72 0.74 0.79 0.88 0.94 0.81 0.71 0.66 0.56 0.54 0.59 0.64 0.44 0.29 0.24 0.19 0.25 0.24 0.26 0.26 0.24
1.35 1.31 1.16 1.03 1.12 0.74 0.72 0.65 0.52 0.41 0.39 0.38 0.34 0.36 0.37 0.37 0.39 0.41 0.45 0.45 0.40 0.37 0.39 0.54 0.69 0.84 0.93 0.93 0.92 0.78 0.75 0.72 0.65 0.65 0.56 0.42 0.34 0.24 0.33 0.33 0.40 0.39 0.32
1.16 1.19 1.01 0.78 0.88 0.76 0.80 0.68 0.46 0.39 0.34 0.35 0.36 0.40 0.43 0.45 0.50 0.46 0.37 0.35 0.33 0.34 0.37 0.47 0.60 0.78 0.87 0.87 0.99 0.94 0.95 0.96 0.92 0.89 0.77 0.59 0.43 0.30 0.33 0.35 0.53 0.47 0.58
0.72 0.88 0.79 0.63 0.60 0.64 0.68 0.68 0.56 0.49 0.54 0.54 0.58 0.58 0.51 0.47 0.87 0.63 0.45 0.35 0.39 0.54 0.61 0.59 0.70 1.00 0.94 1.01 1.02 1.04 1.08 1.17 1.07 0.79 0.71 0.67 0.46 0.47 0.50 0.70 0.85 0.93 0.79
0.66 0.77 0.72 0.63 0.71 0.66 0.81 0.87 0.87 0.84 1.07 1.12 1.05 0.94 0.67 0.54 0.87 0.70 0.63 0.34 0.39 0.50 0.54 0.56 0.56 0.55 0.62 0.40 0.73 0.82 0.84 1.06 1.17 1.05 1.00 0.85 0.87 0.94 1.02 1.11 1.18 1.16 1.01
0.86 0.89 0.94 0.83 0.74 0.74 0.82 0.83 1.22 1.61 1.36 1.10 0.97 0.88 0.88 0.93 0.97 0.88 0.98 0.65 0.62 0.59 0.51 0.44 0.43 0.43 0.69 0.70 0.62 0.85 1.02 1.23 1.41 1.53 1.70 1.81 1.77 1.51 1.45 1.41 1.36 1.44 1.36
0.84 0.94 0.96 1.05 1.15 1.10 1.09 1.27 1.31 1.23 1.06 0.97 0.86 0.84 0.75 0.70 0.98 0.81 0.80 0.54 0.65 0.69 0.65 0.71 0.79 0.57 1.21 1.04 0.65 0.79 1.04 1.20 1.69 1.72 1.71 1.76 1.69 1.45 1.27 1.34 1.64 1.90 1.79
0.62 0.84 0.97 1.06 1.32 1.54 1.67 1.51 1.24 1.16 1.22 1.18 1.11 1.06 1.11 0.75 1.05 0.94 0.92 0.75 0.90 0.92 0.88 0.95 1.58 1.20 1.59 1.24 1.05 1.05 1.26 1.37 1.34 1.37 1.42 1.39 1.30 1.29 1.52 1.27 1.39 2.01 2.32
0.55 0.61 0.84 1.10 1.13 1.23 1.27 1.32 1.37 1.34 1.23 1.25 1.33 1.30 1.31 1.25 1.18 1.19 1.18 1.03 1.16 1.25 1.28 1.23 1.37 1.88 1.32 1.31 1.36 1.30 1.93 1.92 1.98 1.58 1.49 1.54 1.40 1.27 1.24 1.31 1.35 1.69 2.07
0.36 0.42 0.44 0.47 0.65 0.74 0.85 0.98 0.99 1.02 1.09 1.07 1.04 1.08 1.05 1.20 1.49 1.40 1.21 1.26 1.49 1.30 1.51 1.71 2.08 2.04 1.51 1.45 1.56 2.08 2.36 1.93 1.55 1.52 1.52 1.56 1.56 1.58 1.58 1.55 1.57 1.55 1.59
0.11 0.16 0.22 0.22 0.25 0.39 0.54 0.61 0.67 0.75 0.78 0.78 0.80 0.87 0.90 0.87 0.96 1.16 1.21 1.30 1.40 1.36 1.61 1.93 1.98 1.72 1.54 1.61 1.91 2.04 2.08 2.17 2.42 2.55 2.55 2.45 2.20 1.94 1.71 1.59 1.46 1.41 1.38
0.09 0.08 0.08 0.10 0.15 0.15 0.19 0.26 0.33 0.42 0.51 0.65 0.75 0.79 0.81 0.83 0.85 0.87 0.92 0.99 1.16 1.33 1.60 1.76 1.76 1.70 1.69 1.86 1.93 1.93 1.99 2.12 2.21 2.32 2.28 2.19 1.99 1.81 1.72 1.68 1.62 1.56 1.54
0.10 0.10 0.10 0.10 0.11 0.09 0.15 0.26 0.29 0.49 0.56 0.60 0.76 0.91 1.04 1.22 1.42 1.34 1.25 1.34 1.48 1.62 1.66 1.82 1.83 1.77 1.73 1.72 1.66 1.66 1.70 1.68 1.66 1.63 1.56 1.49 1.41 1.30 1.21 1.12 1.15 1.09 1.10
0.15 0.16 0.23 0.20 0.19 0.18 0.19 0.27 0.39 0.50 0.54 0.63 0.76 0.85 1.14 1.29 1.41 1.36 1.37 1.39 1.42 1.42 1.49 1.51 1.52 1.49 1.44 1.40 1.31 1.21 1.09 1.02 0.94 0.85 0.80 0.72 0.69 0.66 0.60 0.53 0.59 0.60 0.59
0.33 0.31 0.32 0.36 0.36 0.34 0.36 0.38 0.49 0.68 0.73 0.87 0.98 1.06 1.05 1.26 1.22 1.16 1.09 1.04 1.05 0.99 1.08 1.05 1.02 0.94 0.83 0.71 0.65 0.60 0.59 0.54 0.45 0.44 0.41 0.35 0.28 0.24 0.21 0.22 0.21 0.20 0.20
0.72 0.77 0.73 0.76 0.81 0.86 0.92 1.04 1.14 1.24 1.36 1.57 1.56 1.38 1.29 1.19 1.12 1.04 0.94 0.81 0.81 0.68 0.62 0.56 0.53 0.46 0.39 0.35 0.32 0.30 0.27 0.24 0.21 0.16 0.15 0.16 0.18 0.21 0.22 0.17 0.16 0.16 0.17
0.78 1.00 1.09 1.13 1.21 1.24 1.22 1.23 1.20 1.14 1.09 1.09 1.01 0.91 0.89 0.77 0.65 0.60 0.54 0.60 0.53 0.46 0.39 0.37 0.34 0.33 0.34 0.31 0.31 0.28 0.31 0.30 0.29 0.31 0.30 0.33 0.33 0.36 0.33 0.31 0.29 0.22 0.22
0.92 1.07 1.08 1.11 1.12 1.06 0.97 0.85 0.76 0.73 0.66 0.62 0.59 0.59 0.53 0.44 0.45 0.43 0.41 0.41 0.40 0.37 0.32 0.30 0.28 0.27 0.26 0.26 0.25 0.26 0.26 0.25 0.24 0.25 0.23 0.22 0.21 0.22 0.22 0.20 0.19 0.20 0.16
0.81 0.80 0.75 0.68 0.65 0.64 0.61 0.58 0.55 0.51 0.52 0.47 0.48 0.45 0.34 0.33 0.36 0.30 0.27 0.29 0.28 0.26 0.25 0.22 0.20 0.18 0.18 0.18 0.18 0.19 0.17 0.17 0.19 0.22 0.22 0.24 0.26 0.23 0.20 0.21 0.18 0.15 0.14
0.45 0.41 0.37 0.36 0.36 0.35 0.32 0.30 0.31 0.29 0.27 0.27 0.26 0.21 0.15 0.22 0.24 0.26 0.28 0.27 0.26 0.24 0.22 0.21 0.19 0.16 0.16 0.19 0.19 0.22 0.20 0.18 0.16 0.16 0.15 0.15 0.17 0.18 0.18 0.19 0.18 0.16 0.14
0.21 0.23 0.23 0.23 0.23 0.21 0.20 0.21 0.24 0.27 0.29 0.30 0.28 0.29 0.28 0.32 0.30 0.28 0.28 0.27 0.23 0.24 0.22 0.24 0.24 0.21 0.19 0.23 0.26 0.27 0.25 0.19 0.18 0.24 0.25 0.19 0.16 0.15 0.18 0.17 0.17 0.19 0.17
0.15 0.16 0.16 0.16 0.17 0.19 0.24 0.28 0.30 0.29 0.29 0.31 0.33 0.34 0.32 0.32 0.34 0.33 0.30 0.28 0.28 0.27 0.26 0.29 0.27 0.22 0.20 0.19 0.21 0.21 0.22 0.20 0.25 0.27 0.31 0.31 0.23 0.18 0.20 0.19 0.17 0.17 0.17
0.14 0.18 0.22 0.26 0.28 0.29 0.27 0.24 0.25 0.29 0.34 0.35 0.32 0.29 0.24 0.23 0.21 0.19 0.20 0.17 0.16 0.16 0.16 0.16 0.16 0.13 0.11 0.14 0.15 0.14 0.12 0.16 0.21 0.22 0.30 0.29 0.24 0.22 0.24 0.24 0.20 0.22 0.18
0.12 0.16 0.19 0.20 0.20 0.22 0.28 0.32 0.34 0.31 0.30 0.27 0.25 0.23 0.21 0.18 0.15 0.13 0.12 0.10 0.11 0.11 0.10 0.12 0.11 0.08 0.08 0.10 0.11 0.13 0.11 0.10 0.15 0.18 0.26 0.28 0.27 0.26 0.27 0.25 0.24 0.28 0.19

GFSGL_prec_precacc_129.txt.gz
Total_Precipitation_Accumulation
1.08 1.02 0.75 0.89 0.93 1.32 1.46 1.79 2.40 2.25 2.32 2.87 1.95 1.27 0.95 0.99 1.17 1.10 0.94 0.85 0.84 1.05 1.03 1.10 1.13 1.07 1.17 0.97 0.92 0.96 0.89 0.86 0.80 0.32 0.24 0.23 0.21 0.18 0.15 0.12 0.09 0.09 0.10
2.17 2.25 1.42 1.37 1.36 1.38 1.51 1.55 1.55 1.79 2.01 1.76 1.36 1.45 1.39 0.94 0.95 1.09 1.01 0.96 0.97 0.94 0.95 1.08 1.22 1.22 1.06 0.87 0.81 0.68 0.57 0.55 0.73 0.62 0.39 0.31 0.24 0.19 0.21 0.20 0.17 0.16 0.15
2.00 2.07 1.50 1.60 1.50 1.39 1.41 1.33 1.02 0.95 0.97 1.09 1.05 0.90 1.01 0.81 0.69 0.68 0.59 0.59 0.65 0.79 0.85 0.87 0.91 1.05 1.11 0.89 0.76 0.68 0.59 0.59 0.64 0.69 0.45 0.31 0.24 0.20 0.26 0.24 0.26 0.26 0.24
1.48 1.37 1.22 1.09 1.19 0.76 0.76 0.85 0.77 0.66 0.66 0.64 0.65 0.69 0.64 0.51 0.48 0.51 0.55 0.54 0.47 0.44 0.48 0.63 0.76 0.91 1.00 0.98 0.96 0.82 0.77 0.75 0.67 0.68 0.60 0.47 0.37 0.26 0.36 0.37 0.41 0.40 0.32
1.20 1.23 1.06 0.90 1.02 0.86 0.91 0.78 0.59 0.57 0.52 0.53 0.48 0.51 0.58 0.60 0.65 0.61 0.49 0.43 0.38 0.39 0.43 0.54 0.66 0.85 0.93 0.91 1.02 0.97 1.00 1.02 0.99 0.96 0.85 0.67 0.48 0.32 0.34 0.36 0.55 0.47 0.58
0.72 0.88 0.80 0.64 0.70 0.88 0.94 0.86 0.66 0.59 0.62 0.62 0.66 0.64 0.56 0.52 0.91 0.66 0.47 0.39 0.43 0.56 0.62 0.60 0.72 1.03 0.96 1.05 1.07 1.09 1.13 1.22 1.19 1.01 0.89 0.82 0.59 0.57 0.53 0.70 0.86 0.93 0.79
0.66 0.77 0.72 0.63 0.71 0.67 0.83 0.90 0.91 0.88 1.10 1.14 1.07 0.95 0.68 0.55 0.88 0.71 0.64 0.34 0.39 0.50 0.54 0.56 0.56 0.55 0.62 0.40 0.74 0.84 0.86 1.10 1.23 1.11 1.09 0.96 0.96 1.00 1.04 1.11 1.18 1.16 1.01
0.86 0.89 0.94 0.83 0.74 0.74 0.82 0.83 1.22 1.61 1.36 1.10 0.97 0.88 0.88 0.93 0.97 0.88 0.98 0.65 0.62 0.59 0.51 0.44 0.43 0.43 0.69 0.70 0.62 0.85 1.05 1.28 1.48 1.58 1.74 1.87 1.84 1.56 1.49 1.43 1.38 1.46 1.38
0.84 0.94 0.96 1.05 1.15 1.10 1.09 1.27 1.31 1.23 1.06 0.97 0.86 0.84 0.75 0.70 0.98 0.81 0.80 0.54 0.65 0.69 0.65 0.71 0.79 0.57 1.21 1.04 0.65 0.79 1.04 1.22 1.74 1.79 1.77 1.82 1.75 1.49 1.30 1.36 1.67 1.97 1.85
0.62 0.84 0.97 1.06 1.32 1.54 1.67 1.51 1.24 1.16 1.22 1.18 1.12 1.06 1.11 0.75 1.05 0.94 0.92 0.75 0.90 0.92 0.88 0.95 1.59 1.20 1.59 1.24 1.05 1.05 1.26 1.37 1.35 1.38 1.43 1.41 1.32 1.31 1.56 1.31 1.44 2.11 2.45
0.55 0.61 0.84 1.10 1.13 1.23 1.27 1.32 1.37 1.34 1.23 1.25 1.33 1.30 1.31 1.25 1.18 1.19 1.18 1.03 1.16 1.26 1.28 1.23 1.37 1.88 1.32 1.31 1.36 1.30 1.94 1.92 1.99 1.59 1.50 1.54 1.41 1.29 1.27 1.36 1.42 1.79 2.21
0.36 0.42 0.44 0.47 0.65 0.74 0.85 0.98 0.99 1.02 1.09 1.07 1.04 1.08 1.05 1.20 1.49 1.40 1.21 1.26 1.49 1.30 1.51 1.71 2.08 2.04 1.51 1.45 1.56 2.08 2.36 1.93 1.55 1.52 1.52 1.56 1.58 1.62 1.63 1.61 1.65 1.67 1.74
0.11 0.16 0.22 0.22 0.25 0.39 0.54 0.61 0.67 0.75 0.78 0.78 0.80 0.87 0.90 0.87 0.96 1.16 1.21 1.30 1.40 1.36 1.61 1.93 1.98 1.72 1.54 1.61 1.91 2.04 2.08 2.17 2.42 2.55 2.56 2.45 2.21 1.96 1.73 1.64 1.52 1.49 1.50
0.09 0.08 0.08 0.10 0.15 0.15 0.19 0.26 0.33 0.42 0.51 0.65 0.75 0.79 0.81 0.83 0.85 0.87 0.92 0.99 1.16 1.33 1.60 1.77 1.76 1.70 1.69 1.86 1.93 1.93 1.99 2.12 2.21 2.33 2.28 2.19 1.99 1.81 1.73 1.70 1.65 1.61 1.61
0.10 0.10 0.10 0.10 0.11 0.09 0.15 0.26 0.29 0.49 0.56 0.60 0.76 0.91 1.04 1.22 1.42 1.34 1.25 1.34 1.48 1.62 1.66 1.82 1.83 1.77 1.73 1.72 1.66 1.66 1.70 1.68 1.66 1.63 1.56 1.49 1.41 1.30 1.21 1.13 1.17 1.12 1.14
0.15 0.16 0.23 0.20 0.19 0.18 0.19 0.27 0.39 0.50 0.54 0.63 0.76 0.85 1.14 1.29 1.41 1.36 1.37 1.39 1.42 1.42 1.49 1.51 1.52 1.49 1.44 1.40 1.31 1.21 1.09 1.02 0.94 0.85 0.80 0.72 0.69 0.66 0.60 0.53 0.59 0.61 0.60
0.33 0.31 0.32 0.36 0.36 0.34 0.36 0.38 0.49 0.68 0.73 0.88 0.99 1.06 1.05 1.26 1.22 1.16 1.09 1.04 1.05 0.99 1.08 1.05 1.02 0.94 0.83 0.71 0.65 0.61 0.60 0.54 0.45 0.44 0.41 0.35 0.28 0.24 0.21 0.22 0.21 0.20 0.20
0.72 0.77 0.73 0.76 0.81 0.86 0.92 1.04 1.14 1.24 1.36 1.57 1.56 1.38 1.29 1.19 1.12 1.05 0.94 0.81 0.81 0.68 0.62 0.57 0.53 0.46 0.39 0.35 0.32 0.30 0.28 0.24 0.21 0.16 0.15 0.16 0.18 0.21 0.22 0.17 0.16 0.16 0.17
0.78 1.00 1.09 1.13 1.21 1.24 1.22 1.23 1.20 1.14 1.09 1.09 1.01 0.91 0.89 0.77 0.65 0.60 0.54 0.60 0.53 0.46 0.39 0.37 0.34 0.34 0.34 0.31 0.31 0.29 0.32 0.30 0.30 0.31 0.30 0.33 0.34 0.36 0.33 0.31 0.29 0.22 0.22
0.92 1.07 1.08 1.11 1.12 1.06 0.97 0.85 0.76 0.73 0.66 0.62 0.59 0.60 0.53 0.44 0.45 0.43 0.41 0.41 0.40 0.37 0.32 0.30 0.29 0.27 0.26 0.26 0.25 0.26 0.26 0.25 0.24 0.25 0.23 0.22 0.21 0.22 0.22 0.20 0.19 0.20 0.16
0.81 0.80 0.75 0.68 0.65 0.64 0.61 0.58 0.55 0.51 0.52 0.47 0.48 0.45 0.34 0.34 0.36 0.30 0.27 0.29 0.28 0.26 0.25 0.22 0.20 0.19 0.18 0.18 0.18 0.19 0.18 0.17 0.19 0.22 0.22 0.24 0.27 0.24 0.20 0.21 0.18 0.15 0.14
0.45 0.41 0.37 0.36 0.36 0.35 0.32 0.30 0.31 0.29 0.27 0.27 0.26 0.21 0.15 0.22 0.25 0.26 0.28 0.27 0.26 0.24 0.22 0.21 0.19 0.16 0.16 0.19 0.20 0.22 0.20 0.18 0.16 0.16 0.15 0.16 0.17 0.18 0.19 0.19 0.18 0.16 0.14
0.21 0.23 0.23 0.23 0.23 0.21 0.20 0.21 0.24 0.27 0.29 0.30 0.28 0.29 0.28 0.33 0.31 0.28 0.29 0.27 0.23 0.24 0.22 0.24 0.24 0.21 0.19 0.23 0.27 0.27 0.25 0.19 0.18 0.24 0.25 0.20 0.16 0.16 0.18 0.17 0.17 0.19 0.17
0.15 0.16 0.16 0.16 0.17 0.19 0.24 0.28 0.30 0.29 0.29 0.31 0.33 0.34 0.32 0.32 0.34 0.33 0.30 0.30 0.28 0.27 0.26 0.29 0.27 0.22 0.20 0.19 0.21 0.21 0.22 0.20 0.25 0.27 0.31 0.31 0.23 0.18 0.20 0.19 0.17 0.17 0.17
0.14 0.18 0.22 0.26 0.29 0.29 0.28 0.24 0.25 0.29 0.35 0.35 0.33 0.29 0.25 0.23 0.21 0.19 0.20 0.18 0.16 0.16 0.16 0.16 0.16 0.13 0.11 0.14 0.15 0.14 0.12 0.16 0.21 0.22 0.30 0.29 0.24 0.23 0.24 0.24 0.20 0.22 0.18
0.12 0.17 0.20 0.21 0.22 0.23 0.28 0.33 0.35 0.33 0.31 0.28 0.26 0.24 0.22 0.19 0.15 0.13 0.12 0.10 0.12 0.11 0.10 0.12 0.12 0.08 0.08 0.10 0.11 0.13 0.11 0.10 0.15 0.18 0.26 0.29 0.27 0.26 0.27 0.25 0.24 0.28 0.19

GFSGL_prec_precacc_132.txt.gz
Total_Precipitation_Accumulation
1.18 1.09 0.81 1.04 1.02 1.38 1.50 1.81 2.42 2.26 2.36 3.19 3.19 2.61 2.33 1.89 1.58 1.26 1.02 0.88 0.87 1.09 1.07 1.12 1.15 1.10 1.24 1.09 1.05 1.11 0.99 0.91 0.87 0.38 0.31 0.33 0.32 0.27 0.21 0.21 0.16 0.14 0.11
2.47 2.46 1.60 1.62 1.61 1.50 1.59 1.63 1.59 1.82 2.13 2.07 2.34 2.70 2.30 2.15 1.70 1.45 1.25 1.14 1.14 1.07 1.04 1.16 1.30 1.28 1.14 1.00 1.00 0.91 0.88 0.78 0.76 0.62 0.40 0.36 0.30 0.25 0.25 0.23 0.20 0.18 0.16
2.82 2.85 1.91 1.97 1.75 1.52 1.51 1.40 1.06 0.97 1.03 1.25 1.61 1.78 1.88 2.18 1.94 1.25 0.96 0.85 0.92 1.11 1.11 1.04 1.01 1.14 1.20 0.99 0.86 0.80 0.73 0.71 0.69 0.70 0.46 0.33 0.25 0.20 0.26 0.26 0.29 0.29 0.25
1.93 2.15 1.90 1.48 1.52 1.03 0.82 0.90 0.88 0.77 0.80 0.78 0.86 1.16 1.38 1.25 1.30 1.36 1.41 1.15 0.67 0.59 0.74 0.98 0.99 1.01 1.11 1.07 1.06 0.88 0.84 0.83 0.75 0.75 0.64 0.49 0.39 0.27 0.38 0.40 0.46 0.44 0.34
1.30 1.34 1.41 1.45 1.28 1.05 0.98 0.81 0.63 0.62 0.66 0.75 0.77 0.85 1.04 1.25 1.22 1.08 1.03 0.97 0.69 0.60 0.57 0.63 0.79 0.91 0.98 0.95 1.07 1.00 1.02 1.04 1.02 1.01 0.90 0.72 0.52 0.35 0.36 0.39 0.58 0.49 0.60
0.72 0.89 0.81 0.69 0.76 0.94 0.96 0.87 0.69 0.63 0.68 0.75 0.85 0.88 0.81 0.80 1.33 1.18 0.94 0.79 0.77 0.83 0.83 0.72 0.81 1.12 1.04 1.13 1.14 1.13 1.14 1.23 1.20 1.04 0.93 0.88 0.64 0.64 0.65 0.81 0.94 1.00 0.84
0.66 0.77 0.72 0.63 0.71 0.67 0.83 0.91 0.94 0.94 1.20 1.25 1.21 1.09 0.80 0.68 0.99 0.85 0.85 0.53 0.54 0.63 0.63 0.66 0.63 0.58 0.65 0.43 0.75 0.85 0.87 1.11 1.23 1.11 1.09 0.97 0.98 1.05 1.12 1.20 1.28 1.28 1.08
0.86 0.89 0.94 0.83 0.74 0.74 0.82 0.83 1.22 1.61 1.36 1.10 0.97 0.88 0.88 0.94 0.98 0.88 0.98 0.65 0.62 0.59 0.51 0.45 0.43 0.43 0.69 0.70 0.62 0.85 1.05 1.28 1.49 1.59 1.75 1.88 1.86 1.60 1.54 1.49 1.42 1.49 1.40
0.84 0.94 0.96 1.05 1.15 1.10 1.09 1.27 1.31 1.23 1.06 0.97 0.87 0.84 0.75 0.71 0.98 0.81 0.80 0.54 0.65 0.69 0.65 0.71 0.79 0.57 1.21 1.05 0.65 0.79 1.05 1.22 1.74 1.79 1.77 1.83 1.77 1.51 1.32 1.40 1.72 2.01 1.87
0.62 0.84 0.97 1.06 1.32 1.54 1.67 1.51 1.24 1.16 1.22 1.18 1.12 1.06 1.11 0.75 1.05 0.94 0.92 0.75 0.90 0.92 0.88 0.95 1.59 1.20 1.59 1.24 1.05 1.05 1.26 1.37 1.35 1.38 1.43 1.41 1.32 1.32 1.57 1.32 1.45 2.12 2.47
0.55 0.61 0.84 1.10 1.13 1.23 1.27 1.32 1.37 1.34 1.23 1.25 1.33 1.30 1.31 1.25 1.18 1.19 1.18 1.03 1.16 1.26 1.28 1.23 1.37 1.88 1.32 1.31 1.36 1.30 1.94 1.92 1.99 1.59 1.50 1.54 1.41 1.29 1.28 1.36 1.43 1.79 2.21
0.36 0.42 0.44 0.47 0.65 0.74 0.85 0.98 0.99 1.02 1.09 1.07 1.04 1.08 1.05 1.20 1.49 1.40 1.21 1.26 1.49 1.30 1.51 1.71 2.08 2.04 1.51 1.45 1.56 2.08 2.36 1.93 1.55 1.52 1.52 1.56 1.58 1.62 1.63 1.61 1.65 1.68 1.75
0.11 0.16 0.22 0.22 0.25 0.39 0.54 0.61 0.67 0.75 0.78 0.78 0.80 0.87 0.90 0.87 0.96 1.16 1.21 1.30 1.40 1.36 1.61 1.93 1.98 1.72 1.54 1.61 1.91 2.04 2.08 2.17 2.42 2.55 2.56 2.45 2.21 1.96 1.73 1.64 1.52 1.49 1.50
0.09 0.08 0.08 0.10 0.15 0.15 0.19 0.26 0.33 0.42 0.51 0.65 0.75 0.79 0.81 0.83 0.85 0.87 0.92 0.99 1.16 1.33 1.60 1.77 1.76 1.70 1.69 1.86 1.93 1.93 1.99 2.12 2.21 2.33 2.28 2.19 1.99 1.81 1.73 1.70 1.65 1.61 1.61
0.10 0.10 0.10 0.10 0.11 0.09 0.15 0.26 0.29 0.49 0.56 0.60 0.76 0.91 1.04 1.22 1.42 1.34 1.25 1.35 1.49 1.62 1.66 1.82 1.83 1.77 1.73 1.72 1.66 1.66 1.70 1.68 1.66 1.63 1.56 1.49 1.41 1.30 1.21 1.13 1.17 1.12 1.14
0.15 0.16 0.23 0.20 0.19 0.18 0.19 0.27 0.39 0.50 0.55 0.63 0.76 0.85 1.14 1.29 1.41 1.36 1.37 1.39 1.42 1.42 1.49 1.51 1.52 1.49 1.44 1.40 1.31 1.22 1.09 1.02 0.94 0.85 0.80 0.73 0.69 0.66 0.60 0.53 0.59 0.61 0.60
0.33 0.31 0.32 0.36 0.36 0.34 0.36 0.38 0.49 0.68 0.73 0.90 0.99 1.06 1.05 1.26 1.22 1.17 1.09 1.04 1.05 0.99 1.08 1.05 1.02 0.94 0.83 0.71 0.65 0.61 0.60 0.55 0.46 0.44 0.41 0.35 0.29 0.24 0.21 0.22 0.21 0.20 0.20
0.72 0.77 0.73 0.76 0.81 0.86 0.92 1.04 1.14 1.24 1.36 1.57 1.56 1.38 1.29 1.19 1.12 1.05 0.94 0.81 0.81 0.68 0.62 0.57 0.53 0.46 0.39 0.35 0.32 0.30 0.28 0.24 0.21 0.17 0.16 0.16 0.18 0.21 0.22 0.17 0.16 0.16 0.17
0.78 1.00 1.09 1.13 1.21 1.24 1.22 1.23 1.20 1.14 1.09 1.09 1.01 0.91 0.89 0.77 0.65 0.60 0.54 0.60 0.53 0.46 0.39 0.37 0.35 0.34 0.34 0.31 0.31 0.29 0.32 0.31 0.30 0.32 0.31 0.33 0.34 0.37 0.34 0.31 0.29 0.22 0.22
0.92 1.07 1.08 1.11 1.12 1.06 0.97 0.85 0.76 0.73 0.66 0.62 0.59 0.60 0.53 0.44 0.45 0.43 0.41 0.41 0.40 0.37 0.32 0.30 0.29 0.27 0.26 0.26 0.26 0.26 0.26 0.25 0.24 0.25 0.24 0.22 0.22 0.23 0.23 0.20 0.19 0.20 0.16
0.81 0.80 0.75 0.68 0.65 0.64 0.61 0.58 0.55 0.51 0.52 0.47 0.48 0.45 0.34 0.34 0.37 0.31 0.28 0.29 0.28 0.26 0.25 0.22 0.20 0.19 0.18 0.18 0.19 0.19 0.18 0.17 0.19 0.22 0.23 0.25 0.27 0.25 0.21 0.21 0.18 0.15 0.14
0.45 0.41 0.37 0.36 0.36 0.35 0.32 0.30 0.31 0.29 0.27 0.27 0.26 0.21 0.15 0.22 0.25 0.26 0.28 0.27 0.26 0.24 0.22 0.21 0.19 0.16 0.16 0.19 0.20 0.22 0.20 0.18 0.16 0.16 0.15 0.16 0.18 0.19 0.19 0.19 0.18 0.16 0.14
0.21 0.23 0.23 0.23 0.23 0.21 0.20 0.21 0.24 0.27 0.29 0.30 0.29 0.30 0.28 0.33 0.31 0.28 0.29 0.27 0.23 0.24 0.22 0.24 0.24 0.21 0.19 0.23 0.27 0.27 0.25 0.19 0.18 0.24 0.25 0.20 0.16 0.16 0.19 0.18 0.17 0.19 0.17
0.15 0.16 0.16 0.16 0.17 0.19 0.24 0.28 0.30 0.29 0.29 0.31 0.34 0.34 0.32 0.32 0.34 0.33 0.30 0.30 0.28 0.27 0.26 0.29 0.27 0.22 0.20 0.19 0.21 0.21 0.22 0.20 0.25 0.27 0.31 0.31 0.23 0.18 0.20 0.19 0.17 0.17 0.17
0.14 0.18 0.22 0.26 0.29 0.30 0.28 0.25 0.26 0.29 0.35 0.36 0.33 0.29 0.25 0.23 0.21 0.20 0.20 0.18 0.16 0.16 0.16 0.16 0.16 0.13 0.11 0.14 0.15 0.14 0.12 0.16 0.21 0.22 0.30 0.30 0.24 0.23 0.24 0.24 0.20 0.22 0.18
0.12 0.17 0.20 0.21 0.22 0.24 0.29 0.33 0.35 0.33 0.32 0.28 0.26 0.24 0.22 0.19 0.16 0.14 0.13 0.11 0.12 0.11 0.10 0.12 0.12 0.08 0.08 0.10 0.11 0.13 0.11 0.10 0.15 0.18 0.26 0.29 0.27 0.26 0.27 0.25 0.24 0.28 0.19

GFSGL_prec_precacc_135.txt.gz
Total_Precipitation_Accumulation
1.20 1.11 0.82 1.06 1.03 1.40 1.54 1.88 2.48 2.30 2.37 3.20 3.19 2.61 2.33 1.93 1.90 1.79 1.44 1.16 1.06 1.19 1.16 1.19 1.20 1.13 1.25 1.11 1.07 1.14 1.02 0.94 0.90 0.40 0.33 0.35 0.32 0.27 0.22 0.22 0.18 0.16 0.15
2.56 2.51 1.64 1.73 1.72 1.58 1.73 1.73 1.67 1.87 2.15 2.07 2.34 2.70 2.30 2.19 1.95 1.89 1.76 1.70 1.53 1.29 1.14 1.24 1.36 1.31 1.16 1.03 1.09 1.11 1.07 0.96 0.98 0.79 0.50 0.40 0.31 0.25 0.26 0.24 0.20 0.19 0.17
3.02 3.09 2.09 2.22 1.94 1.85 1.89 1.74 1.23 1.05 1.06 1.25 1.61 1.78 1.89 2.22 2.10 1.82 1.56 1.35 1.36 1.39 1.29 1.14 1.10 1.22 1.29 1.06 0.92 0.88 0.84 0.91 0.91 0.84 0.53 0.39 0.27 0.21 0.27 0.26 0.29 0.29 0.26
2.02 2.47 2.31 2.05 2.26 1.54 1.25 1.32 1.34 0.95 0.90 0.82 0.87 1.17 1.45 1.50 1.79 1.95 2.07 1.79 1.43 1.15 1.01 1.15 1.19 1.24 1.30 1.29 1.21 1.06 1.00 0.97 0.84 0.82 0.69 0.56 0.42 0.31 0.41 0.40 0.47 0.44 0.35
1.30 1.38 1.65 2.05 2.00 1.74 1.61 1.32 0.96 0.87 0.97 0.83 0.80 0.86 1.07 1.40 1.60 1.62 1.63 1.74 1.71 1.67 1.27 1.03 1.16 1.39 1.43 1.31 1.52 1.48 1.30 1.15 1.15 1.16 1.03 0.77 0.56 0.38 0.38 0.40 0.59 0.49 0.60
0.72 0.89 0.81 0.71 0.88 1.15 1.25 1.16 0.77 0.72 0.75 0.75 0.86 0.90 0.85 0.91 1.54 1.48 1.46 1.37 1.32 1.44 1.50 1.36 1.35 1.56 1.38 1.46 1.43 1.42 1.43 1.38 1.30 1.14 1.02 0.93 0.65 0.65 0.66 0.82 0.95 1.03 0.87
0.66 0.77 0.72 0.63 0.71 0.67 0.84 0.92 0.95 0.94 1.20 1.25 1.22 1.11 0.86 0.78 1.09 0.98 1.13 0.98 1.08 1.16 1.13 1.08 1.04 0.96 0.94 0.66 0.98 1.08 1.08 1.28 1.35 1.18 1.15 1.02 0.99 1.05 1.12 1.20 1.28 1.29 1.12
0.86 0.89 0.94 0.83 0.74 0.74 0.82 0.83 1.22 1.61 1.36 1.10 0.98 0.89 0.90 0.95 0.99 0.90 0.99 0.69 0.69 0.65 0.56 0.49 0.50 0.53 0.81 0.82 0.73 0.91 1.10 1.34 1.54 1.62 1.77 1.89 1.86 1.60 1.54 1.49 1.43 1.50 1.42
0.84 0.94 0.96 1.05 1.15 1.10 1.09 1.27 1.31 1.23 1.06 0.97 0.87 0.84 0.75 0.71 0.98 0.81 0.80 0.54 0.65 0.69 0.65 0.71 0.79 0.57 1.21 1.05 0.65 0.79 1.05 1.22 1.74 1.79 1.77 1.83 1.77 1.51 1.32 1.40 1.72 2.01 1.88
0.62 0.84 0.97 1.06 1.32 1.54 1.67 1.51 1.24 1.16 1.22 1.18 1.12 1.06 1.11 0.75 1.05 0.94 0.92 0.75 0.90 0.92 0.88 0.96 1.59 1.20 1.59 1.24 1.05 1.05 1.26 1.37 1.35 1.38 1.43 1.41 1.32 1.32 1.57 1.32 1.45 2.12 2.47
0.55 0.61 0.84 1.10 1.13 1.23 1.27 1.32 1.37 1.34 1.23 1.25 1.33 1.30 1.31 1.25 1.18 1.19 1.18 1.03 1.16 1.26 1.28 1.24 1.37 1.89 1.32 1.31 1.36 1.30 1.94 1.92 1.99 1.59 1.50 1.54 1.41 1.29 1.28 1.36 1.43 1.80 2.21
0.36 0.42 0.44 0.47 0.65 0.74 0.85 0.98 0.99 1.02 1.09 1.07 1.04 1.08 1.05 1.20 1.49 1.40 1.21 1.26 1.49 1.30 1.51 1.71 2.08 2.04 1.51 1.45 1.56 2.08 2.36 1.93 1.55 1.52 1.52 1.56 1.58 1.62 1.63 1.61 1.65 1.68 1.75
0.11 0.16 0.22 0.22 0.25 0.39 0.54 0.61 0.67 0.75 0.78 0.78 0.80 0.87 0.90 0.87 0.96 1.16 1.21 1.30 1.40 1.36 1.61 1.93 1.98 1.72 1.54 1.61 1.91 2.04 2.08 2.17 2.42 2.55 2.56 2.45 2.21 1.96 1.73 1.64 1.52 1.49 1.50
0.09 0.08 0.08 0.10 0.15 0.15 0.19 0.26 0.33 0.43 0.51 0.65 0.75 0.79 0.81 0.83 0.85 0.87 0.92 0.99 1.16 1.33 1.60 1.77 1.76 1.70 1.69 1.86 1.93 1.93 1.99 2.12 2.22 2.33 2.29 2.19 1.99 1.81 1.73 1.70 1.65 1.61 1.61
0.10 0.10 0.10 0.10 0.11 0.09 0.15 0.26 0.29 0.49 0.57 0.61 0.76 0.91 1.04 1.22 1.42 1.34 1.25 1.35 1.49 1.62 1.66 1.82 1.83 1.77 1.73 1.72 1.66 1.66 1.70 1.68 1.67 1.64 1.56 1.49 1.41 1.30 1.21 1.13 1.17 1.12 1.14
0.15 0.16 0.23 0.20 0.19 0.18 0.19 0.27 0.39 0.50 0.55 0.63 0.76 0.85 1.14 1.29 1.41 1.36 1.37 1.39 1.42 1.42 1.49 1.51 1.52 1.49 1.44 1.40 1.31 1.22 1.09 1.02 0.94 0.86 0.80 0.73 0.69 0.66 0.60 0.53 0.59 0.61 0.60
0.33 0.31 0.32 0.36 0.36 0.34 0.36 0.38 0.49 0.68 0.73 0.90 1.00 1.06 1.05 1.26 1.22 1.17 1.09 1.04 1.05 0.99 1.08 1.05 1.02 0.94 0.83 0.71 0.65 0.61 0.61 0.55 0.46 0.44 0.42 0.35 0.29 0.24 0.21 0.22 0.21 0.20 0.20
0.72 0.77 0.73 0.76 0.81 0.86 0.92 1.04 1.14 1.24 1.36 1.57 1.56 1.38 1.29 1.19 1.12 1.05 0.94 0.81 0.81 0.68 0.62 0.57 0.53 0.46 0.39 0.35 0.32 0.30 0.28 0.24 0.21 0.17 0.16 0.16 0.19 0.21 0.22 0.17 0.16 0.16 0.17
0.78 1.00 1.09 1.13 1.21 1.24 1.22 1.23 1.20 1.14 1.09 1.09 1.01 0.91 0.89 0.77 0.65 0.60 0.54 0.60 0.53 0.46 0.39 0.37 0.35 0.34 0.34 0.31 0.31 0.29 0.32 0.31 0.30 0.32 0.31 0.33 0.35 0.38 0.34 0.31 0.29 0.22 0.22
0.92 1.07 1.08 1.11 1.12 1.06 0.97 0.85 0.76 0.73 0.66 0.62 0.59 0.60 0.53 0.44 0.45 0.43 0.41 0.41 0.40 0.37 0.32 0.30 0.29 0.27 0.26 0.26 0.26 0.26 0.26 0.25 0.24 0.25 0.24 0.22 0.22 0.23 0.24 0.21 0.19 0.20 0.16
0.81 0.80 0.75 0.68 0.65 0.64 0.61 0.58 0.55 0.51 0.52 0.47 0.48 0.45 0.34 0.34 0.37 0.31 0.28 0.29 0.28 0.26 0.25 0.22 0.20 0.19 0.18 0.18 0.19 0.19 0.18 0.17 0.19 0.22 0.23 0.25 0.28 0.25 0.21 0.22 0.18 0.15 0.14
0.45 0.41 0.37 0.36 0.36 0.35 0.32 0.30 0.31 0.29 0.27 0.27 0.26 0.21 0.16 0.22 0.25 0.26 0.28 0.27 0.26 0.24 0.22 0.21 0.19 0.16 0.16 0.19 0.20 0.22 0.20 0.18 0.16 0.16 0.15 0.16 0.18 0.19 0.20 0.19 0.18 0.16 0.14
0.21 0.23 0.23 0.23 0.23 0.21 0.20 0.21 0.24 0.27 0.29 0.30 0.29 0.30 0.28 0.33 0.31 0.28 0.29 0.27 0.23 0.24 0.22 0.24 0.24 0.21 0.19 0.23 0.27 0.27 0.25 0.19 0.18 0.24 0.26 0.20 0.17 0.16 0.19 0.18 0.18 0.19 0.17
0.15 0.16 0.16 0.16 0.17 0.19 0.24 0.28 0.30 0.29 0.29 0.31 0.34 0.34 0.32 0.32 0.34 0.33 0.30 0.30 0.29 0.27 0.26 0.29 0.27 0.22 0.20 0.19 0.21 0.21 0.22 0.20 0.25 0.27 0.31 0.32 0.23 0.19 0.21 0.19 0.17 0.17 0.17
0.14 0.18 0.22 0.26 0.29 0.30 0.28 0.25 0.26 0.29 0.35 0.36 0.33 0.29 0.25 0.23 0.21 0.20 0.20 0.18 0.17 0.17 0.16 0.16 0.16 0.13 0.11 0.14 0.15 0.14 0.12 0.16 0.21 0.22 0.30 0.30 0.25 0.23 0.24 0.24 0.20 0.22 0.18
0.12 0.17 0.20 0.21 0.22 0.24 0.29 0.33 0.35 0.33 0.32 0.28 0.26 0.24 0.22 0.20 0.16 0.14 0.13 0.11 0.13 0.11 0.11 0.12 0.12 0.08 0.08 0.10 0.11 0.13 0.11 0.10 0.15 0.18 0.26 0.29 0.27 0.26 0.27 0.25 0.24 0.28 0.19

GFSGL_prec_precacc_138.txt.gz
Total_Precipitation_Accumulation
1.21 1.13 0.85 1.09 1.07 1.42 1.56 1.93 2.56 2.40 2.46 3.25 3.22 2.62 2.33 1.93 1.90 1.79 1.44 1.22 1.28 1.69 1.71 1.59 1.59 1.37 1.44 1.22 1.15 1.22 1.09 1.00 0.92 0.40 0.33 0.36 0.32 0.27 0.22 0.22 0.19 0.17 0.16
2.58 2.54 1.68 1.77 1.76 1.61 1.77 1.78 1.77 1.96 2.21 2.12 2.36 2.70 2.30 2.19 1.96 1.89 1.76 1.72 1.68 1.56 1.53 1.76 1.83 1.59 1.37 1.18 1.20 1.18 1.10 0.99 1.02 0.80 0.50 0.40 0.31 0.26 0.26 0.24 0.20 0.19 0.17
3.02 3.11 2.12 2.26 2.01 1.97 2.02 1.80 1.37 1.22 1.23 1.35 1.68 1.81 1.91 2.24 2.11 1.84 1.57 1.35 1.40 1.50 1.52 1.43 1.42 1.49 1.49 1.21 1.03 0.95 0.88 0.94 0.95 0.88 0.55 0.41 0.29 0.22 0.28 0.26 0.29 0.29 0.26
2.02 2.47 2.35 2.17 2.45 1.79 1.50 1.63 1.60 1.16 1.16 0.98 0.94 1.20 1.47 1.53 1.84 2.00 2.13 1.84 1.47 1.23 1.24 1.43 1.47 1.52 1.58 1.47 1.39 1.17 1.08 1.08 0.97 0.97 0.84 0.64 0.51 0.38 0.48 0.44 0.48 0.44 0.35
1.30 1.38 1.65 2.10 2.16 1.99 2.01 2.00 1.65 1.49 1.51 1.19 1.03 0.96 1.11 1.43 1.67 1.72 1.73 1.83 1.78 1.78 1.54 1.40 1.61 1.86 1.78 1.67 1.72 1.66 1.54 1.48 1.50 1.51 1.41 1.20 0.92 0.54 0.45 0.47 0.63 0.51 0.60
0.72 0.89 0.81 0.71 0.89 1.22 1.36 1.30 1.01 1.28 1.60 1.30 1.36 1.05 0.91 0.96 1.61 1.60 1.52 1.42 1.37 1.56 1.72 1.67 1.67 2.00 1.93 1.95 1.93 1.80 1.73 1.83 1.76 1.54 1.44 1.34 1.05 1.03 0.99 1.02 1.04 1.11 0.94
0.66 0.77 0.72 0.63 0.71 0.67 0.87 0.96 1.02 0.97 1.26 1.34 1.31 1.16 0.87 0.80 1.10 0.99 1.13 1.01 1.14 1.29 1.34 1.35 1.37 1.39 1.41 1.13 1.41 1.46 1.44 1.59 1.65 1.49 1.50 1.40 1.33 1.31 1.27 1.31 1.38 1.38 1.15
0.86 0.89 0.94 0.83 0.75 0.74 0.82 0.83 1.22 1.61 1.37 1.11 0.99 0.90 0.91 0.96 0.99 0.90 1.00 0.70 0.72 0.72 0.66 0.61 0.61 0.66 0.99 1.05 0.97 1.19 1.36 1.58 1.76 1.84 1.98 2.11 2.08 1.79 1.68 1.57 1.48 1.52 1.42
0.84 0.94 0.96 1.05 1.15 1.10 1.09 1.27 1.31 1.23 1.07 0.97 0.87 0.85 0.76 0.72 0.98 0.82 0.81 0.55 0.67 0.71 0.67 0.73 0.80 0.59 1.23 1.06 0.66 0.80 1.06 1.25 1.77 1.81 1.79 1.84 1.78 1.53 1.34 1.41 1.73 2.02 1.88
0.62 0.84 0.97 1.06 1.32 1.54 1.67 1.51 1.24 1.16 1.22 1.18 1.12 1.06 1.12 0.76 1.06 0.95 0.92 0.75 0.91 0.92 0.89 0.96 1.60 1.21 1.60 1.25 1.06 1.06 1.27 1.39 1.35 1.39 1.43 1.41 1.32 1.32 1.57 1.32 1.45 2.12 2.47
0.55 0.61 0.84 1.10 1.13 1.23 1.27 1.32 1.37 1.34 1.23 1.25 1.33 1.30 1.31 1.25 1.19 1.19 1.18 1.04 1.16 1.26 1.29 1.24 1.38 1.89 1.32 1.31 1.36 1.31 1.95 1.93 1.99 1.59 1.50 1.54 1.41 1.29 1.28 1.36 1.43 1.80 2.22
0.36 0.42 0.44 0.47 0.65 0.74 0.85 0.98 0.99 1.02 1.09 1.07 1.04 1.08 1.05 1.20 1.49 1.40 1.21 1.26 1.49 1.30 1.51 1.71 2.08 2.04 1.51 1.45 1.56 2.08 2.36 1.93 1.55 1.52 1.52 1.56 1.58 1.62 1.63 1.61 1.65 1.68 1.75
0.11 0.16 0.22 0.22 0.25 0.39 0.54 0.61 0.67 0.75 0.78 0.78 0.80 0.87 0.91 0.87 0.96 1.16 1.21 1.30 1.40 1.36 1.61 1.93 1.98 1.72 1.54 1.61 1.91 2.04 2.08 2.18 2.42 2.55 2.56 2.45 2.21 1.96 1.73 1.64 1.52 1.49 1.50
0.09 0.08 0.08 0.10 0.15 0.15 0.19 0.26 0.34 0.44 0.51 0.65 0.75 0.79 0.81 0.83 0.85 0.87 0.92 0.99 1.16 1.33 1.60 1.77 1.76 1.70 1.69 1.86 1.93 1.93 1.99 2.12 2.22 2.33 2.29 2.19 1.99 1.81 1.73 1.70 1.65 1.61 1.61
0.10 0.10 0.10 0.10 0.11 0.09 0.15 0.26 0.29 0.50 0.57 0.61 0.76 0.91 1.04 1.22 1.42 1.34 1.25 1.35 1.49 1.62 1.66 1.82 1.83 1.77 1.73 1.72 1.66 1.66 1.70 1.68 1.67 1.64 1.56 1.49 1.41 1.30 1.21 1.13 1.17 1.12 1.14
0.15 0.16 0.23 0.20 0.19 0.18 0.19 0.27 0.39 0.50 0.55 0.63 0.76 0.85 1.14 1.29 1.41 1.36 1.37 1.39 1.42 1.42 1.49 1.51 1.52 1.49 1.45 1.40 1.31 1.22 1.09 1.02 0.94 0.86 0.80 0.73 0.69 0.66 0.60 0.53 0.59 0.61 0.60
0.33 0.31 0.32 0.36 0.36 0.34 0.36 0.38 0.49 0.68 0.73 0.90 1.00 1.06 1.05 1.26 1.22 1.17 1.09 1.04 1.05 0.99 1.08 1.05 1.02 0.94 0.83 0.71 0.65 0.61 0.61 0.55 0.46 0.44 0.42 0.35 0.29 0.24 0.21 0.22 0.21 0.20 0.20
0.72 0.77 0.73 0.76 0.81 0.86 0.92 1.04 1.14 1.24 1.36 1.57 1.56 1.38 1.29 1.19 1.12 1.05 0.94 0.81 0.81 0.68 0.62 0.57 0.53 0.46 0.39 0.35 0.32 0.30 0.28 0.24 0.21 0.17 0.16 0.16 0.19 0.22 0.22 0.17 0.16 0.16 0.17
0.78 1.00 1.09 1.13 1.21 1.24 1.22 1.23 1.20 1.14 1.09 1.09 1.01 0.91 0.89 0.77 0.65 0.60 0.54 0.60 0.53 0.46 0.39 0.37 0.35 0.34 0.34 0.31 0.31 0.29 0.32 0.31 0.30 0.32 0.31 0.33 0.35 0.38 0.34 0.31 0.29 0.22 0.22
0.92 1.07 1.08 1.11 1.12 1.06 0.97 0.85 0.76 0.73 0.66 0.62 0.59 0.60 0.53 0.44 0.45 0.43 0.41 0.41 0.40 0.37 0.32 0.30 0.29 0.27 0.26 0.26 0.26 0.26 0.26 0.25 0.24 0.25 0.24 0.22 0.22 0.24 0.24 0.21 0.19 0.20 0.16
0.81 0.80 0.75 0.68 0.65 0.64 0.62 0.58 0.55 0.52 0.52 0.47 0.48 0.45 0.34 0.34 0.38 0.31 0.28 0.29 0.28 0.26 0.25 0.22 0.20 0.19 0.18 0.18 0.19 0.19 0.18 0.17 0.19 0.22 0.23 0.25 0.28 0.25 0.22 0.22 0.18 0.15 0.14
0.45 0.41 0.37 0.36 0.36 0.35 0.33 0.31 0.31 0.29 0.28 0.27 0.26 0.21 0.16 0.22 0.25 0.27 0.28 0.28 0.26 0.24 0.22 0.22 0.19 0.16 0.16 0.19 0.20 0.22 0.20 0.18 0.16 0.16 0.15 0.16 0.18 0.19 0.20 0.19 0.18 0.16 0.14
0.21 0.23 0.23 0.23 0.23 0.21 0.20 0.21 0.24 0.27 0.29 0.30 0.29 0.30 0.28 0.33 0.31 0.29 0.29 0.27 0.24 0.25 0.23 0.25 0.25 0.21 0.19 0.23 0.27 0.27 0.25 0.19 0.18 0.24 0.26 0.20 0.17 0.16 0.19 0.18 0.18 0.19 0.17
0.15 0.16 0.16 0.16 0.17 0.19 0.24 0.28 0.30 0.29 0.29 0.32 0.34 0.34 0.32 0.32 0.34 0.33 0.30 0.30 0.29 0.27 0.26 0.29 0.28 0.23 0.20 0.19 0.21 0.21 0.22 0.20 0.25 0.27 0.31 0.32 0.24 0.19 0.21 0.19 0.17 0.17 0.17
0.14 0.18 0.22 0.26 0.29 0.30 0.28 0.25 0.26 0.29 0.35 0.36 0.33 0.29 0.25 0.23 0.21 0.20 0.20 0.18 0.17 0.17 0.16 0.16 0.16 0.14 0.12 0.15 0.15 0.14 0.12 0.16 0.21 0.22 0.30 0.30 0.25 0.23 0.24 0.24 0.21 0.22 0.18
0.12 0.17 0.20 0.21 0.22 0.24 0.29 0.33 0.35 0.33 0.32 0.28 0.26 0.24 0.22 0.20 0.16 0.14 0.13 0.11 0.13 0.11 0.11 0.12 0.13 0.09 0.09 0.11 0.11 0.13 0.11 0.10 0.15 0.18 0.27 0.29 0.27 0.26 0.27 0.25 0.24 0.28 0.19

GFSGL_prec_precacc_141.txt.gz
Total_Precipitation_Accumulation
1.21 1.13 0.85 1.10 1.08 1.43 1.58 1.95 2.63 2.47 2.56 3.28 3.27 2.70 2.37 1.94 1.90 1.79 1.44 1.22 1.28 1.69 1.75 1.72 1.74 1.68 1.90 1.73 1.41 1.38 1.20 1.08 0.95 0.41 0.33 0.36 0.32 0.27 0.22 0.22 0.19 0.17 0.16
2.58 2.54 1.68 1.79 1.77 1.63 1.82 1.83 1.83 2.07 2.25 2.15 2.42 2.77 2.33 2.20 1.96 1.89 1.77 1.73 1.68 1.56 1.53 1.78 1.94 1.80 1.68 1.51 1.45 1.38 1.28 1.14 1.10 0.82 0.52 0.41 0.32 0.26 0.26 0.24 0.21 0.19 0.17
3.02 3.11 2.12 2.27 2.03 2.02 2.10 1.90 1.52 1.37 1.32 1.42 1.74 1.86 1.94 2.26 2.12 1.85 1.58 1.37 1.41 1.51 1.52 1.43 1.47 1.75 1.83 1.54 1.42 1.22 1.08 1.11 1.09 0.96 0.60 0.44 0.31 0.23 0.28 0.28 0.31 0.30 0.26
2.02 2.47 2.35 2.17 2.45 1.83 1.56 1.76 1.83 1.48 1.38 1.22 1.13 1.37 1.58 1.62 1.90 2.05 2.17 1.90 1.53 1.27 1.25 1.43 1.47 1.55 1.78 1.90 1.80 1.60 1.44 1.31 1.12 1.11 0.96 0.69 0.53 0.41 0.52 0.47 0.50 0.45 0.36
1.30 1.38 1.65 2.10 2.16 1.99 2.03 2.08 1.84 1.88 1.98 1.66 1.43 1.16 1.21 1.57 1.85 1.87 1.98 2.00 1.92 1.92 1.62 1.43 1.63 1.88 1.80 1.72 1.95 2.04 2.01 1.92 1.89 1.75 1.59 1.33 0.98 0.63 0.55 0.54 0.66 0.51 0.61
0.72 0.89 0.81 0.71 0.89 1.22 1.37 1.31 1.06 1.39 1.73 1.53 1.76 1.33 1.22 1.13 1.80 1.91 1.91 1.88 1.76 1.79 1.89 1.77 1.74 2.04 1.96 2.01 2.06 2.01 1.96 2.10 2.12 1.89 1.72 1.55 1.26 1.25 1.22 1.22 1.22 1.24 1.05
0.66 0.77 0.72 0.63 0.71 0.67 0.87 0.96 1.03 0.99 1.30 1.41 1.46 1.29 0.96 0.83 1.13 1.10 1.32 1.31 1.55 1.66 1.59 1.49 1.44 1.43 1.46 1.20 1.53 1.59 1.61 1.84 1.90 1.78 1.80 1.69 1.57 1.56 1.56 1.64 1.69 1.64 1.45
0.86 0.89 0.94 0.83 0.75 0.74 0.82 0.83 1.22 1.61 1.37 1.13 1.04 0.96 0.94 0.96 0.99 0.90 1.00 0.71 0.74 0.75 0.68 0.62 0.63 0.68 1.03 1.10 1.06 1.33 1.53 1.80 2.07 2.18 2.28 2.37 2.34 2.06 1.95 1.84 1.72 1.72 1.62
0.84 0.94 0.96 1.05 1.15 1.10 1.09 1.27 1.31 1.23 1.07 0.97 0.87 0.86 0.77 0.72 0.98 0.82 0.81 0.55 0.67 0.71 0.68 0.74 0.82 0.61 1.25 1.08 0.67 0.82 1.09 1.29 1.82 1.87 1.87 1.92 1.86 1.60 1.43 1.53 1.88 2.19 2.07
0.62 0.84 0.97 1.06 1.32 1.54 1.67 1.51 1.24 1.16 1.22 1.18 1.12 1.06 1.12 0.76 1.06 0.95 0.92 0.75 0.91 0.92 0.89 0.96 1.60 1.22 1.61 1.27 1.08 1.08 1.29 1.41 1.37 1.39 1.44 1.41 1.33 1.32 1.58 1.33 1.46 2.13 2.48
0.55 0.61 0.84 1.10 1.13 1.23 1.27 1.32 1.37 1.34 1.23 1.25 1.33 1.30 1.31 1.25 1.19 1.19 1.18 1.04 1.16 1.26 1.29 1.24 1.38 1.89 1.32 1.31 1.37 1.31 1.96 1.93 2.00 1.59 1.50 1.54 1.41 1.29 1.28 1.36 1.43 1.80 2.22
0.36 0.42 0.44 0.47 0.65 0.74 0.85 0.98 0.99 1.02 1.09 1.07 1.04 1.08 1.05 1.20 1.49 1.40 1.21 1.26 1.49 1.30 1.51 1.71 2.08 2.04 1.51 1.45 1.56 2.08 2.36 1.93 1.55 1.52 1.53 1.56 1.58 1.62 1.63 1.61 1.65 1.68 1.75
0.11 0.16 0.22 0.22 0.25 0.39 0.54 0.62 0.67 0.75 0.78 0.78 0.80 0.87 0.92 0.87 0.96 1.16 1.21 1.30 1.40 1.36 1.61 1.93 1.98 1.72 1.54 1.61 1.91 2.04 2.08 2.18 2.42 2.55 2.56 2.45 2.21 1.96 1.73 1.64 1.52 1.49 1.50
0.09 0.08 0.08 0.10 0.15 0.15 0.19 0.26 0.34 0.44 0.51 0.65 0.75 0.79 0.81 0.83 0.85 0.87 0.92 0.99 1.16 1.33 1.60 1.77 1.76 1.70 1.69 1.86 1.93 1.93 1.99 2.12 2.22 2.34 2.29 2.19 1.99 1.81 1.73 1.70 1.65 1.61 1.61
0.10 0.10 0.10 0.10 0.11 0.09 0.15 0.26 0.29 0.51 0.57 0.61 0.76 0.91 1.04 1.22 1.42 1.34 1.25 1.35 1.49 1.62 1.66 1.82 1.83 1.77 1.73 1.72 1.66 1.66 1.70 1.68 1.67 1.64 1.56 1.49 1.41 1.30 1.21 1.13 1.17 1.12 1.14
0.15 0.16 0.23 0.20 0.19 0.18 0.19 0.27 0.39 0.50 0.55 0.63 0.76 0.85 1.14 1.29 1.42 1.36 1.37 1.39 1.42 1.42 1.49 1.51 1.52 1.49 1.45 1.40 1.31 1.22 1.09 1.02 0.94 0.86 0.80 0.73 0.69 0.66 0.60 0.53 0.59 0.61 0.60
0.33 0.31 0.32 0.36 0.36 0.34 0.36 0.38 0.49 0.68 0.73 0.90 1.00 1.06 1.05 1.26 1.22 1.17 1.09 1.04 1.05 0.99 1.08 1.05 1.02 0.94 0.83 0.71 0.65 0.61 0.61 0.55 0.46 0.44 0.42 0.35 0.29 0.24 0.21 0.22 0.21 0.20 0.20
0.72 0.77 0.73 0.76 0.81 0.86 0.92 1.04 1.14 1.24 1.36 1.57 1.56 1.38 1.29 1.19 1.12 1.05 0.94 0.81 0.81 0.68 0.62 0.57 0.53 0.46 0.39 0.35 0.32 0.30 0.28 0.24 0.21 0.17 0.16 0.16 0.19 0.22 0.23 0.18 0.16 0.17 0.17
0.78 1.00 1.09 1.13 1.21 1.24 1.22 1.23 1.20 1.14 1.09 1.09 1.01 0.91 0.89 0.77 0.65 0.60 0.54 0.60 0.53 0.46 0.39 0.37 0.35 0.34 0.34 0.31 0.31 0.29 0.32 0.31 0.30 0.32 0.31 0.33 0.35 0.38 0.34 0.32 0.29 0.23 0.22
0.92 1.07 1.08 1.11 1.12 1.06 0.97 0.85 0.76 0.73 0.66 0.62 0.59 0.60 0.53 0.44 0.45 0.43 0.41 0.41 0.40 0.37 0.32 0.30 0.29 0.27 0.26 0.26 0.26 0.26 0.26 0.25 0.24 0.25 0.24 0.22 0.22 0.24 0.24 0.21 0.20 0.21 0.16
0.81 0.80 0.75 0.68 0.65 0.64 0.62 0.58 0.55 0.52 0.52 0.47 0.48 0.45 0.35 0.35 0.38 0.32 0.28 0.29 0.28 0.26 0.26 0.22 0.20 0.19 0.18 0.18 0.19 0.19 0.18 0.17 0.19 0.22 0.23 0.25 0.28 0.25 0.22 0.22 0.19 0.16 0.14
0.45 0.41 0.37 0.36 0.36 0.35 0.33 0.31 0.31 0.29 0.28 0.27 0.26 0.21 0.16 0.22 0.25 0.27 0.28 0.28 0.26 0.24 0.23 0.22 0.20 0.17 0.16 0.20 0.20 0.22 0.20 0.18 0.16 0.16 0.15 0.16 0.18 0.19 0.20 0.19 0.18 0.16 0.14
0.21 0.23 0.23 0.23 0.23 0.21 0.20 0.21 0.24 0.27 0.29 0.30 0.29 0.30 0.28 0.33 0.31 0.29 0.29 0.27 0.24 0.25 0.23 0.25 0.25 0.21 0.19 0.23 0.27 0.27 0.25 0.19 0.18 0.24 0.26 0.20 0.17 0.16 0.20 0.18 0.18 0.19 0.17
0.15 0.16 0.16 0.16 0.17 0.19 0.24 0.28 0.30 0.29 0.29 0.32 0.34 0.34 0.32 0.32 0.35 0.33 0.30 0.30 0.29 0.27 0.26 0.29 0.28 0.24 0.21 0.20 0.21 0.22 0.22 0.20 0.25 0.27 0.31 0.32 0.24 0.19 0.21 0.19 0.17 0.18 0.18
0.14 0.18 0.22 0.26 0.29 0.30 0.28 0.25 0.26 0.29 0.35 0.36 0.33 0.29 0.25 0.23 0.21 0.20 0.20 0.18 0.17 0.17 0.16 0.16 0.16 0.14 0.13 0.16 0.16 0.15 0.12 0.16 0.21 0.22 0.30 0.30 0.25 0.23 0.24 0.24 0.21 0.22 0.18
0.12 0.17 0.20 0.21 0.22 0.24 0.29 0.33 0.35 0.33 0.32 0.28 0.26 0.24 0.22 0.20 0.16 0.14 0.13 0.11 0.13 0.11 0.11 0.12 0.13 0.09 0.10 0.13 0.13 0.14 0.11 0.10 0.15 0.18 0.27 0.29 0.27 0.26 0.27 0.25 0.24 0.29 0.19

GFSGL_prec_precacc_147.txt.gz
Total_Precipitation_Accumulation
1.21 1.13 0.85 1.10 1.08 1.43 1.59 1.97 2.66 2.50 2.61 3.32 3.30 2.73 2.50 2.05 1.97 1.82 1.46 1.25 1.34 1.75 1.82 1.78 1.82 1.76 1.99 1.90 1.80 1.81 1.61 1.61 1.43 0.74 0.68 0.56 0.41 0.32 0.28 0.27 0.22 0.19 0.18
2.58 2.54 1.68 1.79 1.77 1.64 1.83 1.87 1.86 2.14 2.31 2.20 2.46 2.84 2.55 2.49 2.10 1.97 1.79 1.75 1.71 1.61 1.58 1.81 1.97 1.83 1.70 1.55 1.56 1.72 1.68 1.52 1.69 1.48 1.25 1.16 0.87 0.40 0.33 0.27 0.23 0.23 0.20
3.02 3.11 2.12 2.27 2.03 2.02 2.11 1.93 1.59 1.47 1.42 1.55 1.83 1.96 2.08 2.46 2.30 2.07 1.65 1.40 1.50 1.54 1.56 1.46 1.49 1.78 1.86 1.56 1.48 1.39 1.32 1.41 1.42 1.45 1.39 1.39 1.41 0.86 0.54 0.41 0.40 0.39 0.35
2.02 2.47 2.35 2.17 2.46 1.83 1.56 1.77 1.87 1.55 1.49 1.43 1.42 1.62 1.78 1.74 1.98 2.16 2.25 1.95 1.54 1.29 1.28 1.46 1.49 1.57 1.80 1.93 1.91 1.73 1.64 1.61 1.44 1.52 1.56 1.58 1.55 1.50 1.26 0.95 0.76 0.62 0.44
1.30 1.38 1.65 2.10 2.16 1.99 2.03 2.08 1.85 1.90 2.03 1.80 1.67 1.43 1.44 1.78 2.15 2.05 2.08 2.09 1.96 1.96 1.67 1.48 1.71 1.99 1.96 1.84 2.02 2.17 2.22 2.20 2.27 2.21 2.14 2.19 1.86 1.29 1.22 1.12 0.98 0.73 0.75
0.72 0.89 0.81 0.71 0.89 1.22 1.37 1.32 1.07 1.40 1.74 1.55 1.79 1.38 1.30 1.23 1.93 2.08 2.09 2.13 2.01 2.00 2.17 1.97 1.91 2.18 2.10 2.21 2.26 2.15 2.10 2.31 2.32 2.21 2.22 2.15 2.00 1.98 1.79 1.66 1.54 1.48 1.27
0.66 0.77 0.72 0.63 0.71 0.67 0.87 0.96 1.03 0.99 1.31 1.42 1.49 1.33 1.01 0.86 1.16 1.13 1.38 1.44 1.76 1.97 1.96 2.01 1.90 1.92 1.82 1.47 1.81 1.88 1.85 2.04 2.17 2.02 2.06 2.05 2.02 1.99 2.01 2.14 2.02 1.88 1.70
0.86 0.89 0.94 0.83 0.75 0.74 0.82 0.83 1.22 1.61 1.37 1.13 1.05 0.96 0.94 0.97 1.00 0.91 1.04 0.78 0.82 0.86 0.83 0.79 0.76 0.80 1.20 1.25 1.20 1.52 1.78 2.06 2.30 2.37 2.51 2.70 2.70 2.42 2.32 2.24 2.10 2.05 1.87
0.84 0.94 0.96 1.05 1.15 1.10 1.09 1.27 1.31 1.23 1.07 0.97 0.88 0.86 0.77 0.72 0.98 0.82 0.81 0.56 0.70 0.76 0.73 0.79 0.87 0.66 1.29 1.12 0.71 0.86 1.12 1.34 1.87 1.92 1.93 2.02 1.99 1.75 1.62 1.78 2.22 2.56 2.46
0.62 0.84 0.98 1.06 1.32 1.54 1.67 1.51 1.24 1.16 1.22 1.18 1.12 1.06 1.12 0.76 1.06 0.95 0.92 0.75 0.91 0.93 0.90 0.99 1.62 1.24 1.63 1.29 1.10 1.10 1.32 1.42 1.39 1.41 1.45 1.42 1.33 1.33 1.58 1.34 1.49 2.17 2.55
0.55 0.61 0.84 1.10 1.13 1.23 1.27 1.32 1.37 1.34 1.23 1.25 1.33 1.31 1.31 1.25 1.19 1.19 1.18 1.04 1.16 1.26 1.29 1.24 1.38 1.89 1.32 1.32 1.38 1.32 1.97 1.94 2.00 1.60 1.50 1.54 1.41 1.29 1.28 1.37 1.44 1.81 2.24
0.36 0.42 0.44 0.47 0.65 0.74 0.85 0.98 0.99 1.02 1.09 1.07 1.04 1.09 1.06 1.20 1.49 1.40 1.21 1.26 1.49 1.30 1.51 1.71 2.08 2.04 1.51 1.45 1.56 2.09 2.36 1.93 1.55 1.53 1.53 1.57 1.58 1.62 1.64 1.61 1.66 1.68 1.76
0.11 0.16 0.22 0.22 0.25 0.39 0.54 0.62 0.67 0.75 0.78 0.78 0.80 0.88 0.92 0.88 0.96 1.16 1.21 1.30 1.40 1.36 1.61 1.93 1.98 1.72 1.54 1.61 1.91 2.04 2.08 2.18 2.42 2.55 2.56 2.46 2.22 1.97 1.73 1.64 1.52 1.49 1.50
0.09 0.08 0.08 0.10 0.15 0.15 0.19 0.26 0.34 0.44 0.51 0.65 0.75 0.79 0.82 0.83 0.85 0.87 0.92 0.99 1.16 1.33 1.60 1.77 1.76 1.70 1.69 1.86 1.93 1.93 1.99 2.12 2.22 2.34 2.29 2.19 1.99 1.81 1.73 1.70 1.65 1.61 1.61
0.10 0.10 0.10 0.10 0.11 0.09 0.15 0.26 0.29 0.51 0.57 0.61 0.76 0.91 1.04 1.23 1.42 1.34 1.25 1.35 1.49 1.62 1.66 1.82 1.83 1.77 1.73 1.72 1.66 1.66 1.70 1.68 1.67 1.64 1.56 1.49 1.41 1.30 1.21 1.13 1.17 1.12 1.14
0.15 0.16 0.23 0.20 0.19 0.18 0.19 0.27 0.39 0.50 0.55 0.63 0.76 0.85 1.14 1.29 1.42 1.36 1.37 1.39 1.42 1.42 1.49 1.51 1.52 1.49 1.45 1.40 1.31 1.22 1.09 1.02 0.94 0.86 0.80 0.73 0.69 0.66 0.60 0.53 0.59 0.61 0.60
0.33 0.31 0.32 0.36 0.36 0.34 0.36 0.38 0.49 0.68 0.74 0.90 1.00 1.06 1.05 1.26 1.23 1.17 1.09 1.04 1.05 0.99 1.08 1.06 1.03 0.94 0.83 0.71 0.65 0.61 0.61 0.55 0.46 0.44 0.42 0.35 0.29 0.24 0.21 0.22 0.21 0.20 0.20
0.72 0.77 0.73 0.76 0.81 0.86 0.92 1.04 1.15 1.25 1.36 1.58 1.56 1.38 1.29 1.19 1.12 1.05 0.94 0.81 0.81 0.68 0.62 0.57 0.54 0.46 0.39 0.35 0.32 0.31 0.29 0.25 0.21 0.17 0.16 0.16 0.19 0.22 0.23 0.18 0.16 0.17 0.17
0.78 1.00 1.09 1.13 1.21 1.24 1.23 1.23 1.21 1.15 1.09 1.09 1.01 0.91 0.89 0.77 0.65 0.60 0.54 0.60 0.54 0.46 0.39 0.37 0.35 0.34 0.34 0.32 0.32 0.30 0.33 0.31 0.30 0.32 0.31 0.34 0.35 0.38 0.34 0.32 0.30 0.23 0.22
0.92 1.07 1.08 1.11 1.12 1.06 0.97 0.85 0.76 0.73 0.66 0.62 0.60 0.60 0.53 0.44 0.45 0.43 0.41 0.42 0.40 0.37 0.32 0.30 0.29 0.28 0.27 0.27 0.27 0.28 0.28 0.26 0.25 0.25 0.24 0.23 0.23 0.24 0.25 0.21 0.20 0.21 0.16
0.81 0.80 0.75 0.68 0.65 0.64 0.62 0.58 0.55 0.52 0.53 0.47 0.49 0.46 0.35 0.35 0.38 0.32 0.28 0.30 0.29 0.26 0.26 0.22 0.20 0.19 0.18 0.19 0.19 0.20 0.19 0.19 0.20 0.23 0.23 0.25 0.28 0.26 0.22 0.22 0.19 0.16 0.14
0.45 0.41 0.37 0.36 0.36 0.35 0.33 0.31 0.31 0.29 0.28 0.27 0.26 0.21 0.16 0.22 0.26 0.27 0.29 0.28 0.27 0.25 0.23 0.22 0.20 0.17 0.16 0.20 0.21 0.23 0.21 0.19 0.18 0.17 0.16 0.16 0.18 0.20 0.21 0.20 0.19 0.17 0.15
0.21 0.23 0.23 0.23 0.23 0.21 0.20 0.21 0.24 0.27 0.29 0.30 0.29 0.30 0.29 0.33 0.31 0.29 0.29 0.28 0.24 0.25 0.23 0.25 0.25 0.21 0.19 0.24 0.29 0.29 0.27 0.20 0.21 0.25 0.26 0.21 0.17 0.17 0.20 0.19 0.19 0.20 0.18
0.15 0.16 0.16 0.16 0.17 0.19 0.24 0.28 0.30 0.29 0.29 0.32 0.35 0.34 0.32 0.33 0.35 0.34 0.31 0.30 0.29 0.27 0.27 0.30 0.28 0.24 0.21 0.20 0.22 0.23 0.24 0.23 0.27 0.28 0.32 0.33 0.24 0.19 0.21 0.19 0.17 0.18 0.18
0.14 0.18 0.22 0.26 0.29 0.30 0.28 0.25 0.26 0.29 0.35 0.36 0.34 0.29 0.25 0.24 0.22 0.20 0.20 0.18 0.17 0.17 0.16 0.16 0.16 0.15 0.13 0.16 0.16 0.16 0.16 0.18 0.22 0.22 0.31 0.31 0.25 0.23 0.25 0.25 0.21 0.23 0.19
0.12 0.17 0.20 0.21 0.22 0.24 0.29 0.33 0.36 0.33 0.32 0.28 0.27 0.25 0.23 0.20 0.16 0.14 0.13 0.11 0.13 0.11 0.11 0.12 0.13 0.10 0.10 0.13 0.14 0.16 0.13 0.11 0.15 0.18 0.27 0.29 0.28 0.27 0.28 0.26 0.25 0.29 0.20

GFSGL_prec_precacc_150.txt.gz
Total_Precipitation_Accumulation
1.21 1.13 0.85 1.10 1.08 1.43 1.59 1.97 2.66 2.51 2.62 3.32 3.31 2.74 2.50 2.06 1.99 1.85 1.50 1.28 1.35 1.79 1.87 1.81 1.84 1.78 2.04 2.08 1.97 1.90 1.72 1.73 1.53 0.77 0.75 0.68 0.57 0.51 0.47 0.49 0.39 0.27 0.22
2.58 2.54 1.68 1.79 1.77 1.64 1.83 1.87 1.87 2.14 2.32 2.21 2.46 2.85 2.57 2.52 2.14 2.07 1.91 1.82 1.82 1.68 1.68 1.90 2.07 1.90 1.78 1.59 1.67 1.94 1.75 1.58 1.81 1.55 1.35 1.29 1.06 0.84 0.79 0.68 0.48 0.45 0.31
3.02 3.11 2.12 2.27 2.03 2.02 2.11 1.93 1.59 1.47 1.42 1.55 1.84 1.99 2.12 2.51 2.37 2.27 1.89 1.49 1.72 1.67 1.76 1.66 1.61 1.87 1.90 1.65 1.49 1.41 1.33 1.42 1.47 1.54 1.49 1.57 1.66 1.29 1.25 1.29 1.30 1.04 0.70
2.02 2.48 2.35 2.17 2.46 1.83 1.56 1.77 1.87 1.55 1.49 1.43 1.43 1.63 1.82 1.77 2.03 2.24 2.39 2.07 1.66 1.42 1.36 1.53 1.54 1.60 1.81 1.94 1.91 1.73 1.64 1.61 1.44 1.54 1.67 1.70 1.68 1.72 1.60 1.57 1.82 1.66 1.12
1.30 1.38 1.65 2.10 2.16 1.99 2.03 2.08 1.85 1.90 2.03 1.80 1.67 1.44 1.45 1.79 2.16 2.09 2.13 2.13 2.00 1.98 1.67 1.49 1.72 2.00 1.96 1.84 2.02 2.17 2.22 2.20 2.27 2.21 2.15 2.25 1.94 1.36 1.33 1.44 1.82 1.74 1.63
0.72 0.89 0.81 0.71 0.89 1.22 1.37 1.32 1.07 1.40 1.74 1.55 1.79 1.38 1.31 1.24 1.93 2.08 2.10 2.13 2.02 2.01 2.18 1.99 1.92 2.19 2.11 2.22 2.27 2.16 2.11 2.31 2.33 2.23 2.24 2.17 2.02 2.01 1.84 1.76 1.90 2.08 1.96
0.66 0.77 0.72 0.63 0.71 0.67 0.87 0.96 1.03 0.99 1.31 1.42 1.49 1.33 1.01 0.86 1.16 1.13 1.39 1.44 1.76 1.97 1.96 2.02 1.91 1.92 1.83 1.49 1.84 1.89 1.86 2.06 2.21 2.10 2.13 2.10 2.11 2.09 2.07 2.19 2.15 2.20 2.24
0.86 0.89 0.94 0.83 0.75 0.74 0.82 0.83 1.22 1.61 1.37 1.13 1.05 0.96 0.94 0.97 1.00 0.91 1.04 0.78 0.82 0.87 0.83 0.79 0.76 0.80 1.21 1.25 1.20 1.53 1.82 2.15 2.40 2.53 2.74 2.96 2.88 2.58 2.49 2.37 2.21 2.18 2.03
0.84 0.94 0.96 1.05 1.15 1.10 1.09 1.27 1.31 1.23 1.07 0.97 0.88 0.86 0.77 0.72 0.98 0.82 0.81 0.56 0.70 0.76 0.73 0.79 0.87 0.66 1.30 1.13 0.72 0.86 1.13 1.37 1.93 2.02 2.04 2.16 2.18 1.91 1.72 1.87 2.36 2.69 2.60
0.62 0.84 0.98 1.06 1.32 1.54 1.67 1.51 1.24 1.16 1.22 1.19 1.12 1.06 1.12 0.76 1.06 0.95 0.92 0.75 0.91 0.93 0.90 0.99 1.62 1.24 1.63 1.29 1.12 1.12 1.34 1.45 1.41 1.43 1.48 1.44 1.35 1.34 1.60 1.36 1.53 2.23 2.65
0.55 0.61 0.84 1.10 1.13 1.23 1.27 1.32 1.37 1.34 1.24 1.26 1.34 1.31 1.31 1.25 1.19 1.19 1.18 1.04 1.16 1.26 1.29 1.24 1.38 1.89 1.32 1.32 1.38 1.33 1.98 1.95 2.00 1.60 1.51 1.56 1.42 1.30 1.29 1.37 1.44 1.82 2.24
0.36 0.42 0.44 0.47 0.65 0.74 0.85 0.98 0.99 1.02 1.09 1.07 1.05 1.09 1.06 1.20 1.49 1.40 1.21 1.26 1.50 1.30 1.52 1.71 2.08 2.04 1.51 1.45 1.56 2.09 2.36 1.94 1.55 1.53 1.53 1.57 1.59 1.63 1.64 1.61 1.66 1.68 1.76
0.11 0.16 0.22 0.22 0.25 0.39 0.54 0.62 0.67 0.75 0.78 0.78 0.80 0.88 0.92 0.88 0.96 1.16 1.21 1.30 1.40 1.36 1.62 1.93 1.98 1.72 1.54 1.61 1.91 2.04 2.08 2.18 2.42 2.55 2.56 2.46 2.22 1.97 1.73 1.64 1.52 1.49 1.51
0.09 0.08 0.08 0.10 0.15 0.15 0.19 0.26 0.34 0.44 0.51 0.65 0.75 0.80 0.82 0.84 0.86 0.88 0.92 0.99 1.16 1.33 1.61 1.77 1.76 1.70 1.69 1.86 1.93 1.93 1.99 2.12 2.22 2.34 2.29 2.19 1.99 1.81 1.73 1.70 1.65 1.61 1.61
0.10 0.10 0.10 0.10 0.11 0.09 0.15 0.26 0.29 0.51 0.57 0.61 0.76 0.91 1.05 1.23 1.42 1.35 1.25 1.35 1.49 1.62 1.66 1.82 1.83 1.77 1.73 1.72 1.66 1.66 1.70 1.68 1.67 1.64 1.56 1.49 1.41 1.30 1.21 1.13 1.17 1.12 1.14
0.15 0.16 0.23 0.20 0.19 0.18 0.19 0.27 0.39 0.50 0.55 0.63 0.76 0.85 1.14 1.29 1.42 1.36 1.37 1.39 1.42 1.42 1.49 1.51 1.53 1.49 1.45 1.40 1.31 1.22 1.09 1.02 0.94 0.86 0.80 0.73 0.69 0.66 0.60 0.53 0.59 0.61 0.60
0.33 0.31 0.32 0.36 0.36 0.34 0.36 0.38 0.49 0.69 0.74 0.91 1.00 1.06 1.05 1.26 1.23 1.17 1.09 1.04 1.05 0.99 1.08 1.06 1.03 0.94 0.83 0.71 0.65 0.61 0.61 0.55 0.46 0.44 0.42 0.35 0.29 0.24 0.21 0.22 0.21 0.20 0.20
0.72 0.77 0.73 0.76 0.81 0.86 0.92 1.04 1.15 1.25 1.37 1.60 1.57 1.38 1.29 1.19 1.12 1.05 0.94 0.81 0.81 0.68 0.62 0.57 0.54 0.46 0.39 0.36 0.33 0.31 0.30 0.25 0.21 0.17 0.16 0.17 0.19 0.22 0.23 0.18 0.16 0.17 0.17
0.78 1.00 1.09 1.13 1.21 1.25 1.23 1.23 1.21 1.15 1.09 1.09 1.01 0.91 0.89 0.77 0.65 0.61 0.54 0.60 0.54 0.46 0.39 0.37 0.35 0.34 0.34 0.32 0.33 0.31 0.35 0.33 0.31 0.32 0.31 0.34 0.35 0.38 0.35 0.32 0.30 0.23 0.22
0.92 1.07 1.08 1.11 1.12 1.06 0.97 0.85 0.76 0.73 0.66 0.62 0.60 0.60 0.53 0.44 0.45 0.43 0.41 0.42 0.40 0.38 0.32 0.31 0.29 0.28 0.27 0.27 0.27 0.28 0.28 0.27 0.27 0.27 0.24 0.23 0.23 0.24 0.25 0.22 0.20 0.21 0.16
0.81 0.80 0.75 0.68 0.65 0.64 0.62 0.58 0.55 0.52 0.53 0.47 0.49 0.46 0.35 0.35 0.38 0.32 0.29 0.30 0.29 0.26 0.26 0.22 0.20 0.20 0.18 0.19 0.19 0.20 0.19 0.19 0.21 0.27 0.24 0.25 0.28 0.26 0.23 0.23 0.19 0.16 0.14
0.45 0.41 0.37 0.36 0.36 0.35 0.33 0.31 0.31 0.29 0.28 0.27 0.26 0.21 0.16 0.22 0.26 0.27 0.29 0.28 0.27 0.25 0.23 0.22 0.20 0.17 0.16 0.21 0.22 0.24 0.21 0.20 0.19 0.21 0.16 0.16 0.18 0.20 0.21 0.20 0.19 0.17 0.15
0.21 0.23 0.23 0.23 0.23 0.21 0.20 0.21 0.24 0.27 0.29 0.30 0.29 0.30 0.29 0.33 0.31 0.29 0.30 0.28 0.24 0.25 0.23 0.25 0.26 0.21 0.19 0.24 0.29 0.29 0.27 0.21 0.22 0.30 0.27 0.21 0.18 0.17 0.20 0.19 0.19 0.20 0.18
0.15 0.16 0.16 0.16 0.17 0.19 0.24 0.28 0.31 0.29 0.29 0.32 0.35 0.35 0.32 0.33 0.35 0.34 0.31 0.31 0.29 0.27 0.27 0.30 0.28 0.24 0.21 0.20 0.22 0.23 0.24 0.24 0.29 0.30 0.32 0.33 0.24 0.20 0.22 0.20 0.18 0.19 0.19
0.14 0.18 0.22 0.26 0.29 0.30 0.28 0.25 0.26 0.29 0.35 0.36 0.34 0.30 0.25 0.24 0.22 0.21 0.20 0.18 0.17 0.17 0.16 0.17 0.17 0.15 0.13 0.16 0.16 0.17 0.16 0.18 0.22 0.23 0.31 0.31 0.25 0.24 0.25 0.25 0.22 0.23 0.19
0.12 0.17 0.20 0.21 0.22 0.24 0.29 0.34 0.36 0.33 0.32 0.28 0.27 0.25 0.23 0.20 0.16 0.14 0.13 0.11 0.13 0.11 0.11 0.13 0.13 0.10 0.10 0.13 0.14 0.16 0.14 0.11 0.15 0.18 0.27 0.29 0.28 0.27 0.28 0.26 0.25 0.30 0.21

GFSGL_prec_precacc_153.txt.gz
Total_Precipitation_Accumulation
1.21 1.13 0.85 1.10 1.08 1.43 1.59 1.97 2.66 2.51 2.62 3.32 3.31 2.75 2.51 2.06 1.99 1.86 1.50 1.30 1.38 1.81 1.88 1.85 1.87 1.82 2.09 2.12 2.00 1.91 1.74 1.79 1.62 0.86 0.78 0.69 0.58 0.53 0.48 0.58 0.59 0.52 0.43
2.58 2.54 1.68 1.79 1.77 1.64 1.83 1.87 1.87 2.14 2.32 2.21 2.46 2.86 2.57 2.52 2.14 2.07 1.94 1.86 1.87 1.73 1.72 2.00 2.19 2.01 1.86 1.63 1.70 1.97 1.81 1.61 1.84 1.57 1.37 1.33 1.09 0.86 0.81 0.76 0.68 0.67 0.67
3.02 3.11 2.12 2.27 2.03 2.02 2.11 1.93 1.59 1.47 1.42 1.55 1.84 1.99 2.12 2.51 2.37 2.29 1.93 1.55 1.80 1.81 1.87 1.83 1.84 2.05 2.08 1.83 1.66 1.50 1.44 1.52 1.51 1.56 1.50 1.58 1.69 1.32 1.34 1.53 1.53 1.33 1.34
2.02 2.48 2.35 2.17 2.46 1.83 1.56 1.77 1.87 1.55 1.49 1.43 1.43 1.63 1.82 1.77 2.03 2.25 2.40 2.10 1.73 1.53 1.46 1.67 1.69 1.75 1.99 2.07 2.07 1.97 1.76 1.66 1.49 1.58 1.68 1.70 1.69 1.73 1.63 1.67 2.14 2.00 1.59
1.30 1.38 1.65 2.10 2.16 1.99 2.03 2.08 1.85 1.90 2.03 1.80 1.67 1.44 1.45 1.79 2.16 2.09 2.13 2.14 2.02 2.01 1.70 1.51 1.76 2.03 2.00 1.87 2.03 2.19 2.26 2.22 2.29 2.21 2.15 2.25 1.94 1.37 1.39 1.52 1.90 1.89 1.91
0.72 0.89 0.81 0.71 0.89 1.22 1.37 1.32 1.07 1.40 1.74 1.55 1.79 1.38 1.31 1.24 1.93 2.08 2.10 2.13 2.02 2.02 2.19 1.99 1.92 2.19 2.12 2.24 2.28 2.16 2.11 2.32 2.33 2.23 2.24 2.18 2.02 2.02 1.85 1.78 1.98 2.23 2.11
0.66 0.77 0.72 0.63 0.71 0.67 0.87 0.96 1.03 0.99 1.31 1.42 1.49 1.33 1.01 0.86 1.16 1.13 1.39 1.44 1.76 1.97 1.96 2.02 1.91 1.92 1.83 1.49 1.85 1.89 1.86 2.06 2.22 2.11 2.14 2.12 2.12 2.12 2.09 2.22 2.19 2.28 2.37
0.86 0.89 0.94 0.83 0.75 0.74 0.82 0.83 1.22 1.61 1.37 1.13 1.05 0.96 0.94 0.97 1.00 0.91 1.04 0.78 0.82 0.87 0.83 0.79 0.76 0.80 1.21 1.25 1.20 1.53 1.82 2.15 2.41 2.54 2.77 3.00 2.94 2.63 2.53 2.44 2.28 2.24 2.08
0.84 0.94 0.96 1.05 1.15 1.10 1.09 1.27 1.31 1.23 1.07 0.97 0.88 0.86 0.77 0.72 0.98 0.82 0.81 0.56 0.70 0.76 0.73 0.79 0.87 0.66 1.30 1.13 0.72 0.86 1.13 1.37 1.93 2.02 2.05 2.17 2.22 2.00 1.82 1.96 2.46 2.82 2.73
0.62 0.84 0.98 1.06 1.32 1.54 1.67 1.51 1.24 1.16 1.23 1.19 1.12 1.06 1.12 0.76 1.06 0.95 0.92 0.75 0.91 0.93 0.90 0.99 1.62 1.24 1.63 1.29 1.12 1.12 1.34 1.45 1.41 1.43 1.48 1.45 1.35 1.35 1.64 1.41 1.59 2.31 2.79
0.55 0.61 0.84 1.10 1.13 1.23 1.27 1.32 1.37 1.34 1.24 1.26 1.34 1.31 1.31 1.25 1.19 1.19 1.18 1.04 1.17 1.26 1.29 1.24 1.38 1.89 1.32 1.32 1.38 1.33 1.99 1.95 2.00 1.60 1.51 1.56 1.43 1.30 1.29 1.38 1.46 1.84 2.26
0.36 0.42 0.44 0.47 0.65 0.74 0.85 0.98 0.99 1.02 1.09 1.07 1.05 1.09 1.06 1.20 1.49 1.40 1.21 1.26 1.50 1.31 1.52 1.71 2.08 2.04 1.51 1.45 1.56 2.09 2.36 1.94 1.55 1.53 1.53 1.57 1.59 1.63 1.64 1.61 1.66 1.69 1.77
0.11 0.16 0.22 0.22 0.25 0.39 0.54 0.62 0.67 0.75 0.78 0.78 0.80 0.88 0.92 0.88 0.96 1.16 1.21 1.30 1.40 1.36 1.62 1.93 1.98 1.72 1.54 1.61 1.91 2.04 2.08 2.18 2.42 2.55 2.56 2.46 2.22 1.97 1.73 1.64 1.52 1.49 1.51
0.09 0.08 0.08 0.10 0.15 0.15 0.19 0.26 0.34 0.44 0.51 0.65 0.75 0.80 0.82 0.84 0.86 0.88 0.92 0.99 1.16 1.33 1.61 1.77 1.76 1.70 1.69 1.86 1.93 1.93 1.99 2.12 2.22 2.34 2.29 2.19 1.99 1.81 1.73 1.70 1.65 1.61 1.61
0.10 0.10 0.10 0.10 0.11 0.09 0.15 0.26 0.29 0.51 0.57 0.61 0.76 0.91 1.05 1.23 1.42 1.35 1.25 1.35 1.49 1.62 1.66 1.82 1.83 1.77 1.73 1.72 1.66 1.66 1.70 1.68 1.67 1.64 1.56 1.49 1.41 1.30 1.21 1.13 1.17 1.12 1.14
0.15 0.16 0.23 0.20 0.19 0.18 0.19 0.27 0.39 0.50 0.55 0.63 0.76 0.85 1.14 1.29 1.42 1.36 1.37 1.39 1.42 1.42 1.49 1.51 1.53 1.49 1.45 1.40 1.32 1.22 1.09 1.02 0.94 0.86 0.80 0.73 0.69 0.66 0.60 0.53 0.59 0.61 0.60
0.33 0.31 0.32 0.36 0.36 0.34 0.36 0.38 0.49 0.69 0.74 0.91 1.00 1.06 1.05 1.26 1.23 1.17 1.09 1.04 1.05 0.99 1.08 1.06 1.03 0.94 0.83 0.71 0.66 0.62 0.62 0.55 0.46 0.44 0.42 0.35 0.29 0.24 0.21 0.22 0.21 0.20 0.20
0.72 0.77 0.73 0.76 0.81 0.86 0.92 1.04 1.15 1.25 1.38 1.61 1.58 1.38 1.29 1.19 1.12 1.05 0.94 0.81 0.81 0.68 0.62 0.57 0.54 0.46 0.39 0.36 0.33 0.31 0.31 0.26 0.22 0.17 0.16 0.17 0.19 0.22 0.23 0.18 0.16 0.17 0.17
0.78 1.00 1.09 1.13 1.21 1.25 1.23 1.23 1.21 1.15 1.09 1.09 1.02 0.91 0.89 0.77 0.65 0.61 0.54 0.60 0.54 0.46 0.39 0.37 0.35 0.34 0.34 0.32 0.33 0.31 0.35 0.33 0.32 0.34 0.31 0.34 0.35 0.38 0.35 0.32 0.30 0.23 0.22
0.92 1.07 1.08 1.11 1.12 1.06 0.97 0.85 0.76 0.73 0.66 0.62 0.60 0.60 0.53 0.44 0.45 0.43 0.41 0.42 0.40 0.38 0.32 0.31 0.29 0.28 0.27 0.27 0.27 0.28 0.28 0.27 0.27 0.29 0.25 0.23 0.23 0.24 0.25 0.22 0.20 0.21 0.16
0.81 0.80 0.75 0.68 0.65 0.64 0.62 0.58 0.55 0.52 0.53 0.47 0.49 0.46 0.35 0.35 0.38 0.32 0.29 0.30 0.29 0.26 0.26 0.22 0.20 0.20 0.18 0.19 0.19 0.20 0.19 0.19 0.21 0.29 0.25 0.25 0.28 0.26 0.23 0.23 0.19 0.16 0.14
0.45 0.41 0.37 0.36 0.36 0.35 0.33 0.31 0.31 0.29 0.28 0.27 0.26 0.21 0.16 0.22 0.26 0.27 0.29 0.28 0.27 0.25 0.23 0.22 0.20 0.17 0.17 0.21 0.22 0.24 0.21 0.20 0.19 0.22 0.17 0.16 0.18 0.20 0.21 0.20 0.19 0.17 0.15
0.21 0.23 0.23 0.23 0.23 0.21 0.20 0.21 0.24 0.27 0.29 0.30 0.29 0.30 0.29 0.33 0.31 0.29 0.30 0.28 0.24 0.25 0.23 0.25 0.26 0.21 0.20 0.24 0.29 0.29 0.27 0.21 0.23 0.32 0.27 0.21 0.18 0.17 0.20 0.19 0.19 0.20 0.18
0.15 0.16 0.16 0.16 0.17 0.19 0.24 0.28 0.31 0.29 0.29 0.32 0.35 0.35 0.32 0.33 0.35 0.34 0.31 0.31 0.29 0.27 0.27 0.30 0.28 0.25 0.21 0.20 0.22 0.23 0.24 0.24 0.29 0.31 0.32 0.33 0.24 0.20 0.22 0.20 0.18 0.19 0.19
0.14 0.18 0.22 0.26 0.29 0.30 0.28 0.25 0.26 0.29 0.35 0.36 0.34 0.30 0.25 0.24 0.22 0.21 0.20 0.18 0.17 0.17 0.16 0.17 0.17 0.15 0.13 0.16 0.16 0.17 0.17 0.18 0.22 0.23 0.31 0.31 0.25 0.24 0.25 0.25 0.22 0.23 0.19
0.12 0.17 0.20 0.21 0.22 0.24 0.29 0.34 0.36 0.33 0.32 0.28 0.27 0.25 0.23 0.20 0.16 0.14 0.13 0.12 0.13 0.11 0.11 0.13 0.13 0.10 0.10 0.13 0.14 0.17 0.14 0.11 0.15 0.18 0.27 0.29 0.28 0.27 0.28 0.26 0.25 0.30 0.21